<?xml version="1.0" encoding="UTF-8" standalone="no" ?>
<gpx xmlns="http://www.topografix.com/GPX/1/1" xmlns:xsi="http://www.w3.org/2001/XMLSchema-instance" xsi:schemaLocation="http://www.topografix.com/GPX/1/1 http://www.topografix.com/GPX/1/1/gpx.xsd" version="1.1" creator="VisuGPX - https://www.visugpx.com">
  <metadata>
    <name>2020-07-12 11:14</name>
    <desc><![CDATA[
<p>Heure de départ: 11:17 12 juil. 2020<br/>Heure d'arrivée: 18:54 12 juil. 2020<br/>Distance: 77,3 km (07:37)<br/>Temps déplacement: 07:14<br/>Vitesse moyenne: 10,13 km/h<br/>Vitesse moyenne mouv.: 10,66 km/h<br/>Vitesse Max.: 53,47 km/h<br/>Altitude minimale: 280 m<br/>Altitude maximale: 821 m<br/>Vitesse de montée: 388,7 m/h<br/>Vitesse de descente: -328,9 m/h<br/>Gain d'altitude: 1275 m<br/>Perte d'altitude: -1321 m<br/>Temps de montée: 03:16<br/>Temps de descente: 04:01<br/></p><hr align="center" width="480" style="height: 2px; width: 517px"/>]]></desc>
  </metadata>
  <trk>
    <name><![CDATA[2020-07-12 11:14]]></name>
    <desc><![CDATA[<p>Heure de départ: 11:17 12 juil. 2020<br/>Heure d'arrivée: 18:54 12 juil. 2020<br/>Distance: 77,3 km (07:37)<br/>Temps déplacement: 07:14<br/>Vitesse moyenne: 10,13 km/h<br/>Vitesse moyenne mouv.: 10,66 km/h<br/>Vitesse Max.: 53,47 km/h<br/>Altitude minimale: 280 m<br/>Altitude maximale: 821 m<br/>Vitesse de montée: 388,7 m/h<br/>Vitesse de descente: -328,9 m/h<br/>Gain d'altitude: 1275 m<br/>Perte d'altitude: -1321 m<br/>Temps de montée: 03:16<br/>Temps de descente: 04:01<br/></p><hr align="center" width="480" style="height: 2px; width: 517px"/>]]></desc>
    <trkseg>
      <trkpt lat="46.17283" lon="3.43319">
        <ele>333.35</ele>
        <time>2020-07-12T09:17:01Z</time>
      </trkpt>
      <trkpt lat="46.17299" lon="3.43332">
        <ele>319.03</ele>
        <time>2020-07-12T09:17:09Z</time>
      </trkpt>
      <trkpt lat="46.17315" lon="3.43347">
        <ele>329.58</ele>
        <time>2020-07-12T09:17:15Z</time>
      </trkpt>
      <trkpt lat="46.1733" lon="3.43366">
        <ele>333.24</ele>
        <time>2020-07-12T09:17:21Z</time>
      </trkpt>
      <trkpt lat="46.17346" lon="3.43387">
        <ele>332.56</ele>
        <time>2020-07-12T09:17:26Z</time>
      </trkpt>
      <trkpt lat="46.17362" lon="3.43404">
        <ele>329.6</ele>
        <time>2020-07-12T09:17:31Z</time>
      </trkpt>
      <trkpt lat="46.17378" lon="3.43422">
        <ele>329.43</ele>
        <time>2020-07-12T09:17:37Z</time>
      </trkpt>
      <trkpt lat="46.17394" lon="3.43438">
        <ele>329.28</ele>
        <time>2020-07-12T09:17:43Z</time>
      </trkpt>
      <trkpt lat="46.17406" lon="3.43458">
        <ele>329.51</ele>
        <time>2020-07-12T09:17:47Z</time>
      </trkpt>
      <trkpt lat="46.1742" lon="3.43477">
        <ele>329.43</ele>
        <time>2020-07-12T09:17:53Z</time>
      </trkpt>
      <trkpt lat="46.17433" lon="3.435">
        <ele>329.38</ele>
        <time>2020-07-12T09:17:59Z</time>
      </trkpt>
      <trkpt lat="46.17444" lon="3.43524">
        <ele>329.49</ele>
        <time>2020-07-12T09:18:05Z</time>
      </trkpt>
      <trkpt lat="46.17446" lon="3.43557">
        <ele>332.26</ele>
        <time>2020-07-12T09:18:12Z</time>
      </trkpt>
      <trkpt lat="46.17449" lon="3.43583">
        <ele>332.72</ele>
        <time>2020-07-12T09:18:14Z</time>
      </trkpt>
      <trkpt lat="46.17453" lon="3.43616">
        <ele>333.55</ele>
        <time>2020-07-12T09:18:17Z</time>
      </trkpt>
      <trkpt lat="46.17458" lon="3.43643">
        <ele>334.04</ele>
        <time>2020-07-12T09:18:19Z</time>
      </trkpt>
      <trkpt lat="46.17398" lon="3.43698">
        <ele>334.77</ele>
        <time>2020-07-12T09:18:34Z</time>
      </trkpt>
      <trkpt lat="46.17373" lon="3.4371">
        <ele>334.95</ele>
        <time>2020-07-12T09:18:36Z</time>
      </trkpt>
      <trkpt lat="46.17355" lon="3.43737">
        <ele>334.92</ele>
        <time>2020-07-12T09:18:38Z</time>
      </trkpt>
      <trkpt lat="46.17343" lon="3.43765">
        <ele>334.8</ele>
        <time>2020-07-12T09:18:41Z</time>
      </trkpt>
      <trkpt lat="46.17335" lon="3.43794">
        <ele>334.48</ele>
        <time>2020-07-12T09:18:46Z</time>
      </trkpt>
      <trkpt lat="46.17328" lon="3.43823">
        <ele>334.31</ele>
        <time>2020-07-12T09:18:54Z</time>
      </trkpt>
      <trkpt lat="46.17277" lon="3.43904">
        <ele>334.32</ele>
        <time>2020-07-12T09:19:59Z</time>
      </trkpt>
      <trkpt lat="46.17267" lon="3.43927">
        <ele>334.43</ele>
        <time>2020-07-12T09:20:01Z</time>
      </trkpt>
      <trkpt lat="46.17249" lon="3.43932">
        <ele>334.48</ele>
        <time>2020-07-12T09:20:08Z</time>
      </trkpt>
      <trkpt lat="46.1723" lon="3.43934">
        <ele>334.5</ele>
        <time>2020-07-12T09:20:17Z</time>
      </trkpt>
      <trkpt lat="46.1721" lon="3.43937">
        <ele>334.49</ele>
        <time>2020-07-12T09:20:26Z</time>
      </trkpt>
      <trkpt lat="46.17192" lon="3.43941">
        <ele>334.46</ele>
        <time>2020-07-12T09:20:34Z</time>
      </trkpt>
      <trkpt lat="46.17172" lon="3.43947">
        <ele>334.42</ele>
        <time>2020-07-12T09:20:42Z</time>
      </trkpt>
      <trkpt lat="46.17155" lon="3.43954">
        <ele>334.39</ele>
        <time>2020-07-12T09:20:50Z</time>
      </trkpt>
      <trkpt lat="46.17137" lon="3.43962">
        <ele>334.37</ele>
        <time>2020-07-12T09:20:56Z</time>
      </trkpt>
      <trkpt lat="46.17117" lon="3.43969">
        <ele>334.34</ele>
        <time>2020-07-12T09:21:06Z</time>
      </trkpt>
      <trkpt lat="46.17098" lon="3.43978">
        <ele>334.32</ele>
        <time>2020-07-12T09:21:14Z</time>
      </trkpt>
      <trkpt lat="46.17081" lon="3.4399">
        <ele>334.36</ele>
        <time>2020-07-12T09:21:24Z</time>
      </trkpt>
      <trkpt lat="46.17064" lon="3.44">
        <ele>334.46</ele>
        <time>2020-07-12T09:21:33Z</time>
      </trkpt>
      <trkpt lat="46.17047" lon="3.44011">
        <ele>334.62</ele>
        <time>2020-07-12T09:21:43Z</time>
      </trkpt>
      <trkpt lat="46.17028" lon="3.44018">
        <ele>334.74</ele>
        <time>2020-07-12T09:21:51Z</time>
      </trkpt>
      <trkpt lat="46.17011" lon="3.44024">
        <ele>334.88</ele>
        <time>2020-07-12T09:21:59Z</time>
      </trkpt>
      <trkpt lat="46.16992" lon="3.4403">
        <ele>335.07</ele>
        <time>2020-07-12T09:22:08Z</time>
      </trkpt>
      <trkpt lat="46.16972" lon="3.44032">
        <ele>335.33</ele>
        <time>2020-07-12T09:22:18Z</time>
      </trkpt>
      <trkpt lat="46.16954" lon="3.44028">
        <ele>335.62</ele>
        <time>2020-07-12T09:22:24Z</time>
      </trkpt>
      <trkpt lat="46.16934" lon="3.4403">
        <ele>336.24</ele>
        <time>2020-07-12T09:22:32Z</time>
      </trkpt>
      <trkpt lat="46.16914" lon="3.44039">
        <ele>336.87</ele>
        <time>2020-07-12T09:22:39Z</time>
      </trkpt>
      <trkpt lat="46.16895" lon="3.44048">
        <ele>337.58</ele>
        <time>2020-07-12T09:22:46Z</time>
      </trkpt>
      <trkpt lat="46.16877" lon="3.44056">
        <ele>338.32</ele>
        <time>2020-07-12T09:22:53Z</time>
      </trkpt>
      <trkpt lat="46.16861" lon="3.44068">
        <ele>339.15</ele>
        <time>2020-07-12T09:23:00Z</time>
      </trkpt>
      <trkpt lat="46.16846" lon="3.44087">
        <ele>340.26</ele>
        <time>2020-07-12T09:23:08Z</time>
      </trkpt>
      <trkpt lat="46.16836" lon="3.44114">
        <ele>341.33</ele>
        <time>2020-07-12T09:23:15Z</time>
      </trkpt>
      <trkpt lat="46.16824" lon="3.44137">
        <ele>342.5</ele>
        <time>2020-07-12T09:23:22Z</time>
      </trkpt>
      <trkpt lat="46.16814" lon="3.44159">
        <ele>343.83</ele>
        <time>2020-07-12T09:23:30Z</time>
      </trkpt>
      <trkpt lat="46.16806" lon="3.44183">
        <ele>345.15</ele>
        <time>2020-07-12T09:23:38Z</time>
      </trkpt>
      <trkpt lat="46.168" lon="3.44209">
        <ele>346.23</ele>
        <time>2020-07-12T09:23:45Z</time>
      </trkpt>
      <trkpt lat="46.16797" lon="3.44236">
        <ele>347.18</ele>
        <time>2020-07-12T09:23:51Z</time>
      </trkpt>
      <trkpt lat="46.16789" lon="3.44262">
        <ele>348.2</ele>
        <time>2020-07-12T09:23:57Z</time>
      </trkpt>
      <trkpt lat="46.16773" lon="3.44275">
        <ele>349.46</ele>
        <time>2020-07-12T09:24:04Z</time>
      </trkpt>
      <trkpt lat="46.16756" lon="3.44285">
        <ele>350.75</ele>
        <time>2020-07-12T09:24:11Z</time>
      </trkpt>
      <trkpt lat="46.16738" lon="3.44296">
        <ele>352.21</ele>
        <time>2020-07-12T09:24:19Z</time>
      </trkpt>
      <trkpt lat="46.16718" lon="3.44306">
        <ele>353.77</ele>
        <time>2020-07-12T09:24:28Z</time>
      </trkpt>
      <trkpt lat="46.16701" lon="3.44319">
        <ele>355.06</ele>
        <time>2020-07-12T09:24:36Z</time>
      </trkpt>
      <trkpt lat="46.16684" lon="3.44333">
        <ele>355.97</ele>
        <time>2020-07-12T09:24:42Z</time>
      </trkpt>
      <trkpt lat="46.16666" lon="3.44349">
        <ele>357.02</ele>
        <time>2020-07-12T09:24:48Z</time>
      </trkpt>
      <trkpt lat="46.16648" lon="3.44361">
        <ele>359.53</ele>
        <time>2020-07-12T09:24:54Z</time>
      </trkpt>
      <trkpt lat="46.16631" lon="3.44374">
        <ele>360.29</ele>
        <time>2020-07-12T09:25:00Z</time>
      </trkpt>
      <trkpt lat="46.16614" lon="3.44386">
        <ele>361.81</ele>
        <time>2020-07-12T09:25:06Z</time>
      </trkpt>
      <trkpt lat="46.16595" lon="3.44398">
        <ele>364.05</ele>
        <time>2020-07-12T09:25:12Z</time>
      </trkpt>
      <trkpt lat="46.16577" lon="3.44409">
        <ele>365.88</ele>
        <time>2020-07-12T09:25:17Z</time>
      </trkpt>
      <trkpt lat="46.1656" lon="3.44419">
        <ele>366.69</ele>
        <time>2020-07-12T09:25:22Z</time>
      </trkpt>
      <trkpt lat="46.1654" lon="3.44432">
        <ele>367.64</ele>
        <time>2020-07-12T09:25:27Z</time>
      </trkpt>
      <trkpt lat="46.16523" lon="3.44443">
        <ele>368.2</ele>
        <time>2020-07-12T09:25:32Z</time>
      </trkpt>
      <trkpt lat="46.16506" lon="3.44461">
        <ele>368.84</ele>
        <time>2020-07-12T09:25:38Z</time>
      </trkpt>
      <trkpt lat="46.16489" lon="3.44476">
        <ele>369.5</ele>
        <time>2020-07-12T09:25:43Z</time>
      </trkpt>
      <trkpt lat="46.16473" lon="3.4449">
        <ele>370.67</ele>
        <time>2020-07-12T09:25:48Z</time>
      </trkpt>
      <trkpt lat="46.16456" lon="3.44506">
        <ele>371.04</ele>
        <time>2020-07-12T09:25:54Z</time>
      </trkpt>
      <trkpt lat="46.16441" lon="3.44522">
        <ele>371.74</ele>
        <time>2020-07-12T09:25:59Z</time>
      </trkpt>
      <trkpt lat="46.16426" lon="3.44539">
        <ele>373.02</ele>
        <time>2020-07-12T09:26:04Z</time>
      </trkpt>
      <trkpt lat="46.16409" lon="3.44552">
        <ele>373.55</ele>
        <time>2020-07-12T09:26:10Z</time>
      </trkpt>
      <trkpt lat="46.16394" lon="3.44568">
        <ele>373.81</ele>
        <time>2020-07-12T09:26:16Z</time>
      </trkpt>
      <trkpt lat="46.16377" lon="3.44577">
        <ele>374.1</ele>
        <time>2020-07-12T09:26:21Z</time>
      </trkpt>
      <trkpt lat="46.16359" lon="3.44581">
        <ele>375.2</ele>
        <time>2020-07-12T09:26:25Z</time>
      </trkpt>
      <trkpt lat="46.16338" lon="3.44585">
        <ele>376.46</ele>
        <time>2020-07-12T09:26:30Z</time>
      </trkpt>
      <trkpt lat="46.16319" lon="3.44592">
        <ele>377.26</ele>
        <time>2020-07-12T09:26:35Z</time>
      </trkpt>
      <trkpt lat="46.16299" lon="3.44601">
        <ele>377.97</ele>
        <time>2020-07-12T09:26:40Z</time>
      </trkpt>
      <trkpt lat="46.1628" lon="3.44607">
        <ele>378.35</ele>
        <time>2020-07-12T09:26:45Z</time>
      </trkpt>
      <trkpt lat="46.16262" lon="3.44612">
        <ele>378.47</ele>
        <time>2020-07-12T09:26:51Z</time>
      </trkpt>
      <trkpt lat="46.16244" lon="3.44618">
        <ele>378.79</ele>
        <time>2020-07-12T09:26:57Z</time>
      </trkpt>
      <trkpt lat="46.16223" lon="3.44622">
        <ele>379.47</ele>
        <time>2020-07-12T09:27:03Z</time>
      </trkpt>
      <trkpt lat="46.16205" lon="3.44626">
        <ele>380</ele>
        <time>2020-07-12T09:27:08Z</time>
      </trkpt>
      <trkpt lat="46.16187" lon="3.4463">
        <ele>381.19</ele>
        <time>2020-07-12T09:27:12Z</time>
      </trkpt>
      <trkpt lat="46.16172" lon="3.44653">
        <ele>382.18</ele>
        <time>2020-07-12T09:27:16Z</time>
      </trkpt>
      <trkpt lat="46.16159" lon="3.44672">
        <ele>383.18</ele>
        <time>2020-07-12T09:27:20Z</time>
      </trkpt>
      <trkpt lat="46.16145" lon="3.44692">
        <ele>384.06</ele>
        <time>2020-07-12T09:27:24Z</time>
      </trkpt>
      <trkpt lat="46.16128" lon="3.44711">
        <ele>384.87</ele>
        <time>2020-07-12T09:27:28Z</time>
      </trkpt>
      <trkpt lat="46.16107" lon="3.44706">
        <ele>385.42</ele>
        <time>2020-07-12T09:27:33Z</time>
      </trkpt>
      <trkpt lat="46.16086" lon="3.447">
        <ele>385.76</ele>
        <time>2020-07-12T09:27:38Z</time>
      </trkpt>
      <trkpt lat="46.16066" lon="3.44695">
        <ele>385.98</ele>
        <time>2020-07-12T09:27:42Z</time>
      </trkpt>
      <trkpt lat="46.16044" lon="3.44692">
        <ele>386.26</ele>
        <time>2020-07-12T09:27:46Z</time>
      </trkpt>
      <trkpt lat="46.16021" lon="3.44695">
        <ele>386.55</ele>
        <time>2020-07-12T09:27:50Z</time>
      </trkpt>
      <trkpt lat="46.16001" lon="3.44701">
        <ele>386.79</ele>
        <time>2020-07-12T09:27:54Z</time>
      </trkpt>
      <trkpt lat="46.15982" lon="3.44707">
        <ele>387.05</ele>
        <time>2020-07-12T09:27:58Z</time>
      </trkpt>
      <trkpt lat="46.15962" lon="3.44711">
        <ele>387.31</ele>
        <time>2020-07-12T09:28:02Z</time>
      </trkpt>
      <trkpt lat="46.15943" lon="3.44714">
        <ele>387.59</ele>
        <time>2020-07-12T09:28:06Z</time>
      </trkpt>
      <trkpt lat="46.1592" lon="3.44719">
        <ele>387.84</ele>
        <time>2020-07-12T09:28:10Z</time>
      </trkpt>
      <trkpt lat="46.15903" lon="3.44725">
        <ele>388.04</ele>
        <time>2020-07-12T09:28:13Z</time>
      </trkpt>
      <trkpt lat="46.15882" lon="3.44736">
        <ele>388.34</ele>
        <time>2020-07-12T09:28:17Z</time>
      </trkpt>
      <trkpt lat="46.15861" lon="3.4475">
        <ele>388.64</ele>
        <time>2020-07-12T09:28:21Z</time>
      </trkpt>
      <trkpt lat="46.15843" lon="3.4476">
        <ele>388.79</ele>
        <time>2020-07-12T09:28:24Z</time>
      </trkpt>
      <trkpt lat="46.15825" lon="3.44768">
        <ele>388.99</ele>
        <time>2020-07-12T09:28:27Z</time>
      </trkpt>
      <trkpt lat="46.15807" lon="3.44778">
        <ele>389.36</ele>
        <time>2020-07-12T09:28:30Z</time>
      </trkpt>
      <trkpt lat="46.15789" lon="3.4479">
        <ele>389.92</ele>
        <time>2020-07-12T09:28:33Z</time>
      </trkpt>
      <trkpt lat="46.15769" lon="3.44798">
        <ele>390.64</ele>
        <time>2020-07-12T09:28:36Z</time>
      </trkpt>
      <trkpt lat="46.15745" lon="3.44804">
        <ele>391.52</ele>
        <time>2020-07-12T09:28:39Z</time>
      </trkpt>
      <trkpt lat="46.15718" lon="3.44812">
        <ele>392.23</ele>
        <time>2020-07-12T09:28:42Z</time>
      </trkpt>
      <trkpt lat="46.15692" lon="3.4482">
        <ele>392.56</ele>
        <time>2020-07-12T09:28:45Z</time>
      </trkpt>
      <trkpt lat="46.15673" lon="3.44829">
        <ele>392.58</ele>
        <time>2020-07-12T09:28:47Z</time>
      </trkpt>
      <trkpt lat="46.15655" lon="3.44836">
        <ele>392.48</ele>
        <time>2020-07-12T09:28:49Z</time>
      </trkpt>
      <trkpt lat="46.15638" lon="3.4486">
        <ele>392.17</ele>
        <time>2020-07-12T09:28:52Z</time>
      </trkpt>
      <trkpt lat="46.15626" lon="3.44892">
        <ele>391.83</ele>
        <time>2020-07-12T09:28:55Z</time>
      </trkpt>
      <trkpt lat="46.1561" lon="3.44912">
        <ele>391.46</ele>
        <time>2020-07-12T09:28:57Z</time>
      </trkpt>
      <trkpt lat="46.15587" lon="3.44926">
        <ele>390.85</ele>
        <time>2020-07-12T09:28:59Z</time>
      </trkpt>
      <trkpt lat="46.15564" lon="3.4494">
        <ele>390.09</ele>
        <time>2020-07-12T09:29:01Z</time>
      </trkpt>
      <trkpt lat="46.15542" lon="3.44951">
        <ele>388.9</ele>
        <time>2020-07-12T09:29:04Z</time>
      </trkpt>
      <trkpt lat="46.15551" lon="3.4498">
        <ele>387.7</ele>
        <time>2020-07-12T09:29:10Z</time>
      </trkpt>
      <trkpt lat="46.15563" lon="3.45007">
        <ele>386.56</ele>
        <time>2020-07-12T09:29:14Z</time>
      </trkpt>
      <trkpt lat="46.15572" lon="3.45039">
        <ele>385.88</ele>
        <time>2020-07-12T09:29:18Z</time>
      </trkpt>
      <trkpt lat="46.15577" lon="3.45068">
        <ele>385.3</ele>
        <time>2020-07-12T09:29:22Z</time>
      </trkpt>
      <trkpt lat="46.15581" lon="3.45094">
        <ele>384.98</ele>
        <time>2020-07-12T09:29:26Z</time>
      </trkpt>
      <trkpt lat="46.15583" lon="3.45121">
        <ele>384.7</ele>
        <time>2020-07-12T09:29:31Z</time>
      </trkpt>
      <trkpt lat="46.15585" lon="3.45148">
        <ele>384.45</ele>
        <time>2020-07-12T09:29:36Z</time>
      </trkpt>
      <trkpt lat="46.15588" lon="3.45177">
        <ele>384.41</ele>
        <time>2020-07-12T09:29:42Z</time>
      </trkpt>
      <trkpt lat="46.15593" lon="3.45207">
        <ele>384.19</ele>
        <time>2020-07-12T09:29:47Z</time>
      </trkpt>
      <trkpt lat="46.15595" lon="3.45234">
        <ele>383.92</ele>
        <time>2020-07-12T09:29:51Z</time>
      </trkpt>
      <trkpt lat="46.15596" lon="3.45266">
        <ele>383.65</ele>
        <time>2020-07-12T09:29:55Z</time>
      </trkpt>
      <trkpt lat="46.15586" lon="3.45293">
        <ele>383.37</ele>
        <time>2020-07-12T09:29:58Z</time>
      </trkpt>
      <trkpt lat="46.15569" lon="3.45314">
        <ele>383.04</ele>
        <time>2020-07-12T09:30:01Z</time>
      </trkpt>
      <trkpt lat="46.15559" lon="3.45343">
        <ele>382.71</ele>
        <time>2020-07-12T09:30:04Z</time>
      </trkpt>
      <trkpt lat="46.15558" lon="3.4537">
        <ele>382.36</ele>
        <time>2020-07-12T09:30:06Z</time>
      </trkpt>
      <trkpt lat="46.15558" lon="3.45401">
        <ele>381.74</ele>
        <time>2020-07-12T09:30:09Z</time>
      </trkpt>
      <trkpt lat="46.15559" lon="3.45436">
        <ele>380.83</ele>
        <time>2020-07-12T09:30:12Z</time>
      </trkpt>
      <trkpt lat="46.15566" lon="3.45461">
        <ele>379.75</ele>
        <time>2020-07-12T09:30:14Z</time>
      </trkpt>
      <trkpt lat="46.15573" lon="3.45495">
        <ele>378.32</ele>
        <time>2020-07-12T09:30:16Z</time>
      </trkpt>
      <trkpt lat="46.15588" lon="3.45526">
        <ele>375.42</ele>
        <time>2020-07-12T09:30:19Z</time>
      </trkpt>
      <trkpt lat="46.15598" lon="3.45553">
        <ele>372.04</ele>
        <time>2020-07-12T09:30:22Z</time>
      </trkpt>
      <trkpt lat="46.15599" lon="3.4558">
        <ele>368.9</ele>
        <time>2020-07-12T09:30:25Z</time>
      </trkpt>
      <trkpt lat="46.15584" lon="3.45605">
        <ele>366.22</ele>
        <time>2020-07-12T09:30:28Z</time>
      </trkpt>
      <trkpt lat="46.15572" lon="3.45635">
        <ele>363.67</ele>
        <time>2020-07-12T09:30:31Z</time>
      </trkpt>
      <trkpt lat="46.15573" lon="3.45669">
        <ele>359.9</ele>
        <time>2020-07-12T09:30:35Z</time>
      </trkpt>
      <trkpt lat="46.15587" lon="3.45696">
        <ele>357.14</ele>
        <time>2020-07-12T09:30:38Z</time>
      </trkpt>
      <trkpt lat="46.15606" lon="3.45724">
        <ele>353.65</ele>
        <time>2020-07-12T09:30:41Z</time>
      </trkpt>
      <trkpt lat="46.15618" lon="3.45745">
        <ele>351.22</ele>
        <time>2020-07-12T09:30:43Z</time>
      </trkpt>
      <trkpt lat="46.15632" lon="3.45762">
        <ele>347.78</ele>
        <time>2020-07-12T09:30:46Z</time>
      </trkpt>
      <trkpt lat="46.15629" lon="3.4579">
        <ele>342.93</ele>
        <time>2020-07-12T09:30:52Z</time>
      </trkpt>
      <trkpt lat="46.15621" lon="3.45813">
        <ele>341.1</ele>
        <time>2020-07-12T09:30:55Z</time>
      </trkpt>
      <trkpt lat="46.15613" lon="3.45841">
        <ele>339.65</ele>
        <time>2020-07-12T09:30:59Z</time>
      </trkpt>
      <trkpt lat="46.15598" lon="3.45861">
        <ele>338.54</ele>
        <time>2020-07-12T09:31:03Z</time>
      </trkpt>
      <trkpt lat="46.15575" lon="3.45864">
        <ele>337.69</ele>
        <time>2020-07-12T09:31:07Z</time>
      </trkpt>
      <trkpt lat="46.15557" lon="3.45871">
        <ele>337.15</ele>
        <time>2020-07-12T09:31:10Z</time>
      </trkpt>
      <trkpt lat="46.15555" lon="3.45905">
        <ele>336.78</ele>
        <time>2020-07-12T09:31:14Z</time>
      </trkpt>
      <trkpt lat="46.15561" lon="3.45943">
        <ele>335.72</ele>
        <time>2020-07-12T09:31:17Z</time>
      </trkpt>
      <trkpt lat="46.15564" lon="3.45971">
        <ele>334.53</ele>
        <time>2020-07-12T09:31:19Z</time>
      </trkpt>
      <trkpt lat="46.15565" lon="3.45998">
        <ele>333.2</ele>
        <time>2020-07-12T09:31:21Z</time>
      </trkpt>
      <trkpt lat="46.15565" lon="3.46034">
        <ele>331.28</ele>
        <time>2020-07-12T09:31:24Z</time>
      </trkpt>
      <trkpt lat="46.15568" lon="3.46065">
        <ele>329.62</ele>
        <time>2020-07-12T09:31:27Z</time>
      </trkpt>
      <trkpt lat="46.1557" lon="3.46091">
        <ele>328.52</ele>
        <time>2020-07-12T09:31:31Z</time>
      </trkpt>
      <trkpt lat="46.15552" lon="3.46107">
        <ele>326.28</ele>
        <time>2020-07-12T09:31:39Z</time>
      </trkpt>
      <trkpt lat="46.15532" lon="3.46118">
        <ele>325.36</ele>
        <time>2020-07-12T09:31:45Z</time>
      </trkpt>
      <trkpt lat="46.15521" lon="3.46144">
        <ele>323.93</ele>
        <time>2020-07-12T09:31:49Z</time>
      </trkpt>
      <trkpt lat="46.15514" lon="3.46176">
        <ele>323.35</ele>
        <time>2020-07-12T09:31:53Z</time>
      </trkpt>
      <trkpt lat="46.15507" lon="3.46208">
        <ele>323.01</ele>
        <time>2020-07-12T09:31:57Z</time>
      </trkpt>
      <trkpt lat="46.15499" lon="3.46237">
        <ele>322.84</ele>
        <time>2020-07-12T09:32:01Z</time>
      </trkpt>
      <trkpt lat="46.15489" lon="3.46266">
        <ele>322.64</ele>
        <time>2020-07-12T09:32:05Z</time>
      </trkpt>
      <trkpt lat="46.15481" lon="3.4629">
        <ele>322.58</ele>
        <time>2020-07-12T09:32:09Z</time>
      </trkpt>
      <trkpt lat="46.15472" lon="3.46318">
        <ele>322.43</ele>
        <time>2020-07-12T09:32:13Z</time>
      </trkpt>
      <trkpt lat="46.15461" lon="3.46348">
        <ele>322.32</ele>
        <time>2020-07-12T09:32:17Z</time>
      </trkpt>
      <trkpt lat="46.15453" lon="3.46372">
        <ele>322.09</ele>
        <time>2020-07-12T09:32:20Z</time>
      </trkpt>
      <trkpt lat="46.15446" lon="3.46397">
        <ele>321.78</ele>
        <time>2020-07-12T09:32:23Z</time>
      </trkpt>
      <trkpt lat="46.15439" lon="3.46422">
        <ele>321.42</ele>
        <time>2020-07-12T09:32:26Z</time>
      </trkpt>
      <trkpt lat="46.15433" lon="3.46448">
        <ele>321.06</ele>
        <time>2020-07-12T09:32:29Z</time>
      </trkpt>
      <trkpt lat="46.15426" lon="3.46476">
        <ele>320.65</ele>
        <time>2020-07-12T09:32:32Z</time>
      </trkpt>
      <trkpt lat="46.15417" lon="3.46503">
        <ele>320.2</ele>
        <time>2020-07-12T09:32:35Z</time>
      </trkpt>
      <trkpt lat="46.15403" lon="3.46526">
        <ele>319.79</ele>
        <time>2020-07-12T09:32:38Z</time>
      </trkpt>
      <trkpt lat="46.1539" lon="3.46546">
        <ele>319.54</ele>
        <time>2020-07-12T09:32:41Z</time>
      </trkpt>
      <trkpt lat="46.15378" lon="3.46567">
        <ele>319.24</ele>
        <time>2020-07-12T09:32:44Z</time>
      </trkpt>
      <trkpt lat="46.15367" lon="3.46588">
        <ele>319.37</ele>
        <time>2020-07-12T09:32:47Z</time>
      </trkpt>
      <trkpt lat="46.15345" lon="3.46592">
        <ele>319.59</ele>
        <time>2020-07-12T09:32:52Z</time>
      </trkpt>
      <trkpt lat="46.15329" lon="3.46579">
        <ele>319.59</ele>
        <time>2020-07-12T09:32:56Z</time>
      </trkpt>
      <trkpt lat="46.15314" lon="3.46564">
        <ele>319.74</ele>
        <time>2020-07-12T09:33:00Z</time>
      </trkpt>
      <trkpt lat="46.15295" lon="3.46551">
        <ele>319.4</ele>
        <time>2020-07-12T09:33:05Z</time>
      </trkpt>
      <trkpt lat="46.15277" lon="3.46535">
        <ele>319.32</ele>
        <time>2020-07-12T09:33:11Z</time>
      </trkpt>
      <trkpt lat="46.15261" lon="3.46518">
        <ele>319.11</ele>
        <time>2020-07-12T09:33:16Z</time>
      </trkpt>
      <trkpt lat="46.15248" lon="3.465">
        <ele>318.87</ele>
        <time>2020-07-12T09:33:21Z</time>
      </trkpt>
      <trkpt lat="46.15238" lon="3.46473">
        <ele>318.93</ele>
        <time>2020-07-12T09:33:27Z</time>
      </trkpt>
      <trkpt lat="46.15223" lon="3.46458">
        <ele>318.97</ele>
        <time>2020-07-12T09:33:32Z</time>
      </trkpt>
      <trkpt lat="46.15207" lon="3.46445">
        <ele>319.01</ele>
        <time>2020-07-12T09:33:37Z</time>
      </trkpt>
      <trkpt lat="46.15188" lon="3.4643">
        <ele>319.03</ele>
        <time>2020-07-12T09:33:43Z</time>
      </trkpt>
      <trkpt lat="46.1517" lon="3.46418">
        <ele>319.04</ele>
        <time>2020-07-12T09:33:48Z</time>
      </trkpt>
      <trkpt lat="46.15152" lon="3.46405">
        <ele>319.02</ele>
        <time>2020-07-12T09:33:53Z</time>
      </trkpt>
      <trkpt lat="46.15135" lon="3.46392">
        <ele>319.01</ele>
        <time>2020-07-12T09:33:58Z</time>
      </trkpt>
      <trkpt lat="46.15119" lon="3.46375">
        <ele>319.01</ele>
        <time>2020-07-12T09:34:04Z</time>
      </trkpt>
      <trkpt lat="46.15107" lon="3.46355">
        <ele>319.03</ele>
        <time>2020-07-12T09:34:09Z</time>
      </trkpt>
      <trkpt lat="46.15095" lon="3.46329">
        <ele>319.11</ele>
        <time>2020-07-12T09:34:15Z</time>
      </trkpt>
      <trkpt lat="46.15076" lon="3.46315">
        <ele>319.22</ele>
        <time>2020-07-12T09:34:21Z</time>
      </trkpt>
      <trkpt lat="46.15057" lon="3.46307">
        <ele>319.26</ele>
        <time>2020-07-12T09:34:27Z</time>
      </trkpt>
      <trkpt lat="46.15037" lon="3.46314">
        <ele>319.33</ele>
        <time>2020-07-12T09:34:33Z</time>
      </trkpt>
      <trkpt lat="46.15021" lon="3.46328">
        <ele>319.47</ele>
        <time>2020-07-12T09:34:40Z</time>
      </trkpt>
      <trkpt lat="46.15003" lon="3.4634">
        <ele>319.65</ele>
        <time>2020-07-12T09:34:47Z</time>
      </trkpt>
      <trkpt lat="46.14988" lon="3.46353">
        <ele>319.79</ele>
        <time>2020-07-12T09:34:53Z</time>
      </trkpt>
      <trkpt lat="46.14972" lon="3.46369">
        <ele>319.99</ele>
        <time>2020-07-12T09:35:00Z</time>
      </trkpt>
      <trkpt lat="46.14956" lon="3.46386">
        <ele>320.22</ele>
        <time>2020-07-12T09:35:07Z</time>
      </trkpt>
      <trkpt lat="46.14937" lon="3.46398">
        <ele>320.47</ele>
        <time>2020-07-12T09:35:14Z</time>
      </trkpt>
      <trkpt lat="46.14921" lon="3.46408">
        <ele>320.71</ele>
        <time>2020-07-12T09:35:20Z</time>
      </trkpt>
      <trkpt lat="46.14902" lon="3.46414">
        <ele>321.02</ele>
        <time>2020-07-12T09:35:27Z</time>
      </trkpt>
      <trkpt lat="46.14883" lon="3.46417">
        <ele>321.34</ele>
        <time>2020-07-12T09:35:34Z</time>
      </trkpt>
      <trkpt lat="46.14865" lon="3.46419">
        <ele>321.66</ele>
        <time>2020-07-12T09:35:41Z</time>
      </trkpt>
      <trkpt lat="46.14845" lon="3.4642">
        <ele>321.93</ele>
        <time>2020-07-12T09:35:47Z</time>
      </trkpt>
      <trkpt lat="46.14827" lon="3.4642">
        <ele>322.21</ele>
        <time>2020-07-12T09:35:53Z</time>
      </trkpt>
      <trkpt lat="46.14807" lon="3.46416">
        <ele>322.5</ele>
        <time>2020-07-12T09:35:59Z</time>
      </trkpt>
      <trkpt lat="46.14789" lon="3.46412">
        <ele>322.73</ele>
        <time>2020-07-12T09:36:04Z</time>
      </trkpt>
      <trkpt lat="46.14768" lon="3.4641">
        <ele>323</ele>
        <time>2020-07-12T09:36:10Z</time>
      </trkpt>
      <trkpt lat="46.14747" lon="3.46406">
        <ele>323.65</ele>
        <time>2020-07-12T09:36:16Z</time>
      </trkpt>
      <trkpt lat="46.14728" lon="3.46406">
        <ele>323.91</ele>
        <time>2020-07-12T09:36:22Z</time>
      </trkpt>
      <trkpt lat="46.14711" lon="3.46411">
        <ele>324.15</ele>
        <time>2020-07-12T09:36:27Z</time>
      </trkpt>
      <trkpt lat="46.1469" lon="3.46418">
        <ele>324.87</ele>
        <time>2020-07-12T09:36:33Z</time>
      </trkpt>
      <trkpt lat="46.1467" lon="3.46421">
        <ele>325.49</ele>
        <time>2020-07-12T09:36:39Z</time>
      </trkpt>
      <trkpt lat="46.14649" lon="3.46425">
        <ele>325.76</ele>
        <time>2020-07-12T09:36:45Z</time>
      </trkpt>
      <trkpt lat="46.1463" lon="3.4643">
        <ele>326.22</ele>
        <time>2020-07-12T09:36:52Z</time>
      </trkpt>
      <trkpt lat="46.14619" lon="3.46454">
        <ele>326.93</ele>
        <time>2020-07-12T09:37:01Z</time>
      </trkpt>
      <trkpt lat="46.1461" lon="3.46481">
        <ele>328.82</ele>
        <time>2020-07-12T09:37:07Z</time>
      </trkpt>
      <trkpt lat="46.14596" lon="3.46504">
        <ele>331.19</ele>
        <time>2020-07-12T09:37:12Z</time>
      </trkpt>
      <trkpt lat="46.14576" lon="3.46523">
        <ele>332.57</ele>
        <time>2020-07-12T09:37:16Z</time>
      </trkpt>
      <trkpt lat="46.1456" lon="3.46534">
        <ele>333.21</ele>
        <time>2020-07-12T09:37:18Z</time>
      </trkpt>
      <trkpt lat="46.14543" lon="3.46547">
        <ele>334.14</ele>
        <time>2020-07-12T09:37:20Z</time>
      </trkpt>
      <trkpt lat="46.14525" lon="3.4656">
        <ele>335.32</ele>
        <time>2020-07-12T09:37:22Z</time>
      </trkpt>
      <trkpt lat="46.14508" lon="3.46573">
        <ele>336.82</ele>
        <time>2020-07-12T09:37:25Z</time>
      </trkpt>
      <trkpt lat="46.14509" lon="3.46601">
        <ele>339.21</ele>
        <time>2020-07-12T09:37:31Z</time>
      </trkpt>
      <trkpt lat="46.14519" lon="3.46624">
        <ele>341.29</ele>
        <time>2020-07-12T09:37:35Z</time>
      </trkpt>
      <trkpt lat="46.14523" lon="3.46649">
        <ele>342.48</ele>
        <time>2020-07-12T09:37:39Z</time>
      </trkpt>
      <trkpt lat="46.14527" lon="3.46677">
        <ele>343.43</ele>
        <time>2020-07-12T09:37:43Z</time>
      </trkpt>
      <trkpt lat="46.14534" lon="3.46707">
        <ele>344.17</ele>
        <time>2020-07-12T09:37:47Z</time>
      </trkpt>
      <trkpt lat="46.14545" lon="3.46734">
        <ele>344.58</ele>
        <time>2020-07-12T09:37:51Z</time>
      </trkpt>
      <trkpt lat="46.14556" lon="3.46756">
        <ele>344.69</ele>
        <time>2020-07-12T09:37:55Z</time>
      </trkpt>
      <trkpt lat="46.14567" lon="3.4678">
        <ele>344.69</ele>
        <time>2020-07-12T09:37:59Z</time>
      </trkpt>
      <trkpt lat="46.14577" lon="3.46804">
        <ele>344.72</ele>
        <time>2020-07-12T09:38:03Z</time>
      </trkpt>
      <trkpt lat="46.14587" lon="3.46831">
        <ele>344.7</ele>
        <time>2020-07-12T09:38:07Z</time>
      </trkpt>
      <trkpt lat="46.14584" lon="3.46859">
        <ele>344.59</ele>
        <time>2020-07-12T09:38:11Z</time>
      </trkpt>
      <trkpt lat="46.14575" lon="3.46886">
        <ele>344.5</ele>
        <time>2020-07-12T09:38:15Z</time>
      </trkpt>
      <trkpt lat="46.14578" lon="3.46912">
        <ele>344.38</ele>
        <time>2020-07-12T09:38:22Z</time>
      </trkpt>
      <trkpt lat="46.14594" lon="3.46924">
        <ele>344.18</ele>
        <time>2020-07-12T09:38:27Z</time>
      </trkpt>
      <trkpt lat="46.14585" lon="3.46957">
        <ele>344.03</ele>
        <time>2020-07-12T09:38:32Z</time>
      </trkpt>
      <trkpt lat="46.14574" lon="3.46981">
        <ele>343.89</ele>
        <time>2020-07-12T09:38:35Z</time>
      </trkpt>
      <trkpt lat="46.14566" lon="3.47006">
        <ele>343.75</ele>
        <time>2020-07-12T09:38:38Z</time>
      </trkpt>
      <trkpt lat="46.14558" lon="3.47036">
        <ele>343.53</ele>
        <time>2020-07-12T09:38:42Z</time>
      </trkpt>
      <trkpt lat="46.14556" lon="3.47064">
        <ele>343.37</ele>
        <time>2020-07-12T09:38:47Z</time>
      </trkpt>
      <trkpt lat="46.14547" lon="3.47087">
        <ele>343.36</ele>
        <time>2020-07-12T09:38:54Z</time>
      </trkpt>
      <trkpt lat="46.14535" lon="3.47108">
        <ele>343.42</ele>
        <time>2020-07-12T09:39:02Z</time>
      </trkpt>
      <trkpt lat="46.14523" lon="3.47128">
        <ele>343.53</ele>
        <time>2020-07-12T09:39:10Z</time>
      </trkpt>
      <trkpt lat="46.1451" lon="3.47151">
        <ele>343.67</ele>
        <time>2020-07-12T09:39:18Z</time>
      </trkpt>
      <trkpt lat="46.14499" lon="3.47172">
        <ele>343.79</ele>
        <time>2020-07-12T09:39:25Z</time>
      </trkpt>
      <trkpt lat="46.14488" lon="3.47196">
        <ele>343.93</ele>
        <time>2020-07-12T09:39:33Z</time>
      </trkpt>
      <trkpt lat="46.14471" lon="3.47215">
        <ele>344.07</ele>
        <time>2020-07-12T09:39:41Z</time>
      </trkpt>
      <trkpt lat="46.14461" lon="3.47237">
        <ele>344.17</ele>
        <time>2020-07-12T09:39:47Z</time>
      </trkpt>
      <trkpt lat="46.14468" lon="3.47264">
        <ele>344.3</ele>
        <time>2020-07-12T09:39:55Z</time>
      </trkpt>
      <trkpt lat="46.14487" lon="3.47275">
        <ele>344.81</ele>
        <time>2020-07-12T09:40:00Z</time>
      </trkpt>
      <trkpt lat="46.14505" lon="3.47288">
        <ele>344.95</ele>
        <time>2020-07-12T09:40:05Z</time>
      </trkpt>
      <trkpt lat="46.14523" lon="3.47309">
        <ele>345.25</ele>
        <time>2020-07-12T09:40:10Z</time>
      </trkpt>
      <trkpt lat="46.14535" lon="3.4733">
        <ele>345.39</ele>
        <time>2020-07-12T09:40:14Z</time>
      </trkpt>
      <trkpt lat="46.14547" lon="3.47352">
        <ele>345.5</ele>
        <time>2020-07-12T09:40:18Z</time>
      </trkpt>
      <trkpt lat="46.14561" lon="3.47371">
        <ele>345.59</ele>
        <time>2020-07-12T09:40:22Z</time>
      </trkpt>
      <trkpt lat="46.14577" lon="3.47387">
        <ele>345.64</ele>
        <time>2020-07-12T09:40:26Z</time>
      </trkpt>
      <trkpt lat="46.14593" lon="3.47401">
        <ele>345.68</ele>
        <time>2020-07-12T09:40:30Z</time>
      </trkpt>
      <trkpt lat="46.14599" lon="3.47433">
        <ele>345.7</ele>
        <time>2020-07-12T09:40:36Z</time>
      </trkpt>
      <trkpt lat="46.14589" lon="3.47462">
        <ele>345.75</ele>
        <time>2020-07-12T09:40:40Z</time>
      </trkpt>
      <trkpt lat="46.14571" lon="3.47472">
        <ele>345.8</ele>
        <time>2020-07-12T09:40:43Z</time>
      </trkpt>
      <trkpt lat="46.14551" lon="3.47482">
        <ele>345.85</ele>
        <time>2020-07-12T09:40:46Z</time>
      </trkpt>
      <trkpt lat="46.14531" lon="3.47479">
        <ele>345.9</ele>
        <time>2020-07-12T09:40:49Z</time>
      </trkpt>
      <trkpt lat="46.14511" lon="3.47475">
        <ele>345.68</ele>
        <time>2020-07-12T09:40:53Z</time>
      </trkpt>
      <trkpt lat="46.1449" lon="3.47471">
        <ele>345.46</ele>
        <time>2020-07-12T09:40:57Z</time>
      </trkpt>
      <trkpt lat="46.14473" lon="3.47456">
        <ele>345.57</ele>
        <time>2020-07-12T09:41:01Z</time>
      </trkpt>
      <trkpt lat="46.1446" lon="3.47436">
        <ele>345.84</ele>
        <time>2020-07-12T09:41:05Z</time>
      </trkpt>
      <trkpt lat="46.14438" lon="3.47426">
        <ele>345.56</ele>
        <time>2020-07-12T09:41:09Z</time>
      </trkpt>
      <trkpt lat="46.14417" lon="3.4742">
        <ele>345.01</ele>
        <time>2020-07-12T09:41:12Z</time>
      </trkpt>
      <trkpt lat="46.14398" lon="3.47414">
        <ele>344.46</ele>
        <time>2020-07-12T09:41:15Z</time>
      </trkpt>
      <trkpt lat="46.14381" lon="3.47405">
        <ele>344.16</ele>
        <time>2020-07-12T09:41:18Z</time>
      </trkpt>
      <trkpt lat="46.14363" lon="3.47394">
        <ele>343.79</ele>
        <time>2020-07-12T09:41:21Z</time>
      </trkpt>
      <trkpt lat="46.14346" lon="3.47382">
        <ele>343.59</ele>
        <time>2020-07-12T09:42:10Z</time>
      </trkpt>
      <trkpt lat="46.14326" lon="3.47365">
        <ele>343.56</ele>
        <time>2020-07-12T09:42:16Z</time>
      </trkpt>
      <trkpt lat="46.14309" lon="3.47353">
        <ele>343.46</ele>
        <time>2020-07-12T09:42:19Z</time>
      </trkpt>
      <trkpt lat="46.14283" lon="3.47346">
        <ele>343.34</ele>
        <time>2020-07-12T09:42:22Z</time>
      </trkpt>
      <trkpt lat="46.14259" lon="3.47341">
        <ele>343.18</ele>
        <time>2020-07-12T09:42:24Z</time>
      </trkpt>
      <trkpt lat="46.14239" lon="3.47333">
        <ele>342.91</ele>
        <time>2020-07-12T09:42:26Z</time>
      </trkpt>
      <trkpt lat="46.14217" lon="3.47323">
        <ele>342.52</ele>
        <time>2020-07-12T09:42:28Z</time>
      </trkpt>
      <trkpt lat="46.14198" lon="3.47314">
        <ele>341.95</ele>
        <time>2020-07-12T09:42:30Z</time>
      </trkpt>
      <trkpt lat="46.1418" lon="3.47305">
        <ele>341.19</ele>
        <time>2020-07-12T09:42:32Z</time>
      </trkpt>
      <trkpt lat="46.14156" lon="3.47294">
        <ele>339.79</ele>
        <time>2020-07-12T09:42:35Z</time>
      </trkpt>
      <trkpt lat="46.14132" lon="3.47302">
        <ele>338.75</ele>
        <time>2020-07-12T09:42:37Z</time>
      </trkpt>
      <trkpt lat="46.14108" lon="3.47313">
        <ele>337.62</ele>
        <time>2020-07-12T09:42:39Z</time>
      </trkpt>
      <trkpt lat="46.14088" lon="3.47323">
        <ele>336.39</ele>
        <time>2020-07-12T09:42:41Z</time>
      </trkpt>
      <trkpt lat="46.14066" lon="3.47329">
        <ele>335.13</ele>
        <time>2020-07-12T09:42:43Z</time>
      </trkpt>
      <trkpt lat="46.14048" lon="3.47338">
        <ele>333.69</ele>
        <time>2020-07-12T09:42:45Z</time>
      </trkpt>
      <trkpt lat="46.14032" lon="3.47361">
        <ele>331.94</ele>
        <time>2020-07-12T09:42:47Z</time>
      </trkpt>
      <trkpt lat="46.14021" lon="3.47387">
        <ele>330.1</ele>
        <time>2020-07-12T09:42:49Z</time>
      </trkpt>
      <trkpt lat="46.14011" lon="3.47412">
        <ele>328.29</ele>
        <time>2020-07-12T09:42:51Z</time>
      </trkpt>
      <trkpt lat="46.14002" lon="3.47437">
        <ele>326.56</ele>
        <time>2020-07-12T09:42:53Z</time>
      </trkpt>
      <trkpt lat="46.13995" lon="3.47461">
        <ele>325.06</ele>
        <time>2020-07-12T09:42:55Z</time>
      </trkpt>
      <trkpt lat="46.13987" lon="3.47487">
        <ele>323.1</ele>
        <time>2020-07-12T09:42:59Z</time>
      </trkpt>
      <trkpt lat="46.13968" lon="3.47494">
        <ele>321.81</ele>
        <time>2020-07-12T09:43:08Z</time>
      </trkpt>
      <trkpt lat="46.13949" lon="3.47485">
        <ele>319.57</ele>
        <time>2020-07-12T09:43:13Z</time>
      </trkpt>
      <trkpt lat="46.13931" lon="3.47478">
        <ele>317.73</ele>
        <time>2020-07-12T09:43:17Z</time>
      </trkpt>
      <trkpt lat="46.13912" lon="3.47484">
        <ele>316.92</ele>
        <time>2020-07-12T09:43:22Z</time>
      </trkpt>
      <trkpt lat="46.13894" lon="3.47496">
        <ele>315.82</ele>
        <time>2020-07-12T09:43:26Z</time>
      </trkpt>
      <trkpt lat="46.13875" lon="3.47494">
        <ele>315.1</ele>
        <time>2020-07-12T09:43:29Z</time>
      </trkpt>
      <trkpt lat="46.13859" lon="3.47474">
        <ele>314.45</ele>
        <time>2020-07-12T09:43:32Z</time>
      </trkpt>
      <trkpt lat="46.13839" lon="3.47452">
        <ele>313.8</ele>
        <time>2020-07-12T09:43:35Z</time>
      </trkpt>
      <trkpt lat="46.13816" lon="3.47444">
        <ele>313.15</ele>
        <time>2020-07-12T09:43:38Z</time>
      </trkpt>
      <trkpt lat="46.13803" lon="3.47424">
        <ele>311.55</ele>
        <time>2020-07-12T09:43:44Z</time>
      </trkpt>
      <trkpt lat="46.13792" lon="3.474">
        <ele>309.47</ele>
        <time>2020-07-12T09:43:48Z</time>
      </trkpt>
      <trkpt lat="46.13781" lon="3.4737">
        <ele>307.36</ele>
        <time>2020-07-12T09:43:52Z</time>
      </trkpt>
      <trkpt lat="46.13772" lon="3.47347">
        <ele>305.87</ele>
        <time>2020-07-12T09:43:55Z</time>
      </trkpt>
      <trkpt lat="46.1376" lon="3.47326">
        <ele>304.33</ele>
        <time>2020-07-12T09:43:57Z</time>
      </trkpt>
      <trkpt lat="46.13738" lon="3.47336">
        <ele>302.37</ele>
        <time>2020-07-12T09:44:01Z</time>
      </trkpt>
      <trkpt lat="46.13728" lon="3.47362">
        <ele>301.28</ele>
        <time>2020-07-12T09:44:04Z</time>
      </trkpt>
      <trkpt lat="46.13719" lon="3.47385">
        <ele>300.3</ele>
        <time>2020-07-12T09:44:07Z</time>
      </trkpt>
      <trkpt lat="46.13708" lon="3.47407">
        <ele>299.51</ele>
        <time>2020-07-12T09:44:10Z</time>
      </trkpt>
      <trkpt lat="46.13693" lon="3.47433">
        <ele>298.54</ele>
        <time>2020-07-12T09:44:14Z</time>
      </trkpt>
      <trkpt lat="46.1368" lon="3.47454">
        <ele>297.83</ele>
        <time>2020-07-12T09:44:18Z</time>
      </trkpt>
      <trkpt lat="46.13665" lon="3.47473">
        <ele>296.79</ele>
        <time>2020-07-12T09:44:22Z</time>
      </trkpt>
      <trkpt lat="46.13653" lon="3.47493">
        <ele>295.91</ele>
        <time>2020-07-12T09:44:26Z</time>
      </trkpt>
      <trkpt lat="46.1365" lon="3.47523">
        <ele>295.34</ele>
        <time>2020-07-12T09:44:31Z</time>
      </trkpt>
      <trkpt lat="46.13653" lon="3.4755">
        <ele>294.93</ele>
        <time>2020-07-12T09:44:35Z</time>
      </trkpt>
      <trkpt lat="46.13658" lon="3.47577">
        <ele>294.7</ele>
        <time>2020-07-12T09:44:39Z</time>
      </trkpt>
      <trkpt lat="46.13663" lon="3.47604">
        <ele>294.56</ele>
        <time>2020-07-12T09:44:43Z</time>
      </trkpt>
      <trkpt lat="46.13669" lon="3.47633">
        <ele>294.49</ele>
        <time>2020-07-12T09:44:47Z</time>
      </trkpt>
      <trkpt lat="46.13674" lon="3.47662">
        <ele>294.43</ele>
        <time>2020-07-12T09:44:51Z</time>
      </trkpt>
      <trkpt lat="46.13679" lon="3.47688">
        <ele>294.31</ele>
        <time>2020-07-12T09:44:55Z</time>
      </trkpt>
      <trkpt lat="46.13664" lon="3.47709">
        <ele>294.25</ele>
        <time>2020-07-12T09:45:00Z</time>
      </trkpt>
      <trkpt lat="46.13647" lon="3.47722">
        <ele>294.23</ele>
        <time>2020-07-12T09:45:06Z</time>
      </trkpt>
      <trkpt lat="46.13628" lon="3.47726">
        <ele>294.18</ele>
        <time>2020-07-12T09:45:14Z</time>
      </trkpt>
      <trkpt lat="46.13609" lon="3.4773">
        <ele>294.13</ele>
        <time>2020-07-12T09:45:21Z</time>
      </trkpt>
      <trkpt lat="46.1359" lon="3.47735">
        <ele>294.11</ele>
        <time>2020-07-12T09:45:29Z</time>
      </trkpt>
      <trkpt lat="46.13571" lon="3.47741">
        <ele>294.1</ele>
        <time>2020-07-12T09:45:37Z</time>
      </trkpt>
      <trkpt lat="46.13552" lon="3.4775">
        <ele>294.11</ele>
        <time>2020-07-12T09:45:45Z</time>
      </trkpt>
      <trkpt lat="46.13536" lon="3.47769">
        <ele>294.18</ele>
        <time>2020-07-12T09:45:56Z</time>
      </trkpt>
      <trkpt lat="46.13521" lon="3.47787">
        <ele>294.27</ele>
        <time>2020-07-12T09:46:04Z</time>
      </trkpt>
      <trkpt lat="46.13503" lon="3.47797">
        <ele>294.44</ele>
        <time>2020-07-12T09:46:13Z</time>
      </trkpt>
      <trkpt lat="46.13483" lon="3.478">
        <ele>294.6</ele>
        <time>2020-07-12T09:46:21Z</time>
      </trkpt>
      <trkpt lat="46.13466" lon="3.47812">
        <ele>294.77</ele>
        <time>2020-07-12T09:46:28Z</time>
      </trkpt>
      <trkpt lat="46.13451" lon="3.47828">
        <ele>295.07</ele>
        <time>2020-07-12T09:46:38Z</time>
      </trkpt>
      <trkpt lat="46.13437" lon="3.47848">
        <ele>295.4</ele>
        <time>2020-07-12T09:46:47Z</time>
      </trkpt>
      <trkpt lat="46.13421" lon="3.47861">
        <ele>295.8</ele>
        <time>2020-07-12T09:46:56Z</time>
      </trkpt>
      <trkpt lat="46.13405" lon="3.47879">
        <ele>296.97</ele>
        <time>2020-07-12T09:47:07Z</time>
      </trkpt>
      <trkpt lat="46.13391" lon="3.47898">
        <ele>298.47</ele>
        <time>2020-07-12T09:47:16Z</time>
      </trkpt>
      <trkpt lat="46.13378" lon="3.47918">
        <ele>300.57</ele>
        <time>2020-07-12T09:47:25Z</time>
      </trkpt>
      <trkpt lat="46.13363" lon="3.47938">
        <ele>302.96</ele>
        <time>2020-07-12T09:47:34Z</time>
      </trkpt>
      <trkpt lat="46.13348" lon="3.47956">
        <ele>305.12</ele>
        <time>2020-07-12T09:47:42Z</time>
      </trkpt>
      <trkpt lat="46.1333" lon="3.47968">
        <ele>307.75</ele>
        <time>2020-07-12T09:47:52Z</time>
      </trkpt>
      <trkpt lat="46.13312" lon="3.47977">
        <ele>309.7</ele>
        <time>2020-07-12T09:48:00Z</time>
      </trkpt>
      <trkpt lat="46.13294" lon="3.47985">
        <ele>311.93</ele>
        <time>2020-07-12T09:48:10Z</time>
      </trkpt>
      <trkpt lat="46.13275" lon="3.47989">
        <ele>313.78</ele>
        <time>2020-07-12T09:48:19Z</time>
      </trkpt>
      <trkpt lat="46.13254" lon="3.47992">
        <ele>315.55</ele>
        <time>2020-07-12T09:48:28Z</time>
      </trkpt>
      <trkpt lat="46.13233" lon="3.47998">
        <ele>317.29</ele>
        <time>2020-07-12T09:48:37Z</time>
      </trkpt>
      <trkpt lat="46.13214" lon="3.48004">
        <ele>318.59</ele>
        <time>2020-07-12T09:48:44Z</time>
      </trkpt>
      <trkpt lat="46.13196" lon="3.48013">
        <ele>320.43</ele>
        <time>2020-07-12T09:48:54Z</time>
      </trkpt>
      <trkpt lat="46.13178" lon="3.48021">
        <ele>322.01</ele>
        <time>2020-07-12T09:49:03Z</time>
      </trkpt>
      <trkpt lat="46.1316" lon="3.48029">
        <ele>323.33</ele>
        <time>2020-07-12T09:49:11Z</time>
      </trkpt>
      <trkpt lat="46.13141" lon="3.48038">
        <ele>324.78</ele>
        <time>2020-07-12T09:49:20Z</time>
      </trkpt>
      <trkpt lat="46.13122" lon="3.48044">
        <ele>326.2</ele>
        <time>2020-07-12T09:49:29Z</time>
      </trkpt>
      <trkpt lat="46.13103" lon="3.48044">
        <ele>327.71</ele>
        <time>2020-07-12T09:49:38Z</time>
      </trkpt>
      <trkpt lat="46.13083" lon="3.48047">
        <ele>329.03</ele>
        <time>2020-07-12T09:49:46Z</time>
      </trkpt>
      <trkpt lat="46.13069" lon="3.4803">
        <ele>330.82</ele>
        <time>2020-07-12T09:49:56Z</time>
      </trkpt>
      <trkpt lat="46.13063" lon="3.48004">
        <ele>332.1</ele>
        <time>2020-07-12T09:50:03Z</time>
      </trkpt>
      <trkpt lat="46.13059" lon="3.47978">
        <ele>333.23</ele>
        <time>2020-07-12T09:50:09Z</time>
      </trkpt>
      <trkpt lat="46.13055" lon="3.47951">
        <ele>334.42</ele>
        <time>2020-07-12T09:50:15Z</time>
      </trkpt>
      <trkpt lat="46.13051" lon="3.47922">
        <ele>341.2</ele>
        <time>2020-07-12T09:50:20Z</time>
      </trkpt>
      <trkpt lat="46.13048" lon="3.47892">
        <ele>344</ele>
        <time>2020-07-12T09:50:24Z</time>
      </trkpt>
      <trkpt lat="46.13042" lon="3.47867">
        <ele>345.21</ele>
        <time>2020-07-12T09:50:27Z</time>
      </trkpt>
      <trkpt lat="46.13035" lon="3.47836">
        <ele>346.2</ele>
        <time>2020-07-12T09:50:31Z</time>
      </trkpt>
      <trkpt lat="46.1303" lon="3.47807">
        <ele>346.79</ele>
        <time>2020-07-12T09:50:36Z</time>
      </trkpt>
      <trkpt lat="46.13012" lon="3.47811">
        <ele>346.95</ele>
        <time>2020-07-12T09:50:43Z</time>
      </trkpt>
      <trkpt lat="46.12993" lon="3.47815">
        <ele>347.14</ele>
        <time>2020-07-12T09:50:51Z</time>
      </trkpt>
      <trkpt lat="46.12978" lon="3.47829">
        <ele>347.44</ele>
        <time>2020-07-12T09:51:01Z</time>
      </trkpt>
      <trkpt lat="46.12962" lon="3.47846">
        <ele>347.74</ele>
        <time>2020-07-12T09:51:08Z</time>
      </trkpt>
      <trkpt lat="46.12944" lon="3.47855">
        <ele>348.1</ele>
        <time>2020-07-12T09:51:15Z</time>
      </trkpt>
      <trkpt lat="46.12925" lon="3.4785">
        <ele>348.47</ele>
        <time>2020-07-12T09:51:22Z</time>
      </trkpt>
      <trkpt lat="46.12905" lon="3.47847">
        <ele>348.94</ele>
        <time>2020-07-12T09:51:31Z</time>
      </trkpt>
      <trkpt lat="46.12887" lon="3.4784">
        <ele>349.37</ele>
        <time>2020-07-12T09:51:39Z</time>
      </trkpt>
      <trkpt lat="46.12867" lon="3.47845">
        <ele>349.82</ele>
        <time>2020-07-12T09:51:48Z</time>
      </trkpt>
      <trkpt lat="46.12848" lon="3.47848">
        <ele>350.26</ele>
        <time>2020-07-12T09:51:56Z</time>
      </trkpt>
      <trkpt lat="46.1283" lon="3.47854">
        <ele>350.7</ele>
        <time>2020-07-12T09:52:04Z</time>
      </trkpt>
      <trkpt lat="46.12811" lon="3.4786">
        <ele>351.24</ele>
        <time>2020-07-12T09:52:13Z</time>
      </trkpt>
      <trkpt lat="46.12791" lon="3.47859">
        <ele>351.98</ele>
        <time>2020-07-12T09:52:25Z</time>
      </trkpt>
      <trkpt lat="46.12772" lon="3.47856">
        <ele>352.83</ele>
        <time>2020-07-12T09:52:37Z</time>
      </trkpt>
      <trkpt lat="46.12753" lon="3.47861">
        <ele>353.6</ele>
        <time>2020-07-12T09:52:46Z</time>
      </trkpt>
      <trkpt lat="46.12733" lon="3.47864">
        <ele>354.51</ele>
        <time>2020-07-12T09:52:56Z</time>
      </trkpt>
      <trkpt lat="46.12715" lon="3.47866">
        <ele>355.65</ele>
        <time>2020-07-12T09:53:07Z</time>
      </trkpt>
      <trkpt lat="46.12695" lon="3.47864">
        <ele>356.86</ele>
        <time>2020-07-12T09:53:17Z</time>
      </trkpt>
      <trkpt lat="46.12677" lon="3.47867">
        <ele>358.63</ele>
        <time>2020-07-12T09:53:28Z</time>
      </trkpt>
      <trkpt lat="46.12657" lon="3.47868">
        <ele>360.54</ele>
        <time>2020-07-12T09:53:39Z</time>
      </trkpt>
      <trkpt lat="46.12639" lon="3.47876">
        <ele>362.21</ele>
        <time>2020-07-12T09:53:49Z</time>
      </trkpt>
      <trkpt lat="46.12621" lon="3.47878">
        <ele>364.07</ele>
        <time>2020-07-12T09:53:59Z</time>
      </trkpt>
      <trkpt lat="46.12604" lon="3.47887">
        <ele>366.25</ele>
        <time>2020-07-12T09:54:09Z</time>
      </trkpt>
      <trkpt lat="46.12599" lon="3.47914">
        <ele>369.49</ele>
        <time>2020-07-12T09:54:22Z</time>
      </trkpt>
      <trkpt lat="46.12596" lon="3.47942">
        <ele>372.24</ele>
        <time>2020-07-12T09:54:34Z</time>
      </trkpt>
      <trkpt lat="46.12593" lon="3.47968">
        <ele>375.03</ele>
        <time>2020-07-12T09:54:48Z</time>
      </trkpt>
      <trkpt lat="46.12591" lon="3.47994">
        <ele>377.28</ele>
        <time>2020-07-12T09:55:00Z</time>
      </trkpt>
      <trkpt lat="46.12588" lon="3.48023">
        <ele>379.72</ele>
        <time>2020-07-12T09:55:13Z</time>
      </trkpt>
      <trkpt lat="46.12587" lon="3.48049">
        <ele>381.51</ele>
        <time>2020-07-12T09:55:23Z</time>
      </trkpt>
      <trkpt lat="46.1258" lon="3.48073">
        <ele>383.22</ele>
        <time>2020-07-12T09:55:34Z</time>
      </trkpt>
      <trkpt lat="46.12568" lon="3.48094">
        <ele>385.21</ele>
        <time>2020-07-12T09:55:44Z</time>
      </trkpt>
      <trkpt lat="46.12562" lon="3.48119">
        <ele>386.91</ele>
        <time>2020-07-12T09:55:52Z</time>
      </trkpt>
      <trkpt lat="46.12558" lon="3.48147">
        <ele>389.66</ele>
        <time>2020-07-12T09:56:04Z</time>
      </trkpt>
      <trkpt lat="46.12559" lon="3.48174">
        <ele>392.57</ele>
        <time>2020-07-12T09:56:14Z</time>
      </trkpt>
      <trkpt lat="46.12559" lon="3.48201">
        <ele>395.89</ele>
        <time>2020-07-12T09:56:25Z</time>
      </trkpt>
      <trkpt lat="46.12554" lon="3.48226">
        <ele>398.83</ele>
        <time>2020-07-12T09:56:36Z</time>
      </trkpt>
      <trkpt lat="46.12549" lon="3.48252">
        <ele>401.85</ele>
        <time>2020-07-12T09:56:48Z</time>
      </trkpt>
      <trkpt lat="46.12542" lon="3.48278">
        <ele>403.94</ele>
        <time>2020-07-12T09:56:58Z</time>
      </trkpt>
      <trkpt lat="46.12537" lon="3.48305">
        <ele>405.92</ele>
        <time>2020-07-12T09:57:10Z</time>
      </trkpt>
      <trkpt lat="46.12531" lon="3.4833">
        <ele>407.47</ele>
        <time>2020-07-12T09:57:19Z</time>
      </trkpt>
      <trkpt lat="46.12522" lon="3.48355">
        <ele>409.83</ele>
        <time>2020-07-12T09:57:30Z</time>
      </trkpt>
      <trkpt lat="46.12515" lon="3.48381">
        <ele>411.67</ele>
        <time>2020-07-12T09:57:39Z</time>
      </trkpt>
      <trkpt lat="46.12508" lon="3.48405">
        <ele>413.65</ele>
        <time>2020-07-12T09:57:48Z</time>
      </trkpt>
      <trkpt lat="46.125" lon="3.48432">
        <ele>415.74</ele>
        <time>2020-07-12T09:57:58Z</time>
      </trkpt>
      <trkpt lat="46.12495" lon="3.48457">
        <ele>417.62</ele>
        <time>2020-07-12T09:58:07Z</time>
      </trkpt>
      <trkpt lat="46.12489" lon="3.48483">
        <ele>419.48</ele>
        <time>2020-07-12T09:58:16Z</time>
      </trkpt>
      <trkpt lat="46.12483" lon="3.48508">
        <ele>421.38</ele>
        <time>2020-07-12T09:58:26Z</time>
      </trkpt>
      <trkpt lat="46.12476" lon="3.48533">
        <ele>422.98</ele>
        <time>2020-07-12T09:58:35Z</time>
      </trkpt>
      <trkpt lat="46.12467" lon="3.48557">
        <ele>424.17</ele>
        <time>2020-07-12T09:58:42Z</time>
      </trkpt>
      <trkpt lat="46.12458" lon="3.48581">
        <ele>425.28</ele>
        <time>2020-07-12T09:58:49Z</time>
      </trkpt>
      <trkpt lat="46.12446" lon="3.48604">
        <ele>426.48</ele>
        <time>2020-07-12T09:58:57Z</time>
      </trkpt>
      <trkpt lat="46.1243" lon="3.48621">
        <ele>427.69</ele>
        <time>2020-07-12T09:59:05Z</time>
      </trkpt>
      <trkpt lat="46.12414" lon="3.48636">
        <ele>428.71</ele>
        <time>2020-07-12T09:59:12Z</time>
      </trkpt>
      <trkpt lat="46.12398" lon="3.4865">
        <ele>429.85</ele>
        <time>2020-07-12T09:59:20Z</time>
      </trkpt>
      <trkpt lat="46.12382" lon="3.48662">
        <ele>430.81</ele>
        <time>2020-07-12T09:59:27Z</time>
      </trkpt>
      <trkpt lat="46.12365" lon="3.48678">
        <ele>431.65</ele>
        <time>2020-07-12T09:59:33Z</time>
      </trkpt>
      <trkpt lat="46.12351" lon="3.48694">
        <ele>435.07</ele>
        <time>2020-07-12T09:59:38Z</time>
      </trkpt>
      <trkpt lat="46.12335" lon="3.48713">
        <ele>437</ele>
        <time>2020-07-12T09:59:43Z</time>
      </trkpt>
      <trkpt lat="46.12321" lon="3.48728">
        <ele>438.81</ele>
        <time>2020-07-12T09:59:47Z</time>
      </trkpt>
      <trkpt lat="46.12305" lon="3.48747">
        <ele>440.02</ele>
        <time>2020-07-12T09:59:51Z</time>
      </trkpt>
      <trkpt lat="46.12287" lon="3.48765">
        <ele>441.4</ele>
        <time>2020-07-12T09:59:56Z</time>
      </trkpt>
      <trkpt lat="46.1227" lon="3.48782">
        <ele>442.74</ele>
        <time>2020-07-12T10:00:01Z</time>
      </trkpt>
      <trkpt lat="46.12255" lon="3.48802">
        <ele>443.69</ele>
        <time>2020-07-12T10:00:06Z</time>
      </trkpt>
      <trkpt lat="46.12241" lon="3.48823">
        <ele>444.04</ele>
        <time>2020-07-12T10:00:12Z</time>
      </trkpt>
      <trkpt lat="46.1223" lon="3.48847">
        <ele>444.55</ele>
        <time>2020-07-12T10:00:18Z</time>
      </trkpt>
      <trkpt lat="46.12221" lon="3.4887">
        <ele>445.18</ele>
        <time>2020-07-12T10:00:24Z</time>
      </trkpt>
      <trkpt lat="46.12214" lon="3.48895">
        <ele>445.81</ele>
        <time>2020-07-12T10:00:30Z</time>
      </trkpt>
      <trkpt lat="46.12205" lon="3.48925">
        <ele>447.88</ele>
        <time>2020-07-12T10:00:36Z</time>
      </trkpt>
      <trkpt lat="46.12197" lon="3.48954">
        <ele>450.78</ele>
        <time>2020-07-12T10:00:40Z</time>
      </trkpt>
      <trkpt lat="46.12186" lon="3.48988">
        <ele>452.73</ele>
        <time>2020-07-12T10:00:43Z</time>
      </trkpt>
      <trkpt lat="46.12177" lon="3.49014">
        <ele>454.55</ele>
        <time>2020-07-12T10:00:46Z</time>
      </trkpt>
      <trkpt lat="46.12172" lon="3.4904">
        <ele>456.25</ele>
        <time>2020-07-12T10:00:50Z</time>
      </trkpt>
      <trkpt lat="46.12175" lon="3.4907">
        <ele>457.26</ele>
        <time>2020-07-12T10:00:54Z</time>
      </trkpt>
      <trkpt lat="46.12167" lon="3.49102">
        <ele>457.99</ele>
        <time>2020-07-12T10:00:58Z</time>
      </trkpt>
      <trkpt lat="46.12154" lon="3.4913">
        <ele>458.65</ele>
        <time>2020-07-12T10:01:02Z</time>
      </trkpt>
      <trkpt lat="46.12139" lon="3.49156">
        <ele>459.17</ele>
        <time>2020-07-12T10:01:06Z</time>
      </trkpt>
      <trkpt lat="46.12123" lon="3.49179">
        <ele>459.53</ele>
        <time>2020-07-12T10:01:10Z</time>
      </trkpt>
      <trkpt lat="46.12105" lon="3.492">
        <ele>459.88</ele>
        <time>2020-07-12T10:01:14Z</time>
      </trkpt>
      <trkpt lat="46.12088" lon="3.4922">
        <ele>460.29</ele>
        <time>2020-07-12T10:01:18Z</time>
      </trkpt>
      <trkpt lat="46.12069" lon="3.49239">
        <ele>460.7</ele>
        <time>2020-07-12T10:01:22Z</time>
      </trkpt>
      <trkpt lat="46.12051" lon="3.49259">
        <ele>461.06</ele>
        <time>2020-07-12T10:01:26Z</time>
      </trkpt>
      <trkpt lat="46.12033" lon="3.49277">
        <ele>461.41</ele>
        <time>2020-07-12T10:01:30Z</time>
      </trkpt>
      <trkpt lat="46.12014" lon="3.49297">
        <ele>461.65</ele>
        <time>2020-07-12T10:01:34Z</time>
      </trkpt>
      <trkpt lat="46.11995" lon="3.49317">
        <ele>461.78</ele>
        <time>2020-07-12T10:01:38Z</time>
      </trkpt>
      <trkpt lat="46.1198" lon="3.49339">
        <ele>461.92</ele>
        <time>2020-07-12T10:01:42Z</time>
      </trkpt>
      <trkpt lat="46.11967" lon="3.49363">
        <ele>462.09</ele>
        <time>2020-07-12T10:01:46Z</time>
      </trkpt>
      <trkpt lat="46.11953" lon="3.49388">
        <ele>462.21</ele>
        <time>2020-07-12T10:01:50Z</time>
      </trkpt>
      <trkpt lat="46.11939" lon="3.49414">
        <ele>462.32</ele>
        <time>2020-07-12T10:01:54Z</time>
      </trkpt>
      <trkpt lat="46.11926" lon="3.49443">
        <ele>462.44</ele>
        <time>2020-07-12T10:01:58Z</time>
      </trkpt>
      <trkpt lat="46.11913" lon="3.4947">
        <ele>462.57</ele>
        <time>2020-07-12T10:02:02Z</time>
      </trkpt>
      <trkpt lat="46.11904" lon="3.49493">
        <ele>462.68</ele>
        <time>2020-07-12T10:02:05Z</time>
      </trkpt>
      <trkpt lat="46.11891" lon="3.49522">
        <ele>462.82</ele>
        <time>2020-07-12T10:02:09Z</time>
      </trkpt>
      <trkpt lat="46.11881" lon="3.49545">
        <ele>462.91</ele>
        <time>2020-07-12T10:02:12Z</time>
      </trkpt>
      <trkpt lat="46.11868" lon="3.49573">
        <ele>463</ele>
        <time>2020-07-12T10:02:16Z</time>
      </trkpt>
      <trkpt lat="46.11858" lon="3.49595">
        <ele>463.09</ele>
        <time>2020-07-12T10:02:19Z</time>
      </trkpt>
      <trkpt lat="46.11848" lon="3.49616">
        <ele>463.15</ele>
        <time>2020-07-12T10:02:22Z</time>
      </trkpt>
      <trkpt lat="46.11838" lon="3.49639">
        <ele>463.21</ele>
        <time>2020-07-12T10:02:25Z</time>
      </trkpt>
      <trkpt lat="46.11827" lon="3.49661">
        <ele>463.31</ele>
        <time>2020-07-12T10:02:28Z</time>
      </trkpt>
      <trkpt lat="46.11813" lon="3.49681">
        <ele>463.49</ele>
        <time>2020-07-12T10:02:31Z</time>
      </trkpt>
      <trkpt lat="46.11796" lon="3.497">
        <ele>463.77</ele>
        <time>2020-07-12T10:02:34Z</time>
      </trkpt>
      <trkpt lat="46.11778" lon="3.49715">
        <ele>464.04</ele>
        <time>2020-07-12T10:02:37Z</time>
      </trkpt>
      <trkpt lat="46.11757" lon="3.49726">
        <ele>464.1</ele>
        <time>2020-07-12T10:02:40Z</time>
      </trkpt>
      <trkpt lat="46.11735" lon="3.49734">
        <ele>464.44</ele>
        <time>2020-07-12T10:02:43Z</time>
      </trkpt>
      <trkpt lat="46.11713" lon="3.49743">
        <ele>464.84</ele>
        <time>2020-07-12T10:02:46Z</time>
      </trkpt>
      <trkpt lat="46.11691" lon="3.49753">
        <ele>465.41</ele>
        <time>2020-07-12T10:02:49Z</time>
      </trkpt>
      <trkpt lat="46.11669" lon="3.49762">
        <ele>466.02</ele>
        <time>2020-07-12T10:02:52Z</time>
      </trkpt>
      <trkpt lat="46.11647" lon="3.49772">
        <ele>466.63</ele>
        <time>2020-07-12T10:02:55Z</time>
      </trkpt>
      <trkpt lat="46.11624" lon="3.49781">
        <ele>467.37</ele>
        <time>2020-07-12T10:02:58Z</time>
      </trkpt>
      <trkpt lat="46.11599" lon="3.49792">
        <ele>468.07</ele>
        <time>2020-07-12T10:03:01Z</time>
      </trkpt>
      <trkpt lat="46.11574" lon="3.49803">
        <ele>468.45</ele>
        <time>2020-07-12T10:03:04Z</time>
      </trkpt>
      <trkpt lat="46.11556" lon="3.4981">
        <ele>468.52</ele>
        <time>2020-07-12T10:03:06Z</time>
      </trkpt>
      <trkpt lat="46.11536" lon="3.49818">
        <ele>468.52</ele>
        <time>2020-07-12T10:03:08Z</time>
      </trkpt>
      <trkpt lat="46.11517" lon="3.49827">
        <ele>468.53</ele>
        <time>2020-07-12T10:03:10Z</time>
      </trkpt>
      <trkpt lat="46.11498" lon="3.49836">
        <ele>468.49</ele>
        <time>2020-07-12T10:03:12Z</time>
      </trkpt>
      <trkpt lat="46.1148" lon="3.49848">
        <ele>468.31</ele>
        <time>2020-07-12T10:03:14Z</time>
      </trkpt>
      <trkpt lat="46.11464" lon="3.49863">
        <ele>468.31</ele>
        <time>2020-07-12T10:03:16Z</time>
      </trkpt>
      <trkpt lat="46.11449" lon="3.49877">
        <ele>468.63</ele>
        <time>2020-07-12T10:03:18Z</time>
      </trkpt>
      <trkpt lat="46.11428" lon="3.49896">
        <ele>468.92</ele>
        <time>2020-07-12T10:03:21Z</time>
      </trkpt>
      <trkpt lat="46.11412" lon="3.4992">
        <ele>469.02</ele>
        <time>2020-07-12T10:03:24Z</time>
      </trkpt>
      <trkpt lat="46.11405" lon="3.49948">
        <ele>468.84</ele>
        <time>2020-07-12T10:03:27Z</time>
      </trkpt>
      <trkpt lat="46.11406" lon="3.49978">
        <ele>468.75</ele>
        <time>2020-07-12T10:03:30Z</time>
      </trkpt>
      <trkpt lat="46.11407" lon="3.50007">
        <ele>468.55</ele>
        <time>2020-07-12T10:03:33Z</time>
      </trkpt>
      <trkpt lat="46.11407" lon="3.50036">
        <ele>468.4</ele>
        <time>2020-07-12T10:03:36Z</time>
      </trkpt>
      <trkpt lat="46.11408" lon="3.50067">
        <ele>468.14</ele>
        <time>2020-07-12T10:03:39Z</time>
      </trkpt>
      <trkpt lat="46.11408" lon="3.50097">
        <ele>467.89</ele>
        <time>2020-07-12T10:03:42Z</time>
      </trkpt>
      <trkpt lat="46.11409" lon="3.50128">
        <ele>467.84</ele>
        <time>2020-07-12T10:03:45Z</time>
      </trkpt>
      <trkpt lat="46.11408" lon="3.50158">
        <ele>467.99</ele>
        <time>2020-07-12T10:03:48Z</time>
      </trkpt>
      <trkpt lat="46.11403" lon="3.50188">
        <ele>468.03</ele>
        <time>2020-07-12T10:03:51Z</time>
      </trkpt>
      <trkpt lat="46.11394" lon="3.50214">
        <ele>467.76</ele>
        <time>2020-07-12T10:03:54Z</time>
      </trkpt>
      <trkpt lat="46.1138" lon="3.50238">
        <ele>467.26</ele>
        <time>2020-07-12T10:03:57Z</time>
      </trkpt>
      <trkpt lat="46.11364" lon="3.50258">
        <ele>467.23</ele>
        <time>2020-07-12T10:04:00Z</time>
      </trkpt>
      <trkpt lat="46.11346" lon="3.50274">
        <ele>467.09</ele>
        <time>2020-07-12T10:04:03Z</time>
      </trkpt>
      <trkpt lat="46.11327" lon="3.50288">
        <ele>466.81</ele>
        <time>2020-07-12T10:04:06Z</time>
      </trkpt>
      <trkpt lat="46.11307" lon="3.50302">
        <ele>466.46</ele>
        <time>2020-07-12T10:04:09Z</time>
      </trkpt>
      <trkpt lat="46.11287" lon="3.50316">
        <ele>466.01</ele>
        <time>2020-07-12T10:04:12Z</time>
      </trkpt>
      <trkpt lat="46.11267" lon="3.50333">
        <ele>465.5</ele>
        <time>2020-07-12T10:04:15Z</time>
      </trkpt>
      <trkpt lat="46.11247" lon="3.5035">
        <ele>465.07</ele>
        <time>2020-07-12T10:04:18Z</time>
      </trkpt>
      <trkpt lat="46.11227" lon="3.50367">
        <ele>464.66</ele>
        <time>2020-07-12T10:04:21Z</time>
      </trkpt>
      <trkpt lat="46.11207" lon="3.50382">
        <ele>464.34</ele>
        <time>2020-07-12T10:04:24Z</time>
      </trkpt>
      <trkpt lat="46.11186" lon="3.50397">
        <ele>464.18</ele>
        <time>2020-07-12T10:04:27Z</time>
      </trkpt>
      <trkpt lat="46.11165" lon="3.50412">
        <ele>464.28</ele>
        <time>2020-07-12T10:04:30Z</time>
      </trkpt>
      <trkpt lat="46.11145" lon="3.50429">
        <ele>464.27</ele>
        <time>2020-07-12T10:04:33Z</time>
      </trkpt>
      <trkpt lat="46.11125" lon="3.50445">
        <ele>463.98</ele>
        <time>2020-07-12T10:04:36Z</time>
      </trkpt>
      <trkpt lat="46.11105" lon="3.50461">
        <ele>463.59</ele>
        <time>2020-07-12T10:04:39Z</time>
      </trkpt>
      <trkpt lat="46.11085" lon="3.50476">
        <ele>463.06</ele>
        <time>2020-07-12T10:04:42Z</time>
      </trkpt>
      <trkpt lat="46.11065" lon="3.50494">
        <ele>462.42</ele>
        <time>2020-07-12T10:04:45Z</time>
      </trkpt>
      <trkpt lat="46.11048" lon="3.50516">
        <ele>461.74</ele>
        <time>2020-07-12T10:04:48Z</time>
      </trkpt>
      <trkpt lat="46.11032" lon="3.50541">
        <ele>461.26</ele>
        <time>2020-07-12T10:04:51Z</time>
      </trkpt>
      <trkpt lat="46.11019" lon="3.50567">
        <ele>460.88</ele>
        <time>2020-07-12T10:04:54Z</time>
      </trkpt>
      <trkpt lat="46.11006" lon="3.50593">
        <ele>460.59</ele>
        <time>2020-07-12T10:04:57Z</time>
      </trkpt>
      <trkpt lat="46.10993" lon="3.50618">
        <ele>460.35</ele>
        <time>2020-07-12T10:05:00Z</time>
      </trkpt>
      <trkpt lat="46.1098" lon="3.50642">
        <ele>460.13</ele>
        <time>2020-07-12T10:05:03Z</time>
      </trkpt>
      <trkpt lat="46.10966" lon="3.50668">
        <ele>459.9</ele>
        <time>2020-07-12T10:05:06Z</time>
      </trkpt>
      <trkpt lat="46.10952" lon="3.50693">
        <ele>459.77</ele>
        <time>2020-07-12T10:05:09Z</time>
      </trkpt>
      <trkpt lat="46.10938" lon="3.5072">
        <ele>459.53</ele>
        <time>2020-07-12T10:05:12Z</time>
      </trkpt>
      <trkpt lat="46.10926" lon="3.50747">
        <ele>458.72</ele>
        <time>2020-07-12T10:05:15Z</time>
      </trkpt>
      <trkpt lat="46.10916" lon="3.50773">
        <ele>457.88</ele>
        <time>2020-07-12T10:05:18Z</time>
      </trkpt>
      <trkpt lat="46.10908" lon="3.508">
        <ele>457.25</ele>
        <time>2020-07-12T10:05:21Z</time>
      </trkpt>
      <trkpt lat="46.10902" lon="3.50828">
        <ele>456.86</ele>
        <time>2020-07-12T10:05:24Z</time>
      </trkpt>
      <trkpt lat="46.10902" lon="3.50857">
        <ele>456.32</ele>
        <time>2020-07-12T10:05:27Z</time>
      </trkpt>
      <trkpt lat="46.10902" lon="3.50886">
        <ele>455.82</ele>
        <time>2020-07-12T10:05:30Z</time>
      </trkpt>
      <trkpt lat="46.10904" lon="3.50915">
        <ele>455.37</ele>
        <time>2020-07-12T10:05:33Z</time>
      </trkpt>
      <trkpt lat="46.10906" lon="3.50945">
        <ele>455</ele>
        <time>2020-07-12T10:05:36Z</time>
      </trkpt>
      <trkpt lat="46.10909" lon="3.50975">
        <ele>454.84</ele>
        <time>2020-07-12T10:05:39Z</time>
      </trkpt>
      <trkpt lat="46.10909" lon="3.51006">
        <ele>454.73</ele>
        <time>2020-07-12T10:05:42Z</time>
      </trkpt>
      <trkpt lat="46.10907" lon="3.51038">
        <ele>454.7</ele>
        <time>2020-07-12T10:05:45Z</time>
      </trkpt>
      <trkpt lat="46.10904" lon="3.51069">
        <ele>454.61</ele>
        <time>2020-07-12T10:05:48Z</time>
      </trkpt>
      <trkpt lat="46.10896" lon="3.51098">
        <ele>454.55</ele>
        <time>2020-07-12T10:05:51Z</time>
      </trkpt>
      <trkpt lat="46.10886" lon="3.51128">
        <ele>454.21</ele>
        <time>2020-07-12T10:05:54Z</time>
      </trkpt>
      <trkpt lat="46.10874" lon="3.51156">
        <ele>453.63</ele>
        <time>2020-07-12T10:05:57Z</time>
      </trkpt>
      <trkpt lat="46.10861" lon="3.51182">
        <ele>452.75</ele>
        <time>2020-07-12T10:06:00Z</time>
      </trkpt>
      <trkpt lat="46.10848" lon="3.51209">
        <ele>451</ele>
        <time>2020-07-12T10:06:03Z</time>
      </trkpt>
      <trkpt lat="46.10833" lon="3.51236">
        <ele>449.61</ele>
        <time>2020-07-12T10:06:06Z</time>
      </trkpt>
      <trkpt lat="46.10818" lon="3.51261">
        <ele>448.65</ele>
        <time>2020-07-12T10:06:09Z</time>
      </trkpt>
      <trkpt lat="46.10807" lon="3.51289">
        <ele>447.73</ele>
        <time>2020-07-12T10:06:12Z</time>
      </trkpt>
      <trkpt lat="46.10794" lon="3.51314">
        <ele>446.66</ele>
        <time>2020-07-12T10:06:15Z</time>
      </trkpt>
      <trkpt lat="46.1078" lon="3.51341">
        <ele>445.55</ele>
        <time>2020-07-12T10:06:18Z</time>
      </trkpt>
      <trkpt lat="46.10768" lon="3.51367">
        <ele>444.93</ele>
        <time>2020-07-12T10:06:21Z</time>
      </trkpt>
      <trkpt lat="46.10757" lon="3.51391">
        <ele>444.24</ele>
        <time>2020-07-12T10:06:24Z</time>
      </trkpt>
      <trkpt lat="46.10743" lon="3.51416">
        <ele>443.37</ele>
        <time>2020-07-12T10:06:27Z</time>
      </trkpt>
      <trkpt lat="46.1073" lon="3.51443">
        <ele>442.72</ele>
        <time>2020-07-12T10:06:30Z</time>
      </trkpt>
      <trkpt lat="46.10717" lon="3.51469">
        <ele>442.25</ele>
        <time>2020-07-12T10:06:33Z</time>
      </trkpt>
      <trkpt lat="46.10705" lon="3.51496">
        <ele>442.12</ele>
        <time>2020-07-12T10:06:36Z</time>
      </trkpt>
      <trkpt lat="46.10692" lon="3.5152">
        <ele>441.95</ele>
        <time>2020-07-12T10:06:39Z</time>
      </trkpt>
      <trkpt lat="46.10679" lon="3.51546">
        <ele>441.78</ele>
        <time>2020-07-12T10:06:42Z</time>
      </trkpt>
      <trkpt lat="46.10665" lon="3.51568">
        <ele>441.71</ele>
        <time>2020-07-12T10:06:45Z</time>
      </trkpt>
      <trkpt lat="46.1065" lon="3.5159">
        <ele>441.65</ele>
        <time>2020-07-12T10:06:48Z</time>
      </trkpt>
      <trkpt lat="46.10634" lon="3.5161">
        <ele>441.47</ele>
        <time>2020-07-12T10:06:51Z</time>
      </trkpt>
      <trkpt lat="46.10618" lon="3.51632">
        <ele>441.31</ele>
        <time>2020-07-12T10:06:54Z</time>
      </trkpt>
      <trkpt lat="46.10602" lon="3.51655">
        <ele>440.75</ele>
        <time>2020-07-12T10:06:57Z</time>
      </trkpt>
      <trkpt lat="46.10586" lon="3.51675">
        <ele>440.28</ele>
        <time>2020-07-12T10:07:00Z</time>
      </trkpt>
      <trkpt lat="46.10572" lon="3.51699">
        <ele>440.67</ele>
        <time>2020-07-12T10:07:03Z</time>
      </trkpt>
      <trkpt lat="46.10561" lon="3.51725">
        <ele>439.97</ele>
        <time>2020-07-12T10:07:06Z</time>
      </trkpt>
      <trkpt lat="46.10554" lon="3.51753">
        <ele>439.25</ele>
        <time>2020-07-12T10:07:09Z</time>
      </trkpt>
      <trkpt lat="46.10546" lon="3.51782">
        <ele>438.5</ele>
        <time>2020-07-12T10:07:12Z</time>
      </trkpt>
      <trkpt lat="46.1054" lon="3.51812">
        <ele>437.83</ele>
        <time>2020-07-12T10:07:15Z</time>
      </trkpt>
      <trkpt lat="46.10536" lon="3.51843">
        <ele>437.33</ele>
        <time>2020-07-12T10:07:18Z</time>
      </trkpt>
      <trkpt lat="46.10529" lon="3.51873">
        <ele>437.13</ele>
        <time>2020-07-12T10:07:21Z</time>
      </trkpt>
      <trkpt lat="46.10524" lon="3.51903">
        <ele>436.9</ele>
        <time>2020-07-12T10:07:24Z</time>
      </trkpt>
      <trkpt lat="46.10519" lon="3.51933">
        <ele>436.7</ele>
        <time>2020-07-12T10:07:27Z</time>
      </trkpt>
      <trkpt lat="46.10513" lon="3.51962">
        <ele>436.75</ele>
        <time>2020-07-12T10:07:30Z</time>
      </trkpt>
      <trkpt lat="46.10508" lon="3.5199">
        <ele>436.86</ele>
        <time>2020-07-12T10:07:33Z</time>
      </trkpt>
      <trkpt lat="46.10503" lon="3.52017">
        <ele>437.36</ele>
        <time>2020-07-12T10:07:36Z</time>
      </trkpt>
      <trkpt lat="46.10498" lon="3.52042">
        <ele>438.09</ele>
        <time>2020-07-12T10:07:39Z</time>
      </trkpt>
      <trkpt lat="46.10492" lon="3.52072">
        <ele>439.42</ele>
        <time>2020-07-12T10:07:43Z</time>
      </trkpt>
      <trkpt lat="46.10487" lon="3.521">
        <ele>440.5</ele>
        <time>2020-07-12T10:07:47Z</time>
      </trkpt>
      <trkpt lat="46.10482" lon="3.52127">
        <ele>441.49</ele>
        <time>2020-07-12T10:07:51Z</time>
      </trkpt>
      <trkpt lat="46.10477" lon="3.52154">
        <ele>442.16</ele>
        <time>2020-07-12T10:07:55Z</time>
      </trkpt>
      <trkpt lat="46.10472" lon="3.52181">
        <ele>442.66</ele>
        <time>2020-07-12T10:07:59Z</time>
      </trkpt>
      <trkpt lat="46.10468" lon="3.52206">
        <ele>443.44</ele>
        <time>2020-07-12T10:08:03Z</time>
      </trkpt>
      <trkpt lat="46.10462" lon="3.52236">
        <ele>444.35</ele>
        <time>2020-07-12T10:08:08Z</time>
      </trkpt>
      <trkpt lat="46.10456" lon="3.52264">
        <ele>444.7</ele>
        <time>2020-07-12T10:08:13Z</time>
      </trkpt>
      <trkpt lat="46.1045" lon="3.52293">
        <ele>444.81</ele>
        <time>2020-07-12T10:08:18Z</time>
      </trkpt>
      <trkpt lat="46.10444" lon="3.52322">
        <ele>444.99</ele>
        <time>2020-07-12T10:08:23Z</time>
      </trkpt>
      <trkpt lat="46.10439" lon="3.52352">
        <ele>445.13</ele>
        <time>2020-07-12T10:08:28Z</time>
      </trkpt>
      <trkpt lat="46.10434" lon="3.52383">
        <ele>445.28</ele>
        <time>2020-07-12T10:08:33Z</time>
      </trkpt>
      <trkpt lat="46.10428" lon="3.52413">
        <ele>445.4</ele>
        <time>2020-07-12T10:08:38Z</time>
      </trkpt>
      <trkpt lat="46.10422" lon="3.52442">
        <ele>445.47</ele>
        <time>2020-07-12T10:08:43Z</time>
      </trkpt>
      <trkpt lat="46.10417" lon="3.52472">
        <ele>445.53</ele>
        <time>2020-07-12T10:08:48Z</time>
      </trkpt>
      <trkpt lat="46.10413" lon="3.52505">
        <ele>445.67</ele>
        <time>2020-07-12T10:08:53Z</time>
      </trkpt>
      <trkpt lat="46.1041" lon="3.52538">
        <ele>445.86</ele>
        <time>2020-07-12T10:08:57Z</time>
      </trkpt>
      <trkpt lat="46.10407" lon="3.52567">
        <ele>446.16</ele>
        <time>2020-07-12T10:09:00Z</time>
      </trkpt>
      <trkpt lat="46.10403" lon="3.52599">
        <ele>446.46</ele>
        <time>2020-07-12T10:09:03Z</time>
      </trkpt>
      <trkpt lat="46.104" lon="3.5263">
        <ele>446.73</ele>
        <time>2020-07-12T10:09:06Z</time>
      </trkpt>
      <trkpt lat="46.10396" lon="3.52658">
        <ele>446.97</ele>
        <time>2020-07-12T10:09:09Z</time>
      </trkpt>
      <trkpt lat="46.1039" lon="3.52683">
        <ele>447.24</ele>
        <time>2020-07-12T10:09:12Z</time>
      </trkpt>
      <trkpt lat="46.10385" lon="3.52713">
        <ele>447.18</ele>
        <time>2020-07-12T10:09:16Z</time>
      </trkpt>
      <trkpt lat="46.10368" lon="3.52732">
        <ele>447.4</ele>
        <time>2020-07-12T10:09:20Z</time>
      </trkpt>
      <trkpt lat="46.10358" lon="3.52755">
        <ele>447.31</ele>
        <time>2020-07-12T10:09:23Z</time>
      </trkpt>
      <trkpt lat="46.10348" lon="3.52781">
        <ele>447.33</ele>
        <time>2020-07-12T10:09:27Z</time>
      </trkpt>
      <trkpt lat="46.10338" lon="3.52805">
        <ele>447.37</ele>
        <time>2020-07-12T10:09:32Z</time>
      </trkpt>
      <trkpt lat="46.10322" lon="3.52822">
        <ele>447.36</ele>
        <time>2020-07-12T10:09:40Z</time>
      </trkpt>
      <trkpt lat="46.10312" lon="3.52845">
        <ele>447.41</ele>
        <time>2020-07-12T10:09:46Z</time>
      </trkpt>
      <trkpt lat="46.10297" lon="3.52864">
        <ele>447.45</ele>
        <time>2020-07-12T10:09:52Z</time>
      </trkpt>
      <trkpt lat="46.10284" lon="3.52885">
        <ele>447.48</ele>
        <time>2020-07-12T10:09:58Z</time>
      </trkpt>
      <trkpt lat="46.1027" lon="3.52906">
        <ele>447.51</ele>
        <time>2020-07-12T10:10:05Z</time>
      </trkpt>
      <trkpt lat="46.10258" lon="3.52926">
        <ele>447.54</ele>
        <time>2020-07-12T10:10:13Z</time>
      </trkpt>
      <trkpt lat="46.10246" lon="3.52949">
        <ele>447.62</ele>
        <time>2020-07-12T10:10:20Z</time>
      </trkpt>
      <trkpt lat="46.10231" lon="3.52968">
        <ele>447.72</ele>
        <time>2020-07-12T10:10:28Z</time>
      </trkpt>
      <trkpt lat="46.10218" lon="3.52987">
        <ele>447.88</ele>
        <time>2020-07-12T10:10:36Z</time>
      </trkpt>
      <trkpt lat="46.10204" lon="3.53004">
        <ele>448.09</ele>
        <time>2020-07-12T10:10:45Z</time>
      </trkpt>
      <trkpt lat="46.1019" lon="3.53023">
        <ele>448.25</ele>
        <time>2020-07-12T10:10:53Z</time>
      </trkpt>
      <trkpt lat="46.10177" lon="3.53042">
        <ele>448.39</ele>
        <time>2020-07-12T10:11:00Z</time>
      </trkpt>
      <trkpt lat="46.10163" lon="3.5306">
        <ele>448.6</ele>
        <time>2020-07-12T10:11:08Z</time>
      </trkpt>
      <trkpt lat="46.10147" lon="3.53078">
        <ele>449</ele>
        <time>2020-07-12T10:11:17Z</time>
      </trkpt>
      <trkpt lat="46.10133" lon="3.53098">
        <ele>449.43</ele>
        <time>2020-07-12T10:11:25Z</time>
      </trkpt>
      <trkpt lat="46.10117" lon="3.53111">
        <ele>449.95</ele>
        <time>2020-07-12T10:11:34Z</time>
      </trkpt>
      <trkpt lat="46.10102" lon="3.53126">
        <ele>450.43</ele>
        <time>2020-07-12T10:11:42Z</time>
      </trkpt>
      <trkpt lat="46.10086" lon="3.53145">
        <ele>450.93</ele>
        <time>2020-07-12T10:11:50Z</time>
      </trkpt>
      <trkpt lat="46.10072" lon="3.53163">
        <ele>451.44</ele>
        <time>2020-07-12T10:11:58Z</time>
      </trkpt>
      <trkpt lat="46.10062" lon="3.53186">
        <ele>451.99</ele>
        <time>2020-07-12T10:12:07Z</time>
      </trkpt>
      <trkpt lat="46.10052" lon="3.53212">
        <ele>452.56</ele>
        <time>2020-07-12T10:12:16Z</time>
      </trkpt>
      <trkpt lat="46.10046" lon="3.53238">
        <ele>453.18</ele>
        <time>2020-07-12T10:12:26Z</time>
      </trkpt>
      <trkpt lat="46.10054" lon="3.53262">
        <ele>453.62</ele>
        <time>2020-07-12T10:12:33Z</time>
      </trkpt>
      <trkpt lat="46.10061" lon="3.53286">
        <ele>454.03</ele>
        <time>2020-07-12T10:12:40Z</time>
      </trkpt>
      <trkpt lat="46.10069" lon="3.53315">
        <ele>454.43</ele>
        <time>2020-07-12T10:12:47Z</time>
      </trkpt>
      <trkpt lat="46.10073" lon="3.53343">
        <ele>454.78</ele>
        <time>2020-07-12T10:12:53Z</time>
      </trkpt>
      <trkpt lat="46.10076" lon="3.53371">
        <ele>455.14</ele>
        <time>2020-07-12T10:12:59Z</time>
      </trkpt>
      <trkpt lat="46.1008" lon="3.53398">
        <ele>455.51</ele>
        <time>2020-07-12T10:13:05Z</time>
      </trkpt>
      <trkpt lat="46.10086" lon="3.53427">
        <ele>455.88</ele>
        <time>2020-07-12T10:13:11Z</time>
      </trkpt>
      <trkpt lat="46.1009" lon="3.53454">
        <ele>456.27</ele>
        <time>2020-07-12T10:13:17Z</time>
      </trkpt>
      <trkpt lat="46.10097" lon="3.53481">
        <ele>456.7</ele>
        <time>2020-07-12T10:13:23Z</time>
      </trkpt>
      <trkpt lat="46.10099" lon="3.53508">
        <ele>457.18</ele>
        <time>2020-07-12T10:13:29Z</time>
      </trkpt>
      <trkpt lat="46.10102" lon="3.53537">
        <ele>457.79</ele>
        <time>2020-07-12T10:13:36Z</time>
      </trkpt>
      <trkpt lat="46.10106" lon="3.53564">
        <ele>458.46</ele>
        <time>2020-07-12T10:13:43Z</time>
      </trkpt>
      <trkpt lat="46.10117" lon="3.53586">
        <ele>459.96</ele>
        <time>2020-07-12T10:13:49Z</time>
      </trkpt>
      <trkpt lat="46.10138" lon="3.53594">
        <ele>460.59</ele>
        <time>2020-07-12T10:13:55Z</time>
      </trkpt>
      <trkpt lat="46.10155" lon="3.53601">
        <ele>461.03</ele>
        <time>2020-07-12T10:14:00Z</time>
      </trkpt>
      <trkpt lat="46.10174" lon="3.53614">
        <ele>461.6</ele>
        <time>2020-07-12T10:14:06Z</time>
      </trkpt>
      <trkpt lat="46.10192" lon="3.53626">
        <ele>462.19</ele>
        <time>2020-07-12T10:14:12Z</time>
      </trkpt>
      <trkpt lat="46.1021" lon="3.53641">
        <ele>462.83</ele>
        <time>2020-07-12T10:14:18Z</time>
      </trkpt>
      <trkpt lat="46.10225" lon="3.53655">
        <ele>463.36</ele>
        <time>2020-07-12T10:14:23Z</time>
      </trkpt>
      <trkpt lat="46.10241" lon="3.53669">
        <ele>464.67</ele>
        <time>2020-07-12T10:14:28Z</time>
      </trkpt>
      <trkpt lat="46.10259" lon="3.53687">
        <ele>468.25</ele>
        <time>2020-07-12T10:14:33Z</time>
      </trkpt>
      <trkpt lat="46.10275" lon="3.53705">
        <ele>469.83</ele>
        <time>2020-07-12T10:14:38Z</time>
      </trkpt>
      <trkpt lat="46.1029" lon="3.53725">
        <ele>470.61</ele>
        <time>2020-07-12T10:14:43Z</time>
      </trkpt>
      <trkpt lat="46.10303" lon="3.53748">
        <ele>470.94</ele>
        <time>2020-07-12T10:14:49Z</time>
      </trkpt>
      <trkpt lat="46.10313" lon="3.53771">
        <ele>471.33</ele>
        <time>2020-07-12T10:14:54Z</time>
      </trkpt>
      <trkpt lat="46.10328" lon="3.53794">
        <ele>471.91</ele>
        <time>2020-07-12T10:15:00Z</time>
      </trkpt>
      <trkpt lat="46.10338" lon="3.53818">
        <ele>472.93</ele>
        <time>2020-07-12T10:15:05Z</time>
      </trkpt>
      <trkpt lat="46.10344" lon="3.53846">
        <ele>473.57</ele>
        <time>2020-07-12T10:15:09Z</time>
      </trkpt>
      <trkpt lat="46.10348" lon="3.53872">
        <ele>474.03</ele>
        <time>2020-07-12T10:15:12Z</time>
      </trkpt>
      <trkpt lat="46.10351" lon="3.53902">
        <ele>475.07</ele>
        <time>2020-07-12T10:15:15Z</time>
      </trkpt>
      <trkpt lat="46.10354" lon="3.53938">
        <ele>476.47</ele>
        <time>2020-07-12T10:15:18Z</time>
      </trkpt>
      <trkpt lat="46.10361" lon="3.53974">
        <ele>477.64</ele>
        <time>2020-07-12T10:15:21Z</time>
      </trkpt>
      <trkpt lat="46.10373" lon="3.54006">
        <ele>478.35</ele>
        <time>2020-07-12T10:15:24Z</time>
      </trkpt>
      <trkpt lat="46.10389" lon="3.54023">
        <ele>478.56</ele>
        <time>2020-07-12T10:15:26Z</time>
      </trkpt>
      <trkpt lat="46.10409" lon="3.54034">
        <ele>478.51</ele>
        <time>2020-07-12T10:15:28Z</time>
      </trkpt>
      <trkpt lat="46.10431" lon="3.5404">
        <ele>478.16</ele>
        <time>2020-07-12T10:15:31Z</time>
      </trkpt>
      <trkpt lat="46.10444" lon="3.54068">
        <ele>477.51</ele>
        <time>2020-07-12T10:15:35Z</time>
      </trkpt>
      <trkpt lat="46.10445" lon="3.541">
        <ele>476.73</ele>
        <time>2020-07-12T10:15:39Z</time>
      </trkpt>
      <trkpt lat="46.10437" lon="3.54126">
        <ele>475.97</ele>
        <time>2020-07-12T10:15:43Z</time>
      </trkpt>
      <trkpt lat="46.10432" lon="3.54153">
        <ele>475.27</ele>
        <time>2020-07-12T10:15:47Z</time>
      </trkpt>
      <trkpt lat="46.10427" lon="3.54178">
        <ele>474.9</ele>
        <time>2020-07-12T10:15:52Z</time>
      </trkpt>
      <trkpt lat="46.10425" lon="3.54206">
        <ele>474.2</ele>
        <time>2020-07-12T10:15:57Z</time>
      </trkpt>
      <trkpt lat="46.10429" lon="3.54237">
        <ele>473.68</ele>
        <time>2020-07-12T10:16:03Z</time>
      </trkpt>
      <trkpt lat="46.10438" lon="3.54261">
        <ele>472.84</ele>
        <time>2020-07-12T10:16:07Z</time>
      </trkpt>
      <trkpt lat="46.10447" lon="3.54285">
        <ele>472.4</ele>
        <time>2020-07-12T10:16:10Z</time>
      </trkpt>
      <trkpt lat="46.10462" lon="3.54311">
        <ele>471.87</ele>
        <time>2020-07-12T10:16:13Z</time>
      </trkpt>
      <trkpt lat="46.10473" lon="3.5434">
        <ele>471.28</ele>
        <time>2020-07-12T10:16:16Z</time>
      </trkpt>
      <trkpt lat="46.10484" lon="3.54369">
        <ele>470.36</ele>
        <time>2020-07-12T10:16:19Z</time>
      </trkpt>
      <trkpt lat="46.10489" lon="3.54394">
        <ele>469.33</ele>
        <time>2020-07-12T10:16:21Z</time>
      </trkpt>
      <trkpt lat="46.10496" lon="3.54422">
        <ele>468.11</ele>
        <time>2020-07-12T10:16:23Z</time>
      </trkpt>
      <trkpt lat="46.10502" lon="3.54451">
        <ele>467.04</ele>
        <time>2020-07-12T10:16:25Z</time>
      </trkpt>
      <trkpt lat="46.10508" lon="3.54485">
        <ele>465.88</ele>
        <time>2020-07-12T10:16:28Z</time>
      </trkpt>
      <trkpt lat="46.1051" lon="3.54516">
        <ele>464.37</ele>
        <time>2020-07-12T10:16:31Z</time>
      </trkpt>
      <trkpt lat="46.10508" lon="3.54545">
        <ele>461.12</ele>
        <time>2020-07-12T10:16:34Z</time>
      </trkpt>
      <trkpt lat="46.105" lon="3.54577">
        <ele>455.79</ele>
        <time>2020-07-12T10:16:38Z</time>
      </trkpt>
      <trkpt lat="46.10492" lon="3.54604">
        <ele>452.85</ele>
        <time>2020-07-12T10:16:41Z</time>
      </trkpt>
      <trkpt lat="46.10485" lon="3.54634">
        <ele>450.64</ele>
        <time>2020-07-12T10:16:44Z</time>
      </trkpt>
      <trkpt lat="46.10477" lon="3.54662">
        <ele>447.83</ele>
        <time>2020-07-12T10:16:49Z</time>
      </trkpt>
      <trkpt lat="46.10464" lon="3.5469">
        <ele>446.53</ele>
        <time>2020-07-12T10:16:53Z</time>
      </trkpt>
      <trkpt lat="46.10451" lon="3.54714">
        <ele>447.42</ele>
        <time>2020-07-12T10:16:56Z</time>
      </trkpt>
      <trkpt lat="46.10436" lon="3.54737">
        <ele>447.38</ele>
        <time>2020-07-12T10:16:59Z</time>
      </trkpt>
      <trkpt lat="46.10414" lon="3.54761">
        <ele>446.86</ele>
        <time>2020-07-12T10:17:02Z</time>
      </trkpt>
      <trkpt lat="46.10397" lon="3.54768">
        <ele>444.81</ele>
        <time>2020-07-12T10:17:05Z</time>
      </trkpt>
      <trkpt lat="46.10397" lon="3.54798">
        <ele>436.14</ele>
        <time>2020-07-12T10:17:15Z</time>
      </trkpt>
      <trkpt lat="46.10415" lon="3.54816">
        <ele>431.06</ele>
        <time>2020-07-12T10:17:18Z</time>
      </trkpt>
      <trkpt lat="46.10435" lon="3.54835">
        <ele>427.23</ele>
        <time>2020-07-12T10:17:21Z</time>
      </trkpt>
      <trkpt lat="46.10457" lon="3.54851">
        <ele>424.24</ele>
        <time>2020-07-12T10:17:24Z</time>
      </trkpt>
      <trkpt lat="46.10479" lon="3.54852">
        <ele>422.51</ele>
        <time>2020-07-12T10:17:27Z</time>
      </trkpt>
      <trkpt lat="46.105" lon="3.5485">
        <ele>421.87</ele>
        <time>2020-07-12T10:17:30Z</time>
      </trkpt>
      <trkpt lat="46.10518" lon="3.54851">
        <ele>421.51</ele>
        <time>2020-07-12T10:17:33Z</time>
      </trkpt>
      <trkpt lat="46.10536" lon="3.54851">
        <ele>421.4</ele>
        <time>2020-07-12T10:17:37Z</time>
      </trkpt>
      <trkpt lat="46.10554" lon="3.54855">
        <ele>421.54</ele>
        <time>2020-07-12T10:17:42Z</time>
      </trkpt>
      <trkpt lat="46.10572" lon="3.54866">
        <ele>421.53</ele>
        <time>2020-07-12T10:17:50Z</time>
      </trkpt>
      <trkpt lat="46.1059" lon="3.54875">
        <ele>421.67</ele>
        <time>2020-07-12T10:17:59Z</time>
      </trkpt>
      <trkpt lat="46.10606" lon="3.54887">
        <ele>421.53</ele>
        <time>2020-07-12T10:18:10Z</time>
      </trkpt>
      <trkpt lat="46.10623" lon="3.54899">
        <ele>421.39</ele>
        <time>2020-07-12T10:18:23Z</time>
      </trkpt>
      <trkpt lat="46.10636" lon="3.5492">
        <ele>420.87</ele>
        <time>2020-07-12T10:18:40Z</time>
      </trkpt>
      <trkpt lat="46.10642" lon="3.54946">
        <ele>420.38</ele>
        <time>2020-07-12T10:18:52Z</time>
      </trkpt>
      <trkpt lat="46.10655" lon="3.54966">
        <ele>419.78</ele>
        <time>2020-07-12T10:19:08Z</time>
      </trkpt>
      <trkpt lat="46.10668" lon="3.54986">
        <ele>419.28</ele>
        <time>2020-07-12T10:19:24Z</time>
      </trkpt>
      <trkpt lat="46.10682" lon="3.55005">
        <ele>418.99</ele>
        <time>2020-07-12T10:19:37Z</time>
      </trkpt>
      <trkpt lat="46.10694" lon="3.55027">
        <ele>418.74</ele>
        <time>2020-07-12T10:19:52Z</time>
      </trkpt>
      <trkpt lat="46.10707" lon="3.55046">
        <ele>418.66</ele>
        <time>2020-07-12T10:20:04Z</time>
      </trkpt>
      <trkpt lat="46.1072" lon="3.55064">
        <ele>418.71</ele>
        <time>2020-07-12T10:20:17Z</time>
      </trkpt>
      <trkpt lat="46.10733" lon="3.55083">
        <ele>418.8</ele>
        <time>2020-07-12T10:20:29Z</time>
      </trkpt>
      <trkpt lat="46.10744" lon="3.55106">
        <ele>418.9</ele>
        <time>2020-07-12T10:20:41Z</time>
      </trkpt>
      <trkpt lat="46.10756" lon="3.55126">
        <ele>419.13</ele>
        <time>2020-07-12T10:20:53Z</time>
      </trkpt>
      <trkpt lat="46.10766" lon="3.55148">
        <ele>419.54</ele>
        <time>2020-07-12T10:21:08Z</time>
      </trkpt>
      <trkpt lat="46.10776" lon="3.55171">
        <ele>419.88</ele>
        <time>2020-07-12T10:21:19Z</time>
      </trkpt>
      <trkpt lat="46.10784" lon="3.55196">
        <ele>420.26</ele>
        <time>2020-07-12T10:21:30Z</time>
      </trkpt>
      <trkpt lat="46.1079" lon="3.55222">
        <ele>420.73</ele>
        <time>2020-07-12T10:21:42Z</time>
      </trkpt>
      <trkpt lat="46.10796" lon="3.55246">
        <ele>421.2</ele>
        <time>2020-07-12T10:21:53Z</time>
      </trkpt>
      <trkpt lat="46.10805" lon="3.55271">
        <ele>421.68</ele>
        <time>2020-07-12T10:22:03Z</time>
      </trkpt>
      <trkpt lat="46.10813" lon="3.55295">
        <ele>422.25</ele>
        <time>2020-07-12T10:22:14Z</time>
      </trkpt>
      <trkpt lat="46.10819" lon="3.55323">
        <ele>422.77</ele>
        <time>2020-07-12T10:22:24Z</time>
      </trkpt>
      <trkpt lat="46.10824" lon="3.5535">
        <ele>423.24</ele>
        <time>2020-07-12T10:22:33Z</time>
      </trkpt>
      <trkpt lat="46.10825" lon="3.55377">
        <ele>423.64</ele>
        <time>2020-07-12T10:22:40Z</time>
      </trkpt>
      <trkpt lat="46.10827" lon="3.55405">
        <ele>424.31</ele>
        <time>2020-07-12T10:22:49Z</time>
      </trkpt>
      <trkpt lat="46.10825" lon="3.55433">
        <ele>424.93</ele>
        <time>2020-07-12T10:22:57Z</time>
      </trkpt>
      <trkpt lat="46.1082" lon="3.55461">
        <ele>425.61</ele>
        <time>2020-07-12T10:23:04Z</time>
      </trkpt>
      <trkpt lat="46.10817" lon="3.5549">
        <ele>426.44</ele>
        <time>2020-07-12T10:23:11Z</time>
      </trkpt>
      <trkpt lat="46.10812" lon="3.55519">
        <ele>427.55</ele>
        <time>2020-07-12T10:23:19Z</time>
      </trkpt>
      <trkpt lat="46.10809" lon="3.55544">
        <ele>428.68</ele>
        <time>2020-07-12T10:23:27Z</time>
      </trkpt>
      <trkpt lat="46.10803" lon="3.5557">
        <ele>430</ele>
        <time>2020-07-12T10:23:35Z</time>
      </trkpt>
      <trkpt lat="46.10795" lon="3.55597">
        <ele>431.59</ele>
        <time>2020-07-12T10:23:44Z</time>
      </trkpt>
      <trkpt lat="46.10787" lon="3.55622">
        <ele>434.51</ele>
        <time>2020-07-12T10:23:50Z</time>
      </trkpt>
      <trkpt lat="46.10787" lon="3.55652">
        <ele>435.75</ele>
        <time>2020-07-12T10:23:56Z</time>
      </trkpt>
      <trkpt lat="46.10784" lon="3.5568">
        <ele>436.85</ele>
        <time>2020-07-12T10:24:02Z</time>
      </trkpt>
      <trkpt lat="46.10781" lon="3.55707">
        <ele>437.95</ele>
        <time>2020-07-12T10:24:08Z</time>
      </trkpt>
      <trkpt lat="46.10783" lon="3.55737">
        <ele>439.03</ele>
        <time>2020-07-12T10:24:14Z</time>
      </trkpt>
      <trkpt lat="46.10786" lon="3.55764">
        <ele>439.93</ele>
        <time>2020-07-12T10:24:19Z</time>
      </trkpt>
      <trkpt lat="46.10788" lon="3.55792">
        <ele>441.01</ele>
        <time>2020-07-12T10:24:25Z</time>
      </trkpt>
      <trkpt lat="46.10789" lon="3.55821">
        <ele>442.29</ele>
        <time>2020-07-12T10:24:32Z</time>
      </trkpt>
      <trkpt lat="46.10778" lon="3.55843">
        <ele>443.73</ele>
        <time>2020-07-12T10:24:40Z</time>
      </trkpt>
      <trkpt lat="46.10759" lon="3.55854">
        <ele>446.2</ele>
        <time>2020-07-12T10:24:46Z</time>
      </trkpt>
      <trkpt lat="46.10745" lon="3.55874">
        <ele>449.04</ele>
        <time>2020-07-12T10:24:51Z</time>
      </trkpt>
      <trkpt lat="46.10729" lon="3.55893">
        <ele>452.41</ele>
        <time>2020-07-12T10:24:55Z</time>
      </trkpt>
      <trkpt lat="46.1071" lon="3.55903">
        <ele>453.88</ele>
        <time>2020-07-12T10:24:58Z</time>
      </trkpt>
      <trkpt lat="46.10688" lon="3.55907">
        <ele>455.28</ele>
        <time>2020-07-12T10:25:01Z</time>
      </trkpt>
      <trkpt lat="46.10667" lon="3.55927">
        <ele>456.37</ele>
        <time>2020-07-12T10:25:04Z</time>
      </trkpt>
      <trkpt lat="46.10656" lon="3.55948">
        <ele>456.82</ele>
        <time>2020-07-12T10:25:06Z</time>
      </trkpt>
      <trkpt lat="46.10645" lon="3.55969">
        <ele>457.02</ele>
        <time>2020-07-12T10:25:08Z</time>
      </trkpt>
      <trkpt lat="46.10635" lon="3.55992">
        <ele>457.01</ele>
        <time>2020-07-12T10:25:10Z</time>
      </trkpt>
      <trkpt lat="46.10625" lon="3.56014">
        <ele>456.87</ele>
        <time>2020-07-12T10:25:12Z</time>
      </trkpt>
      <trkpt lat="46.10605" lon="3.56038">
        <ele>456.53</ele>
        <time>2020-07-12T10:25:15Z</time>
      </trkpt>
      <trkpt lat="46.1059" lon="3.56053">
        <ele>456.24</ele>
        <time>2020-07-12T10:25:17Z</time>
      </trkpt>
      <trkpt lat="46.10574" lon="3.56071">
        <ele>455.89</ele>
        <time>2020-07-12T10:25:19Z</time>
      </trkpt>
      <trkpt lat="46.10558" lon="3.5609">
        <ele>455.47</ele>
        <time>2020-07-12T10:25:21Z</time>
      </trkpt>
      <trkpt lat="46.10541" lon="3.56109">
        <ele>455.03</ele>
        <time>2020-07-12T10:25:23Z</time>
      </trkpt>
      <trkpt lat="46.10521" lon="3.56122">
        <ele>454.53</ele>
        <time>2020-07-12T10:25:25Z</time>
      </trkpt>
      <trkpt lat="46.10499" lon="3.56128">
        <ele>453.98</ele>
        <time>2020-07-12T10:25:27Z</time>
      </trkpt>
      <trkpt lat="46.10477" lon="3.56126">
        <ele>453.34</ele>
        <time>2020-07-12T10:25:29Z</time>
      </trkpt>
      <trkpt lat="46.10456" lon="3.56113">
        <ele>452.63</ele>
        <time>2020-07-12T10:25:31Z</time>
      </trkpt>
      <trkpt lat="46.10438" lon="3.56098">
        <ele>451.76</ele>
        <time>2020-07-12T10:25:33Z</time>
      </trkpt>
      <trkpt lat="46.10417" lon="3.56095">
        <ele>450.4</ele>
        <time>2020-07-12T10:25:36Z</time>
      </trkpt>
      <trkpt lat="46.10407" lon="3.56119">
        <ele>449.11</ele>
        <time>2020-07-12T10:25:39Z</time>
      </trkpt>
      <trkpt lat="46.10399" lon="3.56153">
        <ele>447.91</ele>
        <time>2020-07-12T10:25:42Z</time>
      </trkpt>
      <trkpt lat="46.10392" lon="3.56178">
        <ele>447.17</ele>
        <time>2020-07-12T10:25:44Z</time>
      </trkpt>
      <trkpt lat="46.10379" lon="3.56211">
        <ele>446.12</ele>
        <time>2020-07-12T10:25:47Z</time>
      </trkpt>
      <trkpt lat="46.10377" lon="3.5624">
        <ele>445.17</ele>
        <time>2020-07-12T10:25:49Z</time>
      </trkpt>
      <trkpt lat="46.10377" lon="3.56272">
        <ele>444.06</ele>
        <time>2020-07-12T10:25:51Z</time>
      </trkpt>
      <trkpt lat="46.10378" lon="3.56299">
        <ele>442.86</ele>
        <time>2020-07-12T10:25:53Z</time>
      </trkpt>
      <trkpt lat="46.10368" lon="3.56332">
        <ele>441.22</ele>
        <time>2020-07-12T10:25:56Z</time>
      </trkpt>
      <trkpt lat="46.10349" lon="3.56353">
        <ele>439.65</ele>
        <time>2020-07-12T10:25:59Z</time>
      </trkpt>
      <trkpt lat="46.10333" lon="3.56371">
        <ele>440.85</ele>
        <time>2020-07-12T10:26:03Z</time>
      </trkpt>
      <trkpt lat="46.1032" lon="3.56393">
        <ele>440.76</ele>
        <time>2020-07-12T10:26:09Z</time>
      </trkpt>
      <trkpt lat="46.10317" lon="3.56423">
        <ele>440.16</ele>
        <time>2020-07-12T10:26:16Z</time>
      </trkpt>
      <trkpt lat="46.10319" lon="3.5645">
        <ele>439.48</ele>
        <time>2020-07-12T10:26:22Z</time>
      </trkpt>
      <trkpt lat="46.10311" lon="3.56476">
        <ele>438.97</ele>
        <time>2020-07-12T10:26:28Z</time>
      </trkpt>
      <trkpt lat="46.10295" lon="3.56488">
        <ele>438.49</ele>
        <time>2020-07-12T10:26:33Z</time>
      </trkpt>
      <trkpt lat="46.10276" lon="3.56498">
        <ele>437.93</ele>
        <time>2020-07-12T10:26:39Z</time>
      </trkpt>
      <trkpt lat="46.10258" lon="3.56507">
        <ele>437.33</ele>
        <time>2020-07-12T10:26:46Z</time>
      </trkpt>
      <trkpt lat="46.10242" lon="3.56522">
        <ele>436.84</ele>
        <time>2020-07-12T10:26:52Z</time>
      </trkpt>
      <trkpt lat="46.1024" lon="3.56553">
        <ele>436.37</ele>
        <time>2020-07-12T10:26:58Z</time>
      </trkpt>
      <trkpt lat="46.10244" lon="3.56579">
        <ele>436.01</ele>
        <time>2020-07-12T10:27:03Z</time>
      </trkpt>
      <trkpt lat="46.10242" lon="3.56605">
        <ele>435.63</ele>
        <time>2020-07-12T10:27:09Z</time>
      </trkpt>
      <trkpt lat="46.10239" lon="3.56633">
        <ele>435.13</ele>
        <time>2020-07-12T10:27:18Z</time>
      </trkpt>
      <trkpt lat="46.10252" lon="3.56656">
        <ele>434.6</ele>
        <time>2020-07-12T10:28:53Z</time>
      </trkpt>
      <trkpt lat="46.1027" lon="3.56661">
        <ele>434.61</ele>
        <time>2020-07-12T10:28:59Z</time>
      </trkpt>
      <trkpt lat="46.10289" lon="3.56663">
        <ele>434.61</ele>
        <time>2020-07-12T10:29:06Z</time>
      </trkpt>
      <trkpt lat="46.10309" lon="3.56662">
        <ele>434.61</ele>
        <time>2020-07-12T10:29:12Z</time>
      </trkpt>
      <trkpt lat="46.10327" lon="3.56663">
        <ele>434.61</ele>
        <time>2020-07-12T10:29:17Z</time>
      </trkpt>
      <trkpt lat="46.10346" lon="3.56663">
        <ele>434.61</ele>
        <time>2020-07-12T10:29:23Z</time>
      </trkpt>
      <trkpt lat="46.10362" lon="3.56678">
        <ele>434.62</ele>
        <time>2020-07-12T10:29:29Z</time>
      </trkpt>
      <trkpt lat="46.10362" lon="3.56708">
        <ele>434.63</ele>
        <time>2020-07-12T10:29:35Z</time>
      </trkpt>
      <trkpt lat="46.10351" lon="3.56732">
        <ele>434.66</ele>
        <time>2020-07-12T10:29:42Z</time>
      </trkpt>
      <trkpt lat="46.10337" lon="3.5675">
        <ele>434.71</ele>
        <time>2020-07-12T10:29:49Z</time>
      </trkpt>
      <trkpt lat="46.10318" lon="3.56757">
        <ele>434.78</ele>
        <time>2020-07-12T10:29:56Z</time>
      </trkpt>
      <trkpt lat="46.10298" lon="3.56758">
        <ele>434.86</ele>
        <time>2020-07-12T10:30:03Z</time>
      </trkpt>
      <trkpt lat="46.1028" lon="3.56765">
        <ele>434.96</ele>
        <time>2020-07-12T10:30:10Z</time>
      </trkpt>
      <trkpt lat="46.10262" lon="3.56772">
        <ele>435.04</ele>
        <time>2020-07-12T10:30:16Z</time>
      </trkpt>
      <trkpt lat="46.10243" lon="3.56783">
        <ele>435.13</ele>
        <time>2020-07-12T10:30:22Z</time>
      </trkpt>
      <trkpt lat="46.10227" lon="3.56795">
        <ele>435.22</ele>
        <time>2020-07-12T10:30:27Z</time>
      </trkpt>
      <trkpt lat="46.10212" lon="3.5681">
        <ele>435.33</ele>
        <time>2020-07-12T10:30:32Z</time>
      </trkpt>
      <trkpt lat="46.10195" lon="3.56826">
        <ele>435.49</ele>
        <time>2020-07-12T10:30:38Z</time>
      </trkpt>
      <trkpt lat="46.10177" lon="3.56838">
        <ele>435.67</ele>
        <time>2020-07-12T10:30:44Z</time>
      </trkpt>
      <trkpt lat="46.10161" lon="3.56852">
        <ele>435.88</ele>
        <time>2020-07-12T10:30:50Z</time>
      </trkpt>
      <trkpt lat="46.10144" lon="3.56863">
        <ele>436.1</ele>
        <time>2020-07-12T10:30:56Z</time>
      </trkpt>
      <trkpt lat="46.10127" lon="3.56879">
        <ele>436.39</ele>
        <time>2020-07-12T10:31:03Z</time>
      </trkpt>
      <trkpt lat="46.10111" lon="3.56892">
        <ele>436.61</ele>
        <time>2020-07-12T10:31:08Z</time>
      </trkpt>
      <trkpt lat="46.10095" lon="3.56907">
        <ele>437.16</ele>
        <time>2020-07-12T10:31:13Z</time>
      </trkpt>
      <trkpt lat="46.10078" lon="3.5692">
        <ele>438.47</ele>
        <time>2020-07-12T10:31:17Z</time>
      </trkpt>
      <trkpt lat="46.10062" lon="3.56933">
        <ele>439.19</ele>
        <time>2020-07-12T10:31:21Z</time>
      </trkpt>
      <trkpt lat="46.10046" lon="3.56947">
        <ele>439.67</ele>
        <time>2020-07-12T10:31:25Z</time>
      </trkpt>
      <trkpt lat="46.1003" lon="3.56964">
        <ele>440.04</ele>
        <time>2020-07-12T10:31:29Z</time>
      </trkpt>
      <trkpt lat="46.10015" lon="3.56981">
        <ele>440.36</ele>
        <time>2020-07-12T10:31:33Z</time>
      </trkpt>
      <trkpt lat="46.09999" lon="3.57001">
        <ele>440.79</ele>
        <time>2020-07-12T10:31:38Z</time>
      </trkpt>
      <trkpt lat="46.10001" lon="3.5703">
        <ele>441.12</ele>
        <time>2020-07-12T10:31:43Z</time>
      </trkpt>
      <trkpt lat="46.10007" lon="3.57059">
        <ele>441.58</ele>
        <time>2020-07-12T10:31:47Z</time>
      </trkpt>
      <trkpt lat="46.10007" lon="3.57088">
        <ele>441.89</ele>
        <time>2020-07-12T10:31:51Z</time>
      </trkpt>
      <trkpt lat="46.10003" lon="3.57118">
        <ele>442.17</ele>
        <time>2020-07-12T10:31:55Z</time>
      </trkpt>
      <trkpt lat="46.09998" lon="3.5715">
        <ele>442.43</ele>
        <time>2020-07-12T10:31:59Z</time>
      </trkpt>
      <trkpt lat="46.09992" lon="3.5718">
        <ele>442.68</ele>
        <time>2020-07-12T10:32:03Z</time>
      </trkpt>
      <trkpt lat="46.09988" lon="3.57209">
        <ele>442.93</ele>
        <time>2020-07-12T10:32:07Z</time>
      </trkpt>
      <trkpt lat="46.09988" lon="3.57238">
        <ele>443.15</ele>
        <time>2020-07-12T10:32:11Z</time>
      </trkpt>
      <trkpt lat="46.09989" lon="3.57267">
        <ele>443.35</ele>
        <time>2020-07-12T10:32:15Z</time>
      </trkpt>
      <trkpt lat="46.0999" lon="3.57294">
        <ele>443.53</ele>
        <time>2020-07-12T10:32:19Z</time>
      </trkpt>
      <trkpt lat="46.09992" lon="3.57321">
        <ele>443.7</ele>
        <time>2020-07-12T10:32:23Z</time>
      </trkpt>
      <trkpt lat="46.0999" lon="3.57347">
        <ele>443.89</ele>
        <time>2020-07-12T10:32:27Z</time>
      </trkpt>
      <trkpt lat="46.09986" lon="3.57372">
        <ele>444.09</ele>
        <time>2020-07-12T10:32:31Z</time>
      </trkpt>
      <trkpt lat="46.09976" lon="3.57396">
        <ele>444.28</ele>
        <time>2020-07-12T10:32:35Z</time>
      </trkpt>
      <trkpt lat="46.09963" lon="3.57421">
        <ele>444.59</ele>
        <time>2020-07-12T10:32:40Z</time>
      </trkpt>
      <trkpt lat="46.09954" lon="3.57446">
        <ele>444.9</ele>
        <time>2020-07-12T10:32:45Z</time>
      </trkpt>
      <trkpt lat="46.09944" lon="3.57471">
        <ele>444.96</ele>
        <time>2020-07-12T10:32:51Z</time>
      </trkpt>
      <trkpt lat="46.09934" lon="3.57494">
        <ele>445.08</ele>
        <time>2020-07-12T10:33:00Z</time>
      </trkpt>
      <trkpt lat="46.09928" lon="3.57519">
        <ele>445.24</ele>
        <time>2020-07-12T10:33:08Z</time>
      </trkpt>
      <trkpt lat="46.09927" lon="3.57546">
        <ele>445.43</ele>
        <time>2020-07-12T10:33:16Z</time>
      </trkpt>
      <trkpt lat="46.09925" lon="3.57576">
        <ele>445.62</ele>
        <time>2020-07-12T10:33:23Z</time>
      </trkpt>
      <trkpt lat="46.0992" lon="3.57605">
        <ele>445.83</ele>
        <time>2020-07-12T10:33:29Z</time>
      </trkpt>
      <trkpt lat="46.09913" lon="3.57633">
        <ele>446.06</ele>
        <time>2020-07-12T10:33:35Z</time>
      </trkpt>
      <trkpt lat="46.09904" lon="3.5766">
        <ele>446.31</ele>
        <time>2020-07-12T10:33:41Z</time>
      </trkpt>
      <trkpt lat="46.09896" lon="3.57687">
        <ele>446.58</ele>
        <time>2020-07-12T10:33:47Z</time>
      </trkpt>
      <trkpt lat="46.09891" lon="3.57715">
        <ele>446.85</ele>
        <time>2020-07-12T10:33:53Z</time>
      </trkpt>
      <trkpt lat="46.09885" lon="3.57743">
        <ele>447.22</ele>
        <time>2020-07-12T10:33:59Z</time>
      </trkpt>
      <trkpt lat="46.09876" lon="3.57768">
        <ele>447.88</ele>
        <time>2020-07-12T10:34:05Z</time>
      </trkpt>
      <trkpt lat="46.09863" lon="3.57793">
        <ele>448.68</ele>
        <time>2020-07-12T10:34:11Z</time>
      </trkpt>
      <trkpt lat="46.0985" lon="3.57814">
        <ele>449.62</ele>
        <time>2020-07-12T10:34:17Z</time>
      </trkpt>
      <trkpt lat="46.09837" lon="3.57834">
        <ele>450.65</ele>
        <time>2020-07-12T10:34:23Z</time>
      </trkpt>
      <trkpt lat="46.09824" lon="3.57853">
        <ele>451.78</ele>
        <time>2020-07-12T10:34:29Z</time>
      </trkpt>
      <trkpt lat="46.09808" lon="3.5787">
        <ele>453.18</ele>
        <time>2020-07-12T10:34:36Z</time>
      </trkpt>
      <trkpt lat="46.09793" lon="3.57891">
        <ele>454.33</ele>
        <time>2020-07-12T10:34:42Z</time>
      </trkpt>
      <trkpt lat="46.09779" lon="3.57915">
        <ele>455.49</ele>
        <time>2020-07-12T10:34:48Z</time>
      </trkpt>
      <trkpt lat="46.09769" lon="3.5794">
        <ele>456.65</ele>
        <time>2020-07-12T10:34:54Z</time>
      </trkpt>
      <trkpt lat="46.09755" lon="3.57958">
        <ele>458.33</ele>
        <time>2020-07-12T10:35:03Z</time>
      </trkpt>
      <trkpt lat="46.09735" lon="3.57949">
        <ele>459.55</ele>
        <time>2020-07-12T10:35:10Z</time>
      </trkpt>
      <trkpt lat="46.09715" lon="3.57942">
        <ele>460.81</ele>
        <time>2020-07-12T10:35:18Z</time>
      </trkpt>
      <trkpt lat="46.09695" lon="3.57935">
        <ele>461.79</ele>
        <time>2020-07-12T10:35:25Z</time>
      </trkpt>
      <trkpt lat="46.09673" lon="3.57936">
        <ele>465.68</ele>
        <time>2020-07-12T10:35:30Z</time>
      </trkpt>
      <trkpt lat="46.09654" lon="3.57944">
        <ele>465.99</ele>
        <time>2020-07-12T10:35:34Z</time>
      </trkpt>
      <trkpt lat="46.09636" lon="3.57948">
        <ele>467.23</ele>
        <time>2020-07-12T10:35:37Z</time>
      </trkpt>
      <trkpt lat="46.09621" lon="3.57926">
        <ele>467.77</ele>
        <time>2020-07-12T10:35:43Z</time>
      </trkpt>
      <trkpt lat="46.09618" lon="3.57899">
        <ele>468.21</ele>
        <time>2020-07-12T10:35:48Z</time>
      </trkpt>
      <trkpt lat="46.0962" lon="3.57866">
        <ele>469.74</ele>
        <time>2020-07-12T10:35:54Z</time>
      </trkpt>
      <trkpt lat="46.09612" lon="3.57841">
        <ele>471.93</ele>
        <time>2020-07-12T10:35:57Z</time>
      </trkpt>
      <trkpt lat="46.09601" lon="3.57819">
        <ele>473.27</ele>
        <time>2020-07-12T10:36:00Z</time>
      </trkpt>
      <trkpt lat="46.09585" lon="3.57793">
        <ele>474.5</ele>
        <time>2020-07-12T10:36:04Z</time>
      </trkpt>
      <trkpt lat="46.09572" lon="3.57773">
        <ele>474.82</ele>
        <time>2020-07-12T10:36:06Z</time>
      </trkpt>
      <trkpt lat="46.09554" lon="3.57752">
        <ele>474.58</ele>
        <time>2020-07-12T10:36:09Z</time>
      </trkpt>
      <trkpt lat="46.09533" lon="3.57751">
        <ele>474.62</ele>
        <time>2020-07-12T10:36:12Z</time>
      </trkpt>
      <trkpt lat="46.09521" lon="3.57773">
        <ele>474.94</ele>
        <time>2020-07-12T10:36:15Z</time>
      </trkpt>
      <trkpt lat="46.09504" lon="3.57785">
        <ele>475.3</ele>
        <time>2020-07-12T10:36:19Z</time>
      </trkpt>
      <trkpt lat="46.0949" lon="3.57765">
        <ele>475.54</ele>
        <time>2020-07-12T10:36:23Z</time>
      </trkpt>
      <trkpt lat="46.09475" lon="3.5775">
        <ele>476.06</ele>
        <time>2020-07-12T10:36:26Z</time>
      </trkpt>
      <trkpt lat="46.09458" lon="3.57735">
        <ele>476.71</ele>
        <time>2020-07-12T10:36:29Z</time>
      </trkpt>
      <trkpt lat="46.09437" lon="3.57723">
        <ele>477.54</ele>
        <time>2020-07-12T10:36:31Z</time>
      </trkpt>
      <trkpt lat="46.09414" lon="3.57719">
        <ele>478.27</ele>
        <time>2020-07-12T10:36:35Z</time>
      </trkpt>
      <trkpt lat="46.09392" lon="3.57729">
        <ele>478.5</ele>
        <time>2020-07-12T10:36:38Z</time>
      </trkpt>
      <trkpt lat="46.09372" lon="3.57742">
        <ele>478.63</ele>
        <time>2020-07-12T10:36:41Z</time>
      </trkpt>
      <trkpt lat="46.09356" lon="3.57753">
        <ele>478.62</ele>
        <time>2020-07-12T10:36:43Z</time>
      </trkpt>
      <trkpt lat="46.09336" lon="3.57762">
        <ele>478.52</ele>
        <time>2020-07-12T10:36:46Z</time>
      </trkpt>
      <trkpt lat="46.09313" lon="3.57761">
        <ele>477.87</ele>
        <time>2020-07-12T10:36:49Z</time>
      </trkpt>
      <trkpt lat="46.09302" lon="3.57739">
        <ele>476.87</ele>
        <time>2020-07-12T10:36:53Z</time>
      </trkpt>
      <trkpt lat="46.09281" lon="3.57736">
        <ele>476.4</ele>
        <time>2020-07-12T10:36:58Z</time>
      </trkpt>
      <trkpt lat="46.09259" lon="3.57735">
        <ele>475.18</ele>
        <time>2020-07-12T10:37:01Z</time>
      </trkpt>
      <trkpt lat="46.09238" lon="3.57736">
        <ele>473.9</ele>
        <time>2020-07-12T10:37:04Z</time>
      </trkpt>
      <trkpt lat="46.09219" lon="3.57738">
        <ele>472.81</ele>
        <time>2020-07-12T10:37:07Z</time>
      </trkpt>
      <trkpt lat="46.092" lon="3.5774">
        <ele>471.98</ele>
        <time>2020-07-12T10:37:10Z</time>
      </trkpt>
      <trkpt lat="46.09181" lon="3.57738">
        <ele>471.69</ele>
        <time>2020-07-12T10:37:13Z</time>
      </trkpt>
      <trkpt lat="46.09159" lon="3.57738">
        <ele>471.72</ele>
        <time>2020-07-12T10:37:17Z</time>
      </trkpt>
      <trkpt lat="46.09138" lon="3.57737">
        <ele>471.86</ele>
        <time>2020-07-12T10:37:22Z</time>
      </trkpt>
      <trkpt lat="46.0912" lon="3.57742">
        <ele>471.87</ele>
        <time>2020-07-12T10:37:28Z</time>
      </trkpt>
      <trkpt lat="46.0911" lon="3.57766">
        <ele>471.88</ele>
        <time>2020-07-12T10:37:34Z</time>
      </trkpt>
      <trkpt lat="46.09096" lon="3.57787">
        <ele>471.8</ele>
        <time>2020-07-12T10:37:42Z</time>
      </trkpt>
      <trkpt lat="46.09082" lon="3.57807">
        <ele>471.7</ele>
        <time>2020-07-12T10:37:54Z</time>
      </trkpt>
      <trkpt lat="46.0907" lon="3.57828">
        <ele>471.64</ele>
        <time>2020-07-12T10:38:06Z</time>
      </trkpt>
      <trkpt lat="46.09056" lon="3.57846">
        <ele>471.58</ele>
        <time>2020-07-12T10:38:14Z</time>
      </trkpt>
      <trkpt lat="46.09038" lon="3.57856">
        <ele>471.5</ele>
        <time>2020-07-12T10:38:22Z</time>
      </trkpt>
      <trkpt lat="46.09019" lon="3.57865">
        <ele>471.49</ele>
        <time>2020-07-12T10:38:30Z</time>
      </trkpt>
      <trkpt lat="46.09002" lon="3.57875">
        <ele>471.53</ele>
        <time>2020-07-12T10:38:37Z</time>
      </trkpt>
      <trkpt lat="46.0898" lon="3.57881">
        <ele>471.59</ele>
        <time>2020-07-12T10:38:44Z</time>
      </trkpt>
      <trkpt lat="46.08959" lon="3.57877">
        <ele>471.66</ele>
        <time>2020-07-12T10:38:50Z</time>
      </trkpt>
      <trkpt lat="46.08941" lon="3.57875">
        <ele>471.72</ele>
        <time>2020-07-12T10:38:55Z</time>
      </trkpt>
      <trkpt lat="46.0892" lon="3.57873">
        <ele>471.83</ele>
        <time>2020-07-12T10:39:01Z</time>
      </trkpt>
      <trkpt lat="46.08898" lon="3.57875">
        <ele>471.96</ele>
        <time>2020-07-12T10:39:07Z</time>
      </trkpt>
      <trkpt lat="46.08878" lon="3.57878">
        <ele>472.13</ele>
        <time>2020-07-12T10:39:14Z</time>
      </trkpt>
      <trkpt lat="46.08858" lon="3.57889">
        <ele>472.34</ele>
        <time>2020-07-12T10:39:20Z</time>
      </trkpt>
      <trkpt lat="46.08844" lon="3.57911">
        <ele>472.58</ele>
        <time>2020-07-12T10:39:26Z</time>
      </trkpt>
      <trkpt lat="46.0884" lon="3.5794">
        <ele>472.84</ele>
        <time>2020-07-12T10:39:32Z</time>
      </trkpt>
      <trkpt lat="46.08835" lon="3.57965">
        <ele>473.06</ele>
        <time>2020-07-12T10:39:37Z</time>
      </trkpt>
      <trkpt lat="46.08831" lon="3.57993">
        <ele>473.33</ele>
        <time>2020-07-12T10:39:43Z</time>
      </trkpt>
      <trkpt lat="46.08826" lon="3.58019">
        <ele>473.64</ele>
        <time>2020-07-12T10:39:50Z</time>
      </trkpt>
      <trkpt lat="46.08822" lon="3.58049">
        <ele>473.91</ele>
        <time>2020-07-12T10:39:56Z</time>
      </trkpt>
      <trkpt lat="46.08824" lon="3.58081">
        <ele>474.81</ele>
        <time>2020-07-12T10:40:01Z</time>
      </trkpt>
      <trkpt lat="46.08828" lon="3.58111">
        <ele>475.13</ele>
        <time>2020-07-12T10:40:06Z</time>
      </trkpt>
      <trkpt lat="46.08834" lon="3.58136">
        <ele>475.31</ele>
        <time>2020-07-12T10:40:11Z</time>
      </trkpt>
      <trkpt lat="46.08847" lon="3.58159">
        <ele>475.52</ele>
        <time>2020-07-12T10:40:17Z</time>
      </trkpt>
      <trkpt lat="46.08864" lon="3.58176">
        <ele>475.73</ele>
        <time>2020-07-12T10:40:23Z</time>
      </trkpt>
      <trkpt lat="46.08881" lon="3.58192">
        <ele>475.95</ele>
        <time>2020-07-12T10:40:29Z</time>
      </trkpt>
      <trkpt lat="46.08898" lon="3.58212">
        <ele>476.17</ele>
        <time>2020-07-12T10:40:35Z</time>
      </trkpt>
      <trkpt lat="46.0891" lon="3.58234">
        <ele>476.35</ele>
        <time>2020-07-12T10:40:40Z</time>
      </trkpt>
      <trkpt lat="46.08922" lon="3.5826">
        <ele>476.53</ele>
        <time>2020-07-12T10:40:45Z</time>
      </trkpt>
      <trkpt lat="46.08934" lon="3.58283">
        <ele>476.72</ele>
        <time>2020-07-12T10:40:50Z</time>
      </trkpt>
      <trkpt lat="46.08946" lon="3.58306">
        <ele>476.91</ele>
        <time>2020-07-12T10:40:55Z</time>
      </trkpt>
      <trkpt lat="46.08959" lon="3.58326">
        <ele>477.14</ele>
        <time>2020-07-12T10:41:01Z</time>
      </trkpt>
      <trkpt lat="46.08973" lon="3.58347">
        <ele>477.39</ele>
        <time>2020-07-12T10:41:07Z</time>
      </trkpt>
      <trkpt lat="46.08986" lon="3.58366">
        <ele>477.64</ele>
        <time>2020-07-12T10:41:12Z</time>
      </trkpt>
      <trkpt lat="46.09001" lon="3.58386">
        <ele>478.23</ele>
        <time>2020-07-12T10:41:17Z</time>
      </trkpt>
      <trkpt lat="46.09015" lon="3.58406">
        <ele>478.57</ele>
        <time>2020-07-12T10:41:21Z</time>
      </trkpt>
      <trkpt lat="46.09031" lon="3.58427">
        <ele>478.82</ele>
        <time>2020-07-12T10:41:26Z</time>
      </trkpt>
      <trkpt lat="46.09045" lon="3.58449">
        <ele>479.48</ele>
        <time>2020-07-12T10:41:31Z</time>
      </trkpt>
      <trkpt lat="46.09049" lon="3.58475">
        <ele>480.42</ele>
        <time>2020-07-12T10:41:35Z</time>
      </trkpt>
      <trkpt lat="46.09041" lon="3.58504">
        <ele>481.16</ele>
        <time>2020-07-12T10:41:40Z</time>
      </trkpt>
      <trkpt lat="46.09029" lon="3.58523">
        <ele>481.72</ele>
        <time>2020-07-12T10:41:45Z</time>
      </trkpt>
      <trkpt lat="46.09014" lon="3.58544">
        <ele>482.88</ele>
        <time>2020-07-12T10:41:50Z</time>
      </trkpt>
      <trkpt lat="46.09001" lon="3.58565">
        <ele>483.11</ele>
        <time>2020-07-12T10:41:55Z</time>
      </trkpt>
      <trkpt lat="46.0899" lon="3.5859">
        <ele>484</ele>
        <time>2020-07-12T10:42:00Z</time>
      </trkpt>
      <trkpt lat="46.08985" lon="3.58619">
        <ele>485.59</ele>
        <time>2020-07-12T10:42:05Z</time>
      </trkpt>
      <trkpt lat="46.08985" lon="3.58648">
        <ele>487.05</ele>
        <time>2020-07-12T10:42:10Z</time>
      </trkpt>
      <trkpt lat="46.08996" lon="3.58676">
        <ele>488.17</ele>
        <time>2020-07-12T10:42:15Z</time>
      </trkpt>
      <trkpt lat="46.09009" lon="3.58694">
        <ele>489.03</ele>
        <time>2020-07-12T10:42:19Z</time>
      </trkpt>
      <trkpt lat="46.09023" lon="3.58714">
        <ele>489.8</ele>
        <time>2020-07-12T10:42:23Z</time>
      </trkpt>
      <trkpt lat="46.09038" lon="3.58735">
        <ele>490.51</ele>
        <time>2020-07-12T10:42:27Z</time>
      </trkpt>
      <trkpt lat="46.09051" lon="3.58755">
        <ele>491.17</ele>
        <time>2020-07-12T10:42:31Z</time>
      </trkpt>
      <trkpt lat="46.09066" lon="3.58774">
        <ele>491.75</ele>
        <time>2020-07-12T10:42:35Z</time>
      </trkpt>
      <trkpt lat="46.0908" lon="3.58793">
        <ele>492.37</ele>
        <time>2020-07-12T10:42:39Z</time>
      </trkpt>
      <trkpt lat="46.09093" lon="3.58817">
        <ele>493.08</ele>
        <time>2020-07-12T10:42:43Z</time>
      </trkpt>
      <trkpt lat="46.09104" lon="3.58845">
        <ele>493.84</ele>
        <time>2020-07-12T10:42:47Z</time>
      </trkpt>
      <trkpt lat="46.09109" lon="3.58875">
        <ele>494.54</ele>
        <time>2020-07-12T10:42:51Z</time>
      </trkpt>
      <trkpt lat="46.0911" lon="3.58905">
        <ele>495.23</ele>
        <time>2020-07-12T10:42:55Z</time>
      </trkpt>
      <trkpt lat="46.0911" lon="3.58936">
        <ele>495.91</ele>
        <time>2020-07-12T10:42:59Z</time>
      </trkpt>
      <trkpt lat="46.09111" lon="3.58965">
        <ele>496.52</ele>
        <time>2020-07-12T10:43:03Z</time>
      </trkpt>
      <trkpt lat="46.09111" lon="3.58994">
        <ele>497.06</ele>
        <time>2020-07-12T10:43:07Z</time>
      </trkpt>
      <trkpt lat="46.09111" lon="3.59022">
        <ele>497.55</ele>
        <time>2020-07-12T10:43:11Z</time>
      </trkpt>
      <trkpt lat="46.0911" lon="3.59052">
        <ele>498.48</ele>
        <time>2020-07-12T10:43:15Z</time>
      </trkpt>
      <trkpt lat="46.09109" lon="3.59081">
        <ele>499.6</ele>
        <time>2020-07-12T10:43:19Z</time>
      </trkpt>
      <trkpt lat="46.09108" lon="3.59109">
        <ele>500.53</ele>
        <time>2020-07-12T10:43:23Z</time>
      </trkpt>
      <trkpt lat="46.09107" lon="3.59137">
        <ele>501.19</ele>
        <time>2020-07-12T10:43:27Z</time>
      </trkpt>
      <trkpt lat="46.09106" lon="3.59167">
        <ele>501.75</ele>
        <time>2020-07-12T10:43:31Z</time>
      </trkpt>
      <trkpt lat="46.09105" lon="3.59198">
        <ele>502.16</ele>
        <time>2020-07-12T10:43:35Z</time>
      </trkpt>
      <trkpt lat="46.09105" lon="3.59231">
        <ele>502.56</ele>
        <time>2020-07-12T10:43:39Z</time>
      </trkpt>
      <trkpt lat="46.09104" lon="3.59264">
        <ele>502.82</ele>
        <time>2020-07-12T10:43:43Z</time>
      </trkpt>
      <trkpt lat="46.09102" lon="3.59298">
        <ele>502.95</ele>
        <time>2020-07-12T10:43:47Z</time>
      </trkpt>
      <trkpt lat="46.09101" lon="3.59323">
        <ele>503.07</ele>
        <time>2020-07-12T10:43:50Z</time>
      </trkpt>
      <trkpt lat="46.09099" lon="3.59355">
        <ele>503.32</ele>
        <time>2020-07-12T10:43:54Z</time>
      </trkpt>
      <trkpt lat="46.09098" lon="3.59383">
        <ele>503.64</ele>
        <time>2020-07-12T10:43:58Z</time>
      </trkpt>
      <trkpt lat="46.09097" lon="3.59412">
        <ele>503.89</ele>
        <time>2020-07-12T10:44:02Z</time>
      </trkpt>
      <trkpt lat="46.09095" lon="3.59441">
        <ele>504.1</ele>
        <time>2020-07-12T10:44:06Z</time>
      </trkpt>
      <trkpt lat="46.09094" lon="3.59475">
        <ele>504.26</ele>
        <time>2020-07-12T10:44:10Z</time>
      </trkpt>
      <trkpt lat="46.09092" lon="3.59504">
        <ele>504.46</ele>
        <time>2020-07-12T10:44:14Z</time>
      </trkpt>
      <trkpt lat="46.0909" lon="3.59533">
        <ele>504.51</ele>
        <time>2020-07-12T10:44:18Z</time>
      </trkpt>
      <trkpt lat="46.09088" lon="3.59563">
        <ele>504.56</ele>
        <time>2020-07-12T10:44:22Z</time>
      </trkpt>
      <trkpt lat="46.09087" lon="3.59594">
        <ele>504.75</ele>
        <time>2020-07-12T10:44:26Z</time>
      </trkpt>
      <trkpt lat="46.09085" lon="3.59626">
        <ele>505.04</ele>
        <time>2020-07-12T10:44:30Z</time>
      </trkpt>
      <trkpt lat="46.09083" lon="3.59658">
        <ele>505.27</ele>
        <time>2020-07-12T10:44:34Z</time>
      </trkpt>
      <trkpt lat="46.09082" lon="3.59689">
        <ele>505.47</ele>
        <time>2020-07-12T10:44:38Z</time>
      </trkpt>
      <trkpt lat="46.09082" lon="3.59723">
        <ele>505.58</ele>
        <time>2020-07-12T10:44:42Z</time>
      </trkpt>
      <trkpt lat="46.09078" lon="3.59754">
        <ele>505.66</ele>
        <time>2020-07-12T10:44:46Z</time>
      </trkpt>
      <trkpt lat="46.09071" lon="3.5978">
        <ele>505.73</ele>
        <time>2020-07-12T10:44:50Z</time>
      </trkpt>
      <trkpt lat="46.09062" lon="3.59805">
        <ele>505.91</ele>
        <time>2020-07-12T10:44:54Z</time>
      </trkpt>
      <trkpt lat="46.09055" lon="3.59831">
        <ele>506.14</ele>
        <time>2020-07-12T10:44:58Z</time>
      </trkpt>
      <trkpt lat="46.09048" lon="3.59857">
        <ele>506.34</ele>
        <time>2020-07-12T10:45:02Z</time>
      </trkpt>
      <trkpt lat="46.0904" lon="3.59886">
        <ele>506.54</ele>
        <time>2020-07-12T10:45:06Z</time>
      </trkpt>
      <trkpt lat="46.09033" lon="3.59917">
        <ele>506.72</ele>
        <time>2020-07-12T10:45:10Z</time>
      </trkpt>
      <trkpt lat="46.09027" lon="3.59947">
        <ele>506.9</ele>
        <time>2020-07-12T10:45:14Z</time>
      </trkpt>
      <trkpt lat="46.09022" lon="3.59973">
        <ele>507.13</ele>
        <time>2020-07-12T10:45:18Z</time>
      </trkpt>
      <trkpt lat="46.09015" lon="3.60003">
        <ele>507.44</ele>
        <time>2020-07-12T10:45:23Z</time>
      </trkpt>
      <trkpt lat="46.09011" lon="3.60031">
        <ele>507.7</ele>
        <time>2020-07-12T10:45:27Z</time>
      </trkpt>
      <trkpt lat="46.09006" lon="3.60058">
        <ele>507.93</ele>
        <time>2020-07-12T10:45:31Z</time>
      </trkpt>
      <trkpt lat="46.09" lon="3.60087">
        <ele>508.17</ele>
        <time>2020-07-12T10:45:35Z</time>
      </trkpt>
      <trkpt lat="46.08993" lon="3.60117">
        <ele>508.38</ele>
        <time>2020-07-12T10:45:39Z</time>
      </trkpt>
      <trkpt lat="46.08987" lon="3.60147">
        <ele>508.59</ele>
        <time>2020-07-12T10:45:43Z</time>
      </trkpt>
      <trkpt lat="46.08981" lon="3.60177">
        <ele>508.79</ele>
        <time>2020-07-12T10:45:47Z</time>
      </trkpt>
      <trkpt lat="46.08978" lon="3.60207">
        <ele>508.97</ele>
        <time>2020-07-12T10:45:51Z</time>
      </trkpt>
      <trkpt lat="46.08981" lon="3.60237">
        <ele>509.1</ele>
        <time>2020-07-12T10:45:55Z</time>
      </trkpt>
      <trkpt lat="46.08984" lon="3.60266">
        <ele>509.24</ele>
        <time>2020-07-12T10:45:59Z</time>
      </trkpt>
      <trkpt lat="46.0899" lon="3.60293">
        <ele>509.35</ele>
        <time>2020-07-12T10:46:03Z</time>
      </trkpt>
      <trkpt lat="46.08995" lon="3.60319">
        <ele>509.41</ele>
        <time>2020-07-12T10:46:07Z</time>
      </trkpt>
      <trkpt lat="46.09001" lon="3.60345">
        <ele>509.52</ele>
        <time>2020-07-12T10:46:11Z</time>
      </trkpt>
      <trkpt lat="46.09006" lon="3.60371">
        <ele>509.69</ele>
        <time>2020-07-12T10:46:15Z</time>
      </trkpt>
      <trkpt lat="46.09014" lon="3.60398">
        <ele>509.83</ele>
        <time>2020-07-12T10:46:19Z</time>
      </trkpt>
      <trkpt lat="46.09021" lon="3.60426">
        <ele>509.95</ele>
        <time>2020-07-12T10:46:23Z</time>
      </trkpt>
      <trkpt lat="46.09031" lon="3.60455">
        <ele>510.05</ele>
        <time>2020-07-12T10:46:27Z</time>
      </trkpt>
      <trkpt lat="46.09038" lon="3.6048">
        <ele>510.14</ele>
        <time>2020-07-12T10:46:30Z</time>
      </trkpt>
      <trkpt lat="46.09047" lon="3.6051">
        <ele>510.26</ele>
        <time>2020-07-12T10:46:34Z</time>
      </trkpt>
      <trkpt lat="46.09054" lon="3.60538">
        <ele>510.4</ele>
        <time>2020-07-12T10:46:38Z</time>
      </trkpt>
      <trkpt lat="46.0906" lon="3.60569">
        <ele>510.47</ele>
        <time>2020-07-12T10:46:42Z</time>
      </trkpt>
      <trkpt lat="46.09061" lon="3.60604">
        <ele>510.54</ele>
        <time>2020-07-12T10:46:46Z</time>
      </trkpt>
      <trkpt lat="46.09061" lon="3.60632">
        <ele>510.63</ele>
        <time>2020-07-12T10:46:49Z</time>
      </trkpt>
      <trkpt lat="46.09061" lon="3.60658">
        <ele>510.72</ele>
        <time>2020-07-12T10:46:52Z</time>
      </trkpt>
      <trkpt lat="46.0906" lon="3.60692">
        <ele>510.73</ele>
        <time>2020-07-12T10:46:56Z</time>
      </trkpt>
      <trkpt lat="46.0906" lon="3.60725">
        <ele>510.68</ele>
        <time>2020-07-12T10:47:00Z</time>
      </trkpt>
      <trkpt lat="46.0906" lon="3.60757">
        <ele>510.59</ele>
        <time>2020-07-12T10:47:04Z</time>
      </trkpt>
      <trkpt lat="46.09059" lon="3.60788">
        <ele>510.57</ele>
        <time>2020-07-12T10:47:09Z</time>
      </trkpt>
      <trkpt lat="46.09058" lon="3.60817">
        <ele>510.6</ele>
        <time>2020-07-12T10:47:15Z</time>
      </trkpt>
      <trkpt lat="46.09057" lon="3.60846">
        <ele>510.64</ele>
        <time>2020-07-12T10:47:21Z</time>
      </trkpt>
      <trkpt lat="46.09055" lon="3.60873">
        <ele>510.67</ele>
        <time>2020-07-12T10:47:26Z</time>
      </trkpt>
      <trkpt lat="46.09055" lon="3.60899">
        <ele>510.71</ele>
        <time>2020-07-12T10:47:31Z</time>
      </trkpt>
      <trkpt lat="46.09054" lon="3.60929">
        <ele>510.77</ele>
        <time>2020-07-12T10:47:38Z</time>
      </trkpt>
      <trkpt lat="46.09047" lon="3.60958">
        <ele>511</ele>
        <time>2020-07-12T10:47:44Z</time>
      </trkpt>
      <trkpt lat="46.09035" lon="3.60985">
        <ele>511.29</ele>
        <time>2020-07-12T10:47:49Z</time>
      </trkpt>
      <trkpt lat="46.09024" lon="3.6101">
        <ele>511.45</ele>
        <time>2020-07-12T10:47:54Z</time>
      </trkpt>
      <trkpt lat="46.0901" lon="3.61036">
        <ele>511.58</ele>
        <time>2020-07-12T10:47:59Z</time>
      </trkpt>
      <trkpt lat="46.09" lon="3.61059">
        <ele>511.67</ele>
        <time>2020-07-12T10:48:03Z</time>
      </trkpt>
      <trkpt lat="46.08989" lon="3.61084">
        <ele>511.77</ele>
        <time>2020-07-12T10:48:07Z</time>
      </trkpt>
      <trkpt lat="46.08979" lon="3.61107">
        <ele>511.92</ele>
        <time>2020-07-12T10:48:11Z</time>
      </trkpt>
      <trkpt lat="46.08974" lon="3.61134">
        <ele>512.15</ele>
        <time>2020-07-12T10:48:15Z</time>
      </trkpt>
      <trkpt lat="46.08969" lon="3.61162">
        <ele>512.37</ele>
        <time>2020-07-12T10:48:19Z</time>
      </trkpt>
      <trkpt lat="46.08965" lon="3.61189">
        <ele>512.53</ele>
        <time>2020-07-12T10:48:23Z</time>
      </trkpt>
      <trkpt lat="46.08959" lon="3.61219">
        <ele>512.63</ele>
        <time>2020-07-12T10:48:28Z</time>
      </trkpt>
      <trkpt lat="46.08954" lon="3.6125">
        <ele>512.75</ele>
        <time>2020-07-12T10:48:33Z</time>
      </trkpt>
      <trkpt lat="46.08949" lon="3.61276">
        <ele>512.84</ele>
        <time>2020-07-12T10:48:37Z</time>
      </trkpt>
      <trkpt lat="46.08938" lon="3.61306">
        <ele>512.91</ele>
        <time>2020-07-12T10:48:41Z</time>
      </trkpt>
      <trkpt lat="46.08931" lon="3.61332">
        <ele>512.95</ele>
        <time>2020-07-12T10:48:44Z</time>
      </trkpt>
      <trkpt lat="46.08928" lon="3.6136">
        <ele>513.04</ele>
        <time>2020-07-12T10:48:47Z</time>
      </trkpt>
      <trkpt lat="46.0893" lon="3.61391">
        <ele>513.1</ele>
        <time>2020-07-12T10:48:50Z</time>
      </trkpt>
      <trkpt lat="46.08933" lon="3.61423">
        <ele>512.98</ele>
        <time>2020-07-12T10:48:53Z</time>
      </trkpt>
      <trkpt lat="46.08935" lon="3.61457">
        <ele>512.61</ele>
        <time>2020-07-12T10:48:56Z</time>
      </trkpt>
      <trkpt lat="46.08938" lon="3.6149">
        <ele>512.02</ele>
        <time>2020-07-12T10:48:59Z</time>
      </trkpt>
      <trkpt lat="46.08942" lon="3.61524">
        <ele>511.36</ele>
        <time>2020-07-12T10:49:02Z</time>
      </trkpt>
      <trkpt lat="46.08948" lon="3.61557">
        <ele>510.57</ele>
        <time>2020-07-12T10:49:05Z</time>
      </trkpt>
      <trkpt lat="46.08958" lon="3.61588">
        <ele>509.68</ele>
        <time>2020-07-12T10:49:08Z</time>
      </trkpt>
      <trkpt lat="46.08969" lon="3.6162">
        <ele>508.6</ele>
        <time>2020-07-12T10:49:11Z</time>
      </trkpt>
      <trkpt lat="46.08979" lon="3.61654">
        <ele>507.61</ele>
        <time>2020-07-12T10:49:14Z</time>
      </trkpt>
      <trkpt lat="46.08987" lon="3.61689">
        <ele>506.7</ele>
        <time>2020-07-12T10:49:17Z</time>
      </trkpt>
      <trkpt lat="46.08999" lon="3.61722">
        <ele>505.79</ele>
        <time>2020-07-12T10:49:20Z</time>
      </trkpt>
      <trkpt lat="46.09017" lon="3.61751">
        <ele>504.94</ele>
        <time>2020-07-12T10:49:23Z</time>
      </trkpt>
      <trkpt lat="46.09027" lon="3.61775">
        <ele>504.28</ele>
        <time>2020-07-12T10:49:25Z</time>
      </trkpt>
      <trkpt lat="46.09032" lon="3.618">
        <ele>503.77</ele>
        <time>2020-07-12T10:49:27Z</time>
      </trkpt>
      <trkpt lat="46.09035" lon="3.61826">
        <ele>503.21</ele>
        <time>2020-07-12T10:49:29Z</time>
      </trkpt>
      <trkpt lat="46.0904" lon="3.61863">
        <ele>502.3</ele>
        <time>2020-07-12T10:49:32Z</time>
      </trkpt>
      <trkpt lat="46.09046" lon="3.61897">
        <ele>501.54</ele>
        <time>2020-07-12T10:49:35Z</time>
      </trkpt>
      <trkpt lat="46.09051" lon="3.61932">
        <ele>500.67</ele>
        <time>2020-07-12T10:49:38Z</time>
      </trkpt>
      <trkpt lat="46.09059" lon="3.61966">
        <ele>499.18</ele>
        <time>2020-07-12T10:49:41Z</time>
      </trkpt>
      <trkpt lat="46.09071" lon="3.61999">
        <ele>497.31</ele>
        <time>2020-07-12T10:49:45Z</time>
      </trkpt>
      <trkpt lat="46.0909" lon="3.62025">
        <ele>495.66</ele>
        <time>2020-07-12T10:49:48Z</time>
      </trkpt>
      <trkpt lat="46.09112" lon="3.62042">
        <ele>493.7</ele>
        <time>2020-07-12T10:49:51Z</time>
      </trkpt>
      <trkpt lat="46.09136" lon="3.62057">
        <ele>492.02</ele>
        <time>2020-07-12T10:49:54Z</time>
      </trkpt>
      <trkpt lat="46.09153" lon="3.62066">
        <ele>491.12</ele>
        <time>2020-07-12T10:49:56Z</time>
      </trkpt>
      <trkpt lat="46.09171" lon="3.62078">
        <ele>490.36</ele>
        <time>2020-07-12T10:49:58Z</time>
      </trkpt>
      <trkpt lat="46.09189" lon="3.6209">
        <ele>489.94</ele>
        <time>2020-07-12T10:50:00Z</time>
      </trkpt>
      <trkpt lat="46.09207" lon="3.62101">
        <ele>488.76</ele>
        <time>2020-07-12T10:50:02Z</time>
      </trkpt>
      <trkpt lat="46.09219" lon="3.62123">
        <ele>487.28</ele>
        <time>2020-07-12T10:50:04Z</time>
      </trkpt>
      <trkpt lat="46.09223" lon="3.6215">
        <ele>485.49</ele>
        <time>2020-07-12T10:50:06Z</time>
      </trkpt>
      <trkpt lat="46.09219" lon="3.62176">
        <ele>484.07</ele>
        <time>2020-07-12T10:50:08Z</time>
      </trkpt>
      <trkpt lat="46.09204" lon="3.62199">
        <ele>483.58</ele>
        <time>2020-07-12T10:50:11Z</time>
      </trkpt>
      <trkpt lat="46.09192" lon="3.62221">
        <ele>483.67</ele>
        <time>2020-07-12T10:50:15Z</time>
      </trkpt>
      <trkpt lat="46.09182" lon="3.62244">
        <ele>483.85</ele>
        <time>2020-07-12T10:50:23Z</time>
      </trkpt>
      <trkpt lat="46.09172" lon="3.62265">
        <ele>483.91</ele>
        <time>2020-07-12T10:50:32Z</time>
      </trkpt>
      <trkpt lat="46.09156" lon="3.62283">
        <ele>483.96</ele>
        <time>2020-07-12T10:50:42Z</time>
      </trkpt>
      <trkpt lat="46.09139" lon="3.62296">
        <ele>484.18</ele>
        <time>2020-07-12T10:50:52Z</time>
      </trkpt>
      <trkpt lat="46.09123" lon="3.62312">
        <ele>484.58</ele>
        <time>2020-07-12T10:51:02Z</time>
      </trkpt>
      <trkpt lat="46.09107" lon="3.62327">
        <ele>485.02</ele>
        <time>2020-07-12T10:51:11Z</time>
      </trkpt>
      <trkpt lat="46.09093" lon="3.62347">
        <ele>485.51</ele>
        <time>2020-07-12T10:51:20Z</time>
      </trkpt>
      <trkpt lat="46.0908" lon="3.62367">
        <ele>486.09</ele>
        <time>2020-07-12T10:51:29Z</time>
      </trkpt>
      <trkpt lat="46.09067" lon="3.62386">
        <ele>486.68</ele>
        <time>2020-07-12T10:51:37Z</time>
      </trkpt>
      <trkpt lat="46.09051" lon="3.62405">
        <ele>487.4</ele>
        <time>2020-07-12T10:51:46Z</time>
      </trkpt>
      <trkpt lat="46.09035" lon="3.6242">
        <ele>488.07</ele>
        <time>2020-07-12T10:51:54Z</time>
      </trkpt>
      <trkpt lat="46.0902" lon="3.62438">
        <ele>489.1</ele>
        <time>2020-07-12T10:51:59Z</time>
      </trkpt>
      <trkpt lat="46.09009" lon="3.62459">
        <ele>489.55</ele>
        <time>2020-07-12T10:52:05Z</time>
      </trkpt>
      <trkpt lat="46.08996" lon="3.62481">
        <ele>489.99</ele>
        <time>2020-07-12T10:52:12Z</time>
      </trkpt>
      <trkpt lat="46.08985" lon="3.62505">
        <ele>490.36</ele>
        <time>2020-07-12T10:52:18Z</time>
      </trkpt>
      <trkpt lat="46.08977" lon="3.62533">
        <ele>490.73</ele>
        <time>2020-07-12T10:52:24Z</time>
      </trkpt>
      <trkpt lat="46.08978" lon="3.62561">
        <ele>491.11</ele>
        <time>2020-07-12T10:52:30Z</time>
      </trkpt>
      <trkpt lat="46.08984" lon="3.62586">
        <ele>491.47</ele>
        <time>2020-07-12T10:52:36Z</time>
      </trkpt>
      <trkpt lat="46.08993" lon="3.62612">
        <ele>491.8</ele>
        <time>2020-07-12T10:52:42Z</time>
      </trkpt>
      <trkpt lat="46.09003" lon="3.62634">
        <ele>492.06</ele>
        <time>2020-07-12T10:52:47Z</time>
      </trkpt>
      <trkpt lat="46.09016" lon="3.62657">
        <ele>492.39</ele>
        <time>2020-07-12T10:52:53Z</time>
      </trkpt>
      <trkpt lat="46.0903" lon="3.62678">
        <ele>492.78</ele>
        <time>2020-07-12T10:53:00Z</time>
      </trkpt>
      <trkpt lat="46.09044" lon="3.62701">
        <ele>493.15</ele>
        <time>2020-07-12T10:53:06Z</time>
      </trkpt>
      <trkpt lat="46.09056" lon="3.62724">
        <ele>493.53</ele>
        <time>2020-07-12T10:53:12Z</time>
      </trkpt>
      <trkpt lat="46.09069" lon="3.62747">
        <ele>493.94</ele>
        <time>2020-07-12T10:53:18Z</time>
      </trkpt>
      <trkpt lat="46.09082" lon="3.6277">
        <ele>494.38</ele>
        <time>2020-07-12T10:53:24Z</time>
      </trkpt>
      <trkpt lat="46.09094" lon="3.62793">
        <ele>496.64</ele>
        <time>2020-07-12T10:53:29Z</time>
      </trkpt>
      <trkpt lat="46.09108" lon="3.62815">
        <ele>498.19</ele>
        <time>2020-07-12T10:53:34Z</time>
      </trkpt>
      <trkpt lat="46.09121" lon="3.62835">
        <ele>498.88</ele>
        <time>2020-07-12T10:53:38Z</time>
      </trkpt>
      <trkpt lat="46.09136" lon="3.62857">
        <ele>499.47</ele>
        <time>2020-07-12T10:53:43Z</time>
      </trkpt>
      <trkpt lat="46.09149" lon="3.62878">
        <ele>499.58</ele>
        <time>2020-07-12T10:53:49Z</time>
      </trkpt>
      <trkpt lat="46.09147" lon="3.62904">
        <ele>499.87</ele>
        <time>2020-07-12T10:54:04Z</time>
      </trkpt>
      <trkpt lat="46.09122" lon="3.62909">
        <ele>500.63</ele>
        <time>2020-07-12T10:54:10Z</time>
      </trkpt>
      <trkpt lat="46.09103" lon="3.6291">
        <ele>501.22</ele>
        <time>2020-07-12T10:54:14Z</time>
      </trkpt>
      <trkpt lat="46.09084" lon="3.6291">
        <ele>501.52</ele>
        <time>2020-07-12T10:54:17Z</time>
      </trkpt>
      <trkpt lat="46.09066" lon="3.62909">
        <ele>501.8</ele>
        <time>2020-07-12T10:54:20Z</time>
      </trkpt>
      <trkpt lat="46.09048" lon="3.62905">
        <ele>501.94</ele>
        <time>2020-07-12T10:54:25Z</time>
      </trkpt>
      <trkpt lat="46.0903" lon="3.62904">
        <ele>502.01</ele>
        <time>2020-07-12T10:54:31Z</time>
      </trkpt>
      <trkpt lat="46.0901" lon="3.62905">
        <ele>502.15</ele>
        <time>2020-07-12T10:54:38Z</time>
      </trkpt>
      <trkpt lat="46.08992" lon="3.62906">
        <ele>502.27</ele>
        <time>2020-07-12T10:54:44Z</time>
      </trkpt>
      <trkpt lat="46.08971" lon="3.62908">
        <ele>502.41</ele>
        <time>2020-07-12T10:54:50Z</time>
      </trkpt>
      <trkpt lat="46.08951" lon="3.62915">
        <ele>502.61</ele>
        <time>2020-07-12T10:54:57Z</time>
      </trkpt>
      <trkpt lat="46.08932" lon="3.62927">
        <ele>502.78</ele>
        <time>2020-07-12T10:55:02Z</time>
      </trkpt>
      <trkpt lat="46.08915" lon="3.62937">
        <ele>502.97</ele>
        <time>2020-07-12T10:55:07Z</time>
      </trkpt>
      <trkpt lat="46.08896" lon="3.62943">
        <ele>503.28</ele>
        <time>2020-07-12T10:55:14Z</time>
      </trkpt>
      <trkpt lat="46.08876" lon="3.62947">
        <ele>503.69</ele>
        <time>2020-07-12T10:55:22Z</time>
      </trkpt>
      <trkpt lat="46.08856" lon="3.6296">
        <ele>504.02</ele>
        <time>2020-07-12T10:55:28Z</time>
      </trkpt>
      <trkpt lat="46.08838" lon="3.62975">
        <ele>504.39</ele>
        <time>2020-07-12T10:55:34Z</time>
      </trkpt>
      <trkpt lat="46.08819" lon="3.62986">
        <ele>504.78</ele>
        <time>2020-07-12T10:55:40Z</time>
      </trkpt>
      <trkpt lat="46.08802" lon="3.62994">
        <ele>505.12</ele>
        <time>2020-07-12T10:55:45Z</time>
      </trkpt>
      <trkpt lat="46.08781" lon="3.63003">
        <ele>505.55</ele>
        <time>2020-07-12T10:55:51Z</time>
      </trkpt>
      <trkpt lat="46.08764" lon="3.6301">
        <ele>506.55</ele>
        <time>2020-07-12T10:55:56Z</time>
      </trkpt>
      <trkpt lat="46.08745" lon="3.63025">
        <ele>506.93</ele>
        <time>2020-07-12T10:56:02Z</time>
      </trkpt>
      <trkpt lat="46.08729" lon="3.6304">
        <ele>507.27</ele>
        <time>2020-07-12T10:56:07Z</time>
      </trkpt>
      <trkpt lat="46.08711" lon="3.6305">
        <ele>508.03</ele>
        <time>2020-07-12T10:56:12Z</time>
      </trkpt>
      <trkpt lat="46.08692" lon="3.63063">
        <ele>509.71</ele>
        <time>2020-07-12T10:56:16Z</time>
      </trkpt>
      <trkpt lat="46.08675" lon="3.63073">
        <ele>510.49</ele>
        <time>2020-07-12T10:56:20Z</time>
      </trkpt>
      <trkpt lat="46.08656" lon="3.63084">
        <ele>510.77</ele>
        <time>2020-07-12T10:56:23Z</time>
      </trkpt>
      <trkpt lat="46.08637" lon="3.63096">
        <ele>510.95</ele>
        <time>2020-07-12T10:56:26Z</time>
      </trkpt>
      <trkpt lat="46.0862" lon="3.6311">
        <ele>511.08</ele>
        <time>2020-07-12T10:56:30Z</time>
      </trkpt>
      <trkpt lat="46.08613" lon="3.63139">
        <ele>511.16</ele>
        <time>2020-07-12T10:56:34Z</time>
      </trkpt>
      <trkpt lat="46.08608" lon="3.63165">
        <ele>511.22</ele>
        <time>2020-07-12T10:56:37Z</time>
      </trkpt>
      <trkpt lat="46.08599" lon="3.63198">
        <ele>511.27</ele>
        <time>2020-07-12T10:56:40Z</time>
      </trkpt>
      <trkpt lat="46.08585" lon="3.6323">
        <ele>511.32</ele>
        <time>2020-07-12T10:56:43Z</time>
      </trkpt>
      <trkpt lat="46.08576" lon="3.63259">
        <ele>511.39</ele>
        <time>2020-07-12T10:56:46Z</time>
      </trkpt>
      <trkpt lat="46.08567" lon="3.63282">
        <ele>511.46</ele>
        <time>2020-07-12T10:56:49Z</time>
      </trkpt>
      <trkpt lat="46.08557" lon="3.63308">
        <ele>511.62</ele>
        <time>2020-07-12T10:56:53Z</time>
      </trkpt>
      <trkpt lat="46.08547" lon="3.6333">
        <ele>511.88</ele>
        <time>2020-07-12T10:56:57Z</time>
      </trkpt>
      <trkpt lat="46.08537" lon="3.63356">
        <ele>512.17</ele>
        <time>2020-07-12T10:57:01Z</time>
      </trkpt>
      <trkpt lat="46.08528" lon="3.63381">
        <ele>512.31</ele>
        <time>2020-07-12T10:57:05Z</time>
      </trkpt>
      <trkpt lat="46.08519" lon="3.63408">
        <ele>512.55</ele>
        <time>2020-07-12T10:57:09Z</time>
      </trkpt>
      <trkpt lat="46.0851" lon="3.63433">
        <ele>513.05</ele>
        <time>2020-07-12T10:57:13Z</time>
      </trkpt>
      <trkpt lat="46.08504" lon="3.63458">
        <ele>513.41</ele>
        <time>2020-07-12T10:57:17Z</time>
      </trkpt>
      <trkpt lat="46.08497" lon="3.63484">
        <ele>513.65</ele>
        <time>2020-07-12T10:57:21Z</time>
      </trkpt>
      <trkpt lat="46.08489" lon="3.63509">
        <ele>513.75</ele>
        <time>2020-07-12T10:57:25Z</time>
      </trkpt>
      <trkpt lat="46.08479" lon="3.63534">
        <ele>513.82</ele>
        <time>2020-07-12T10:57:29Z</time>
      </trkpt>
      <trkpt lat="46.08467" lon="3.63558">
        <ele>513.85</ele>
        <time>2020-07-12T10:57:34Z</time>
      </trkpt>
      <trkpt lat="46.08451" lon="3.63581">
        <ele>513.94</ele>
        <time>2020-07-12T10:57:40Z</time>
      </trkpt>
      <trkpt lat="46.08439" lon="3.63605">
        <ele>513.97</ele>
        <time>2020-07-12T10:57:45Z</time>
      </trkpt>
      <trkpt lat="46.08421" lon="3.63622">
        <ele>513.96</ele>
        <time>2020-07-12T10:57:50Z</time>
      </trkpt>
      <trkpt lat="46.08403" lon="3.63633">
        <ele>513.93</ele>
        <time>2020-07-12T10:57:54Z</time>
      </trkpt>
      <trkpt lat="46.08383" lon="3.63641">
        <ele>513.99</ele>
        <time>2020-07-12T10:57:59Z</time>
      </trkpt>
      <trkpt lat="46.08363" lon="3.63641">
        <ele>514.1</ele>
        <time>2020-07-12T10:58:04Z</time>
      </trkpt>
      <trkpt lat="46.08343" lon="3.63641">
        <ele>514.26</ele>
        <time>2020-07-12T10:58:08Z</time>
      </trkpt>
      <trkpt lat="46.0832" lon="3.63639">
        <ele>514.41</ele>
        <time>2020-07-12T10:58:13Z</time>
      </trkpt>
      <trkpt lat="46.08299" lon="3.63638">
        <ele>514.55</ele>
        <time>2020-07-12T10:58:17Z</time>
      </trkpt>
      <trkpt lat="46.08278" lon="3.63642">
        <ele>514.65</ele>
        <time>2020-07-12T10:58:22Z</time>
      </trkpt>
      <trkpt lat="46.08257" lon="3.63643">
        <ele>514.74</ele>
        <time>2020-07-12T10:58:27Z</time>
      </trkpt>
      <trkpt lat="46.08236" lon="3.63649">
        <ele>515.15</ele>
        <time>2020-07-12T10:58:32Z</time>
      </trkpt>
      <trkpt lat="46.08217" lon="3.6366">
        <ele>516.62</ele>
        <time>2020-07-12T10:58:36Z</time>
      </trkpt>
      <trkpt lat="46.08198" lon="3.63674">
        <ele>518.28</ele>
        <time>2020-07-12T10:58:40Z</time>
      </trkpt>
      <trkpt lat="46.08181" lon="3.63691">
        <ele>519.47</ele>
        <time>2020-07-12T10:58:44Z</time>
      </trkpt>
      <trkpt lat="46.08166" lon="3.63709">
        <ele>520.35</ele>
        <time>2020-07-12T10:58:48Z</time>
      </trkpt>
      <trkpt lat="46.0815" lon="3.63726">
        <ele>520.52</ele>
        <time>2020-07-12T10:58:53Z</time>
      </trkpt>
      <trkpt lat="46.08133" lon="3.63745">
        <ele>520.94</ele>
        <time>2020-07-12T10:58:58Z</time>
      </trkpt>
      <trkpt lat="46.08113" lon="3.6376">
        <ele>522.32</ele>
        <time>2020-07-12T10:59:03Z</time>
      </trkpt>
      <trkpt lat="46.08096" lon="3.63769">
        <ele>522.82</ele>
        <time>2020-07-12T10:59:08Z</time>
      </trkpt>
      <trkpt lat="46.08075" lon="3.63773">
        <ele>523.26</ele>
        <time>2020-07-12T10:59:14Z</time>
      </trkpt>
      <trkpt lat="46.08053" lon="3.63771">
        <ele>525.02</ele>
        <time>2020-07-12T10:59:18Z</time>
      </trkpt>
      <trkpt lat="46.08033" lon="3.63767">
        <ele>526.05</ele>
        <time>2020-07-12T10:59:22Z</time>
      </trkpt>
      <trkpt lat="46.0801" lon="3.63765">
        <ele>526.56</ele>
        <time>2020-07-12T10:59:26Z</time>
      </trkpt>
      <trkpt lat="46.07989" lon="3.63763">
        <ele>527.45</ele>
        <time>2020-07-12T10:59:30Z</time>
      </trkpt>
      <trkpt lat="46.07969" lon="3.63763">
        <ele>528.85</ele>
        <time>2020-07-12T10:59:34Z</time>
      </trkpt>
      <trkpt lat="46.07949" lon="3.63766">
        <ele>530.13</ele>
        <time>2020-07-12T10:59:38Z</time>
      </trkpt>
      <trkpt lat="46.07931" lon="3.6377">
        <ele>531.01</ele>
        <time>2020-07-12T10:59:42Z</time>
      </trkpt>
      <trkpt lat="46.0791" lon="3.63782">
        <ele>531.63</ele>
        <time>2020-07-12T10:59:46Z</time>
      </trkpt>
      <trkpt lat="46.07891" lon="3.63796">
        <ele>531.74</ele>
        <time>2020-07-12T10:59:50Z</time>
      </trkpt>
      <trkpt lat="46.07874" lon="3.63812">
        <ele>531.8</ele>
        <time>2020-07-12T10:59:54Z</time>
      </trkpt>
      <trkpt lat="46.07855" lon="3.63826">
        <ele>531.72</ele>
        <time>2020-07-12T10:59:58Z</time>
      </trkpt>
      <trkpt lat="46.07839" lon="3.63843">
        <ele>531.8</ele>
        <time>2020-07-12T11:00:02Z</time>
      </trkpt>
      <trkpt lat="46.0782" lon="3.63857">
        <ele>531.98</ele>
        <time>2020-07-12T11:00:06Z</time>
      </trkpt>
      <trkpt lat="46.07801" lon="3.63867">
        <ele>531.95</ele>
        <time>2020-07-12T11:00:10Z</time>
      </trkpt>
      <trkpt lat="46.0778" lon="3.63877">
        <ele>531.52</ele>
        <time>2020-07-12T11:00:14Z</time>
      </trkpt>
      <trkpt lat="46.07757" lon="3.63889">
        <ele>531.11</ele>
        <time>2020-07-12T11:00:18Z</time>
      </trkpt>
      <trkpt lat="46.07738" lon="3.63906">
        <ele>531.12</ele>
        <time>2020-07-12T11:00:21Z</time>
      </trkpt>
      <trkpt lat="46.07721" lon="3.63925">
        <ele>531.39</ele>
        <time>2020-07-12T11:00:25Z</time>
      </trkpt>
      <trkpt lat="46.07705" lon="3.63944">
        <ele>531.43</ele>
        <time>2020-07-12T11:00:28Z</time>
      </trkpt>
      <trkpt lat="46.07692" lon="3.63963">
        <ele>531.43</ele>
        <time>2020-07-12T11:00:31Z</time>
      </trkpt>
      <trkpt lat="46.07682" lon="3.63987">
        <ele>531.48</ele>
        <time>2020-07-12T11:00:34Z</time>
      </trkpt>
      <trkpt lat="46.0767" lon="3.64009">
        <ele>531.64</ele>
        <time>2020-07-12T11:00:37Z</time>
      </trkpt>
      <trkpt lat="46.07653" lon="3.64026">
        <ele>531.64</ele>
        <time>2020-07-12T11:00:40Z</time>
      </trkpt>
      <trkpt lat="46.07636" lon="3.64034">
        <ele>531.58</ele>
        <time>2020-07-12T11:00:43Z</time>
      </trkpt>
      <trkpt lat="46.07616" lon="3.64041">
        <ele>531.42</ele>
        <time>2020-07-12T11:00:47Z</time>
      </trkpt>
      <trkpt lat="46.07594" lon="3.64042">
        <ele>531.29</ele>
        <time>2020-07-12T11:00:50Z</time>
      </trkpt>
      <trkpt lat="46.07572" lon="3.64048">
        <ele>531.09</ele>
        <time>2020-07-12T11:00:53Z</time>
      </trkpt>
      <trkpt lat="46.07553" lon="3.64053">
        <ele>530.75</ele>
        <time>2020-07-12T11:00:56Z</time>
      </trkpt>
      <trkpt lat="46.07534" lon="3.64062">
        <ele>530.53</ele>
        <time>2020-07-12T11:00:59Z</time>
      </trkpt>
      <trkpt lat="46.07515" lon="3.64071">
        <ele>530.34</ele>
        <time>2020-07-12T11:01:02Z</time>
      </trkpt>
      <trkpt lat="46.07495" lon="3.64087">
        <ele>529.93</ele>
        <time>2020-07-12T11:01:06Z</time>
      </trkpt>
      <trkpt lat="46.07481" lon="3.64106">
        <ele>529.8</ele>
        <time>2020-07-12T11:01:09Z</time>
      </trkpt>
      <trkpt lat="46.07466" lon="3.64127">
        <ele>530.4</ele>
        <time>2020-07-12T11:01:12Z</time>
      </trkpt>
      <trkpt lat="46.07453" lon="3.64152">
        <ele>531.32</ele>
        <time>2020-07-12T11:01:15Z</time>
      </trkpt>
      <trkpt lat="46.07443" lon="3.64181">
        <ele>531.53</ele>
        <time>2020-07-12T11:01:18Z</time>
      </trkpt>
      <trkpt lat="46.07438" lon="3.64212">
        <ele>531.45</ele>
        <time>2020-07-12T11:01:21Z</time>
      </trkpt>
      <trkpt lat="46.07436" lon="3.64243">
        <ele>531.23</ele>
        <time>2020-07-12T11:01:24Z</time>
      </trkpt>
      <trkpt lat="46.07438" lon="3.64273">
        <ele>530.8</ele>
        <time>2020-07-12T11:01:27Z</time>
      </trkpt>
      <trkpt lat="46.07443" lon="3.64304">
        <ele>530.32</ele>
        <time>2020-07-12T11:01:31Z</time>
      </trkpt>
      <trkpt lat="46.07451" lon="3.64337">
        <ele>529.78</ele>
        <time>2020-07-12T11:01:35Z</time>
      </trkpt>
      <trkpt lat="46.0746" lon="3.64363">
        <ele>529.39</ele>
        <time>2020-07-12T11:01:39Z</time>
      </trkpt>
      <trkpt lat="46.07475" lon="3.64388">
        <ele>529.12</ele>
        <time>2020-07-12T11:01:43Z</time>
      </trkpt>
      <trkpt lat="46.07488" lon="3.64407">
        <ele>528.83</ele>
        <time>2020-07-12T11:01:46Z</time>
      </trkpt>
      <trkpt lat="46.07501" lon="3.64426">
        <ele>528.49</ele>
        <time>2020-07-12T11:01:49Z</time>
      </trkpt>
      <trkpt lat="46.07518" lon="3.64448">
        <ele>528.13</ele>
        <time>2020-07-12T11:01:53Z</time>
      </trkpt>
      <trkpt lat="46.07531" lon="3.64467">
        <ele>527.9</ele>
        <time>2020-07-12T11:01:57Z</time>
      </trkpt>
      <trkpt lat="46.07544" lon="3.64486">
        <ele>527.84</ele>
        <time>2020-07-12T11:02:01Z</time>
      </trkpt>
      <trkpt lat="46.07561" lon="3.64507">
        <ele>527.82</ele>
        <time>2020-07-12T11:02:05Z</time>
      </trkpt>
      <trkpt lat="46.07579" lon="3.64522">
        <ele>527.76</ele>
        <time>2020-07-12T11:02:09Z</time>
      </trkpt>
      <trkpt lat="46.076" lon="3.64535">
        <ele>527.73</ele>
        <time>2020-07-12T11:02:13Z</time>
      </trkpt>
      <trkpt lat="46.0762" lon="3.64545">
        <ele>527.73</ele>
        <time>2020-07-12T11:02:17Z</time>
      </trkpt>
      <trkpt lat="46.07643" lon="3.64552">
        <ele>527.74</ele>
        <time>2020-07-12T11:02:21Z</time>
      </trkpt>
      <trkpt lat="46.07666" lon="3.64555">
        <ele>527.74</ele>
        <time>2020-07-12T11:02:25Z</time>
      </trkpt>
      <trkpt lat="46.07685" lon="3.64559">
        <ele>527.78</ele>
        <time>2020-07-12T11:02:29Z</time>
      </trkpt>
      <trkpt lat="46.07704" lon="3.64565">
        <ele>527.73</ele>
        <time>2020-07-12T11:02:33Z</time>
      </trkpt>
      <trkpt lat="46.0772" lon="3.64576">
        <ele>527.7</ele>
        <time>2020-07-12T11:02:37Z</time>
      </trkpt>
      <trkpt lat="46.07738" lon="3.64592">
        <ele>527.7</ele>
        <time>2020-07-12T11:02:42Z</time>
      </trkpt>
      <trkpt lat="46.07756" lon="3.64611">
        <ele>527.67</ele>
        <time>2020-07-12T11:02:46Z</time>
      </trkpt>
      <trkpt lat="46.07769" lon="3.64631">
        <ele>527.54</ele>
        <time>2020-07-12T11:02:49Z</time>
      </trkpt>
      <trkpt lat="46.07781" lon="3.64658">
        <ele>527.4</ele>
        <time>2020-07-12T11:02:52Z</time>
      </trkpt>
      <trkpt lat="46.0779" lon="3.64689">
        <ele>527.46</ele>
        <time>2020-07-12T11:02:56Z</time>
      </trkpt>
      <trkpt lat="46.07795" lon="3.64723">
        <ele>527.59</ele>
        <time>2020-07-12T11:03:00Z</time>
      </trkpt>
      <trkpt lat="46.07798" lon="3.64755">
        <ele>527.7</ele>
        <time>2020-07-12T11:03:04Z</time>
      </trkpt>
      <trkpt lat="46.07802" lon="3.64787">
        <ele>527.81</ele>
        <time>2020-07-12T11:03:08Z</time>
      </trkpt>
      <trkpt lat="46.07806" lon="3.64817">
        <ele>527.86</ele>
        <time>2020-07-12T11:03:12Z</time>
      </trkpt>
      <trkpt lat="46.07816" lon="3.64848">
        <ele>527.87</ele>
        <time>2020-07-12T11:03:16Z</time>
      </trkpt>
      <trkpt lat="46.07828" lon="3.64879">
        <ele>527.76</ele>
        <time>2020-07-12T11:03:20Z</time>
      </trkpt>
      <trkpt lat="46.07842" lon="3.64906">
        <ele>527.6</ele>
        <time>2020-07-12T11:03:24Z</time>
      </trkpt>
      <trkpt lat="46.07855" lon="3.64934">
        <ele>527.52</ele>
        <time>2020-07-12T11:03:28Z</time>
      </trkpt>
      <trkpt lat="46.07865" lon="3.64962">
        <ele>527.49</ele>
        <time>2020-07-12T11:03:32Z</time>
      </trkpt>
      <trkpt lat="46.07872" lon="3.64992">
        <ele>527.42</ele>
        <time>2020-07-12T11:03:36Z</time>
      </trkpt>
      <trkpt lat="46.07876" lon="3.65017">
        <ele>527.37</ele>
        <time>2020-07-12T11:03:39Z</time>
      </trkpt>
      <trkpt lat="46.07881" lon="3.65048">
        <ele>527.31</ele>
        <time>2020-07-12T11:03:43Z</time>
      </trkpt>
      <trkpt lat="46.07883" lon="3.65077">
        <ele>527.28</ele>
        <time>2020-07-12T11:03:47Z</time>
      </trkpt>
      <trkpt lat="46.07885" lon="3.65105">
        <ele>527.21</ele>
        <time>2020-07-12T11:03:51Z</time>
      </trkpt>
      <trkpt lat="46.07885" lon="3.65132">
        <ele>527.2</ele>
        <time>2020-07-12T11:03:55Z</time>
      </trkpt>
      <trkpt lat="46.07886" lon="3.65162">
        <ele>527.24</ele>
        <time>2020-07-12T11:03:59Z</time>
      </trkpt>
      <trkpt lat="46.07887" lon="3.65189">
        <ele>527.29</ele>
        <time>2020-07-12T11:04:03Z</time>
      </trkpt>
      <trkpt lat="46.07888" lon="3.6522">
        <ele>527.38</ele>
        <time>2020-07-12T11:04:07Z</time>
      </trkpt>
      <trkpt lat="46.07889" lon="3.65251">
        <ele>527.48</ele>
        <time>2020-07-12T11:04:11Z</time>
      </trkpt>
      <trkpt lat="46.07889" lon="3.65281">
        <ele>527.55</ele>
        <time>2020-07-12T11:04:15Z</time>
      </trkpt>
      <trkpt lat="46.07891" lon="3.6531">
        <ele>527.61</ele>
        <time>2020-07-12T11:04:19Z</time>
      </trkpt>
      <trkpt lat="46.07888" lon="3.65343">
        <ele>527.69</ele>
        <time>2020-07-12T11:04:23Z</time>
      </trkpt>
      <trkpt lat="46.0789" lon="3.65373">
        <ele>527.75</ele>
        <time>2020-07-12T11:04:27Z</time>
      </trkpt>
      <trkpt lat="46.07894" lon="3.65399">
        <ele>527.78</ele>
        <time>2020-07-12T11:04:35Z</time>
      </trkpt>
      <trkpt lat="46.07885" lon="3.65428">
        <ele>528</ele>
        <time>2020-07-12T11:04:41Z</time>
      </trkpt>
      <trkpt lat="46.07882" lon="3.65458">
        <ele>528.5</ele>
        <time>2020-07-12T11:04:46Z</time>
      </trkpt>
      <trkpt lat="46.07877" lon="3.65486">
        <ele>528.57</ele>
        <time>2020-07-12T11:04:52Z</time>
      </trkpt>
      <trkpt lat="46.07866" lon="3.65513">
        <ele>528.66</ele>
        <time>2020-07-12T11:04:58Z</time>
      </trkpt>
      <trkpt lat="46.07855" lon="3.65532">
        <ele>528.83</ele>
        <time>2020-07-12T11:05:04Z</time>
      </trkpt>
      <trkpt lat="46.07843" lon="3.65552">
        <ele>529.03</ele>
        <time>2020-07-12T11:05:10Z</time>
      </trkpt>
      <trkpt lat="46.0783" lon="3.65573">
        <ele>529.22</ele>
        <time>2020-07-12T11:05:16Z</time>
      </trkpt>
      <trkpt lat="46.07818" lon="3.65593">
        <ele>529.39</ele>
        <time>2020-07-12T11:05:22Z</time>
      </trkpt>
      <trkpt lat="46.07805" lon="3.65616">
        <ele>529.59</ele>
        <time>2020-07-12T11:05:28Z</time>
      </trkpt>
      <trkpt lat="46.0779" lon="3.65638">
        <ele>530.34</ele>
        <time>2020-07-12T11:05:34Z</time>
      </trkpt>
      <trkpt lat="46.07776" lon="3.65654">
        <ele>531.02</ele>
        <time>2020-07-12T11:05:39Z</time>
      </trkpt>
      <trkpt lat="46.07759" lon="3.65674">
        <ele>531.17</ele>
        <time>2020-07-12T11:05:45Z</time>
      </trkpt>
      <trkpt lat="46.07742" lon="3.65693">
        <ele>531.37</ele>
        <time>2020-07-12T11:05:51Z</time>
      </trkpt>
      <trkpt lat="46.07728" lon="3.65709">
        <ele>531.57</ele>
        <time>2020-07-12T11:05:56Z</time>
      </trkpt>
      <trkpt lat="46.07711" lon="3.65726">
        <ele>531.83</ele>
        <time>2020-07-12T11:06:02Z</time>
      </trkpt>
      <trkpt lat="46.07696" lon="3.65743">
        <ele>532.06</ele>
        <time>2020-07-12T11:06:07Z</time>
      </trkpt>
      <trkpt lat="46.07681" lon="3.6576">
        <ele>533.63</ele>
        <time>2020-07-12T11:06:12Z</time>
      </trkpt>
      <trkpt lat="46.07665" lon="3.65777">
        <ele>534.38</ele>
        <time>2020-07-12T11:06:17Z</time>
      </trkpt>
      <trkpt lat="46.07648" lon="3.65795">
        <ele>534.72</ele>
        <time>2020-07-12T11:06:22Z</time>
      </trkpt>
      <trkpt lat="46.07632" lon="3.65812">
        <ele>534.99</ele>
        <time>2020-07-12T11:06:27Z</time>
      </trkpt>
      <trkpt lat="46.07617" lon="3.65828">
        <ele>535.19</ele>
        <time>2020-07-12T11:06:31Z</time>
      </trkpt>
      <trkpt lat="46.07601" lon="3.65846">
        <ele>535.37</ele>
        <time>2020-07-12T11:06:35Z</time>
      </trkpt>
      <trkpt lat="46.07585" lon="3.65864">
        <ele>535.54</ele>
        <time>2020-07-12T11:06:39Z</time>
      </trkpt>
      <trkpt lat="46.07569" lon="3.65882">
        <ele>535.72</ele>
        <time>2020-07-12T11:06:43Z</time>
      </trkpt>
      <trkpt lat="46.07555" lon="3.65901">
        <ele>535.91</ele>
        <time>2020-07-12T11:06:47Z</time>
      </trkpt>
      <trkpt lat="46.07541" lon="3.65921">
        <ele>536.08</ele>
        <time>2020-07-12T11:06:51Z</time>
      </trkpt>
      <trkpt lat="46.07529" lon="3.65943">
        <ele>536.22</ele>
        <time>2020-07-12T11:06:55Z</time>
      </trkpt>
      <trkpt lat="46.07517" lon="3.65964">
        <ele>536.34</ele>
        <time>2020-07-12T11:06:59Z</time>
      </trkpt>
      <trkpt lat="46.07505" lon="3.65983">
        <ele>536.45</ele>
        <time>2020-07-12T11:07:03Z</time>
      </trkpt>
      <trkpt lat="46.07491" lon="3.66008">
        <ele>536.61</ele>
        <time>2020-07-12T11:07:08Z</time>
      </trkpt>
      <trkpt lat="46.07477" lon="3.66032">
        <ele>536.82</ele>
        <time>2020-07-12T11:07:13Z</time>
      </trkpt>
      <trkpt lat="46.07464" lon="3.66053">
        <ele>536.99</ele>
        <time>2020-07-12T11:07:18Z</time>
      </trkpt>
      <trkpt lat="46.07449" lon="3.66075">
        <ele>537.28</ele>
        <time>2020-07-12T11:07:24Z</time>
      </trkpt>
      <trkpt lat="46.07438" lon="3.66096">
        <ele>537.63</ele>
        <time>2020-07-12T11:07:29Z</time>
      </trkpt>
      <trkpt lat="46.07427" lon="3.6612">
        <ele>538.08</ele>
        <time>2020-07-12T11:07:34Z</time>
      </trkpt>
      <trkpt lat="46.07417" lon="3.66147">
        <ele>538.49</ele>
        <time>2020-07-12T11:07:39Z</time>
      </trkpt>
      <trkpt lat="46.07408" lon="3.66173">
        <ele>538.69</ele>
        <time>2020-07-12T11:07:44Z</time>
      </trkpt>
      <trkpt lat="46.07389" lon="3.66184">
        <ele>538.97</ele>
        <time>2020-07-12T11:07:49Z</time>
      </trkpt>
      <trkpt lat="46.07367" lon="3.6619">
        <ele>539.32</ele>
        <time>2020-07-12T11:07:54Z</time>
      </trkpt>
      <trkpt lat="46.07353" lon="3.6621">
        <ele>539.59</ele>
        <time>2020-07-12T11:07:58Z</time>
      </trkpt>
      <trkpt lat="46.07351" lon="3.66239">
        <ele>539.64</ele>
        <time>2020-07-12T11:08:03Z</time>
      </trkpt>
      <trkpt lat="46.07345" lon="3.66264">
        <ele>539.7</ele>
        <time>2020-07-12T11:08:09Z</time>
      </trkpt>
      <trkpt lat="46.07324" lon="3.66263">
        <ele>539.89</ele>
        <time>2020-07-12T11:08:16Z</time>
      </trkpt>
      <trkpt lat="46.07305" lon="3.6627">
        <ele>540.33</ele>
        <time>2020-07-12T11:08:20Z</time>
      </trkpt>
      <trkpt lat="46.07286" lon="3.6628">
        <ele>541.8</ele>
        <time>2020-07-12T11:08:24Z</time>
      </trkpt>
      <trkpt lat="46.07267" lon="3.66297">
        <ele>542.96</ele>
        <time>2020-07-12T11:08:28Z</time>
      </trkpt>
      <trkpt lat="46.0725" lon="3.66318">
        <ele>543.58</ele>
        <time>2020-07-12T11:08:32Z</time>
      </trkpt>
      <trkpt lat="46.07232" lon="3.66341">
        <ele>543.94</ele>
        <time>2020-07-12T11:08:36Z</time>
      </trkpt>
      <trkpt lat="46.07215" lon="3.66357">
        <ele>544.46</ele>
        <time>2020-07-12T11:08:40Z</time>
      </trkpt>
      <trkpt lat="46.07204" lon="3.66382">
        <ele>544.9</ele>
        <time>2020-07-12T11:08:44Z</time>
      </trkpt>
      <trkpt lat="46.07197" lon="3.6641">
        <ele>545.26</ele>
        <time>2020-07-12T11:08:48Z</time>
      </trkpt>
      <trkpt lat="46.07189" lon="3.66441">
        <ele>545.65</ele>
        <time>2020-07-12T11:08:52Z</time>
      </trkpt>
      <trkpt lat="46.07185" lon="3.66477">
        <ele>545.92</ele>
        <time>2020-07-12T11:08:56Z</time>
      </trkpt>
      <trkpt lat="46.07181" lon="3.66504">
        <ele>546.1</ele>
        <time>2020-07-12T11:08:59Z</time>
      </trkpt>
      <trkpt lat="46.07179" lon="3.66533">
        <ele>546.23</ele>
        <time>2020-07-12T11:09:02Z</time>
      </trkpt>
      <trkpt lat="46.07183" lon="3.66565">
        <ele>546.29</ele>
        <time>2020-07-12T11:09:05Z</time>
      </trkpt>
      <trkpt lat="46.07183" lon="3.66593">
        <ele>546.31</ele>
        <time>2020-07-12T11:09:08Z</time>
      </trkpt>
      <trkpt lat="46.07187" lon="3.66622">
        <ele>546.38</ele>
        <time>2020-07-12T11:09:11Z</time>
      </trkpt>
      <trkpt lat="46.07188" lon="3.66656">
        <ele>546.5</ele>
        <time>2020-07-12T11:09:15Z</time>
      </trkpt>
      <trkpt lat="46.07184" lon="3.66686">
        <ele>546.55</ele>
        <time>2020-07-12T11:09:19Z</time>
      </trkpt>
      <trkpt lat="46.07174" lon="3.66715">
        <ele>546.39</ele>
        <time>2020-07-12T11:09:23Z</time>
      </trkpt>
      <trkpt lat="46.07167" lon="3.66745">
        <ele>546.09</ele>
        <time>2020-07-12T11:09:27Z</time>
      </trkpt>
      <trkpt lat="46.07169" lon="3.66773">
        <ele>545.99</ele>
        <time>2020-07-12T11:09:35Z</time>
      </trkpt>
      <trkpt lat="46.07186" lon="3.66793">
        <ele>545.92</ele>
        <time>2020-07-12T11:09:40Z</time>
      </trkpt>
      <trkpt lat="46.07193" lon="3.66822">
        <ele>545.73</ele>
        <time>2020-07-12T11:09:45Z</time>
      </trkpt>
      <trkpt lat="46.07201" lon="3.66846">
        <ele>545.68</ele>
        <time>2020-07-12T11:09:49Z</time>
      </trkpt>
      <trkpt lat="46.07215" lon="3.66863">
        <ele>545.63</ele>
        <time>2020-07-12T11:09:55Z</time>
      </trkpt>
      <trkpt lat="46.07235" lon="3.66855">
        <ele>545.6</ele>
        <time>2020-07-12T11:10:01Z</time>
      </trkpt>
      <trkpt lat="46.07252" lon="3.66845">
        <ele>545.64</ele>
        <time>2020-07-12T11:10:07Z</time>
      </trkpt>
      <trkpt lat="46.07274" lon="3.6685">
        <ele>546.32</ele>
        <time>2020-07-12T11:10:12Z</time>
      </trkpt>
      <trkpt lat="46.07292" lon="3.66846">
        <ele>546.7</ele>
        <time>2020-07-12T11:10:18Z</time>
      </trkpt>
      <trkpt lat="46.07314" lon="3.66845">
        <ele>547.68</ele>
        <time>2020-07-12T11:10:24Z</time>
      </trkpt>
      <trkpt lat="46.07333" lon="3.66843">
        <ele>547.91</ele>
        <time>2020-07-12T11:10:30Z</time>
      </trkpt>
      <trkpt lat="46.0734" lon="3.66869">
        <ele>548.96</ele>
        <time>2020-07-12T11:10:34Z</time>
      </trkpt>
      <trkpt lat="46.07346" lon="3.66895">
        <ele>549.22</ele>
        <time>2020-07-12T11:10:37Z</time>
      </trkpt>
      <trkpt lat="46.07352" lon="3.66925">
        <ele>549.31</ele>
        <time>2020-07-12T11:10:40Z</time>
      </trkpt>
      <trkpt lat="46.07358" lon="3.66958">
        <ele>549.41</ele>
        <time>2020-07-12T11:10:43Z</time>
      </trkpt>
      <trkpt lat="46.07366" lon="3.66991">
        <ele>549.47</ele>
        <time>2020-07-12T11:10:46Z</time>
      </trkpt>
      <trkpt lat="46.07377" lon="3.67022">
        <ele>549.4</ele>
        <time>2020-07-12T11:10:49Z</time>
      </trkpt>
      <trkpt lat="46.07391" lon="3.67051">
        <ele>549.19</ele>
        <time>2020-07-12T11:10:52Z</time>
      </trkpt>
      <trkpt lat="46.07407" lon="3.67079">
        <ele>548.78</ele>
        <time>2020-07-12T11:10:55Z</time>
      </trkpt>
      <trkpt lat="46.07422" lon="3.67108">
        <ele>548.21</ele>
        <time>2020-07-12T11:10:58Z</time>
      </trkpt>
      <trkpt lat="46.07438" lon="3.67137">
        <ele>547.3</ele>
        <time>2020-07-12T11:11:01Z</time>
      </trkpt>
      <trkpt lat="46.07454" lon="3.67167">
        <ele>546.3</ele>
        <time>2020-07-12T11:11:04Z</time>
      </trkpt>
      <trkpt lat="46.07463" lon="3.67202">
        <ele>545.38</ele>
        <time>2020-07-12T11:11:07Z</time>
      </trkpt>
      <trkpt lat="46.07473" lon="3.67237">
        <ele>544.33</ele>
        <time>2020-07-12T11:11:10Z</time>
      </trkpt>
      <trkpt lat="46.07483" lon="3.67263">
        <ele>543.4</ele>
        <time>2020-07-12T11:11:13Z</time>
      </trkpt>
      <trkpt lat="46.07471" lon="3.67285">
        <ele>542.88</ele>
        <time>2020-07-12T11:11:19Z</time>
      </trkpt>
      <trkpt lat="46.07452" lon="3.67303">
        <ele>542.68</ele>
        <time>2020-07-12T11:11:22Z</time>
      </trkpt>
      <trkpt lat="46.07453" lon="3.67333">
        <ele>542.41</ele>
        <time>2020-07-12T11:11:27Z</time>
      </trkpt>
      <trkpt lat="46.07463" lon="3.67357">
        <ele>542.35</ele>
        <time>2020-07-12T11:11:32Z</time>
      </trkpt>
      <trkpt lat="46.07473" lon="3.6738">
        <ele>541.08</ele>
        <time>2020-07-12T11:11:36Z</time>
      </trkpt>
      <trkpt lat="46.07485" lon="3.67401">
        <ele>538.99</ele>
        <time>2020-07-12T11:11:40Z</time>
      </trkpt>
      <trkpt lat="46.07497" lon="3.67423">
        <ele>536.18</ele>
        <time>2020-07-12T11:11:44Z</time>
      </trkpt>
      <trkpt lat="46.07516" lon="3.67441">
        <ele>534.28</ele>
        <time>2020-07-12T11:11:48Z</time>
      </trkpt>
      <trkpt lat="46.07532" lon="3.67455">
        <ele>532.74</ele>
        <time>2020-07-12T11:11:54Z</time>
      </trkpt>
      <trkpt lat="46.07548" lon="3.6747">
        <ele>532</ele>
        <time>2020-07-12T11:12:01Z</time>
      </trkpt>
      <trkpt lat="46.07568" lon="3.67486">
        <ele>531.57</ele>
        <time>2020-07-12T11:12:05Z</time>
      </trkpt>
      <trkpt lat="46.07584" lon="3.67498">
        <ele>531.08</ele>
        <time>2020-07-12T11:12:09Z</time>
      </trkpt>
      <trkpt lat="46.07602" lon="3.67504">
        <ele>526.64</ele>
        <time>2020-07-12T11:12:34Z</time>
      </trkpt>
      <trkpt lat="46.07582" lon="3.67495">
        <ele>521.96</ele>
        <time>2020-07-12T11:13:01Z</time>
      </trkpt>
      <trkpt lat="46.07567" lon="3.67512">
        <ele>521.41</ele>
        <time>2020-07-12T11:13:05Z</time>
      </trkpt>
      <trkpt lat="46.07559" lon="3.6754">
        <ele>520.54</ele>
        <time>2020-07-12T11:13:12Z</time>
      </trkpt>
      <trkpt lat="46.07549" lon="3.67569">
        <ele>519.61</ele>
        <time>2020-07-12T11:13:20Z</time>
      </trkpt>
      <trkpt lat="46.07556" lon="3.67601">
        <ele>519.09</ele>
        <time>2020-07-12T11:13:25Z</time>
      </trkpt>
      <trkpt lat="46.07561" lon="3.67631">
        <ele>518.69</ele>
        <time>2020-07-12T11:13:29Z</time>
      </trkpt>
      <trkpt lat="46.07566" lon="3.67659">
        <ele>518.32</ele>
        <time>2020-07-12T11:13:33Z</time>
      </trkpt>
      <trkpt lat="46.07574" lon="3.67684">
        <ele>516.38</ele>
        <time>2020-07-12T11:13:37Z</time>
      </trkpt>
      <trkpt lat="46.07584" lon="3.67707">
        <ele>514.85</ele>
        <time>2020-07-12T11:13:53Z</time>
      </trkpt>
      <trkpt lat="46.07601" lon="3.67718">
        <ele>514.06</ele>
        <time>2020-07-12T11:14:02Z</time>
      </trkpt>
      <trkpt lat="46.07616" lon="3.67739">
        <ele>513.4</ele>
        <time>2020-07-12T11:14:10Z</time>
      </trkpt>
      <trkpt lat="46.0762" lon="3.67765">
        <ele>512.62</ele>
        <time>2020-07-12T11:14:20Z</time>
      </trkpt>
      <trkpt lat="46.07622" lon="3.67792">
        <ele>511.96</ele>
        <time>2020-07-12T11:14:29Z</time>
      </trkpt>
      <trkpt lat="46.07632" lon="3.67815">
        <ele>511.41</ele>
        <time>2020-07-12T11:14:37Z</time>
      </trkpt>
      <trkpt lat="46.07644" lon="3.67835">
        <ele>510.69</ele>
        <time>2020-07-12T11:14:47Z</time>
      </trkpt>
      <trkpt lat="46.07654" lon="3.67857">
        <ele>509.86</ele>
        <time>2020-07-12T11:14:59Z</time>
      </trkpt>
      <trkpt lat="46.07671" lon="3.6787">
        <ele>508.6</ele>
        <time>2020-07-12T11:15:19Z</time>
      </trkpt>
      <trkpt lat="46.0769" lon="3.67872">
        <ele>507.87</ele>
        <time>2020-07-12T11:15:31Z</time>
      </trkpt>
      <trkpt lat="46.07705" lon="3.67887">
        <ele>507.03</ele>
        <time>2020-07-12T11:15:48Z</time>
      </trkpt>
      <trkpt lat="46.07714" lon="3.6791">
        <ele>506.59</ele>
        <time>2020-07-12T11:15:59Z</time>
      </trkpt>
      <trkpt lat="46.07721" lon="3.67935">
        <ele>506.19</ele>
        <time>2020-07-12T11:16:12Z</time>
      </trkpt>
      <trkpt lat="46.07722" lon="3.67962">
        <ele>505.88</ele>
        <time>2020-07-12T11:16:24Z</time>
      </trkpt>
      <trkpt lat="46.07722" lon="3.67988">
        <ele>505.6</ele>
        <time>2020-07-12T11:16:37Z</time>
      </trkpt>
      <trkpt lat="46.07725" lon="3.68015">
        <ele>505.44</ele>
        <time>2020-07-12T11:16:47Z</time>
      </trkpt>
      <trkpt lat="46.07725" lon="3.68044">
        <ele>505.27</ele>
        <time>2020-07-12T11:17:01Z</time>
      </trkpt>
      <trkpt lat="46.07726" lon="3.68072">
        <ele>505.17</ele>
        <time>2020-07-12T11:17:14Z</time>
      </trkpt>
      <trkpt lat="46.07728" lon="3.68099">
        <ele>505.11</ele>
        <time>2020-07-12T11:17:25Z</time>
      </trkpt>
      <trkpt lat="46.0773" lon="3.68126">
        <ele>505.08</ele>
        <time>2020-07-12T11:17:39Z</time>
      </trkpt>
      <trkpt lat="46.07733" lon="3.68152">
        <ele>505.11</ele>
        <time>2020-07-12T11:17:52Z</time>
      </trkpt>
      <trkpt lat="46.07733" lon="3.68178">
        <ele>505.33</ele>
        <time>2020-07-12T11:18:10Z</time>
      </trkpt>
      <trkpt lat="46.07735" lon="3.68204">
        <ele>505.92</ele>
        <time>2020-07-12T11:18:30Z</time>
      </trkpt>
      <trkpt lat="46.07738" lon="3.68232">
        <ele>506.35</ele>
        <time>2020-07-12T11:18:44Z</time>
      </trkpt>
      <trkpt lat="46.07741" lon="3.68261">
        <ele>506.85</ele>
        <time>2020-07-12T11:18:59Z</time>
      </trkpt>
      <trkpt lat="46.07741" lon="3.68288">
        <ele>507.32</ele>
        <time>2020-07-12T11:19:11Z</time>
      </trkpt>
      <trkpt lat="46.07744" lon="3.68316">
        <ele>507.85</ele>
        <time>2020-07-12T11:19:24Z</time>
      </trkpt>
      <trkpt lat="46.07738" lon="3.68343">
        <ele>508.42</ele>
        <time>2020-07-12T11:19:36Z</time>
      </trkpt>
      <trkpt lat="46.07735" lon="3.6837">
        <ele>509.05</ele>
        <time>2020-07-12T11:19:47Z</time>
      </trkpt>
      <trkpt lat="46.07753" lon="3.68383">
        <ele>510.14</ele>
        <time>2020-07-12T11:20:03Z</time>
      </trkpt>
      <trkpt lat="46.07772" lon="3.68387">
        <ele>511.02</ele>
        <time>2020-07-12T11:20:13Z</time>
      </trkpt>
      <trkpt lat="46.07791" lon="3.68389">
        <ele>512.76</ele>
        <time>2020-07-12T11:20:28Z</time>
      </trkpt>
      <trkpt lat="46.0781" lon="3.68386">
        <ele>516.09</ele>
        <time>2020-07-12T11:20:48Z</time>
      </trkpt>
      <trkpt lat="46.07789" lon="3.68393">
        <ele>520.47</ele>
        <time>2020-07-12T11:20:58Z</time>
      </trkpt>
      <trkpt lat="46.07789" lon="3.68422">
        <ele>521.37</ele>
        <time>2020-07-12T11:21:04Z</time>
      </trkpt>
      <trkpt lat="46.07797" lon="3.68449">
        <ele>522.01</ele>
        <time>2020-07-12T11:21:09Z</time>
      </trkpt>
      <trkpt lat="46.07805" lon="3.68476">
        <ele>522.77</ele>
        <time>2020-07-12T11:21:15Z</time>
      </trkpt>
      <trkpt lat="46.0781" lon="3.68504">
        <ele>525.9</ele>
        <time>2020-07-12T11:21:20Z</time>
      </trkpt>
      <trkpt lat="46.07816" lon="3.68532">
        <ele>528.38</ele>
        <time>2020-07-12T11:21:24Z</time>
      </trkpt>
      <trkpt lat="46.07821" lon="3.68565">
        <ele>529.73</ele>
        <time>2020-07-12T11:21:28Z</time>
      </trkpt>
      <trkpt lat="46.07822" lon="3.68594">
        <ele>530.37</ele>
        <time>2020-07-12T11:21:31Z</time>
      </trkpt>
      <trkpt lat="46.07825" lon="3.68623">
        <ele>530.91</ele>
        <time>2020-07-12T11:21:34Z</time>
      </trkpt>
      <trkpt lat="46.07828" lon="3.6865">
        <ele>531.51</ele>
        <time>2020-07-12T11:21:37Z</time>
      </trkpt>
      <trkpt lat="46.0783" lon="3.68679">
        <ele>532.06</ele>
        <time>2020-07-12T11:21:41Z</time>
      </trkpt>
      <trkpt lat="46.07809" lon="3.68681">
        <ele>532.36</ele>
        <time>2020-07-12T11:21:47Z</time>
      </trkpt>
      <trkpt lat="46.07789" lon="3.68693">
        <ele>532.77</ele>
        <time>2020-07-12T11:21:50Z</time>
      </trkpt>
      <trkpt lat="46.07774" lon="3.68726">
        <ele>532.93</ele>
        <time>2020-07-12T11:21:53Z</time>
      </trkpt>
      <trkpt lat="46.07761" lon="3.68749">
        <ele>532.7</ele>
        <time>2020-07-12T11:21:55Z</time>
      </trkpt>
      <trkpt lat="46.07748" lon="3.68771">
        <ele>532.36</ele>
        <time>2020-07-12T11:21:57Z</time>
      </trkpt>
      <trkpt lat="46.07733" lon="3.68789">
        <ele>531.93</ele>
        <time>2020-07-12T11:21:59Z</time>
      </trkpt>
      <trkpt lat="46.07716" lon="3.68803">
        <ele>531.51</ele>
        <time>2020-07-12T11:22:01Z</time>
      </trkpt>
      <trkpt lat="46.07702" lon="3.68821">
        <ele>531.14</ele>
        <time>2020-07-12T11:22:03Z</time>
      </trkpt>
      <trkpt lat="46.07692" lon="3.68857">
        <ele>530.69</ele>
        <time>2020-07-12T11:22:06Z</time>
      </trkpt>
      <trkpt lat="46.07691" lon="3.68884">
        <ele>529.86</ele>
        <time>2020-07-12T11:22:08Z</time>
      </trkpt>
      <trkpt lat="46.07692" lon="3.68921">
        <ele>528.46</ele>
        <time>2020-07-12T11:22:11Z</time>
      </trkpt>
      <trkpt lat="46.07698" lon="3.68951">
        <ele>527.16</ele>
        <time>2020-07-12T11:22:15Z</time>
      </trkpt>
      <trkpt lat="46.07714" lon="3.6897">
        <ele>526.65</ele>
        <time>2020-07-12T11:22:18Z</time>
      </trkpt>
      <trkpt lat="46.07731" lon="3.68986">
        <ele>526.55</ele>
        <time>2020-07-12T11:22:21Z</time>
      </trkpt>
      <trkpt lat="46.07745" lon="3.69012">
        <ele>526.01</ele>
        <time>2020-07-12T11:22:24Z</time>
      </trkpt>
      <trkpt lat="46.07763" lon="3.69036">
        <ele>525.19</ele>
        <time>2020-07-12T11:22:27Z</time>
      </trkpt>
      <trkpt lat="46.07781" lon="3.69054">
        <ele>524.31</ele>
        <time>2020-07-12T11:22:30Z</time>
      </trkpt>
      <trkpt lat="46.078" lon="3.69072">
        <ele>523.08</ele>
        <time>2020-07-12T11:22:33Z</time>
      </trkpt>
      <trkpt lat="46.0782" lon="3.69095">
        <ele>522.21</ele>
        <time>2020-07-12T11:22:36Z</time>
      </trkpt>
      <trkpt lat="46.07841" lon="3.69114">
        <ele>521.52</ele>
        <time>2020-07-12T11:22:39Z</time>
      </trkpt>
      <trkpt lat="46.0786" lon="3.69138">
        <ele>520.55</ele>
        <time>2020-07-12T11:22:42Z</time>
      </trkpt>
      <trkpt lat="46.07876" lon="3.69165">
        <ele>519.83</ele>
        <time>2020-07-12T11:22:45Z</time>
      </trkpt>
      <trkpt lat="46.07889" lon="3.6919">
        <ele>519.45</ele>
        <time>2020-07-12T11:22:48Z</time>
      </trkpt>
      <trkpt lat="46.07901" lon="3.69215">
        <ele>519.17</ele>
        <time>2020-07-12T11:22:51Z</time>
      </trkpt>
      <trkpt lat="46.07914" lon="3.69237">
        <ele>519.3</ele>
        <time>2020-07-12T11:22:54Z</time>
      </trkpt>
      <trkpt lat="46.07931" lon="3.69259">
        <ele>518.43</ele>
        <time>2020-07-12T11:22:57Z</time>
      </trkpt>
      <trkpt lat="46.07953" lon="3.69276">
        <ele>517.28</ele>
        <time>2020-07-12T11:23:00Z</time>
      </trkpt>
      <trkpt lat="46.07969" lon="3.69296">
        <ele>516.23</ele>
        <time>2020-07-12T11:23:03Z</time>
      </trkpt>
      <trkpt lat="46.07981" lon="3.69322">
        <ele>515.28</ele>
        <time>2020-07-12T11:23:07Z</time>
      </trkpt>
      <trkpt lat="46.07989" lon="3.69347">
        <ele>514.33</ele>
        <time>2020-07-12T11:23:11Z</time>
      </trkpt>
      <trkpt lat="46.07997" lon="3.69376">
        <ele>513.47</ele>
        <time>2020-07-12T11:23:16Z</time>
      </trkpt>
      <trkpt lat="46.08007" lon="3.69401">
        <ele>513.17</ele>
        <time>2020-07-12T11:23:22Z</time>
      </trkpt>
      <trkpt lat="46.08018" lon="3.69423">
        <ele>512.68</ele>
        <time>2020-07-12T11:23:28Z</time>
      </trkpt>
      <trkpt lat="46.08033" lon="3.69445">
        <ele>511.44</ele>
        <time>2020-07-12T11:23:42Z</time>
      </trkpt>
      <trkpt lat="46.08047" lon="3.69462">
        <ele>510.34</ele>
        <time>2020-07-12T11:24:00Z</time>
      </trkpt>
      <trkpt lat="46.08031" lon="3.69477">
        <ele>506.48</ele>
        <time>2020-07-12T11:24:39Z</time>
      </trkpt>
      <trkpt lat="46.08013" lon="3.69481">
        <ele>504.54</ele>
        <time>2020-07-12T11:24:51Z</time>
      </trkpt>
      <trkpt lat="46.08021" lon="3.69499">
        <ele>486.04</ele>
        <time>2020-07-12T13:20:51Z</time>
      </trkpt>
      <trkpt lat="46.08012" lon="3.69476">
        <ele>484.87</ele>
        <time>2020-07-12T13:21:46Z</time>
      </trkpt>
      <trkpt lat="46.07994" lon="3.69479">
        <ele>486.49</ele>
        <time>2020-07-12T13:22:50Z</time>
      </trkpt>
      <trkpt lat="46.07976" lon="3.69474">
        <ele>486.63</ele>
        <time>2020-07-12T13:22:57Z</time>
      </trkpt>
      <trkpt lat="46.07971" lon="3.69503">
        <ele>486.7</ele>
        <time>2020-07-12T13:23:05Z</time>
      </trkpt>
      <trkpt lat="46.07972" lon="3.69529">
        <ele>486.58</ele>
        <time>2020-07-12T13:23:12Z</time>
      </trkpt>
      <trkpt lat="46.07964" lon="3.69553">
        <ele>486.32</ele>
        <time>2020-07-12T13:23:18Z</time>
      </trkpt>
      <trkpt lat="46.0795" lon="3.69575">
        <ele>486.04</ele>
        <time>2020-07-12T13:23:25Z</time>
      </trkpt>
      <trkpt lat="46.07935" lon="3.69595">
        <ele>485.91</ele>
        <time>2020-07-12T13:23:31Z</time>
      </trkpt>
      <trkpt lat="46.07921" lon="3.69612">
        <ele>485.78</ele>
        <time>2020-07-12T13:23:37Z</time>
      </trkpt>
      <trkpt lat="46.07905" lon="3.69632">
        <ele>485.66</ele>
        <time>2020-07-12T13:23:43Z</time>
      </trkpt>
      <trkpt lat="46.07892" lon="3.69652">
        <ele>485.54</ele>
        <time>2020-07-12T13:23:49Z</time>
      </trkpt>
      <trkpt lat="46.07883" lon="3.69678">
        <ele>485.43</ele>
        <time>2020-07-12T13:23:55Z</time>
      </trkpt>
      <trkpt lat="46.07872" lon="3.69705">
        <ele>485.34</ele>
        <time>2020-07-12T13:24:01Z</time>
      </trkpt>
      <trkpt lat="46.07861" lon="3.69726">
        <ele>485.26</ele>
        <time>2020-07-12T13:24:06Z</time>
      </trkpt>
      <trkpt lat="46.07843" lon="3.69741">
        <ele>485.14</ele>
        <time>2020-07-12T13:24:12Z</time>
      </trkpt>
      <trkpt lat="46.07826" lon="3.69755">
        <ele>485.04</ele>
        <time>2020-07-12T13:24:19Z</time>
      </trkpt>
      <trkpt lat="46.07809" lon="3.69769">
        <ele>484.96</ele>
        <time>2020-07-12T13:24:26Z</time>
      </trkpt>
      <trkpt lat="46.07789" lon="3.69774">
        <ele>484.94</ele>
        <time>2020-07-12T13:24:33Z</time>
      </trkpt>
      <trkpt lat="46.0777" lon="3.69781">
        <ele>484.91</ele>
        <time>2020-07-12T13:24:40Z</time>
      </trkpt>
      <trkpt lat="46.07751" lon="3.69792">
        <ele>484.88</ele>
        <time>2020-07-12T13:24:45Z</time>
      </trkpt>
      <trkpt lat="46.07734" lon="3.69806">
        <ele>484.87</ele>
        <time>2020-07-12T13:24:52Z</time>
      </trkpt>
      <trkpt lat="46.07717" lon="3.69817">
        <ele>484.85</ele>
        <time>2020-07-12T13:24:57Z</time>
      </trkpt>
      <trkpt lat="46.07698" lon="3.69822">
        <ele>484.83</ele>
        <time>2020-07-12T13:25:04Z</time>
      </trkpt>
      <trkpt lat="46.07678" lon="3.69822">
        <ele>484.82</ele>
        <time>2020-07-12T13:25:11Z</time>
      </trkpt>
      <trkpt lat="46.07659" lon="3.69821">
        <ele>484.83</ele>
        <time>2020-07-12T13:25:18Z</time>
      </trkpt>
      <trkpt lat="46.07641" lon="3.69819">
        <ele>484.85</ele>
        <time>2020-07-12T13:25:25Z</time>
      </trkpt>
      <trkpt lat="46.07623" lon="3.6981">
        <ele>484.86</ele>
        <time>2020-07-12T13:25:31Z</time>
      </trkpt>
      <trkpt lat="46.07607" lon="3.69785">
        <ele>484.85</ele>
        <time>2020-07-12T13:25:39Z</time>
      </trkpt>
      <trkpt lat="46.07594" lon="3.69762">
        <ele>484.83</ele>
        <time>2020-07-12T13:25:42Z</time>
      </trkpt>
      <trkpt lat="46.07576" lon="3.69743">
        <ele>484.79</ele>
        <time>2020-07-12T13:25:45Z</time>
      </trkpt>
      <trkpt lat="46.0755" lon="3.69735">
        <ele>484.86</ele>
        <time>2020-07-12T13:25:48Z</time>
      </trkpt>
      <trkpt lat="46.07527" lon="3.6973">
        <ele>485</ele>
        <time>2020-07-12T13:25:51Z</time>
      </trkpt>
      <trkpt lat="46.07504" lon="3.69735">
        <ele>485.19</ele>
        <time>2020-07-12T13:25:54Z</time>
      </trkpt>
      <trkpt lat="46.0748" lon="3.69747">
        <ele>485.23</ele>
        <time>2020-07-12T13:25:57Z</time>
      </trkpt>
      <trkpt lat="46.07456" lon="3.69755">
        <ele>484.92</ele>
        <time>2020-07-12T13:26:00Z</time>
      </trkpt>
      <trkpt lat="46.07437" lon="3.69762">
        <ele>484.38</ele>
        <time>2020-07-12T13:26:03Z</time>
      </trkpt>
      <trkpt lat="46.07416" lon="3.69773">
        <ele>483.59</ele>
        <time>2020-07-12T13:26:07Z</time>
      </trkpt>
      <trkpt lat="46.07399" lon="3.69781">
        <ele>482.98</ele>
        <time>2020-07-12T13:26:11Z</time>
      </trkpt>
      <trkpt lat="46.07381" lon="3.69787">
        <ele>482.38</ele>
        <time>2020-07-12T13:26:15Z</time>
      </trkpt>
      <trkpt lat="46.07361" lon="3.69792">
        <ele>481.95</ele>
        <time>2020-07-12T13:26:20Z</time>
      </trkpt>
      <trkpt lat="46.07342" lon="3.69794">
        <ele>481.77</ele>
        <time>2020-07-12T13:26:37Z</time>
      </trkpt>
      <trkpt lat="46.07322" lon="3.69795">
        <ele>482.11</ele>
        <time>2020-07-12T13:27:27Z</time>
      </trkpt>
      <trkpt lat="46.07302" lon="3.69802">
        <ele>482.19</ele>
        <time>2020-07-12T13:27:33Z</time>
      </trkpt>
      <trkpt lat="46.07287" lon="3.69821">
        <ele>482.58</ele>
        <time>2020-07-12T13:27:37Z</time>
      </trkpt>
      <trkpt lat="46.07272" lon="3.69842">
        <ele>482.87</ele>
        <time>2020-07-12T13:27:41Z</time>
      </trkpt>
      <trkpt lat="46.07256" lon="3.69861">
        <ele>483</ele>
        <time>2020-07-12T13:27:45Z</time>
      </trkpt>
      <trkpt lat="46.07239" lon="3.69873">
        <ele>483.06</ele>
        <time>2020-07-12T13:27:48Z</time>
      </trkpt>
      <trkpt lat="46.07221" lon="3.69896">
        <ele>483.14</ele>
        <time>2020-07-12T13:27:52Z</time>
      </trkpt>
      <trkpt lat="46.07207" lon="3.69913">
        <ele>483.2</ele>
        <time>2020-07-12T13:27:56Z</time>
      </trkpt>
      <trkpt lat="46.07202" lon="3.69943">
        <ele>483.16</ele>
        <time>2020-07-12T13:28:01Z</time>
      </trkpt>
      <trkpt lat="46.07203" lon="3.69976">
        <ele>482.88</ele>
        <time>2020-07-12T13:28:05Z</time>
      </trkpt>
      <trkpt lat="46.07206" lon="3.70006">
        <ele>482.84</ele>
        <time>2020-07-12T13:28:09Z</time>
      </trkpt>
      <trkpt lat="46.07206" lon="3.70038">
        <ele>483</ele>
        <time>2020-07-12T13:28:14Z</time>
      </trkpt>
      <trkpt lat="46.07207" lon="3.7007">
        <ele>483.24</ele>
        <time>2020-07-12T13:28:19Z</time>
      </trkpt>
      <trkpt lat="46.07205" lon="3.70097">
        <ele>483.31</ele>
        <time>2020-07-12T13:28:25Z</time>
      </trkpt>
      <trkpt lat="46.07187" lon="3.7011">
        <ele>483.41</ele>
        <time>2020-07-12T13:28:31Z</time>
      </trkpt>
      <trkpt lat="46.07169" lon="3.70123">
        <ele>483.49</ele>
        <time>2020-07-12T13:28:36Z</time>
      </trkpt>
      <trkpt lat="46.07153" lon="3.70135">
        <ele>483.57</ele>
        <time>2020-07-12T13:28:41Z</time>
      </trkpt>
      <trkpt lat="46.07134" lon="3.70147">
        <ele>483.62</ele>
        <time>2020-07-12T13:28:46Z</time>
      </trkpt>
      <trkpt lat="46.07116" lon="3.70153">
        <ele>483.67</ele>
        <time>2020-07-12T13:28:50Z</time>
      </trkpt>
      <trkpt lat="46.07099" lon="3.70162">
        <ele>483.74</ele>
        <time>2020-07-12T13:28:54Z</time>
      </trkpt>
      <trkpt lat="46.0708" lon="3.70168">
        <ele>483.72</ele>
        <time>2020-07-12T13:28:58Z</time>
      </trkpt>
      <trkpt lat="46.07062" lon="3.70174">
        <ele>483.67</ele>
        <time>2020-07-12T13:29:02Z</time>
      </trkpt>
      <trkpt lat="46.07042" lon="3.70181">
        <ele>483.63</ele>
        <time>2020-07-12T13:29:07Z</time>
      </trkpt>
      <trkpt lat="46.07022" lon="3.70187">
        <ele>483.56</ele>
        <time>2020-07-12T13:29:12Z</time>
      </trkpt>
      <trkpt lat="46.07004" lon="3.70191">
        <ele>483.49</ele>
        <time>2020-07-12T13:29:16Z</time>
      </trkpt>
      <trkpt lat="46.06982" lon="3.70196">
        <ele>483.46</ele>
        <time>2020-07-12T13:29:21Z</time>
      </trkpt>
      <trkpt lat="46.06962" lon="3.702">
        <ele>483.44</ele>
        <time>2020-07-12T13:29:26Z</time>
      </trkpt>
      <trkpt lat="46.06942" lon="3.70202">
        <ele>483.44</ele>
        <time>2020-07-12T13:29:30Z</time>
      </trkpt>
      <trkpt lat="46.06924" lon="3.70205">
        <ele>483.36</ele>
        <time>2020-07-12T13:29:34Z</time>
      </trkpt>
      <trkpt lat="46.06904" lon="3.70207">
        <ele>483.23</ele>
        <time>2020-07-12T13:29:38Z</time>
      </trkpt>
      <trkpt lat="46.06882" lon="3.70211">
        <ele>483.1</ele>
        <time>2020-07-12T13:29:42Z</time>
      </trkpt>
      <trkpt lat="46.06864" lon="3.70215">
        <ele>483.01</ele>
        <time>2020-07-12T13:29:46Z</time>
      </trkpt>
      <trkpt lat="46.06846" lon="3.70219">
        <ele>483</ele>
        <time>2020-07-12T13:29:50Z</time>
      </trkpt>
      <trkpt lat="46.06828" lon="3.70224">
        <ele>482.97</ele>
        <time>2020-07-12T13:29:54Z</time>
      </trkpt>
      <trkpt lat="46.06809" lon="3.70226">
        <ele>482.92</ele>
        <time>2020-07-12T13:29:58Z</time>
      </trkpt>
      <trkpt lat="46.06786" lon="3.70229">
        <ele>482.96</ele>
        <time>2020-07-12T13:30:03Z</time>
      </trkpt>
      <trkpt lat="46.06768" lon="3.70233">
        <ele>483.03</ele>
        <time>2020-07-12T13:30:07Z</time>
      </trkpt>
      <trkpt lat="46.0675" lon="3.70237">
        <ele>483.06</ele>
        <time>2020-07-12T13:30:11Z</time>
      </trkpt>
      <trkpt lat="46.06731" lon="3.70239">
        <ele>482.96</ele>
        <time>2020-07-12T13:30:15Z</time>
      </trkpt>
      <trkpt lat="46.06713" lon="3.70243">
        <ele>482.9</ele>
        <time>2020-07-12T13:30:19Z</time>
      </trkpt>
      <trkpt lat="46.06694" lon="3.70245">
        <ele>482.84</ele>
        <time>2020-07-12T13:30:23Z</time>
      </trkpt>
      <trkpt lat="46.06674" lon="3.70252">
        <ele>482.71</ele>
        <time>2020-07-12T13:30:28Z</time>
      </trkpt>
      <trkpt lat="46.06656" lon="3.70256">
        <ele>482.53</ele>
        <time>2020-07-12T13:30:32Z</time>
      </trkpt>
      <trkpt lat="46.06635" lon="3.70258">
        <ele>482.35</ele>
        <time>2020-07-12T13:30:36Z</time>
      </trkpt>
      <trkpt lat="46.06617" lon="3.70262">
        <ele>482.25</ele>
        <time>2020-07-12T13:30:40Z</time>
      </trkpt>
      <trkpt lat="46.06597" lon="3.70266">
        <ele>482.22</ele>
        <time>2020-07-12T13:30:44Z</time>
      </trkpt>
      <trkpt lat="46.06578" lon="3.7027">
        <ele>482.28</ele>
        <time>2020-07-12T13:30:48Z</time>
      </trkpt>
      <trkpt lat="46.06557" lon="3.70275">
        <ele>482.47</ele>
        <time>2020-07-12T13:30:52Z</time>
      </trkpt>
      <trkpt lat="46.06537" lon="3.7028">
        <ele>482.71</ele>
        <time>2020-07-12T13:30:56Z</time>
      </trkpt>
      <trkpt lat="46.06518" lon="3.70284">
        <ele>483.01</ele>
        <time>2020-07-12T13:31:00Z</time>
      </trkpt>
      <trkpt lat="46.06499" lon="3.7029">
        <ele>483.27</ele>
        <time>2020-07-12T13:31:04Z</time>
      </trkpt>
      <trkpt lat="46.0648" lon="3.70295">
        <ele>483.4</ele>
        <time>2020-07-12T13:31:08Z</time>
      </trkpt>
      <trkpt lat="46.0646" lon="3.70298">
        <ele>483.49</ele>
        <time>2020-07-12T13:31:12Z</time>
      </trkpt>
      <trkpt lat="46.06442" lon="3.70301">
        <ele>483.55</ele>
        <time>2020-07-12T13:31:16Z</time>
      </trkpt>
      <trkpt lat="46.06421" lon="3.70307">
        <ele>483.58</ele>
        <time>2020-07-12T13:31:20Z</time>
      </trkpt>
      <trkpt lat="46.06402" lon="3.70314">
        <ele>483.59</ele>
        <time>2020-07-12T13:31:24Z</time>
      </trkpt>
      <trkpt lat="46.06382" lon="3.70317">
        <ele>483.56</ele>
        <time>2020-07-12T13:31:28Z</time>
      </trkpt>
      <trkpt lat="46.06362" lon="3.70321">
        <ele>483.51</ele>
        <time>2020-07-12T13:31:32Z</time>
      </trkpt>
      <trkpt lat="46.06343" lon="3.70325">
        <ele>483.45</ele>
        <time>2020-07-12T13:31:36Z</time>
      </trkpt>
      <trkpt lat="46.06324" lon="3.7033">
        <ele>483.4</ele>
        <time>2020-07-12T13:31:40Z</time>
      </trkpt>
      <trkpt lat="46.06304" lon="3.70333">
        <ele>483.32</ele>
        <time>2020-07-12T13:31:44Z</time>
      </trkpt>
      <trkpt lat="46.06281" lon="3.70338">
        <ele>483.34</ele>
        <time>2020-07-12T13:31:48Z</time>
      </trkpt>
      <trkpt lat="46.06263" lon="3.70344">
        <ele>483.4</ele>
        <time>2020-07-12T13:31:52Z</time>
      </trkpt>
      <trkpt lat="46.06244" lon="3.70351">
        <ele>483.46</ele>
        <time>2020-07-12T13:31:56Z</time>
      </trkpt>
      <trkpt lat="46.06226" lon="3.70358">
        <ele>483.59</ele>
        <time>2020-07-12T13:32:00Z</time>
      </trkpt>
      <trkpt lat="46.06208" lon="3.70366">
        <ele>483.79</ele>
        <time>2020-07-12T13:32:04Z</time>
      </trkpt>
      <trkpt lat="46.06191" lon="3.70374">
        <ele>483.9</ele>
        <time>2020-07-12T13:32:08Z</time>
      </trkpt>
      <trkpt lat="46.06173" lon="3.70385">
        <ele>483.99</ele>
        <time>2020-07-12T13:32:12Z</time>
      </trkpt>
      <trkpt lat="46.06154" lon="3.70373">
        <ele>484.1</ele>
        <time>2020-07-12T13:32:17Z</time>
      </trkpt>
      <trkpt lat="46.06138" lon="3.70358">
        <ele>484.14</ele>
        <time>2020-07-12T13:32:21Z</time>
      </trkpt>
      <trkpt lat="46.06123" lon="3.70339">
        <ele>484.18</ele>
        <time>2020-07-12T13:32:25Z</time>
      </trkpt>
      <trkpt lat="46.06115" lon="3.70314">
        <ele>484.26</ele>
        <time>2020-07-12T13:32:29Z</time>
      </trkpt>
      <trkpt lat="46.06107" lon="3.70285">
        <ele>484.34</ele>
        <time>2020-07-12T13:32:34Z</time>
      </trkpt>
      <trkpt lat="46.06098" lon="3.7026">
        <ele>484.44</ele>
        <time>2020-07-12T13:32:38Z</time>
      </trkpt>
      <trkpt lat="46.06086" lon="3.7024">
        <ele>484.6</ele>
        <time>2020-07-12T13:32:42Z</time>
      </trkpt>
      <trkpt lat="46.06073" lon="3.70222">
        <ele>484.83</ele>
        <time>2020-07-12T13:32:46Z</time>
      </trkpt>
      <trkpt lat="46.06057" lon="3.70207">
        <ele>485.01</ele>
        <time>2020-07-12T13:32:51Z</time>
      </trkpt>
      <trkpt lat="46.0604" lon="3.70194">
        <ele>485.15</ele>
        <time>2020-07-12T13:32:59Z</time>
      </trkpt>
      <trkpt lat="46.06022" lon="3.70194">
        <ele>485.39</ele>
        <time>2020-07-12T13:33:08Z</time>
      </trkpt>
      <trkpt lat="46.06002" lon="3.70195">
        <ele>485.74</ele>
        <time>2020-07-12T13:33:18Z</time>
      </trkpt>
      <trkpt lat="46.0601" lon="3.7017">
        <ele>487.78</ele>
        <time>2020-07-12T13:33:49Z</time>
      </trkpt>
      <trkpt lat="46.06023" lon="3.70152">
        <ele>489.18</ele>
        <time>2020-07-12T13:34:07Z</time>
      </trkpt>
      <trkpt lat="46.06038" lon="3.70136">
        <ele>491.07</ele>
        <time>2020-07-12T13:34:25Z</time>
      </trkpt>
      <trkpt lat="46.06055" lon="3.70125">
        <ele>493.41</ele>
        <time>2020-07-12T13:34:39Z</time>
      </trkpt>
      <trkpt lat="46.06069" lon="3.70108">
        <ele>495.08</ele>
        <time>2020-07-12T13:34:47Z</time>
      </trkpt>
      <trkpt lat="46.06077" lon="3.70085">
        <ele>498.15</ele>
        <time>2020-07-12T13:35:00Z</time>
      </trkpt>
      <trkpt lat="46.06093" lon="3.70072">
        <ele>501.76</ele>
        <time>2020-07-12T13:35:15Z</time>
      </trkpt>
      <trkpt lat="46.06106" lon="3.70051">
        <ele>505.47</ele>
        <time>2020-07-12T13:35:29Z</time>
      </trkpt>
      <trkpt lat="46.06113" lon="3.70025">
        <ele>510.49</ele>
        <time>2020-07-12T13:35:44Z</time>
      </trkpt>
      <trkpt lat="46.06119" lon="3.70001">
        <ele>519.77</ele>
        <time>2020-07-12T13:36:17Z</time>
      </trkpt>
      <trkpt lat="46.06135" lon="3.69987">
        <ele>527.31</ele>
        <time>2020-07-12T13:36:46Z</time>
      </trkpt>
      <trkpt lat="46.06149" lon="3.69968">
        <ele>536.96</ele>
        <time>2020-07-12T13:38:02Z</time>
      </trkpt>
      <trkpt lat="46.06134" lon="3.69951">
        <ele>543.24</ele>
        <time>2020-07-12T13:38:38Z</time>
      </trkpt>
      <trkpt lat="46.0612" lon="3.69968">
        <ele>546.77</ele>
        <time>2020-07-12T13:38:45Z</time>
      </trkpt>
      <trkpt lat="46.06103" lon="3.69983">
        <ele>548.77</ele>
        <time>2020-07-12T13:38:48Z</time>
      </trkpt>
      <trkpt lat="46.06083" lon="3.69988">
        <ele>549.98</ele>
        <time>2020-07-12T13:38:51Z</time>
      </trkpt>
      <trkpt lat="46.0607" lon="3.69966">
        <ele>550.92</ele>
        <time>2020-07-12T13:38:55Z</time>
      </trkpt>
      <trkpt lat="46.06066" lon="3.69938">
        <ele>551.22</ele>
        <time>2020-07-12T13:39:01Z</time>
      </trkpt>
      <trkpt lat="46.06064" lon="3.6991">
        <ele>552.8</ele>
        <time>2020-07-12T13:39:06Z</time>
      </trkpt>
      <trkpt lat="46.06062" lon="3.69882">
        <ele>554.1</ele>
        <time>2020-07-12T13:39:10Z</time>
      </trkpt>
      <trkpt lat="46.06058" lon="3.69855">
        <ele>554.68</ele>
        <time>2020-07-12T13:39:14Z</time>
      </trkpt>
      <trkpt lat="46.0605" lon="3.69826">
        <ele>555</ele>
        <time>2020-07-12T13:39:19Z</time>
      </trkpt>
      <trkpt lat="46.06042" lon="3.69801">
        <ele>554.93</ele>
        <time>2020-07-12T13:39:22Z</time>
      </trkpt>
      <trkpt lat="46.06038" lon="3.69768">
        <ele>554.47</ele>
        <time>2020-07-12T13:39:25Z</time>
      </trkpt>
      <trkpt lat="46.06039" lon="3.69734">
        <ele>553.84</ele>
        <time>2020-07-12T13:39:28Z</time>
      </trkpt>
      <trkpt lat="46.06045" lon="3.69702">
        <ele>553.02</ele>
        <time>2020-07-12T13:39:31Z</time>
      </trkpt>
      <trkpt lat="46.06039" lon="3.69673">
        <ele>552.21</ele>
        <time>2020-07-12T13:39:34Z</time>
      </trkpt>
      <trkpt lat="46.06034" lon="3.69642">
        <ele>551.75</ele>
        <time>2020-07-12T13:39:37Z</time>
      </trkpt>
      <trkpt lat="46.06021" lon="3.69617">
        <ele>551.42</ele>
        <time>2020-07-12T13:39:40Z</time>
      </trkpt>
      <trkpt lat="46.06008" lon="3.69595">
        <ele>551.25</ele>
        <time>2020-07-12T13:39:43Z</time>
      </trkpt>
      <trkpt lat="46.05997" lon="3.69569">
        <ele>550.59</ele>
        <time>2020-07-12T13:39:46Z</time>
      </trkpt>
      <trkpt lat="46.05987" lon="3.69538">
        <ele>549.72</ele>
        <time>2020-07-12T13:39:49Z</time>
      </trkpt>
      <trkpt lat="46.05971" lon="3.69518">
        <ele>549.3</ele>
        <time>2020-07-12T13:39:52Z</time>
      </trkpt>
      <trkpt lat="46.05953" lon="3.6951">
        <ele>549.13</ele>
        <time>2020-07-12T13:39:55Z</time>
      </trkpt>
      <trkpt lat="46.05935" lon="3.69497">
        <ele>549.59</ele>
        <time>2020-07-12T13:40:00Z</time>
      </trkpt>
      <trkpt lat="46.05917" lon="3.69487">
        <ele>549.79</ele>
        <time>2020-07-12T13:40:07Z</time>
      </trkpt>
      <trkpt lat="46.059" lon="3.69479">
        <ele>550.02</ele>
        <time>2020-07-12T13:40:15Z</time>
      </trkpt>
      <trkpt lat="46.05881" lon="3.69472">
        <ele>550.52</ele>
        <time>2020-07-12T13:40:22Z</time>
      </trkpt>
      <trkpt lat="46.05863" lon="3.69467">
        <ele>551.01</ele>
        <time>2020-07-12T13:40:29Z</time>
      </trkpt>
      <trkpt lat="46.05844" lon="3.69462">
        <ele>551.38</ele>
        <time>2020-07-12T13:40:34Z</time>
      </trkpt>
      <trkpt lat="46.05827" lon="3.69472">
        <ele>552.08</ele>
        <time>2020-07-12T13:40:43Z</time>
      </trkpt>
      <trkpt lat="46.0581" lon="3.6948">
        <ele>553.09</ele>
        <time>2020-07-12T13:40:57Z</time>
      </trkpt>
      <trkpt lat="46.05792" lon="3.69483">
        <ele>553.78</ele>
        <time>2020-07-12T13:41:09Z</time>
      </trkpt>
      <trkpt lat="46.05772" lon="3.69477">
        <ele>554.35</ele>
        <time>2020-07-12T13:41:22Z</time>
      </trkpt>
      <trkpt lat="46.05753" lon="3.69472">
        <ele>554.78</ele>
        <time>2020-07-12T13:41:34Z</time>
      </trkpt>
      <trkpt lat="46.05735" lon="3.6947">
        <ele>555.15</ele>
        <time>2020-07-12T13:41:44Z</time>
      </trkpt>
      <trkpt lat="46.05716" lon="3.69472">
        <ele>555.7</ele>
        <time>2020-07-12T13:41:56Z</time>
      </trkpt>
      <trkpt lat="46.05697" lon="3.69469">
        <ele>556.31</ele>
        <time>2020-07-12T13:42:09Z</time>
      </trkpt>
      <trkpt lat="46.0568" lon="3.6946">
        <ele>556.73</ele>
        <time>2020-07-12T13:42:18Z</time>
      </trkpt>
      <trkpt lat="46.05664" lon="3.69448">
        <ele>557.23</ele>
        <time>2020-07-12T13:42:28Z</time>
      </trkpt>
      <trkpt lat="46.05648" lon="3.69432">
        <ele>557.94</ele>
        <time>2020-07-12T13:42:40Z</time>
      </trkpt>
      <trkpt lat="46.0563" lon="3.69423">
        <ele>558.91</ele>
        <time>2020-07-12T13:42:54Z</time>
      </trkpt>
      <trkpt lat="46.05613" lon="3.69415">
        <ele>559.87</ele>
        <time>2020-07-12T13:43:08Z</time>
      </trkpt>
      <trkpt lat="46.05595" lon="3.69405">
        <ele>560.72</ele>
        <time>2020-07-12T13:43:20Z</time>
      </trkpt>
      <trkpt lat="46.05576" lon="3.69408">
        <ele>561.5</ele>
        <time>2020-07-12T13:43:32Z</time>
      </trkpt>
      <trkpt lat="46.05558" lon="3.69405">
        <ele>562.23</ele>
        <time>2020-07-12T13:43:43Z</time>
      </trkpt>
      <trkpt lat="46.05539" lon="3.69403">
        <ele>562.96</ele>
        <time>2020-07-12T13:43:54Z</time>
      </trkpt>
      <trkpt lat="46.05519" lon="3.69399">
        <ele>563.76</ele>
        <time>2020-07-12T13:44:05Z</time>
      </trkpt>
      <trkpt lat="46.055" lon="3.69392">
        <ele>564.5</ele>
        <time>2020-07-12T13:44:16Z</time>
      </trkpt>
      <trkpt lat="46.05484" lon="3.69381">
        <ele>565.22</ele>
        <time>2020-07-12T13:44:27Z</time>
      </trkpt>
      <trkpt lat="46.05466" lon="3.6937">
        <ele>566.2</ele>
        <time>2020-07-12T13:44:41Z</time>
      </trkpt>
      <trkpt lat="46.05449" lon="3.69355">
        <ele>567.22</ele>
        <time>2020-07-12T13:44:53Z</time>
      </trkpt>
      <trkpt lat="46.0543" lon="3.69349">
        <ele>568.48</ele>
        <time>2020-07-12T13:45:08Z</time>
      </trkpt>
      <trkpt lat="46.05413" lon="3.69337">
        <ele>569.46</ele>
        <time>2020-07-12T13:45:19Z</time>
      </trkpt>
      <trkpt lat="46.05396" lon="3.69328">
        <ele>570.4</ele>
        <time>2020-07-12T13:45:29Z</time>
      </trkpt>
      <trkpt lat="46.05377" lon="3.69323">
        <ele>571.41</ele>
        <time>2020-07-12T13:45:39Z</time>
      </trkpt>
      <trkpt lat="46.05359" lon="3.69333">
        <ele>572.49</ele>
        <time>2020-07-12T13:45:48Z</time>
      </trkpt>
      <trkpt lat="46.0534" lon="3.69338">
        <ele>573.76</ele>
        <time>2020-07-12T13:45:58Z</time>
      </trkpt>
      <trkpt lat="46.05321" lon="3.69338">
        <ele>574.83</ele>
        <time>2020-07-12T13:46:07Z</time>
      </trkpt>
      <trkpt lat="46.05301" lon="3.69337">
        <ele>575.94</ele>
        <time>2020-07-12T13:46:17Z</time>
      </trkpt>
      <trkpt lat="46.05281" lon="3.69337">
        <ele>576.71</ele>
        <time>2020-07-12T13:46:24Z</time>
      </trkpt>
      <trkpt lat="46.05261" lon="3.69331">
        <ele>578.02</ele>
        <time>2020-07-12T13:46:35Z</time>
      </trkpt>
      <trkpt lat="46.05243" lon="3.69343">
        <ele>579.2</ele>
        <time>2020-07-12T13:46:43Z</time>
      </trkpt>
      <trkpt lat="46.05225" lon="3.69353">
        <ele>580.78</ele>
        <time>2020-07-12T13:46:52Z</time>
      </trkpt>
      <trkpt lat="46.05207" lon="3.69362">
        <ele>582.35</ele>
        <time>2020-07-12T13:47:00Z</time>
      </trkpt>
      <trkpt lat="46.05189" lon="3.69372">
        <ele>583.76</ele>
        <time>2020-07-12T13:47:07Z</time>
      </trkpt>
      <trkpt lat="46.05172" lon="3.69382">
        <ele>585.19</ele>
        <time>2020-07-12T13:47:14Z</time>
      </trkpt>
      <trkpt lat="46.05153" lon="3.69394">
        <ele>586.69</ele>
        <time>2020-07-12T13:47:21Z</time>
      </trkpt>
      <trkpt lat="46.05135" lon="3.69403">
        <ele>588.01</ele>
        <time>2020-07-12T13:47:27Z</time>
      </trkpt>
      <trkpt lat="46.05115" lon="3.69413">
        <ele>591</ele>
        <time>2020-07-12T13:47:33Z</time>
      </trkpt>
      <trkpt lat="46.05095" lon="3.69424">
        <ele>592.27</ele>
        <time>2020-07-12T13:47:39Z</time>
      </trkpt>
      <trkpt lat="46.05077" lon="3.69427">
        <ele>593.41</ele>
        <time>2020-07-12T13:47:45Z</time>
      </trkpt>
      <trkpt lat="46.05062" lon="3.69411">
        <ele>595.45</ele>
        <time>2020-07-12T13:47:56Z</time>
      </trkpt>
      <trkpt lat="46.05044" lon="3.69399">
        <ele>597.22</ele>
        <time>2020-07-12T13:48:06Z</time>
      </trkpt>
      <trkpt lat="46.05027" lon="3.69388">
        <ele>598.58</ele>
        <time>2020-07-12T13:48:14Z</time>
      </trkpt>
      <trkpt lat="46.05014" lon="3.69367">
        <ele>600.18</ele>
        <time>2020-07-12T13:48:24Z</time>
      </trkpt>
      <trkpt lat="46.05003" lon="3.69345">
        <ele>601.45</ele>
        <time>2020-07-12T13:48:32Z</time>
      </trkpt>
      <trkpt lat="46.04991" lon="3.69323">
        <ele>602.72</ele>
        <time>2020-07-12T13:48:40Z</time>
      </trkpt>
      <trkpt lat="46.04977" lon="3.69306">
        <ele>603.99</ele>
        <time>2020-07-12T13:48:48Z</time>
      </trkpt>
      <trkpt lat="46.04962" lon="3.6929">
        <ele>605.19</ele>
        <time>2020-07-12T13:48:56Z</time>
      </trkpt>
      <trkpt lat="46.04946" lon="3.69273">
        <ele>606.67</ele>
        <time>2020-07-12T13:49:06Z</time>
      </trkpt>
      <trkpt lat="46.0493" lon="3.6926">
        <ele>608.06</ele>
        <time>2020-07-12T13:49:15Z</time>
      </trkpt>
      <trkpt lat="46.04913" lon="3.69249">
        <ele>609.53</ele>
        <time>2020-07-12T13:49:24Z</time>
      </trkpt>
      <trkpt lat="46.04899" lon="3.69232">
        <ele>611.01</ele>
        <time>2020-07-12T13:49:33Z</time>
      </trkpt>
      <trkpt lat="46.04882" lon="3.69218">
        <ele>612.9</ele>
        <time>2020-07-12T13:49:45Z</time>
      </trkpt>
      <trkpt lat="46.04866" lon="3.69202">
        <ele>614.57</ele>
        <time>2020-07-12T13:49:57Z</time>
      </trkpt>
      <trkpt lat="46.04849" lon="3.6919">
        <ele>616.23</ele>
        <time>2020-07-12T13:50:10Z</time>
      </trkpt>
      <trkpt lat="46.04833" lon="3.69178">
        <ele>617.66</ele>
        <time>2020-07-12T13:50:21Z</time>
      </trkpt>
      <trkpt lat="46.04817" lon="3.69163">
        <ele>619.47</ele>
        <time>2020-07-12T13:50:34Z</time>
      </trkpt>
      <trkpt lat="46.04814" lon="3.69189">
        <ele>621.43</ele>
        <time>2020-07-12T13:50:48Z</time>
      </trkpt>
      <trkpt lat="46.04822" lon="3.69213">
        <ele>622.87</ele>
        <time>2020-07-12T13:50:58Z</time>
      </trkpt>
      <trkpt lat="46.0483" lon="3.69239">
        <ele>624.53</ele>
        <time>2020-07-12T13:51:08Z</time>
      </trkpt>
      <trkpt lat="46.04841" lon="3.69263">
        <ele>626.47</ele>
        <time>2020-07-12T13:51:18Z</time>
      </trkpt>
      <trkpt lat="46.04849" lon="3.6929">
        <ele>628.43</ele>
        <time>2020-07-12T13:51:28Z</time>
      </trkpt>
      <trkpt lat="46.04856" lon="3.69316">
        <ele>630.81</ele>
        <time>2020-07-12T13:51:38Z</time>
      </trkpt>
      <trkpt lat="46.04864" lon="3.6934">
        <ele>633.71</ele>
        <time>2020-07-12T13:51:50Z</time>
      </trkpt>
      <trkpt lat="46.0487" lon="3.69368">
        <ele>635.88</ele>
        <time>2020-07-12T13:51:59Z</time>
      </trkpt>
      <trkpt lat="46.04876" lon="3.69394">
        <ele>638.81</ele>
        <time>2020-07-12T13:52:10Z</time>
      </trkpt>
      <trkpt lat="46.04862" lon="3.69411">
        <ele>643.84</ele>
        <time>2020-07-12T13:52:31Z</time>
      </trkpt>
      <trkpt lat="46.04844" lon="3.69407">
        <ele>646.66</ele>
        <time>2020-07-12T13:52:42Z</time>
      </trkpt>
      <trkpt lat="46.04825" lon="3.69402">
        <ele>649.74</ele>
        <time>2020-07-12T13:52:55Z</time>
      </trkpt>
      <trkpt lat="46.04806" lon="3.69402">
        <ele>657.8</ele>
        <time>2020-07-12T13:53:29Z</time>
      </trkpt>
      <trkpt lat="46.04789" lon="3.69395">
        <ele>664.84</ele>
        <time>2020-07-12T13:53:56Z</time>
      </trkpt>
      <trkpt lat="46.04771" lon="3.69388">
        <ele>670.78</ele>
        <time>2020-07-12T13:54:23Z</time>
      </trkpt>
      <trkpt lat="46.04754" lon="3.69378">
        <ele>673.72</ele>
        <time>2020-07-12T13:54:38Z</time>
      </trkpt>
      <trkpt lat="46.04737" lon="3.6937">
        <ele>676.23</ele>
        <time>2020-07-12T13:54:54Z</time>
      </trkpt>
      <trkpt lat="46.0472" lon="3.69359">
        <ele>679.66</ele>
        <time>2020-07-12T13:55:21Z</time>
      </trkpt>
      <trkpt lat="46.04707" lon="3.6934">
        <ele>681.78</ele>
        <time>2020-07-12T13:55:38Z</time>
      </trkpt>
      <trkpt lat="46.04693" lon="3.69323">
        <ele>683.58</ele>
        <time>2020-07-12T13:55:54Z</time>
      </trkpt>
      <trkpt lat="46.04682" lon="3.69301">
        <ele>685.3</ele>
        <time>2020-07-12T13:56:10Z</time>
      </trkpt>
      <trkpt lat="46.04669" lon="3.69282">
        <ele>686.14</ele>
        <time>2020-07-12T13:56:19Z</time>
      </trkpt>
      <trkpt lat="46.04652" lon="3.6927">
        <ele>687.03</ele>
        <time>2020-07-12T13:56:30Z</time>
      </trkpt>
      <trkpt lat="46.04635" lon="3.69257">
        <ele>688.03</ele>
        <time>2020-07-12T13:56:43Z</time>
      </trkpt>
      <trkpt lat="46.04618" lon="3.69242">
        <ele>689.08</ele>
        <time>2020-07-12T13:56:56Z</time>
      </trkpt>
      <trkpt lat="46.04599" lon="3.69236">
        <ele>690.96</ele>
        <time>2020-07-12T13:57:12Z</time>
      </trkpt>
      <trkpt lat="46.0458" lon="3.69227">
        <ele>694.31</ele>
        <time>2020-07-12T13:57:28Z</time>
      </trkpt>
      <trkpt lat="46.04565" lon="3.69211">
        <ele>697.96</ele>
        <time>2020-07-12T13:57:44Z</time>
      </trkpt>
      <trkpt lat="46.04547" lon="3.69206">
        <ele>701.09</ele>
        <time>2020-07-12T13:57:59Z</time>
      </trkpt>
      <trkpt lat="46.04529" lon="3.69198">
        <ele>704.31</ele>
        <time>2020-07-12T13:58:13Z</time>
      </trkpt>
      <trkpt lat="46.04511" lon="3.69193">
        <ele>707.08</ele>
        <time>2020-07-12T13:58:24Z</time>
      </trkpt>
      <trkpt lat="46.04492" lon="3.69193">
        <ele>711.18</ele>
        <time>2020-07-12T13:58:38Z</time>
      </trkpt>
      <trkpt lat="46.04474" lon="3.69191">
        <ele>714.01</ele>
        <time>2020-07-12T13:58:48Z</time>
      </trkpt>
      <trkpt lat="46.04456" lon="3.69188">
        <ele>717.24</ele>
        <time>2020-07-12T13:58:59Z</time>
      </trkpt>
      <trkpt lat="46.04437" lon="3.69182">
        <ele>721.08</ele>
        <time>2020-07-12T13:59:12Z</time>
      </trkpt>
      <trkpt lat="46.04419" lon="3.69176">
        <ele>723.14</ele>
        <time>2020-07-12T13:59:19Z</time>
      </trkpt>
      <trkpt lat="46.04399" lon="3.69169">
        <ele>725.58</ele>
        <time>2020-07-12T13:59:27Z</time>
      </trkpt>
      <trkpt lat="46.04383" lon="3.69158">
        <ele>727.46</ele>
        <time>2020-07-12T13:59:33Z</time>
      </trkpt>
      <trkpt lat="46.04361" lon="3.69149">
        <ele>729.71</ele>
        <time>2020-07-12T13:59:40Z</time>
      </trkpt>
      <trkpt lat="46.04339" lon="3.69143">
        <ele>730.86</ele>
        <time>2020-07-12T13:59:44Z</time>
      </trkpt>
      <trkpt lat="46.04321" lon="3.6913">
        <ele>731.96</ele>
        <time>2020-07-12T13:59:48Z</time>
      </trkpt>
      <trkpt lat="46.04302" lon="3.69122">
        <ele>733.29</ele>
        <time>2020-07-12T13:59:53Z</time>
      </trkpt>
      <trkpt lat="46.04282" lon="3.69115">
        <ele>735.03</ele>
        <time>2020-07-12T14:00:00Z</time>
      </trkpt>
      <trkpt lat="46.04264" lon="3.69114">
        <ele>736.72</ele>
        <time>2020-07-12T14:00:07Z</time>
      </trkpt>
      <trkpt lat="46.04244" lon="3.69117">
        <ele>738.33</ele>
        <time>2020-07-12T14:00:14Z</time>
      </trkpt>
      <trkpt lat="46.04226" lon="3.69113">
        <ele>739.96</ele>
        <time>2020-07-12T14:00:21Z</time>
      </trkpt>
      <trkpt lat="46.04207" lon="3.69107">
        <ele>741.48</ele>
        <time>2020-07-12T14:00:28Z</time>
      </trkpt>
      <trkpt lat="46.04187" lon="3.6911">
        <ele>742.74</ele>
        <time>2020-07-12T14:00:34Z</time>
      </trkpt>
      <trkpt lat="46.04167" lon="3.69113">
        <ele>743.79</ele>
        <time>2020-07-12T14:00:39Z</time>
      </trkpt>
      <trkpt lat="46.04148" lon="3.69119">
        <ele>744.97</ele>
        <time>2020-07-12T14:00:45Z</time>
      </trkpt>
      <trkpt lat="46.0413" lon="3.6913">
        <ele>745.88</ele>
        <time>2020-07-12T14:00:50Z</time>
      </trkpt>
      <trkpt lat="46.04112" lon="3.69139">
        <ele>747.08</ele>
        <time>2020-07-12T14:00:57Z</time>
      </trkpt>
      <trkpt lat="46.04093" lon="3.69147">
        <ele>748.07</ele>
        <time>2020-07-12T14:01:03Z</time>
      </trkpt>
      <trkpt lat="46.04072" lon="3.69157">
        <ele>749.03</ele>
        <time>2020-07-12T14:01:09Z</time>
      </trkpt>
      <trkpt lat="46.04053" lon="3.69162">
        <ele>750.07</ele>
        <time>2020-07-12T14:01:16Z</time>
      </trkpt>
      <trkpt lat="46.04033" lon="3.69156">
        <ele>751.19</ele>
        <time>2020-07-12T14:01:24Z</time>
      </trkpt>
      <trkpt lat="46.04014" lon="3.69149">
        <ele>752.36</ele>
        <time>2020-07-12T14:01:33Z</time>
      </trkpt>
      <trkpt lat="46.03996" lon="3.6914">
        <ele>753.03</ele>
        <time>2020-07-12T14:01:39Z</time>
      </trkpt>
      <trkpt lat="46.03976" lon="3.69131">
        <ele>753.61</ele>
        <time>2020-07-12T14:01:45Z</time>
      </trkpt>
      <trkpt lat="46.03957" lon="3.69125">
        <ele>754.16</ele>
        <time>2020-07-12T14:01:51Z</time>
      </trkpt>
      <trkpt lat="46.03938" lon="3.69115">
        <ele>754.79</ele>
        <time>2020-07-12T14:01:58Z</time>
      </trkpt>
      <trkpt lat="46.03919" lon="3.69112">
        <ele>755.31</ele>
        <time>2020-07-12T14:02:04Z</time>
      </trkpt>
      <trkpt lat="46.03899" lon="3.69102">
        <ele>755.72</ele>
        <time>2020-07-12T14:02:09Z</time>
      </trkpt>
      <trkpt lat="46.03882" lon="3.69095">
        <ele>756.1</ele>
        <time>2020-07-12T14:02:14Z</time>
      </trkpt>
      <trkpt lat="46.03862" lon="3.69082">
        <ele>756.45</ele>
        <time>2020-07-12T14:02:19Z</time>
      </trkpt>
      <trkpt lat="46.03846" lon="3.6907">
        <ele>756.7</ele>
        <time>2020-07-12T14:02:23Z</time>
      </trkpt>
      <trkpt lat="46.03827" lon="3.69055">
        <ele>757.55</ele>
        <time>2020-07-12T14:02:30Z</time>
      </trkpt>
      <trkpt lat="46.03808" lon="3.69044">
        <ele>757.83</ele>
        <time>2020-07-12T14:02:35Z</time>
      </trkpt>
      <trkpt lat="46.03788" lon="3.69035">
        <ele>757.97</ele>
        <time>2020-07-12T14:02:39Z</time>
      </trkpt>
      <trkpt lat="46.03767" lon="3.69028">
        <ele>758.14</ele>
        <time>2020-07-12T14:02:44Z</time>
      </trkpt>
      <trkpt lat="46.03745" lon="3.69027">
        <ele>758.31</ele>
        <time>2020-07-12T14:02:49Z</time>
      </trkpt>
      <trkpt lat="46.03727" lon="3.69028">
        <ele>758.86</ele>
        <time>2020-07-12T14:02:53Z</time>
      </trkpt>
      <trkpt lat="46.03705" lon="3.6903">
        <ele>759.07</ele>
        <time>2020-07-12T14:02:58Z</time>
      </trkpt>
      <trkpt lat="46.03684" lon="3.69033">
        <ele>759.31</ele>
        <time>2020-07-12T14:03:04Z</time>
      </trkpt>
      <trkpt lat="46.03664" lon="3.69034">
        <ele>759.61</ele>
        <time>2020-07-12T14:03:11Z</time>
      </trkpt>
      <trkpt lat="46.03646" lon="3.69029">
        <ele>759.94</ele>
        <time>2020-07-12T14:03:16Z</time>
      </trkpt>
      <trkpt lat="46.03627" lon="3.69032">
        <ele>760.41</ele>
        <time>2020-07-12T14:03:23Z</time>
      </trkpt>
      <trkpt lat="46.03608" lon="3.69035">
        <ele>760.79</ele>
        <time>2020-07-12T14:03:29Z</time>
      </trkpt>
      <trkpt lat="46.03589" lon="3.69043">
        <ele>761.62</ele>
        <time>2020-07-12T14:03:38Z</time>
      </trkpt>
      <trkpt lat="46.03569" lon="3.6905">
        <ele>762.77</ele>
        <time>2020-07-12T14:03:48Z</time>
      </trkpt>
      <trkpt lat="46.03553" lon="3.69062">
        <ele>763.66</ele>
        <time>2020-07-12T14:03:56Z</time>
      </trkpt>
      <trkpt lat="46.03533" lon="3.69066">
        <ele>764.46</ele>
        <time>2020-07-12T14:04:03Z</time>
      </trkpt>
      <trkpt lat="46.03514" lon="3.69067">
        <ele>765.55</ele>
        <time>2020-07-12T14:04:11Z</time>
      </trkpt>
      <trkpt lat="46.03496" lon="3.69078">
        <ele>766.79</ele>
        <time>2020-07-12T14:04:20Z</time>
      </trkpt>
      <trkpt lat="46.03478" lon="3.69091">
        <ele>768.26</ele>
        <time>2020-07-12T14:04:31Z</time>
      </trkpt>
      <trkpt lat="46.0346" lon="3.69102">
        <ele>769.25</ele>
        <time>2020-07-12T14:04:39Z</time>
      </trkpt>
      <trkpt lat="46.03445" lon="3.69116">
        <ele>770.55</ele>
        <time>2020-07-12T14:04:51Z</time>
      </trkpt>
      <trkpt lat="46.03438" lon="3.69092">
        <ele>771.82</ele>
        <time>2020-07-12T14:05:04Z</time>
      </trkpt>
      <trkpt lat="46.03432" lon="3.69066">
        <ele>772.5</ele>
        <time>2020-07-12T14:05:11Z</time>
      </trkpt>
      <trkpt lat="46.03426" lon="3.6904">
        <ele>773.03</ele>
        <time>2020-07-12T14:05:16Z</time>
      </trkpt>
      <trkpt lat="46.03427" lon="3.69013">
        <ele>774.56</ele>
        <time>2020-07-12T14:05:21Z</time>
      </trkpt>
      <trkpt lat="46.03418" lon="3.68991">
        <ele>775.21</ele>
        <time>2020-07-12T14:05:26Z</time>
      </trkpt>
      <trkpt lat="46.03405" lon="3.68969">
        <ele>775.7</ele>
        <time>2020-07-12T14:05:30Z</time>
      </trkpt>
      <trkpt lat="46.03401" lon="3.68942">
        <ele>776.45</ele>
        <time>2020-07-12T14:05:37Z</time>
      </trkpt>
      <trkpt lat="46.03409" lon="3.68918">
        <ele>777.82</ele>
        <time>2020-07-12T14:05:42Z</time>
      </trkpt>
      <trkpt lat="46.0341" lon="3.68891">
        <ele>778.33</ele>
        <time>2020-07-12T14:05:49Z</time>
      </trkpt>
      <trkpt lat="46.0341" lon="3.68865">
        <ele>778.9</ele>
        <time>2020-07-12T14:05:57Z</time>
      </trkpt>
      <trkpt lat="46.03409" lon="3.68838">
        <ele>779.68</ele>
        <time>2020-07-12T14:06:07Z</time>
      </trkpt>
      <trkpt lat="46.03405" lon="3.68813">
        <ele>780.3</ele>
        <time>2020-07-12T14:06:14Z</time>
      </trkpt>
      <trkpt lat="46.03407" lon="3.68785">
        <ele>780.85</ele>
        <time>2020-07-12T14:06:21Z</time>
      </trkpt>
      <trkpt lat="46.0341" lon="3.68755">
        <ele>781.43</ele>
        <time>2020-07-12T14:06:30Z</time>
      </trkpt>
      <trkpt lat="46.03409" lon="3.68727">
        <ele>782.03</ele>
        <time>2020-07-12T14:06:40Z</time>
      </trkpt>
      <trkpt lat="46.03409" lon="3.68701">
        <ele>782.61</ele>
        <time>2020-07-12T14:06:49Z</time>
      </trkpt>
      <trkpt lat="46.03408" lon="3.68674">
        <ele>783.11</ele>
        <time>2020-07-12T14:06:57Z</time>
      </trkpt>
      <trkpt lat="46.03404" lon="3.68645">
        <ele>783.56</ele>
        <time>2020-07-12T14:07:05Z</time>
      </trkpt>
      <trkpt lat="46.03397" lon="3.68619">
        <ele>784.01</ele>
        <time>2020-07-12T14:07:13Z</time>
      </trkpt>
      <trkpt lat="46.03391" lon="3.68593">
        <ele>784.52</ele>
        <time>2020-07-12T14:07:23Z</time>
      </trkpt>
      <trkpt lat="46.03391" lon="3.68567">
        <ele>785</ele>
        <time>2020-07-12T14:07:33Z</time>
      </trkpt>
      <trkpt lat="46.03382" lon="3.68541">
        <ele>785.45</ele>
        <time>2020-07-12T14:07:40Z</time>
      </trkpt>
      <trkpt lat="46.03368" lon="3.68524">
        <ele>785.84</ele>
        <time>2020-07-12T14:07:46Z</time>
      </trkpt>
      <trkpt lat="46.03356" lon="3.68502">
        <ele>786.53</ele>
        <time>2020-07-12T14:07:54Z</time>
      </trkpt>
      <trkpt lat="46.03343" lon="3.68483">
        <ele>787.33</ele>
        <time>2020-07-12T14:08:03Z</time>
      </trkpt>
      <trkpt lat="46.0333" lon="3.6846">
        <ele>788.31</ele>
        <time>2020-07-12T14:08:13Z</time>
      </trkpt>
      <trkpt lat="46.03325" lon="3.68435">
        <ele>789.21</ele>
        <time>2020-07-12T14:08:23Z</time>
      </trkpt>
      <trkpt lat="46.03319" lon="3.68407">
        <ele>789.84</ele>
        <time>2020-07-12T14:08:30Z</time>
      </trkpt>
      <trkpt lat="46.03318" lon="3.6838">
        <ele>790.44</ele>
        <time>2020-07-12T14:08:36Z</time>
      </trkpt>
      <trkpt lat="46.03323" lon="3.68354">
        <ele>791.27</ele>
        <time>2020-07-12T14:08:43Z</time>
      </trkpt>
      <trkpt lat="46.03324" lon="3.68327">
        <ele>792.37</ele>
        <time>2020-07-12T14:08:52Z</time>
      </trkpt>
      <trkpt lat="46.03327" lon="3.68299">
        <ele>793.31</ele>
        <time>2020-07-12T14:09:00Z</time>
      </trkpt>
      <trkpt lat="46.03329" lon="3.68273">
        <ele>794.12</ele>
        <time>2020-07-12T14:09:07Z</time>
      </trkpt>
      <trkpt lat="46.03332" lon="3.68244">
        <ele>794.93</ele>
        <time>2020-07-12T14:09:13Z</time>
      </trkpt>
      <trkpt lat="46.03333" lon="3.68214">
        <ele>798.09</ele>
        <time>2020-07-12T14:09:18Z</time>
      </trkpt>
      <trkpt lat="46.03335" lon="3.68185">
        <ele>801.97</ele>
        <time>2020-07-12T14:09:22Z</time>
      </trkpt>
      <trkpt lat="46.03339" lon="3.68159">
        <ele>803.38</ele>
        <time>2020-07-12T14:09:26Z</time>
      </trkpt>
      <trkpt lat="46.03354" lon="3.68143">
        <ele>803.91</ele>
        <time>2020-07-12T14:09:32Z</time>
      </trkpt>
      <trkpt lat="46.0337" lon="3.68129">
        <ele>804.24</ele>
        <time>2020-07-12T14:09:40Z</time>
      </trkpt>
      <trkpt lat="46.03386" lon="3.68113">
        <ele>804.6</ele>
        <time>2020-07-12T14:09:46Z</time>
      </trkpt>
      <trkpt lat="46.03402" lon="3.68101">
        <ele>805.28</ele>
        <time>2020-07-12T14:09:54Z</time>
      </trkpt>
      <trkpt lat="46.03421" lon="3.68096">
        <ele>806.32</ele>
        <time>2020-07-12T14:10:02Z</time>
      </trkpt>
      <trkpt lat="46.03439" lon="3.68085">
        <ele>807.51</ele>
        <time>2020-07-12T14:10:12Z</time>
      </trkpt>
      <trkpt lat="46.03455" lon="3.68072">
        <ele>808.79</ele>
        <time>2020-07-12T14:10:22Z</time>
      </trkpt>
      <trkpt lat="46.03471" lon="3.68057">
        <ele>810.08</ele>
        <time>2020-07-12T14:10:32Z</time>
      </trkpt>
      <trkpt lat="46.03478" lon="3.68031">
        <ele>811.34</ele>
        <time>2020-07-12T14:10:41Z</time>
      </trkpt>
      <trkpt lat="46.03481" lon="3.68005">
        <ele>813.13</ele>
        <time>2020-07-12T14:10:52Z</time>
      </trkpt>
      <trkpt lat="46.03478" lon="3.67975">
        <ele>816.11</ele>
        <time>2020-07-12T14:11:38Z</time>
      </trkpt>
      <trkpt lat="46.03478" lon="3.67944">
        <ele>819</ele>
        <time>2020-07-12T14:11:43Z</time>
      </trkpt>
      <trkpt lat="46.03478" lon="3.67915">
        <ele>820.23</ele>
        <time>2020-07-12T14:11:47Z</time>
      </trkpt>
      <trkpt lat="46.03475" lon="3.67888">
        <ele>821.04</ele>
        <time>2020-07-12T14:11:51Z</time>
      </trkpt>
      <trkpt lat="46.03469" lon="3.67859">
        <ele>821.43</ele>
        <time>2020-07-12T14:11:55Z</time>
      </trkpt>
      <trkpt lat="46.03462" lon="3.6783">
        <ele>821.51</ele>
        <time>2020-07-12T14:12:00Z</time>
      </trkpt>
      <trkpt lat="46.03452" lon="3.67809">
        <ele>821.51</ele>
        <time>2020-07-12T14:12:05Z</time>
      </trkpt>
      <trkpt lat="46.0344" lon="3.67784">
        <ele>821.52</ele>
        <time>2020-07-12T14:12:10Z</time>
      </trkpt>
      <trkpt lat="46.03426" lon="3.67765">
        <ele>821.5</ele>
        <time>2020-07-12T14:12:13Z</time>
      </trkpt>
      <trkpt lat="46.03415" lon="3.67734">
        <ele>821.54</ele>
        <time>2020-07-12T14:12:17Z</time>
      </trkpt>
      <trkpt lat="46.03413" lon="3.67708">
        <ele>821.53</ele>
        <time>2020-07-12T14:12:20Z</time>
      </trkpt>
      <trkpt lat="46.03406" lon="3.67677">
        <ele>821.58</ele>
        <time>2020-07-12T14:12:23Z</time>
      </trkpt>
      <trkpt lat="46.03398" lon="3.67652">
        <ele>821.59</ele>
        <time>2020-07-12T14:12:26Z</time>
      </trkpt>
      <trkpt lat="46.03391" lon="3.67625">
        <ele>821.51</ele>
        <time>2020-07-12T14:12:30Z</time>
      </trkpt>
      <trkpt lat="46.03381" lon="3.67591">
        <ele>821.42</ele>
        <time>2020-07-12T14:12:34Z</time>
      </trkpt>
      <trkpt lat="46.03375" lon="3.67562">
        <ele>821.3</ele>
        <time>2020-07-12T14:12:37Z</time>
      </trkpt>
      <trkpt lat="46.03372" lon="3.67535">
        <ele>821.23</ele>
        <time>2020-07-12T14:12:40Z</time>
      </trkpt>
      <trkpt lat="46.0337" lon="3.67503">
        <ele>821.29</ele>
        <time>2020-07-12T14:12:44Z</time>
      </trkpt>
      <trkpt lat="46.03366" lon="3.67476">
        <ele>821.42</ele>
        <time>2020-07-12T14:12:48Z</time>
      </trkpt>
      <trkpt lat="46.03363" lon="3.67448">
        <ele>821.53</ele>
        <time>2020-07-12T14:12:52Z</time>
      </trkpt>
      <trkpt lat="46.03362" lon="3.6742">
        <ele>821.57</ele>
        <time>2020-07-12T14:12:58Z</time>
      </trkpt>
      <trkpt lat="46.03362" lon="3.67391">
        <ele>821.57</ele>
        <time>2020-07-12T14:13:05Z</time>
      </trkpt>
      <trkpt lat="46.03357" lon="3.67365">
        <ele>821.3</ele>
        <time>2020-07-12T14:15:23Z</time>
      </trkpt>
      <trkpt lat="46.03349" lon="3.67337">
        <ele>820.96</ele>
        <time>2020-07-12T14:15:29Z</time>
      </trkpt>
      <trkpt lat="46.03346" lon="3.67305">
        <ele>820.53</ele>
        <time>2020-07-12T14:15:34Z</time>
      </trkpt>
      <trkpt lat="46.03347" lon="3.67277">
        <ele>820.38</ele>
        <time>2020-07-12T14:15:38Z</time>
      </trkpt>
      <trkpt lat="46.03346" lon="3.67249">
        <ele>820.33</ele>
        <time>2020-07-12T14:15:43Z</time>
      </trkpt>
      <trkpt lat="46.03341" lon="3.67221">
        <ele>820.31</ele>
        <time>2020-07-12T14:15:48Z</time>
      </trkpt>
      <trkpt lat="46.03332" lon="3.67198">
        <ele>820.3</ele>
        <time>2020-07-12T14:15:53Z</time>
      </trkpt>
      <trkpt lat="46.03317" lon="3.67173">
        <ele>820.29</ele>
        <time>2020-07-12T14:15:59Z</time>
      </trkpt>
      <trkpt lat="46.03309" lon="3.67144">
        <ele>820.29</ele>
        <time>2020-07-12T14:16:06Z</time>
      </trkpt>
      <trkpt lat="46.03296" lon="3.67123">
        <ele>820.3</ele>
        <time>2020-07-12T14:16:12Z</time>
      </trkpt>
      <trkpt lat="46.03285" lon="3.671">
        <ele>820.31</ele>
        <time>2020-07-12T14:16:16Z</time>
      </trkpt>
      <trkpt lat="46.03274" lon="3.67079">
        <ele>820.31</ele>
        <time>2020-07-12T14:16:20Z</time>
      </trkpt>
      <trkpt lat="46.03267" lon="3.67053">
        <ele>820.3</ele>
        <time>2020-07-12T14:16:25Z</time>
      </trkpt>
      <trkpt lat="46.03263" lon="3.67028">
        <ele>820.3</ele>
        <time>2020-07-12T14:16:30Z</time>
      </trkpt>
      <trkpt lat="46.03269" lon="3.67001">
        <ele>820.37</ele>
        <time>2020-07-12T14:16:34Z</time>
      </trkpt>
      <trkpt lat="46.03278" lon="3.66973">
        <ele>820.4</ele>
        <time>2020-07-12T14:16:37Z</time>
      </trkpt>
      <trkpt lat="46.03289" lon="3.66942">
        <ele>820.37</ele>
        <time>2020-07-12T14:16:40Z</time>
      </trkpt>
      <trkpt lat="46.03296" lon="3.66915">
        <ele>820.37</ele>
        <time>2020-07-12T14:16:42Z</time>
      </trkpt>
      <trkpt lat="46.03298" lon="3.66886">
        <ele>820.34</ele>
        <time>2020-07-12T14:16:44Z</time>
      </trkpt>
      <trkpt lat="46.03295" lon="3.66857">
        <ele>820.23</ele>
        <time>2020-07-12T14:16:46Z</time>
      </trkpt>
      <trkpt lat="46.03291" lon="3.66829">
        <ele>820.04</ele>
        <time>2020-07-12T14:16:51Z</time>
      </trkpt>
      <trkpt lat="46.03291" lon="3.66799">
        <ele>818.67</ele>
        <time>2020-07-12T14:17:27Z</time>
      </trkpt>
      <trkpt lat="46.03294" lon="3.6677">
        <ele>816.06</ele>
        <time>2020-07-12T14:17:32Z</time>
      </trkpt>
      <trkpt lat="46.03297" lon="3.66741">
        <ele>814.79</ele>
        <time>2020-07-12T14:17:35Z</time>
      </trkpt>
      <trkpt lat="46.03304" lon="3.66703">
        <ele>813.88</ele>
        <time>2020-07-12T14:17:38Z</time>
      </trkpt>
      <trkpt lat="46.0331" lon="3.6667">
        <ele>813.45</ele>
        <time>2020-07-12T14:17:40Z</time>
      </trkpt>
      <trkpt lat="46.03316" lon="3.6663">
        <ele>813.05</ele>
        <time>2020-07-12T14:17:42Z</time>
      </trkpt>
      <trkpt lat="46.03323" lon="3.66592">
        <ele>812.62</ele>
        <time>2020-07-12T14:17:44Z</time>
      </trkpt>
      <trkpt lat="46.0333" lon="3.6656">
        <ele>812.01</ele>
        <time>2020-07-12T14:17:46Z</time>
      </trkpt>
      <trkpt lat="46.03337" lon="3.66534">
        <ele>811.14</ele>
        <time>2020-07-12T14:17:48Z</time>
      </trkpt>
      <trkpt lat="46.0334" lon="3.66505">
        <ele>810.13</ele>
        <time>2020-07-12T14:17:50Z</time>
      </trkpt>
      <trkpt lat="46.03343" lon="3.66472">
        <ele>808.66</ele>
        <time>2020-07-12T14:17:52Z</time>
      </trkpt>
      <trkpt lat="46.03345" lon="3.66433">
        <ele>806.29</ele>
        <time>2020-07-12T14:17:54Z</time>
      </trkpt>
      <trkpt lat="46.03341" lon="3.6639">
        <ele>803.07</ele>
        <time>2020-07-12T14:17:56Z</time>
      </trkpt>
      <trkpt lat="46.03338" lon="3.6635">
        <ele>799.1</ele>
        <time>2020-07-12T14:17:58Z</time>
      </trkpt>
      <trkpt lat="46.03337" lon="3.66313">
        <ele>794.28</ele>
        <time>2020-07-12T14:18:00Z</time>
      </trkpt>
      <trkpt lat="46.03336" lon="3.66278">
        <ele>788.8</ele>
        <time>2020-07-12T14:18:02Z</time>
      </trkpt>
      <trkpt lat="46.03336" lon="3.66241">
        <ele>782.88</ele>
        <time>2020-07-12T14:18:04Z</time>
      </trkpt>
      <trkpt lat="46.03335" lon="3.66206">
        <ele>776.75</ele>
        <time>2020-07-12T14:18:06Z</time>
      </trkpt>
      <trkpt lat="46.03336" lon="3.66168">
        <ele>771.1</ele>
        <time>2020-07-12T14:18:08Z</time>
      </trkpt>
      <trkpt lat="46.03333" lon="3.66127">
        <ele>766.1</ele>
        <time>2020-07-12T14:18:10Z</time>
      </trkpt>
      <trkpt lat="46.0333" lon="3.66087">
        <ele>761.74</ele>
        <time>2020-07-12T14:18:12Z</time>
      </trkpt>
      <trkpt lat="46.03325" lon="3.66056">
        <ele>757.95</ele>
        <time>2020-07-12T14:18:14Z</time>
      </trkpt>
      <trkpt lat="46.03324" lon="3.6603">
        <ele>754.86</ele>
        <time>2020-07-12T14:18:20Z</time>
      </trkpt>
      <trkpt lat="46.03345" lon="3.66033">
        <ele>749.6</ele>
        <time>2020-07-12T14:18:26Z</time>
      </trkpt>
      <trkpt lat="46.0337" lon="3.66033">
        <ele>745.76</ele>
        <time>2020-07-12T14:18:30Z</time>
      </trkpt>
      <trkpt lat="46.03395" lon="3.66041">
        <ele>743.32</ele>
        <time>2020-07-12T14:18:33Z</time>
      </trkpt>
      <trkpt lat="46.03418" lon="3.66058">
        <ele>741.6</ele>
        <time>2020-07-12T14:18:36Z</time>
      </trkpt>
      <trkpt lat="46.03434" lon="3.66073">
        <ele>740.6</ele>
        <time>2020-07-12T14:18:38Z</time>
      </trkpt>
      <trkpt lat="46.03451" lon="3.6609">
        <ele>739.58</ele>
        <time>2020-07-12T14:18:40Z</time>
      </trkpt>
      <trkpt lat="46.03469" lon="3.66105">
        <ele>738.46</ele>
        <time>2020-07-12T14:18:42Z</time>
      </trkpt>
      <trkpt lat="46.03494" lon="3.66122">
        <ele>736.97</ele>
        <time>2020-07-12T14:18:45Z</time>
      </trkpt>
      <trkpt lat="46.03511" lon="3.66137">
        <ele>735.67</ele>
        <time>2020-07-12T14:18:47Z</time>
      </trkpt>
      <trkpt lat="46.03528" lon="3.66155">
        <ele>733.8</ele>
        <time>2020-07-12T14:18:49Z</time>
      </trkpt>
      <trkpt lat="46.03548" lon="3.66167">
        <ele>731.97</ele>
        <time>2020-07-12T14:18:51Z</time>
      </trkpt>
      <trkpt lat="46.03572" lon="3.66181">
        <ele>729.42</ele>
        <time>2020-07-12T14:18:54Z</time>
      </trkpt>
      <trkpt lat="46.03591" lon="3.66195">
        <ele>727.36</ele>
        <time>2020-07-12T14:18:57Z</time>
      </trkpt>
      <trkpt lat="46.0361" lon="3.66206">
        <ele>725.41</ele>
        <time>2020-07-12T14:19:00Z</time>
      </trkpt>
      <trkpt lat="46.03629" lon="3.66211">
        <ele>724.14</ele>
        <time>2020-07-12T14:19:04Z</time>
      </trkpt>
      <trkpt lat="46.03648" lon="3.66201">
        <ele>723.11</ele>
        <time>2020-07-12T14:19:11Z</time>
      </trkpt>
      <trkpt lat="46.03664" lon="3.66184">
        <ele>718.79</ele>
        <time>2020-07-12T14:19:17Z</time>
      </trkpt>
      <trkpt lat="46.03678" lon="3.66163">
        <ele>712.56</ele>
        <time>2020-07-12T14:19:21Z</time>
      </trkpt>
      <trkpt lat="46.03696" lon="3.66151">
        <ele>711.06</ele>
        <time>2020-07-12T14:19:27Z</time>
      </trkpt>
      <trkpt lat="46.03716" lon="3.66142">
        <ele>709.91</ele>
        <time>2020-07-12T14:19:33Z</time>
      </trkpt>
      <trkpt lat="46.03734" lon="3.66131">
        <ele>707.45</ele>
        <time>2020-07-12T14:19:38Z</time>
      </trkpt>
      <trkpt lat="46.0375" lon="3.66116">
        <ele>703.45</ele>
        <time>2020-07-12T14:19:43Z</time>
      </trkpt>
      <trkpt lat="46.03766" lon="3.66099">
        <ele>698.95</ele>
        <time>2020-07-12T14:19:48Z</time>
      </trkpt>
      <trkpt lat="46.03779" lon="3.66082">
        <ele>696.47</ele>
        <time>2020-07-12T14:19:52Z</time>
      </trkpt>
      <trkpt lat="46.03791" lon="3.66057">
        <ele>694.51</ele>
        <time>2020-07-12T14:19:56Z</time>
      </trkpt>
      <trkpt lat="46.03804" lon="3.66036">
        <ele>693.21</ele>
        <time>2020-07-12T14:20:00Z</time>
      </trkpt>
      <trkpt lat="46.03813" lon="3.66007">
        <ele>692.38</ele>
        <time>2020-07-12T14:20:03Z</time>
      </trkpt>
      <trkpt lat="46.03822" lon="3.65981">
        <ele>691.62</ele>
        <time>2020-07-12T14:20:06Z</time>
      </trkpt>
      <trkpt lat="46.03832" lon="3.65954">
        <ele>690.65</ele>
        <time>2020-07-12T14:20:10Z</time>
      </trkpt>
      <trkpt lat="46.03842" lon="3.65928">
        <ele>689.04</ele>
        <time>2020-07-12T14:20:13Z</time>
      </trkpt>
      <trkpt lat="46.03848" lon="3.65903">
        <ele>685.82</ele>
        <time>2020-07-12T14:20:17Z</time>
      </trkpt>
      <trkpt lat="46.03862" lon="3.65875">
        <ele>681.55</ele>
        <time>2020-07-12T14:20:21Z</time>
      </trkpt>
      <trkpt lat="46.03877" lon="3.65859">
        <ele>678.71</ele>
        <time>2020-07-12T14:20:24Z</time>
      </trkpt>
      <trkpt lat="46.03896" lon="3.65842">
        <ele>674.85</ele>
        <time>2020-07-12T14:20:28Z</time>
      </trkpt>
      <trkpt lat="46.03901" lon="3.65814">
        <ele>671.09</ele>
        <time>2020-07-12T14:20:32Z</time>
      </trkpt>
      <trkpt lat="46.03909" lon="3.65788">
        <ele>667.52</ele>
        <time>2020-07-12T14:20:37Z</time>
      </trkpt>
      <trkpt lat="46.03918" lon="3.65764">
        <ele>665.09</ele>
        <time>2020-07-12T14:20:41Z</time>
      </trkpt>
      <trkpt lat="46.03918" lon="3.65735">
        <ele>664.14</ele>
        <time>2020-07-12T14:20:46Z</time>
      </trkpt>
      <trkpt lat="46.03909" lon="3.65711">
        <ele>663.68</ele>
        <time>2020-07-12T14:20:52Z</time>
      </trkpt>
      <trkpt lat="46.03891" lon="3.65704">
        <ele>660.84</ele>
        <time>2020-07-12T14:20:56Z</time>
      </trkpt>
      <trkpt lat="46.0387" lon="3.65708">
        <ele>658.46</ele>
        <time>2020-07-12T14:21:00Z</time>
      </trkpt>
      <trkpt lat="46.03849" lon="3.65698">
        <ele>656.41</ele>
        <time>2020-07-12T14:21:03Z</time>
      </trkpt>
      <trkpt lat="46.03828" lon="3.65683">
        <ele>653.74</ele>
        <time>2020-07-12T14:21:06Z</time>
      </trkpt>
      <trkpt lat="46.03811" lon="3.6567">
        <ele>651.36</ele>
        <time>2020-07-12T14:21:08Z</time>
      </trkpt>
      <trkpt lat="46.03794" lon="3.6565">
        <ele>648.68</ele>
        <time>2020-07-12T14:21:10Z</time>
      </trkpt>
      <trkpt lat="46.03781" lon="3.65629">
        <ele>645.88</ele>
        <time>2020-07-12T14:21:12Z</time>
      </trkpt>
      <trkpt lat="46.03763" lon="3.65602">
        <ele>642.06</ele>
        <time>2020-07-12T14:21:15Z</time>
      </trkpt>
      <trkpt lat="46.03751" lon="3.6558">
        <ele>637.34</ele>
        <time>2020-07-12T14:21:19Z</time>
      </trkpt>
      <trkpt lat="46.0373" lon="3.65573">
        <ele>633.46</ele>
        <time>2020-07-12T14:21:24Z</time>
      </trkpt>
      <trkpt lat="46.03714" lon="3.65591">
        <ele>630</ele>
        <time>2020-07-12T14:21:28Z</time>
      </trkpt>
      <trkpt lat="46.03697" lon="3.65584">
        <ele>628.37</ele>
        <time>2020-07-12T14:21:33Z</time>
      </trkpt>
      <trkpt lat="46.03713" lon="3.65575">
        <ele>619.86</ele>
        <time>2020-07-12T14:22:05Z</time>
      </trkpt>
      <trkpt lat="46.03733" lon="3.65568">
        <ele>619.14</ele>
        <time>2020-07-12T14:22:13Z</time>
      </trkpt>
      <trkpt lat="46.03734" lon="3.65541">
        <ele>617.36</ele>
        <time>2020-07-12T14:22:18Z</time>
      </trkpt>
      <trkpt lat="46.03738" lon="3.65512">
        <ele>616.2</ele>
        <time>2020-07-12T14:22:21Z</time>
      </trkpt>
      <trkpt lat="46.03739" lon="3.65479">
        <ele>615.14</ele>
        <time>2020-07-12T14:22:24Z</time>
      </trkpt>
      <trkpt lat="46.03734" lon="3.65445">
        <ele>614.28</ele>
        <time>2020-07-12T14:22:27Z</time>
      </trkpt>
      <trkpt lat="46.03719" lon="3.65429">
        <ele>613.62</ele>
        <time>2020-07-12T14:22:40Z</time>
      </trkpt>
      <trkpt lat="46.03701" lon="3.65421">
        <ele>613.05</ele>
        <time>2020-07-12T14:22:48Z</time>
      </trkpt>
      <trkpt lat="46.03683" lon="3.65416">
        <ele>612.32</ele>
        <time>2020-07-12T14:22:57Z</time>
      </trkpt>
      <trkpt lat="46.03665" lon="3.65416">
        <ele>611.81</ele>
        <time>2020-07-12T14:23:04Z</time>
      </trkpt>
      <trkpt lat="46.03646" lon="3.65418">
        <ele>611.41</ele>
        <time>2020-07-12T14:23:11Z</time>
      </trkpt>
      <trkpt lat="46.03626" lon="3.65423">
        <ele>610.92</ele>
        <time>2020-07-12T14:23:19Z</time>
      </trkpt>
      <trkpt lat="46.03608" lon="3.65429">
        <ele>610.49</ele>
        <time>2020-07-12T14:23:27Z</time>
      </trkpt>
      <trkpt lat="46.0359" lon="3.65434">
        <ele>610.09</ele>
        <time>2020-07-12T14:23:35Z</time>
      </trkpt>
      <trkpt lat="46.03571" lon="3.65439">
        <ele>609.79</ele>
        <time>2020-07-12T14:23:42Z</time>
      </trkpt>
      <trkpt lat="46.03553" lon="3.65444">
        <ele>609.42</ele>
        <time>2020-07-12T14:23:52Z</time>
      </trkpt>
      <trkpt lat="46.03535" lon="3.6544">
        <ele>609.11</ele>
        <time>2020-07-12T14:24:03Z</time>
      </trkpt>
      <trkpt lat="46.03516" lon="3.65428">
        <ele>608.92</ele>
        <time>2020-07-12T14:24:12Z</time>
      </trkpt>
      <trkpt lat="46.03502" lon="3.65412">
        <ele>608.79</ele>
        <time>2020-07-12T14:24:19Z</time>
      </trkpt>
      <trkpt lat="46.03496" lon="3.65386">
        <ele>608.65</ele>
        <time>2020-07-12T14:24:31Z</time>
      </trkpt>
      <trkpt lat="46.03488" lon="3.65361">
        <ele>608.56</ele>
        <time>2020-07-12T14:24:42Z</time>
      </trkpt>
      <trkpt lat="46.03479" lon="3.65339">
        <ele>608.53</ele>
        <time>2020-07-12T14:24:54Z</time>
      </trkpt>
      <trkpt lat="46.03468" lon="3.65318">
        <ele>608.56</ele>
        <time>2020-07-12T14:25:04Z</time>
      </trkpt>
      <trkpt lat="46.03454" lon="3.65298">
        <ele>608.69</ele>
        <time>2020-07-12T14:25:18Z</time>
      </trkpt>
      <trkpt lat="46.03443" lon="3.65277">
        <ele>608.8</ele>
        <time>2020-07-12T14:25:31Z</time>
      </trkpt>
      <trkpt lat="46.03434" lon="3.65251">
        <ele>608.88</ele>
        <time>2020-07-12T14:25:41Z</time>
      </trkpt>
      <trkpt lat="46.03426" lon="3.65226">
        <ele>609.08</ele>
        <time>2020-07-12T14:25:55Z</time>
      </trkpt>
      <trkpt lat="46.03413" lon="3.65207">
        <ele>609.22</ele>
        <time>2020-07-12T14:26:05Z</time>
      </trkpt>
      <trkpt lat="46.034" lon="3.65189">
        <ele>609.44</ele>
        <time>2020-07-12T14:26:14Z</time>
      </trkpt>
      <trkpt lat="46.03384" lon="3.65175">
        <ele>609.76</ele>
        <time>2020-07-12T14:26:25Z</time>
      </trkpt>
      <trkpt lat="46.03369" lon="3.6516">
        <ele>609.98</ele>
        <time>2020-07-12T14:26:32Z</time>
      </trkpt>
      <trkpt lat="46.03353" lon="3.65146">
        <ele>610.33</ele>
        <time>2020-07-12T14:26:42Z</time>
      </trkpt>
      <trkpt lat="46.03339" lon="3.65128">
        <ele>610.9</ele>
        <time>2020-07-12T14:26:50Z</time>
      </trkpt>
      <trkpt lat="46.03329" lon="3.65105">
        <ele>611.71</ele>
        <time>2020-07-12T14:26:59Z</time>
      </trkpt>
      <trkpt lat="46.03326" lon="3.65078">
        <ele>612.78</ele>
        <time>2020-07-12T14:27:09Z</time>
      </trkpt>
      <trkpt lat="46.03322" lon="3.65051">
        <ele>614.17</ele>
        <time>2020-07-12T14:27:19Z</time>
      </trkpt>
      <trkpt lat="46.03311" lon="3.6503">
        <ele>615.32</ele>
        <time>2020-07-12T14:27:26Z</time>
      </trkpt>
      <trkpt lat="46.03298" lon="3.65009">
        <ele>618.59</ele>
        <time>2020-07-12T14:27:31Z</time>
      </trkpt>
      <trkpt lat="46.03278" lon="3.6499">
        <ele>622.98</ele>
        <time>2020-07-12T14:27:35Z</time>
      </trkpt>
      <trkpt lat="46.03258" lon="3.64964">
        <ele>624.96</ele>
        <time>2020-07-12T14:27:38Z</time>
      </trkpt>
      <trkpt lat="46.03236" lon="3.64944">
        <ele>626.3</ele>
        <time>2020-07-12T14:27:41Z</time>
      </trkpt>
      <trkpt lat="46.03212" lon="3.64927">
        <ele>626.96</ele>
        <time>2020-07-12T14:27:44Z</time>
      </trkpt>
      <trkpt lat="46.03189" lon="3.64915">
        <ele>626.91</ele>
        <time>2020-07-12T14:27:47Z</time>
      </trkpt>
      <trkpt lat="46.03171" lon="3.6491">
        <ele>626.48</ele>
        <time>2020-07-12T14:27:49Z</time>
      </trkpt>
      <trkpt lat="46.03153" lon="3.64906">
        <ele>625.9</ele>
        <time>2020-07-12T14:27:51Z</time>
      </trkpt>
      <trkpt lat="46.03131" lon="3.6491">
        <ele>624.94</ele>
        <time>2020-07-12T14:27:54Z</time>
      </trkpt>
      <trkpt lat="46.03113" lon="3.64932">
        <ele>623.86</ele>
        <time>2020-07-12T14:27:57Z</time>
      </trkpt>
      <trkpt lat="46.03102" lon="3.64962">
        <ele>622.66</ele>
        <time>2020-07-12T14:28:00Z</time>
      </trkpt>
      <trkpt lat="46.03088" lon="3.64979">
        <ele>621.49</ele>
        <time>2020-07-12T14:28:05Z</time>
      </trkpt>
      <trkpt lat="46.03091" lon="3.64951">
        <ele>620.17</ele>
        <time>2020-07-12T14:28:21Z</time>
      </trkpt>
      <trkpt lat="46.031" lon="3.64927">
        <ele>619.12</ele>
        <time>2020-07-12T14:28:29Z</time>
      </trkpt>
      <trkpt lat="46.03106" lon="3.64902">
        <ele>618.2</ele>
        <time>2020-07-12T14:28:36Z</time>
      </trkpt>
      <trkpt lat="46.03115" lon="3.64879">
        <ele>617.51</ele>
        <time>2020-07-12T14:28:42Z</time>
      </trkpt>
      <trkpt lat="46.03125" lon="3.64851">
        <ele>616.02</ele>
        <time>2020-07-12T14:28:48Z</time>
      </trkpt>
      <trkpt lat="46.03133" lon="3.64826">
        <ele>615.53</ele>
        <time>2020-07-12T14:28:54Z</time>
      </trkpt>
      <trkpt lat="46.03142" lon="3.64803">
        <ele>615.09</ele>
        <time>2020-07-12T14:29:00Z</time>
      </trkpt>
      <trkpt lat="46.03149" lon="3.64776">
        <ele>614.69</ele>
        <time>2020-07-12T14:29:06Z</time>
      </trkpt>
      <trkpt lat="46.03156" lon="3.64751">
        <ele>613.86</ele>
        <time>2020-07-12T14:29:11Z</time>
      </trkpt>
      <trkpt lat="46.03163" lon="3.64725">
        <ele>613.22</ele>
        <time>2020-07-12T14:29:16Z</time>
      </trkpt>
      <trkpt lat="46.0317" lon="3.64697">
        <ele>613.01</ele>
        <time>2020-07-12T14:29:22Z</time>
      </trkpt>
      <trkpt lat="46.03175" lon="3.64672">
        <ele>612.74</ele>
        <time>2020-07-12T14:29:31Z</time>
      </trkpt>
      <trkpt lat="46.03175" lon="3.64646">
        <ele>612.5</ele>
        <time>2020-07-12T14:29:41Z</time>
      </trkpt>
      <trkpt lat="46.03173" lon="3.64619">
        <ele>612.31</ele>
        <time>2020-07-12T14:29:51Z</time>
      </trkpt>
      <trkpt lat="46.03169" lon="3.64592">
        <ele>612.15</ele>
        <time>2020-07-12T14:30:01Z</time>
      </trkpt>
      <trkpt lat="46.03168" lon="3.64564">
        <ele>612.04</ele>
        <time>2020-07-12T14:30:10Z</time>
      </trkpt>
      <trkpt lat="46.03163" lon="3.64536">
        <ele>611.96</ele>
        <time>2020-07-12T14:30:19Z</time>
      </trkpt>
      <trkpt lat="46.03155" lon="3.64512">
        <ele>611.91</ele>
        <time>2020-07-12T14:30:27Z</time>
      </trkpt>
      <trkpt lat="46.03146" lon="3.64487">
        <ele>611.9</ele>
        <time>2020-07-12T14:30:35Z</time>
      </trkpt>
      <trkpt lat="46.03138" lon="3.64463">
        <ele>611.9</ele>
        <time>2020-07-12T14:30:42Z</time>
      </trkpt>
      <trkpt lat="46.03128" lon="3.64437">
        <ele>611.94</ele>
        <time>2020-07-12T14:30:50Z</time>
      </trkpt>
      <trkpt lat="46.03117" lon="3.64414">
        <ele>612.01</ele>
        <time>2020-07-12T14:30:58Z</time>
      </trkpt>
      <trkpt lat="46.03109" lon="3.6439">
        <ele>612.1</ele>
        <time>2020-07-12T14:31:05Z</time>
      </trkpt>
      <trkpt lat="46.03101" lon="3.64366">
        <ele>612.18</ele>
        <time>2020-07-12T14:31:12Z</time>
      </trkpt>
      <trkpt lat="46.03084" lon="3.64349">
        <ele>612.3</ele>
        <time>2020-07-12T14:31:21Z</time>
      </trkpt>
      <trkpt lat="46.03069" lon="3.64332">
        <ele>612.4</ele>
        <time>2020-07-12T14:31:28Z</time>
      </trkpt>
      <trkpt lat="46.03057" lon="3.6431">
        <ele>612.51</ele>
        <time>2020-07-12T14:31:35Z</time>
      </trkpt>
      <trkpt lat="46.03063" lon="3.64283">
        <ele>612.63</ele>
        <time>2020-07-12T14:31:42Z</time>
      </trkpt>
      <trkpt lat="46.03072" lon="3.64257">
        <ele>612.73</ele>
        <time>2020-07-12T14:31:49Z</time>
      </trkpt>
      <trkpt lat="46.03084" lon="3.64236">
        <ele>612.83</ele>
        <time>2020-07-12T14:31:56Z</time>
      </trkpt>
      <trkpt lat="46.03091" lon="3.64211">
        <ele>612.94</ele>
        <time>2020-07-12T14:32:03Z</time>
      </trkpt>
      <trkpt lat="46.03097" lon="3.64181">
        <ele>613.06</ele>
        <time>2020-07-12T14:32:10Z</time>
      </trkpt>
      <trkpt lat="46.03099" lon="3.64156">
        <ele>613.16</ele>
        <time>2020-07-12T14:32:16Z</time>
      </trkpt>
      <trkpt lat="46.03101" lon="3.6413">
        <ele>613.28</ele>
        <time>2020-07-12T14:32:23Z</time>
      </trkpt>
      <trkpt lat="46.03103" lon="3.64102">
        <ele>613.48</ele>
        <time>2020-07-12T14:32:33Z</time>
      </trkpt>
      <trkpt lat="46.03104" lon="3.64076">
        <ele>613.77</ele>
        <time>2020-07-12T14:32:45Z</time>
      </trkpt>
      <trkpt lat="46.03097" lon="3.64051">
        <ele>614.22</ele>
        <time>2020-07-12T14:32:58Z</time>
      </trkpt>
      <trkpt lat="46.03085" lon="3.64032">
        <ele>614.74</ele>
        <time>2020-07-12T14:33:09Z</time>
      </trkpt>
      <trkpt lat="46.03075" lon="3.64008">
        <ele>615.57</ele>
        <time>2020-07-12T14:33:22Z</time>
      </trkpt>
      <trkpt lat="46.03068" lon="3.63982">
        <ele>616.45</ele>
        <time>2020-07-12T14:33:33Z</time>
      </trkpt>
      <trkpt lat="46.03066" lon="3.63955">
        <ele>617.51</ele>
        <time>2020-07-12T14:33:45Z</time>
      </trkpt>
      <trkpt lat="46.03067" lon="3.63929">
        <ele>618.88</ele>
        <time>2020-07-12T14:33:58Z</time>
      </trkpt>
      <trkpt lat="46.03067" lon="3.63901">
        <ele>620.26</ele>
        <time>2020-07-12T14:34:10Z</time>
      </trkpt>
      <trkpt lat="46.03065" lon="3.63874">
        <ele>621.87</ele>
        <time>2020-07-12T14:34:23Z</time>
      </trkpt>
      <trkpt lat="46.03067" lon="3.63847">
        <ele>623.23</ele>
        <time>2020-07-12T14:34:33Z</time>
      </trkpt>
      <trkpt lat="46.03067" lon="3.63821">
        <ele>624.51</ele>
        <time>2020-07-12T14:34:41Z</time>
      </trkpt>
      <trkpt lat="46.03062" lon="3.63793">
        <ele>626.06</ele>
        <time>2020-07-12T14:34:50Z</time>
      </trkpt>
      <trkpt lat="46.03056" lon="3.63766">
        <ele>627.59</ele>
        <time>2020-07-12T14:34:58Z</time>
      </trkpt>
      <trkpt lat="46.03052" lon="3.6374">
        <ele>628.95</ele>
        <time>2020-07-12T14:35:05Z</time>
      </trkpt>
      <trkpt lat="46.03047" lon="3.63714">
        <ele>630.26</ele>
        <time>2020-07-12T14:35:12Z</time>
      </trkpt>
      <trkpt lat="46.03041" lon="3.63686">
        <ele>632.63</ele>
        <time>2020-07-12T14:35:17Z</time>
      </trkpt>
      <trkpt lat="46.03033" lon="3.63657">
        <ele>634.94</ele>
        <time>2020-07-12T14:35:23Z</time>
      </trkpt>
      <trkpt lat="46.03023" lon="3.63635">
        <ele>635.59</ele>
        <time>2020-07-12T14:35:28Z</time>
      </trkpt>
      <trkpt lat="46.03013" lon="3.63609">
        <ele>637.53</ele>
        <time>2020-07-12T14:35:34Z</time>
      </trkpt>
      <trkpt lat="46.03003" lon="3.63585">
        <ele>638.24</ele>
        <time>2020-07-12T14:35:40Z</time>
      </trkpt>
      <trkpt lat="46.02992" lon="3.63561">
        <ele>638.98</ele>
        <time>2020-07-12T14:35:46Z</time>
      </trkpt>
      <trkpt lat="46.0298" lon="3.63538">
        <ele>639.73</ele>
        <time>2020-07-12T14:35:52Z</time>
      </trkpt>
      <trkpt lat="46.02968" lon="3.63514">
        <ele>640.61</ele>
        <time>2020-07-12T14:35:59Z</time>
      </trkpt>
      <trkpt lat="46.02959" lon="3.63488">
        <ele>641.6</ele>
        <time>2020-07-12T14:36:07Z</time>
      </trkpt>
      <trkpt lat="46.02952" lon="3.63461">
        <ele>645.09</ele>
        <time>2020-07-12T14:36:12Z</time>
      </trkpt>
      <trkpt lat="46.02945" lon="3.63435">
        <ele>647.11</ele>
        <time>2020-07-12T14:36:17Z</time>
      </trkpt>
      <trkpt lat="46.02938" lon="3.63407">
        <ele>647.36</ele>
        <time>2020-07-12T14:36:22Z</time>
      </trkpt>
      <trkpt lat="46.02932" lon="3.63383">
        <ele>647.6</ele>
        <time>2020-07-12T14:36:28Z</time>
      </trkpt>
      <trkpt lat="46.02924" lon="3.63354">
        <ele>647.86</ele>
        <time>2020-07-12T14:36:34Z</time>
      </trkpt>
      <trkpt lat="46.02917" lon="3.63326">
        <ele>648.14</ele>
        <time>2020-07-12T14:36:40Z</time>
      </trkpt>
      <trkpt lat="46.02912" lon="3.63299">
        <ele>648.45</ele>
        <time>2020-07-12T14:36:46Z</time>
      </trkpt>
      <trkpt lat="46.02904" lon="3.63273">
        <ele>649.45</ele>
        <time>2020-07-12T14:36:52Z</time>
      </trkpt>
      <trkpt lat="46.02895" lon="3.6325">
        <ele>650.6</ele>
        <time>2020-07-12T14:36:56Z</time>
      </trkpt>
      <trkpt lat="46.02884" lon="3.63226">
        <ele>651.23</ele>
        <time>2020-07-12T14:37:01Z</time>
      </trkpt>
      <trkpt lat="46.02872" lon="3.63198">
        <ele>651.68</ele>
        <time>2020-07-12T14:37:06Z</time>
      </trkpt>
      <trkpt lat="46.02861" lon="3.63174">
        <ele>651.85</ele>
        <time>2020-07-12T14:37:10Z</time>
      </trkpt>
      <trkpt lat="46.0285" lon="3.63147">
        <ele>651.99</ele>
        <time>2020-07-12T14:37:15Z</time>
      </trkpt>
      <trkpt lat="46.02841" lon="3.63124">
        <ele>652.02</ele>
        <time>2020-07-12T14:37:20Z</time>
      </trkpt>
      <trkpt lat="46.02831" lon="3.63096">
        <ele>652.35</ele>
        <time>2020-07-12T14:37:25Z</time>
      </trkpt>
      <trkpt lat="46.02818" lon="3.63068">
        <ele>652.54</ele>
        <time>2020-07-12T14:37:29Z</time>
      </trkpt>
      <trkpt lat="46.02807" lon="3.63045">
        <ele>652.73</ele>
        <time>2020-07-12T14:37:33Z</time>
      </trkpt>
      <trkpt lat="46.02793" lon="3.63021">
        <ele>652.86</ele>
        <time>2020-07-12T14:37:37Z</time>
      </trkpt>
      <trkpt lat="46.0278" lon="3.62999">
        <ele>652.95</ele>
        <time>2020-07-12T14:37:41Z</time>
      </trkpt>
      <trkpt lat="46.02768" lon="3.62979">
        <ele>652.97</ele>
        <time>2020-07-12T14:37:46Z</time>
      </trkpt>
      <trkpt lat="46.02755" lon="3.62957">
        <ele>653</ele>
        <time>2020-07-12T14:37:51Z</time>
      </trkpt>
      <trkpt lat="46.02742" lon="3.62934">
        <ele>653.04</ele>
        <time>2020-07-12T14:37:56Z</time>
      </trkpt>
      <trkpt lat="46.02732" lon="3.6291">
        <ele>653.06</ele>
        <time>2020-07-12T14:38:01Z</time>
      </trkpt>
      <trkpt lat="46.02726" lon="3.6288">
        <ele>653.14</ele>
        <time>2020-07-12T14:38:06Z</time>
      </trkpt>
      <trkpt lat="46.02722" lon="3.6285">
        <ele>653.19</ele>
        <time>2020-07-12T14:38:12Z</time>
      </trkpt>
      <trkpt lat="46.02716" lon="3.62824">
        <ele>653.2</ele>
        <time>2020-07-12T14:38:18Z</time>
      </trkpt>
      <trkpt lat="46.02713" lon="3.62797">
        <ele>653.24</ele>
        <time>2020-07-12T14:38:23Z</time>
      </trkpt>
      <trkpt lat="46.0271" lon="3.62771">
        <ele>653.36</ele>
        <time>2020-07-12T14:38:27Z</time>
      </trkpt>
      <trkpt lat="46.02706" lon="3.6274">
        <ele>653.52</ele>
        <time>2020-07-12T14:38:32Z</time>
      </trkpt>
      <trkpt lat="46.02703" lon="3.6271">
        <ele>653.59</ele>
        <time>2020-07-12T14:38:37Z</time>
      </trkpt>
      <trkpt lat="46.02696" lon="3.62681">
        <ele>653.6</ele>
        <time>2020-07-12T14:38:42Z</time>
      </trkpt>
      <trkpt lat="46.02692" lon="3.62654">
        <ele>653.57</ele>
        <time>2020-07-12T14:38:46Z</time>
      </trkpt>
      <trkpt lat="46.02683" lon="3.62627">
        <ele>653.51</ele>
        <time>2020-07-12T14:38:49Z</time>
      </trkpt>
      <trkpt lat="46.02683" lon="3.626">
        <ele>653.44</ele>
        <time>2020-07-12T14:38:52Z</time>
      </trkpt>
      <trkpt lat="46.02684" lon="3.62569">
        <ele>653.36</ele>
        <time>2020-07-12T14:38:55Z</time>
      </trkpt>
      <trkpt lat="46.02686" lon="3.62533">
        <ele>653.22</ele>
        <time>2020-07-12T14:38:59Z</time>
      </trkpt>
      <trkpt lat="46.0269" lon="3.62505">
        <ele>653.04</ele>
        <time>2020-07-12T14:39:02Z</time>
      </trkpt>
      <trkpt lat="46.02699" lon="3.62475">
        <ele>652.72</ele>
        <time>2020-07-12T14:39:05Z</time>
      </trkpt>
      <trkpt lat="46.02707" lon="3.62443">
        <ele>652.08</ele>
        <time>2020-07-12T14:39:08Z</time>
      </trkpt>
      <trkpt lat="46.02712" lon="3.62411">
        <ele>651.26</ele>
        <time>2020-07-12T14:39:11Z</time>
      </trkpt>
      <trkpt lat="46.02716" lon="3.62384">
        <ele>650.14</ele>
        <time>2020-07-12T14:39:14Z</time>
      </trkpt>
      <trkpt lat="46.02714" lon="3.62351">
        <ele>648.37</ele>
        <time>2020-07-12T14:39:18Z</time>
      </trkpt>
      <trkpt lat="46.0272" lon="3.62323">
        <ele>646.95</ele>
        <time>2020-07-12T14:39:21Z</time>
      </trkpt>
      <trkpt lat="46.0273" lon="3.62291">
        <ele>644.57</ele>
        <time>2020-07-12T14:39:24Z</time>
      </trkpt>
      <trkpt lat="46.0274" lon="3.62261">
        <ele>642.07</ele>
        <time>2020-07-12T14:39:27Z</time>
      </trkpt>
      <trkpt lat="46.02749" lon="3.62231">
        <ele>639.99</ele>
        <time>2020-07-12T14:39:31Z</time>
      </trkpt>
      <trkpt lat="46.02758" lon="3.62206">
        <ele>638.89</ele>
        <time>2020-07-12T14:39:34Z</time>
      </trkpt>
      <trkpt lat="46.02768" lon="3.62178">
        <ele>638.14</ele>
        <time>2020-07-12T14:39:37Z</time>
      </trkpt>
      <trkpt lat="46.02777" lon="3.62145">
        <ele>637.27</ele>
        <time>2020-07-12T14:39:40Z</time>
      </trkpt>
      <trkpt lat="46.02781" lon="3.62119">
        <ele>636.51</ele>
        <time>2020-07-12T14:39:42Z</time>
      </trkpt>
      <trkpt lat="46.02784" lon="3.62089">
        <ele>635.59</ele>
        <time>2020-07-12T14:39:44Z</time>
      </trkpt>
      <trkpt lat="46.02789" lon="3.6206">
        <ele>634.54</ele>
        <time>2020-07-12T14:39:46Z</time>
      </trkpt>
      <trkpt lat="46.02797" lon="3.62032">
        <ele>633.71</ele>
        <time>2020-07-12T14:39:48Z</time>
      </trkpt>
      <trkpt lat="46.02805" lon="3.62006">
        <ele>633.08</ele>
        <time>2020-07-12T14:39:50Z</time>
      </trkpt>
      <trkpt lat="46.02814" lon="3.61982">
        <ele>632.64</ele>
        <time>2020-07-12T14:39:52Z</time>
      </trkpt>
      <trkpt lat="46.02822" lon="3.61958">
        <ele>632.16</ele>
        <time>2020-07-12T14:39:54Z</time>
      </trkpt>
      <trkpt lat="46.02833" lon="3.61924">
        <ele>631.38</ele>
        <time>2020-07-12T14:39:57Z</time>
      </trkpt>
      <trkpt lat="46.0284" lon="3.61893">
        <ele>630.56</ele>
        <time>2020-07-12T14:40:00Z</time>
      </trkpt>
      <trkpt lat="46.02848" lon="3.61868">
        <ele>629.7</ele>
        <time>2020-07-12T14:40:04Z</time>
      </trkpt>
      <trkpt lat="46.02847" lon="3.6184">
        <ele>626.58</ele>
        <time>2020-07-12T14:40:11Z</time>
      </trkpt>
      <trkpt lat="46.02839" lon="3.6181">
        <ele>624.51</ele>
        <time>2020-07-12T14:40:15Z</time>
      </trkpt>
      <trkpt lat="46.02832" lon="3.61784">
        <ele>623.28</ele>
        <time>2020-07-12T14:40:18Z</time>
      </trkpt>
      <trkpt lat="46.02825" lon="3.61756">
        <ele>622.09</ele>
        <time>2020-07-12T14:40:21Z</time>
      </trkpt>
      <trkpt lat="46.02818" lon="3.61728">
        <ele>621.19</ele>
        <time>2020-07-12T14:40:24Z</time>
      </trkpt>
      <trkpt lat="46.0281" lon="3.61701">
        <ele>620.74</ele>
        <time>2020-07-12T14:40:27Z</time>
      </trkpt>
      <trkpt lat="46.02803" lon="3.61677">
        <ele>620.4</ele>
        <time>2020-07-12T14:40:30Z</time>
      </trkpt>
      <trkpt lat="46.02794" lon="3.61646">
        <ele>619.96</ele>
        <time>2020-07-12T14:40:34Z</time>
      </trkpt>
      <trkpt lat="46.02791" lon="3.61618">
        <ele>619.13</ele>
        <time>2020-07-12T14:40:38Z</time>
      </trkpt>
      <trkpt lat="46.02791" lon="3.61588">
        <ele>618.72</ele>
        <time>2020-07-12T14:40:43Z</time>
      </trkpt>
      <trkpt lat="46.02777" lon="3.61566">
        <ele>618.02</ele>
        <time>2020-07-12T14:40:51Z</time>
      </trkpt>
      <trkpt lat="46.02762" lon="3.6155">
        <ele>617.29</ele>
        <time>2020-07-12T14:40:58Z</time>
      </trkpt>
      <trkpt lat="46.02748" lon="3.61532">
        <ele>616.51</ele>
        <time>2020-07-12T14:41:05Z</time>
      </trkpt>
      <trkpt lat="46.02736" lon="3.61512">
        <ele>615.81</ele>
        <time>2020-07-12T14:41:12Z</time>
      </trkpt>
      <trkpt lat="46.02723" lon="3.61493">
        <ele>615.02</ele>
        <time>2020-07-12T14:41:21Z</time>
      </trkpt>
      <trkpt lat="46.02714" lon="3.61466">
        <ele>614.49</ele>
        <time>2020-07-12T14:41:28Z</time>
      </trkpt>
      <trkpt lat="46.02704" lon="3.61439">
        <ele>614.07</ele>
        <time>2020-07-12T14:41:34Z</time>
      </trkpt>
      <trkpt lat="46.02693" lon="3.61416">
        <ele>613.75</ele>
        <time>2020-07-12T14:41:39Z</time>
      </trkpt>
      <trkpt lat="46.0268" lon="3.61393">
        <ele>613.43</ele>
        <time>2020-07-12T14:41:44Z</time>
      </trkpt>
      <trkpt lat="46.02669" lon="3.61371">
        <ele>612.67</ele>
        <time>2020-07-12T14:41:50Z</time>
      </trkpt>
      <trkpt lat="46.02654" lon="3.61349">
        <ele>611.11</ele>
        <time>2020-07-12T14:41:55Z</time>
      </trkpt>
      <trkpt lat="46.0264" lon="3.6133">
        <ele>610.3</ele>
        <time>2020-07-12T14:41:59Z</time>
      </trkpt>
      <trkpt lat="46.02625" lon="3.61309">
        <ele>609.84</ele>
        <time>2020-07-12T14:42:03Z</time>
      </trkpt>
      <trkpt lat="46.02613" lon="3.61289">
        <ele>609.57</ele>
        <time>2020-07-12T14:42:07Z</time>
      </trkpt>
      <trkpt lat="46.02601" lon="3.61263">
        <ele>609.36</ele>
        <time>2020-07-12T14:42:12Z</time>
      </trkpt>
      <trkpt lat="46.02594" lon="3.61235">
        <ele>609.07</ele>
        <time>2020-07-12T14:42:17Z</time>
      </trkpt>
      <trkpt lat="46.0259" lon="3.61208">
        <ele>608.86</ele>
        <time>2020-07-12T14:42:21Z</time>
      </trkpt>
      <trkpt lat="46.0259" lon="3.61182">
        <ele>608.74</ele>
        <time>2020-07-12T14:42:26Z</time>
      </trkpt>
      <trkpt lat="46.02585" lon="3.61151">
        <ele>608.45</ele>
        <time>2020-07-12T14:42:31Z</time>
      </trkpt>
      <trkpt lat="46.02577" lon="3.61124">
        <ele>608.33</ele>
        <time>2020-07-12T14:42:36Z</time>
      </trkpt>
      <trkpt lat="46.02568" lon="3.61098">
        <ele>608.04</ele>
        <time>2020-07-12T14:42:41Z</time>
      </trkpt>
      <trkpt lat="46.02556" lon="3.61072">
        <ele>607.9</ele>
        <time>2020-07-12T14:42:46Z</time>
      </trkpt>
      <trkpt lat="46.02548" lon="3.61045">
        <ele>607.87</ele>
        <time>2020-07-12T14:42:52Z</time>
      </trkpt>
      <trkpt lat="46.02536" lon="3.61021">
        <ele>607.69</ele>
        <time>2020-07-12T14:42:57Z</time>
      </trkpt>
      <trkpt lat="46.02524" lon="3.61">
        <ele>607.67</ele>
        <time>2020-07-12T14:43:02Z</time>
      </trkpt>
      <trkpt lat="46.02512" lon="3.6098">
        <ele>607.65</ele>
        <time>2020-07-12T14:43:07Z</time>
      </trkpt>
      <trkpt lat="46.02499" lon="3.60957">
        <ele>607.62</ele>
        <time>2020-07-12T14:43:13Z</time>
      </trkpt>
      <trkpt lat="46.02484" lon="3.6094">
        <ele>607.61</ele>
        <time>2020-07-12T14:43:18Z</time>
      </trkpt>
      <trkpt lat="46.0247" lon="3.60921">
        <ele>607.59</ele>
        <time>2020-07-12T14:43:23Z</time>
      </trkpt>
      <trkpt lat="46.02455" lon="3.60902">
        <ele>607.57</ele>
        <time>2020-07-12T14:43:28Z</time>
      </trkpt>
      <trkpt lat="46.02442" lon="3.60882">
        <ele>607.45</ele>
        <time>2020-07-12T14:43:33Z</time>
      </trkpt>
      <trkpt lat="46.02429" lon="3.60865">
        <ele>607.29</ele>
        <time>2020-07-12T14:43:37Z</time>
      </trkpt>
      <trkpt lat="46.02413" lon="3.60845">
        <ele>607.12</ele>
        <time>2020-07-12T14:43:42Z</time>
      </trkpt>
      <trkpt lat="46.02397" lon="3.60822">
        <ele>606.99</ele>
        <time>2020-07-12T14:43:46Z</time>
      </trkpt>
      <trkpt lat="46.02386" lon="3.60801">
        <ele>606.88</ele>
        <time>2020-07-12T14:43:49Z</time>
      </trkpt>
      <trkpt lat="46.02374" lon="3.60779">
        <ele>606.74</ele>
        <time>2020-07-12T14:43:52Z</time>
      </trkpt>
      <trkpt lat="46.02364" lon="3.60758">
        <ele>606.52</ele>
        <time>2020-07-12T14:43:55Z</time>
      </trkpt>
      <trkpt lat="46.02354" lon="3.60735">
        <ele>606.19</ele>
        <time>2020-07-12T14:43:58Z</time>
      </trkpt>
      <trkpt lat="46.02342" lon="3.60713">
        <ele>605.72</ele>
        <time>2020-07-12T14:44:01Z</time>
      </trkpt>
      <trkpt lat="46.02329" lon="3.60693">
        <ele>604.96</ele>
        <time>2020-07-12T14:44:04Z</time>
      </trkpt>
      <trkpt lat="46.02316" lon="3.60672">
        <ele>604.18</ele>
        <time>2020-07-12T14:44:07Z</time>
      </trkpt>
      <trkpt lat="46.02304" lon="3.60651">
        <ele>603.41</ele>
        <time>2020-07-12T14:44:10Z</time>
      </trkpt>
      <trkpt lat="46.02293" lon="3.6063">
        <ele>602.74</ele>
        <time>2020-07-12T14:44:13Z</time>
      </trkpt>
      <trkpt lat="46.02278" lon="3.60605">
        <ele>602.19</ele>
        <time>2020-07-12T14:44:17Z</time>
      </trkpt>
      <trkpt lat="46.02266" lon="3.60578">
        <ele>602.06</ele>
        <time>2020-07-12T14:44:21Z</time>
      </trkpt>
      <trkpt lat="46.0226" lon="3.60549">
        <ele>601.62</ele>
        <time>2020-07-12T14:44:25Z</time>
      </trkpt>
      <trkpt lat="46.02256" lon="3.60519">
        <ele>600.68</ele>
        <time>2020-07-12T14:44:29Z</time>
      </trkpt>
      <trkpt lat="46.02247" lon="3.60497">
        <ele>599.72</ele>
        <time>2020-07-12T14:44:32Z</time>
      </trkpt>
      <trkpt lat="46.02233" lon="3.60473">
        <ele>598.06</ele>
        <time>2020-07-12T14:44:35Z</time>
      </trkpt>
      <trkpt lat="46.02215" lon="3.6045">
        <ele>596.46</ele>
        <time>2020-07-12T14:44:38Z</time>
      </trkpt>
      <trkpt lat="46.02196" lon="3.60429">
        <ele>595.03</ele>
        <time>2020-07-12T14:44:41Z</time>
      </trkpt>
      <trkpt lat="46.02176" lon="3.60405">
        <ele>593.61</ele>
        <time>2020-07-12T14:44:44Z</time>
      </trkpt>
      <trkpt lat="46.02154" lon="3.60382">
        <ele>592.09</ele>
        <time>2020-07-12T14:44:47Z</time>
      </trkpt>
      <trkpt lat="46.02134" lon="3.60361">
        <ele>590.75</ele>
        <time>2020-07-12T14:44:50Z</time>
      </trkpt>
      <trkpt lat="46.02116" lon="3.60346">
        <ele>588.88</ele>
        <time>2020-07-12T14:44:54Z</time>
      </trkpt>
      <trkpt lat="46.02097" lon="3.60325">
        <ele>585.92</ele>
        <time>2020-07-12T14:44:58Z</time>
      </trkpt>
      <trkpt lat="46.02082" lon="3.60307">
        <ele>584.4</ele>
        <time>2020-07-12T14:45:00Z</time>
      </trkpt>
      <trkpt lat="46.02065" lon="3.60288">
        <ele>582.87</ele>
        <time>2020-07-12T14:45:02Z</time>
      </trkpt>
      <trkpt lat="46.02048" lon="3.60265">
        <ele>580.8</ele>
        <time>2020-07-12T14:45:05Z</time>
      </trkpt>
      <trkpt lat="46.02058" lon="3.60242">
        <ele>579.22</ele>
        <time>2020-07-12T14:45:11Z</time>
      </trkpt>
      <trkpt lat="46.02076" lon="3.60228">
        <ele>578.32</ele>
        <time>2020-07-12T14:45:15Z</time>
      </trkpt>
      <trkpt lat="46.02095" lon="3.60212">
        <ele>576.85</ele>
        <time>2020-07-12T14:45:19Z</time>
      </trkpt>
      <trkpt lat="46.02115" lon="3.60195">
        <ele>575.36</ele>
        <time>2020-07-12T14:45:22Z</time>
      </trkpt>
      <trkpt lat="46.02133" lon="3.60178">
        <ele>573.84</ele>
        <time>2020-07-12T14:45:25Z</time>
      </trkpt>
      <trkpt lat="46.02153" lon="3.60161">
        <ele>572.02</ele>
        <time>2020-07-12T14:45:28Z</time>
      </trkpt>
      <trkpt lat="46.02169" lon="3.60149">
        <ele>570.47</ele>
        <time>2020-07-12T14:45:30Z</time>
      </trkpt>
      <trkpt lat="46.02187" lon="3.60136">
        <ele>568.8</ele>
        <time>2020-07-12T14:45:32Z</time>
      </trkpt>
      <trkpt lat="46.02205" lon="3.60111">
        <ele>566.14</ele>
        <time>2020-07-12T14:45:35Z</time>
      </trkpt>
      <trkpt lat="46.02216" lon="3.60082">
        <ele>565.47</ele>
        <time>2020-07-12T14:45:39Z</time>
      </trkpt>
      <trkpt lat="46.02231" lon="3.60059">
        <ele>567.19</ele>
        <time>2020-07-12T14:45:45Z</time>
      </trkpt>
      <trkpt lat="46.02245" lon="3.60042">
        <ele>568.36</ele>
        <time>2020-07-12T14:45:49Z</time>
      </trkpt>
      <trkpt lat="46.02259" lon="3.60024">
        <ele>568.56</ele>
        <time>2020-07-12T14:45:53Z</time>
      </trkpt>
      <trkpt lat="46.02273" lon="3.60006">
        <ele>566.96</ele>
        <time>2020-07-12T14:45:57Z</time>
      </trkpt>
      <trkpt lat="46.02289" lon="3.59984">
        <ele>564.79</ele>
        <time>2020-07-12T14:46:01Z</time>
      </trkpt>
      <trkpt lat="46.02303" lon="3.59965">
        <ele>562.78</ele>
        <time>2020-07-12T14:46:04Z</time>
      </trkpt>
      <trkpt lat="46.02317" lon="3.59945">
        <ele>560.21</ele>
        <time>2020-07-12T14:46:07Z</time>
      </trkpt>
      <trkpt lat="46.02335" lon="3.59948">
        <ele>558.76</ele>
        <time>2020-07-12T14:46:13Z</time>
      </trkpt>
      <trkpt lat="46.02354" lon="3.59962">
        <ele>555.01</ele>
        <time>2020-07-12T14:46:17Z</time>
      </trkpt>
      <trkpt lat="46.02371" lon="3.59975">
        <ele>552.99</ele>
        <time>2020-07-12T14:46:20Z</time>
      </trkpt>
      <trkpt lat="46.02385" lon="3.59994">
        <ele>551.56</ele>
        <time>2020-07-12T14:46:23Z</time>
      </trkpt>
      <trkpt lat="46.024" lon="3.60017">
        <ele>549.65</ele>
        <time>2020-07-12T14:46:27Z</time>
      </trkpt>
      <trkpt lat="46.02414" lon="3.60044">
        <ele>547.46</ele>
        <time>2020-07-12T14:46:31Z</time>
      </trkpt>
      <trkpt lat="46.02427" lon="3.60068">
        <ele>545.69</ele>
        <time>2020-07-12T14:46:34Z</time>
      </trkpt>
      <trkpt lat="46.0245" lon="3.60083">
        <ele>543.48</ele>
        <time>2020-07-12T14:46:37Z</time>
      </trkpt>
      <trkpt lat="46.0247" lon="3.60099">
        <ele>540.47</ele>
        <time>2020-07-12T14:46:41Z</time>
      </trkpt>
      <trkpt lat="46.0248" lon="3.60126">
        <ele>538</ele>
        <time>2020-07-12T14:46:45Z</time>
      </trkpt>
      <trkpt lat="46.02485" lon="3.60158">
        <ele>535.43</ele>
        <time>2020-07-12T14:46:49Z</time>
      </trkpt>
      <trkpt lat="46.0249" lon="3.6019">
        <ele>533.36</ele>
        <time>2020-07-12T14:46:52Z</time>
      </trkpt>
      <trkpt lat="46.02496" lon="3.60227">
        <ele>531.74</ele>
        <time>2020-07-12T14:46:55Z</time>
      </trkpt>
      <trkpt lat="46.02505" lon="3.60251">
        <ele>531.08</ele>
        <time>2020-07-12T14:46:58Z</time>
      </trkpt>
      <trkpt lat="46.02519" lon="3.60271">
        <ele>531.14</ele>
        <time>2020-07-12T14:47:02Z</time>
      </trkpt>
      <trkpt lat="46.02528" lon="3.60294">
        <ele>531.34</ele>
        <time>2020-07-12T14:47:08Z</time>
      </trkpt>
      <trkpt lat="46.02543" lon="3.60309">
        <ele>532.44</ele>
        <time>2020-07-12T14:47:13Z</time>
      </trkpt>
      <trkpt lat="46.02562" lon="3.60321">
        <ele>532.73</ele>
        <time>2020-07-12T14:47:18Z</time>
      </trkpt>
      <trkpt lat="46.0258" lon="3.60315">
        <ele>532.23</ele>
        <time>2020-07-12T14:47:23Z</time>
      </trkpt>
      <trkpt lat="46.02599" lon="3.60311">
        <ele>531.83</ele>
        <time>2020-07-12T14:47:31Z</time>
      </trkpt>
      <trkpt lat="46.02619" lon="3.60311">
        <ele>531.38</ele>
        <time>2020-07-12T14:47:40Z</time>
      </trkpt>
      <trkpt lat="46.02635" lon="3.60323">
        <ele>530.8</ele>
        <time>2020-07-12T14:47:56Z</time>
      </trkpt>
      <trkpt lat="46.02652" lon="3.60332">
        <ele>530.24</ele>
        <time>2020-07-12T14:48:10Z</time>
      </trkpt>
      <trkpt lat="46.02669" lon="3.6032">
        <ele>530.05</ele>
        <time>2020-07-12T14:48:20Z</time>
      </trkpt>
      <trkpt lat="46.02687" lon="3.60308">
        <ele>529.89</ele>
        <time>2020-07-12T14:48:31Z</time>
      </trkpt>
      <trkpt lat="46.02705" lon="3.60305">
        <ele>529.66</ele>
        <time>2020-07-12T14:48:41Z</time>
      </trkpt>
      <trkpt lat="46.02724" lon="3.60309">
        <ele>529.42</ele>
        <time>2020-07-12T14:48:52Z</time>
      </trkpt>
      <trkpt lat="46.02743" lon="3.6031">
        <ele>529.32</ele>
        <time>2020-07-12T14:48:59Z</time>
      </trkpt>
      <trkpt lat="46.02754" lon="3.60282">
        <ele>529.12</ele>
        <time>2020-07-12T14:49:09Z</time>
      </trkpt>
      <trkpt lat="46.02759" lon="3.60254">
        <ele>529.22</ele>
        <time>2020-07-12T14:49:12Z</time>
      </trkpt>
      <trkpt lat="46.02769" lon="3.60227">
        <ele>529.22</ele>
        <time>2020-07-12T14:49:15Z</time>
      </trkpt>
      <trkpt lat="46.02779" lon="3.60206">
        <ele>529.07</ele>
        <time>2020-07-12T14:49:18Z</time>
      </trkpt>
      <trkpt lat="46.02792" lon="3.60186">
        <ele>528.98</ele>
        <time>2020-07-12T14:49:25Z</time>
      </trkpt>
      <trkpt lat="46.02807" lon="3.60164">
        <ele>528.4</ele>
        <time>2020-07-12T14:49:31Z</time>
      </trkpt>
      <trkpt lat="46.02816" lon="3.6014">
        <ele>528.12</ele>
        <time>2020-07-12T14:49:34Z</time>
      </trkpt>
      <trkpt lat="46.02829" lon="3.60116">
        <ele>527.74</ele>
        <time>2020-07-12T14:49:37Z</time>
      </trkpt>
      <trkpt lat="46.02841" lon="3.60088">
        <ele>527.36</ele>
        <time>2020-07-12T14:49:41Z</time>
      </trkpt>
      <trkpt lat="46.02852" lon="3.6006">
        <ele>527.09</ele>
        <time>2020-07-12T14:49:45Z</time>
      </trkpt>
      <trkpt lat="46.02863" lon="3.60032">
        <ele>526.79</ele>
        <time>2020-07-12T14:49:49Z</time>
      </trkpt>
      <trkpt lat="46.02876" lon="3.60005">
        <ele>526.44</ele>
        <time>2020-07-12T14:49:53Z</time>
      </trkpt>
      <trkpt lat="46.02886" lon="3.59977">
        <ele>526.22</ele>
        <time>2020-07-12T14:49:58Z</time>
      </trkpt>
      <trkpt lat="46.02892" lon="3.59951">
        <ele>525.99</ele>
        <time>2020-07-12T14:50:02Z</time>
      </trkpt>
      <trkpt lat="46.02902" lon="3.59928">
        <ele>525.75</ele>
        <time>2020-07-12T14:50:06Z</time>
      </trkpt>
      <trkpt lat="46.02907" lon="3.59902">
        <ele>525.56</ele>
        <time>2020-07-12T14:50:10Z</time>
      </trkpt>
      <trkpt lat="46.02911" lon="3.59875">
        <ele>525.43</ele>
        <time>2020-07-12T14:50:14Z</time>
      </trkpt>
      <trkpt lat="46.02905" lon="3.59848">
        <ele>525.33</ele>
        <time>2020-07-12T14:50:18Z</time>
      </trkpt>
      <trkpt lat="46.02897" lon="3.59818">
        <ele>525.12</ele>
        <time>2020-07-12T14:50:23Z</time>
      </trkpt>
      <trkpt lat="46.0289" lon="3.59792">
        <ele>523.56</ele>
        <time>2020-07-12T14:50:27Z</time>
      </trkpt>
      <trkpt lat="46.029" lon="3.59766">
        <ele>522.99</ele>
        <time>2020-07-12T14:50:33Z</time>
      </trkpt>
      <trkpt lat="46.02909" lon="3.59743">
        <ele>522.73</ele>
        <time>2020-07-12T14:50:40Z</time>
      </trkpt>
      <trkpt lat="46.02921" lon="3.59716">
        <ele>521.36</ele>
        <time>2020-07-12T14:50:45Z</time>
      </trkpt>
      <trkpt lat="46.02932" lon="3.59695">
        <ele>520.88</ele>
        <time>2020-07-12T14:50:49Z</time>
      </trkpt>
      <trkpt lat="46.02947" lon="3.59675">
        <ele>519.51</ele>
        <time>2020-07-12T14:50:53Z</time>
      </trkpt>
      <trkpt lat="46.02966" lon="3.59656">
        <ele>518.31</ele>
        <time>2020-07-12T14:50:57Z</time>
      </trkpt>
      <trkpt lat="46.02969" lon="3.5963">
        <ele>517</ele>
        <time>2020-07-12T14:51:01Z</time>
      </trkpt>
      <trkpt lat="46.02963" lon="3.59603">
        <ele>516.38</ele>
        <time>2020-07-12T14:51:07Z</time>
      </trkpt>
      <trkpt lat="46.02944" lon="3.59588">
        <ele>515.48</ele>
        <time>2020-07-12T14:51:13Z</time>
      </trkpt>
      <trkpt lat="46.02929" lon="3.59574">
        <ele>514.55</ele>
        <time>2020-07-12T14:51:18Z</time>
      </trkpt>
      <trkpt lat="46.02908" lon="3.5956">
        <ele>508.22</ele>
        <time>2020-07-12T14:51:22Z</time>
      </trkpt>
      <trkpt lat="46.02893" lon="3.59543">
        <ele>505.35</ele>
        <time>2020-07-12T14:51:25Z</time>
      </trkpt>
      <trkpt lat="46.02877" lon="3.5953">
        <ele>504.91</ele>
        <time>2020-07-12T14:51:27Z</time>
      </trkpt>
      <trkpt lat="46.02861" lon="3.59513">
        <ele>503.21</ele>
        <time>2020-07-12T14:51:30Z</time>
      </trkpt>
      <trkpt lat="46.0284" lon="3.59496">
        <ele>498.85</ele>
        <time>2020-07-12T14:51:33Z</time>
      </trkpt>
      <trkpt lat="46.02825" lon="3.59478">
        <ele>492.52</ele>
        <time>2020-07-12T14:51:36Z</time>
      </trkpt>
      <trkpt lat="46.02806" lon="3.59478">
        <ele>486.76</ele>
        <time>2020-07-12T14:51:41Z</time>
      </trkpt>
      <trkpt lat="46.02787" lon="3.59472">
        <ele>480.63</ele>
        <time>2020-07-12T14:51:46Z</time>
      </trkpt>
      <trkpt lat="46.02799" lon="3.59445">
        <ele>469.09</ele>
        <time>2020-07-12T14:51:55Z</time>
      </trkpt>
      <trkpt lat="46.02808" lon="3.5942">
        <ele>463.7</ele>
        <time>2020-07-12T14:52:00Z</time>
      </trkpt>
      <trkpt lat="46.02818" lon="3.59395">
        <ele>462.2</ele>
        <time>2020-07-12T14:52:07Z</time>
      </trkpt>
      <trkpt lat="46.02832" lon="3.59376">
        <ele>460.93</ele>
        <time>2020-07-12T14:52:13Z</time>
      </trkpt>
      <trkpt lat="46.02848" lon="3.59364">
        <ele>459.8</ele>
        <time>2020-07-12T14:52:19Z</time>
      </trkpt>
      <trkpt lat="46.02865" lon="3.59342">
        <ele>457.52</ele>
        <time>2020-07-12T14:52:24Z</time>
      </trkpt>
      <trkpt lat="46.02882" lon="3.59325">
        <ele>454.84</ele>
        <time>2020-07-12T14:52:28Z</time>
      </trkpt>
      <trkpt lat="46.02896" lon="3.59308">
        <ele>454.38</ele>
        <time>2020-07-12T14:52:31Z</time>
      </trkpt>
      <trkpt lat="46.02911" lon="3.59291">
        <ele>451.77</ele>
        <time>2020-07-12T14:52:35Z</time>
      </trkpt>
      <trkpt lat="46.02928" lon="3.59278">
        <ele>450.4</ele>
        <time>2020-07-12T14:52:42Z</time>
      </trkpt>
      <trkpt lat="46.02945" lon="3.59266">
        <ele>442.69</ele>
        <time>2020-07-12T14:54:02Z</time>
      </trkpt>
      <trkpt lat="46.02963" lon="3.5926">
        <ele>433.42</ele>
        <time>2020-07-12T14:55:18Z</time>
      </trkpt>
      <trkpt lat="46.0298" lon="3.59249">
        <ele>432.25</ele>
        <time>2020-07-12T14:55:30Z</time>
      </trkpt>
      <trkpt lat="46.02995" lon="3.59233">
        <ele>430.06</ele>
        <time>2020-07-12T14:56:01Z</time>
      </trkpt>
      <trkpt lat="46.03005" lon="3.5921">
        <ele>428.09</ele>
        <time>2020-07-12T14:58:45Z</time>
      </trkpt>
      <trkpt lat="46.03019" lon="3.59192">
        <ele>427.7</ele>
        <time>2020-07-12T14:59:03Z</time>
      </trkpt>
      <trkpt lat="46.03034" lon="3.59175">
        <ele>427.49</ele>
        <time>2020-07-12T14:59:17Z</time>
      </trkpt>
      <trkpt lat="46.0305" lon="3.59161">
        <ele>427.35</ele>
        <time>2020-07-12T14:59:31Z</time>
      </trkpt>
      <trkpt lat="46.03068" lon="3.59155">
        <ele>427.19</ele>
        <time>2020-07-12T14:59:51Z</time>
      </trkpt>
      <trkpt lat="46.03084" lon="3.59141">
        <ele>427.18</ele>
        <time>2020-07-12T15:00:00Z</time>
      </trkpt>
      <trkpt lat="46.03102" lon="3.59132">
        <ele>427.25</ele>
        <time>2020-07-12T15:00:12Z</time>
      </trkpt>
      <trkpt lat="46.03119" lon="3.59122">
        <ele>427.33</ele>
        <time>2020-07-12T15:00:25Z</time>
      </trkpt>
      <trkpt lat="46.03138" lon="3.59125">
        <ele>427.38</ele>
        <time>2020-07-12T15:00:41Z</time>
      </trkpt>
      <trkpt lat="46.03156" lon="3.59124">
        <ele>427.39</ele>
        <time>2020-07-12T15:00:52Z</time>
      </trkpt>
      <trkpt lat="46.03173" lon="3.59113">
        <ele>427.4</ele>
        <time>2020-07-12T15:01:02Z</time>
      </trkpt>
      <trkpt lat="46.03185" lon="3.59092">
        <ele>427.47</ele>
        <time>2020-07-12T15:01:15Z</time>
      </trkpt>
      <trkpt lat="46.03189" lon="3.59065">
        <ele>427.68</ele>
        <time>2020-07-12T15:01:30Z</time>
      </trkpt>
      <trkpt lat="46.03182" lon="3.5904">
        <ele>428</ele>
        <time>2020-07-12T15:01:44Z</time>
      </trkpt>
      <trkpt lat="46.03174" lon="3.59017">
        <ele>428.39</ele>
        <time>2020-07-12T15:01:59Z</time>
      </trkpt>
      <trkpt lat="46.03168" lon="3.58991">
        <ele>428.78</ele>
        <time>2020-07-12T15:02:15Z</time>
      </trkpt>
      <trkpt lat="46.03163" lon="3.58966">
        <ele>429.06</ele>
        <time>2020-07-12T15:02:26Z</time>
      </trkpt>
      <trkpt lat="46.03155" lon="3.58942">
        <ele>429.39</ele>
        <time>2020-07-12T15:02:36Z</time>
      </trkpt>
      <trkpt lat="46.03142" lon="3.58923">
        <ele>430.18</ele>
        <time>2020-07-12T15:02:51Z</time>
      </trkpt>
      <trkpt lat="46.03128" lon="3.58901">
        <ele>431.32</ele>
        <time>2020-07-12T15:03:07Z</time>
      </trkpt>
      <trkpt lat="46.03112" lon="3.58888">
        <ele>432.6</ele>
        <time>2020-07-12T15:03:21Z</time>
      </trkpt>
      <trkpt lat="46.03096" lon="3.58875">
        <ele>433.99</ele>
        <time>2020-07-12T15:03:35Z</time>
      </trkpt>
      <trkpt lat="46.0308" lon="3.5886">
        <ele>435.82</ele>
        <time>2020-07-12T15:03:51Z</time>
      </trkpt>
      <trkpt lat="46.03061" lon="3.58856">
        <ele>437.51</ele>
        <time>2020-07-12T15:04:05Z</time>
      </trkpt>
      <trkpt lat="46.03043" lon="3.58852">
        <ele>438.88</ele>
        <time>2020-07-12T15:04:14Z</time>
      </trkpt>
      <trkpt lat="46.03028" lon="3.58836">
        <ele>441.46</ele>
        <time>2020-07-12T15:04:26Z</time>
      </trkpt>
      <trkpt lat="46.03012" lon="3.58823">
        <ele>446.41</ele>
        <time>2020-07-12T15:04:44Z</time>
      </trkpt>
      <trkpt lat="46.02995" lon="3.58814">
        <ele>450.14</ele>
        <time>2020-07-12T15:04:59Z</time>
      </trkpt>
      <trkpt lat="46.02978" lon="3.58805">
        <ele>452.77</ele>
        <time>2020-07-12T15:05:10Z</time>
      </trkpt>
      <trkpt lat="46.0296" lon="3.58795">
        <ele>455.65</ele>
        <time>2020-07-12T15:05:21Z</time>
      </trkpt>
      <trkpt lat="46.02943" lon="3.58784">
        <ele>459.17</ele>
        <time>2020-07-12T15:05:33Z</time>
      </trkpt>
      <trkpt lat="46.02927" lon="3.58769">
        <ele>462.81</ele>
        <time>2020-07-12T15:05:44Z</time>
      </trkpt>
      <trkpt lat="46.02912" lon="3.58755">
        <ele>467.69</ele>
        <time>2020-07-12T15:05:59Z</time>
      </trkpt>
      <trkpt lat="46.02898" lon="3.58735">
        <ele>471.77</ele>
        <time>2020-07-12T15:06:12Z</time>
      </trkpt>
      <trkpt lat="46.02884" lon="3.58717">
        <ele>475.78</ele>
        <time>2020-07-12T15:06:26Z</time>
      </trkpt>
      <trkpt lat="46.02867" lon="3.58706">
        <ele>478.62</ele>
        <time>2020-07-12T15:06:37Z</time>
      </trkpt>
      <trkpt lat="46.02851" lon="3.58688">
        <ele>481.91</ele>
        <time>2020-07-12T15:06:50Z</time>
      </trkpt>
      <trkpt lat="46.02836" lon="3.58672">
        <ele>484.59</ele>
        <time>2020-07-12T15:07:02Z</time>
      </trkpt>
      <trkpt lat="46.02823" lon="3.58654">
        <ele>486.37</ele>
        <time>2020-07-12T15:07:11Z</time>
      </trkpt>
      <trkpt lat="46.02809" lon="3.58634">
        <ele>488.15</ele>
        <time>2020-07-12T15:07:21Z</time>
      </trkpt>
      <trkpt lat="46.02795" lon="3.58612">
        <ele>489.78</ele>
        <time>2020-07-12T15:07:32Z</time>
      </trkpt>
      <trkpt lat="46.02785" lon="3.5859">
        <ele>491.35</ele>
        <time>2020-07-12T15:07:44Z</time>
      </trkpt>
      <trkpt lat="46.02789" lon="3.58564">
        <ele>493.12</ele>
        <time>2020-07-12T15:07:56Z</time>
      </trkpt>
      <trkpt lat="46.02796" lon="3.58538">
        <ele>494.61</ele>
        <time>2020-07-12T15:08:06Z</time>
      </trkpt>
      <trkpt lat="46.02803" lon="3.58513">
        <ele>496.56</ele>
        <time>2020-07-12T15:08:19Z</time>
      </trkpt>
      <trkpt lat="46.02807" lon="3.58488">
        <ele>498.05</ele>
        <time>2020-07-12T15:08:29Z</time>
      </trkpt>
      <trkpt lat="46.02814" lon="3.58462">
        <ele>499.6</ele>
        <time>2020-07-12T15:08:39Z</time>
      </trkpt>
      <trkpt lat="46.02819" lon="3.58436">
        <ele>500.96</ele>
        <time>2020-07-12T15:08:48Z</time>
      </trkpt>
      <trkpt lat="46.02817" lon="3.58408">
        <ele>502.24</ele>
        <time>2020-07-12T15:08:57Z</time>
      </trkpt>
      <trkpt lat="46.02807" lon="3.58384">
        <ele>503.74</ele>
        <time>2020-07-12T15:09:08Z</time>
      </trkpt>
      <trkpt lat="46.02791" lon="3.58368">
        <ele>505.01</ele>
        <time>2020-07-12T15:09:17Z</time>
      </trkpt>
      <trkpt lat="46.02777" lon="3.58351">
        <ele>506.54</ele>
        <time>2020-07-12T15:09:27Z</time>
      </trkpt>
      <trkpt lat="46.02764" lon="3.58331">
        <ele>507.91</ele>
        <time>2020-07-12T15:09:36Z</time>
      </trkpt>
      <trkpt lat="46.02754" lon="3.58308">
        <ele>509.53</ele>
        <time>2020-07-12T15:09:45Z</time>
      </trkpt>
      <trkpt lat="46.02743" lon="3.58288">
        <ele>511.48</ele>
        <time>2020-07-12T15:09:55Z</time>
      </trkpt>
      <trkpt lat="46.02734" lon="3.58263">
        <ele>513.9</ele>
        <time>2020-07-12T15:10:07Z</time>
      </trkpt>
      <trkpt lat="46.02725" lon="3.58239">
        <ele>515.97</ele>
        <time>2020-07-12T15:10:18Z</time>
      </trkpt>
      <trkpt lat="46.02715" lon="3.58214">
        <ele>518.83</ele>
        <time>2020-07-12T15:10:32Z</time>
      </trkpt>
      <trkpt lat="46.02708" lon="3.58188">
        <ele>521.35</ele>
        <time>2020-07-12T15:10:42Z</time>
      </trkpt>
      <trkpt lat="46.02701" lon="3.58163">
        <ele>524.27</ele>
        <time>2020-07-12T15:10:53Z</time>
      </trkpt>
      <trkpt lat="46.02694" lon="3.58139">
        <ele>526.38</ele>
        <time>2020-07-12T15:11:01Z</time>
      </trkpt>
      <trkpt lat="46.02677" lon="3.58129">
        <ele>540.04</ele>
        <time>2020-07-12T15:12:28Z</time>
      </trkpt>
      <trkpt lat="46.02668" lon="3.58105">
        <ele>542.62</ele>
        <time>2020-07-12T15:12:37Z</time>
      </trkpt>
      <trkpt lat="46.02654" lon="3.58083">
        <ele>545.04</ele>
        <time>2020-07-12T15:12:47Z</time>
      </trkpt>
      <trkpt lat="46.02643" lon="3.58061">
        <ele>546.89</ele>
        <time>2020-07-12T15:12:56Z</time>
      </trkpt>
      <trkpt lat="46.02639" lon="3.58035">
        <ele>548.62</ele>
        <time>2020-07-12T15:13:06Z</time>
      </trkpt>
      <trkpt lat="46.0264" lon="3.58009">
        <ele>549.93</ele>
        <time>2020-07-12T15:13:15Z</time>
      </trkpt>
      <trkpt lat="46.02642" lon="3.57982">
        <ele>551.22</ele>
        <time>2020-07-12T15:13:25Z</time>
      </trkpt>
      <trkpt lat="46.02649" lon="3.57957">
        <ele>552.38</ele>
        <time>2020-07-12T15:13:35Z</time>
      </trkpt>
      <trkpt lat="46.02656" lon="3.57931">
        <ele>553.29</ele>
        <time>2020-07-12T15:13:43Z</time>
      </trkpt>
      <trkpt lat="46.02667" lon="3.57908">
        <ele>554.13</ele>
        <time>2020-07-12T15:13:51Z</time>
      </trkpt>
      <trkpt lat="46.02674" lon="3.57882">
        <ele>554.96</ele>
        <time>2020-07-12T15:13:59Z</time>
      </trkpt>
      <trkpt lat="46.02672" lon="3.57854">
        <ele>555.77</ele>
        <time>2020-07-12T15:14:07Z</time>
      </trkpt>
      <trkpt lat="46.02667" lon="3.57829">
        <ele>556.73</ele>
        <time>2020-07-12T15:14:17Z</time>
      </trkpt>
      <trkpt lat="46.02662" lon="3.57802">
        <ele>557.57</ele>
        <time>2020-07-12T15:14:26Z</time>
      </trkpt>
      <trkpt lat="46.02661" lon="3.57775">
        <ele>558.28</ele>
        <time>2020-07-12T15:14:34Z</time>
      </trkpt>
      <trkpt lat="46.02666" lon="3.57745">
        <ele>558.9</ele>
        <time>2020-07-12T15:14:41Z</time>
      </trkpt>
      <trkpt lat="46.02675" lon="3.57719">
        <ele>559.44</ele>
        <time>2020-07-12T15:14:47Z</time>
      </trkpt>
      <trkpt lat="46.02684" lon="3.57693">
        <ele>560.67</ele>
        <time>2020-07-12T15:14:52Z</time>
      </trkpt>
      <trkpt lat="46.02695" lon="3.57672">
        <ele>561.07</ele>
        <time>2020-07-12T15:14:57Z</time>
      </trkpt>
      <trkpt lat="46.02709" lon="3.57657">
        <ele>561.96</ele>
        <time>2020-07-12T15:15:02Z</time>
      </trkpt>
      <trkpt lat="46.02726" lon="3.57643">
        <ele>563.32</ele>
        <time>2020-07-12T15:15:07Z</time>
      </trkpt>
      <trkpt lat="46.02738" lon="3.57623">
        <ele>563.7</ele>
        <time>2020-07-12T15:15:13Z</time>
      </trkpt>
      <trkpt lat="46.02751" lon="3.57601">
        <ele>563.93</ele>
        <time>2020-07-12T15:15:19Z</time>
      </trkpt>
      <trkpt lat="46.02765" lon="3.57577">
        <ele>564.14</ele>
        <time>2020-07-12T15:15:25Z</time>
      </trkpt>
      <trkpt lat="46.02778" lon="3.57556">
        <ele>564.39</ele>
        <time>2020-07-12T15:15:32Z</time>
      </trkpt>
      <trkpt lat="46.0279" lon="3.57532">
        <ele>564.62</ele>
        <time>2020-07-12T15:15:39Z</time>
      </trkpt>
      <trkpt lat="46.02793" lon="3.57503">
        <ele>564.83</ele>
        <time>2020-07-12T15:15:45Z</time>
      </trkpt>
      <trkpt lat="46.02794" lon="3.57475">
        <ele>565.07</ele>
        <time>2020-07-12T15:15:52Z</time>
      </trkpt>
      <trkpt lat="46.02791" lon="3.57445">
        <ele>565.35</ele>
        <time>2020-07-12T15:15:59Z</time>
      </trkpt>
      <trkpt lat="46.02788" lon="3.57419">
        <ele>565.62</ele>
        <time>2020-07-12T15:16:06Z</time>
      </trkpt>
      <trkpt lat="46.02796" lon="3.57395">
        <ele>565.85</ele>
        <time>2020-07-12T15:16:12Z</time>
      </trkpt>
      <trkpt lat="46.02809" lon="3.57371">
        <ele>566.09</ele>
        <time>2020-07-12T15:16:18Z</time>
      </trkpt>
      <trkpt lat="46.02821" lon="3.57351">
        <ele>566.3</ele>
        <time>2020-07-12T15:16:23Z</time>
      </trkpt>
      <trkpt lat="46.02836" lon="3.57335">
        <ele>567.38</ele>
        <time>2020-07-12T15:16:27Z</time>
      </trkpt>
      <trkpt lat="46.02852" lon="3.5731">
        <ele>568.08</ele>
        <time>2020-07-12T15:16:32Z</time>
      </trkpt>
      <trkpt lat="46.02866" lon="3.57289">
        <ele>568.41</ele>
        <time>2020-07-12T15:16:37Z</time>
      </trkpt>
      <trkpt lat="46.02878" lon="3.57269">
        <ele>568.67</ele>
        <time>2020-07-12T15:16:42Z</time>
      </trkpt>
      <trkpt lat="46.02889" lon="3.57248">
        <ele>569.37</ele>
        <time>2020-07-12T15:16:47Z</time>
      </trkpt>
      <trkpt lat="46.02902" lon="3.5723">
        <ele>571.15</ele>
        <time>2020-07-12T15:16:54Z</time>
      </trkpt>
      <trkpt lat="46.02918" lon="3.57209">
        <ele>573.86</ele>
        <time>2020-07-12T15:16:59Z</time>
      </trkpt>
      <trkpt lat="46.02931" lon="3.57189">
        <ele>576.09</ele>
        <time>2020-07-12T15:17:03Z</time>
      </trkpt>
      <trkpt lat="46.02944" lon="3.57164">
        <ele>577.98</ele>
        <time>2020-07-12T15:17:07Z</time>
      </trkpt>
      <trkpt lat="46.02956" lon="3.5714">
        <ele>579.06</ele>
        <time>2020-07-12T15:17:10Z</time>
      </trkpt>
      <trkpt lat="46.02972" lon="3.57112">
        <ele>579.85</ele>
        <time>2020-07-12T15:17:13Z</time>
      </trkpt>
      <trkpt lat="46.02992" lon="3.57086">
        <ele>580.36</ele>
        <time>2020-07-12T15:17:16Z</time>
      </trkpt>
      <trkpt lat="46.03007" lon="3.57071">
        <ele>580.55</ele>
        <time>2020-07-12T15:17:18Z</time>
      </trkpt>
      <trkpt lat="46.03023" lon="3.57056">
        <ele>580.64</ele>
        <time>2020-07-12T15:17:20Z</time>
      </trkpt>
      <trkpt lat="46.03046" lon="3.57036">
        <ele>580.63</ele>
        <time>2020-07-12T15:17:23Z</time>
      </trkpt>
      <trkpt lat="46.03069" lon="3.57016">
        <ele>580.51</ele>
        <time>2020-07-12T15:17:26Z</time>
      </trkpt>
      <trkpt lat="46.03088" lon="3.56997">
        <ele>580.41</ele>
        <time>2020-07-12T15:17:29Z</time>
      </trkpt>
      <trkpt lat="46.03102" lon="3.56978">
        <ele>580.27</ele>
        <time>2020-07-12T15:17:32Z</time>
      </trkpt>
      <trkpt lat="46.03115" lon="3.56953">
        <ele>580.35</ele>
        <time>2020-07-12T15:17:36Z</time>
      </trkpt>
      <trkpt lat="46.03125" lon="3.56929">
        <ele>580.41</ele>
        <time>2020-07-12T15:17:40Z</time>
      </trkpt>
      <trkpt lat="46.03136" lon="3.56901">
        <ele>580.46</ele>
        <time>2020-07-12T15:17:45Z</time>
      </trkpt>
      <trkpt lat="46.03145" lon="3.56878">
        <ele>580.45</ele>
        <time>2020-07-12T15:17:49Z</time>
      </trkpt>
      <trkpt lat="46.03152" lon="3.56854">
        <ele>580.5</ele>
        <time>2020-07-12T15:17:53Z</time>
      </trkpt>
      <trkpt lat="46.0316" lon="3.56825">
        <ele>580.56</ele>
        <time>2020-07-12T15:17:58Z</time>
      </trkpt>
      <trkpt lat="46.03166" lon="3.56796">
        <ele>580.65</ele>
        <time>2020-07-12T15:18:03Z</time>
      </trkpt>
      <trkpt lat="46.03169" lon="3.56765">
        <ele>580.72</ele>
        <time>2020-07-12T15:18:08Z</time>
      </trkpt>
      <trkpt lat="46.03172" lon="3.56734">
        <ele>580.8</ele>
        <time>2020-07-12T15:18:13Z</time>
      </trkpt>
      <trkpt lat="46.03177" lon="3.56703">
        <ele>580.82</ele>
        <time>2020-07-12T15:18:18Z</time>
      </trkpt>
      <trkpt lat="46.03186" lon="3.56674">
        <ele>580.9</ele>
        <time>2020-07-12T15:18:23Z</time>
      </trkpt>
      <trkpt lat="46.03196" lon="3.56651">
        <ele>580.98</ele>
        <time>2020-07-12T15:18:27Z</time>
      </trkpt>
      <trkpt lat="46.03207" lon="3.56629">
        <ele>581.08</ele>
        <time>2020-07-12T15:18:31Z</time>
      </trkpt>
      <trkpt lat="46.03218" lon="3.56607">
        <ele>581.16</ele>
        <time>2020-07-12T15:18:35Z</time>
      </trkpt>
      <trkpt lat="46.0323" lon="3.56581">
        <ele>581.22</ele>
        <time>2020-07-12T15:18:40Z</time>
      </trkpt>
      <trkpt lat="46.0324" lon="3.56554">
        <ele>581.31</ele>
        <time>2020-07-12T15:18:45Z</time>
      </trkpt>
      <trkpt lat="46.0325" lon="3.56526">
        <ele>581.38</ele>
        <time>2020-07-12T15:18:50Z</time>
      </trkpt>
      <trkpt lat="46.0326" lon="3.56502">
        <ele>581.42</ele>
        <time>2020-07-12T15:18:54Z</time>
      </trkpt>
      <trkpt lat="46.03269" lon="3.56479">
        <ele>581.45</ele>
        <time>2020-07-12T15:18:58Z</time>
      </trkpt>
      <trkpt lat="46.03273" lon="3.56452">
        <ele>581.47</ele>
        <time>2020-07-12T15:19:03Z</time>
      </trkpt>
      <trkpt lat="46.03273" lon="3.56421">
        <ele>581.45</ele>
        <time>2020-07-12T15:19:08Z</time>
      </trkpt>
      <trkpt lat="46.03272" lon="3.5639">
        <ele>581.49</ele>
        <time>2020-07-12T15:19:12Z</time>
      </trkpt>
      <trkpt lat="46.03278" lon="3.56364">
        <ele>581.55</ele>
        <time>2020-07-12T15:19:16Z</time>
      </trkpt>
      <trkpt lat="46.03289" lon="3.5634">
        <ele>581.6</ele>
        <time>2020-07-12T15:19:20Z</time>
      </trkpt>
      <trkpt lat="46.03303" lon="3.56318">
        <ele>581.65</ele>
        <time>2020-07-12T15:19:25Z</time>
      </trkpt>
      <trkpt lat="46.03315" lon="3.56296">
        <ele>581.74</ele>
        <time>2020-07-12T15:19:30Z</time>
      </trkpt>
      <trkpt lat="46.03325" lon="3.56273">
        <ele>581.78</ele>
        <time>2020-07-12T15:19:36Z</time>
      </trkpt>
      <trkpt lat="46.03336" lon="3.56251">
        <ele>581.84</ele>
        <time>2020-07-12T15:19:42Z</time>
      </trkpt>
      <trkpt lat="46.03346" lon="3.56229">
        <ele>581.91</ele>
        <time>2020-07-12T15:19:48Z</time>
      </trkpt>
      <trkpt lat="46.03358" lon="3.56208">
        <ele>582.2</ele>
        <time>2020-07-12T15:19:53Z</time>
      </trkpt>
      <trkpt lat="46.03371" lon="3.5619">
        <ele>582.46</ele>
        <time>2020-07-12T15:19:57Z</time>
      </trkpt>
      <trkpt lat="46.03386" lon="3.56167">
        <ele>582.73</ele>
        <time>2020-07-12T15:20:02Z</time>
      </trkpt>
      <trkpt lat="46.03402" lon="3.56146">
        <ele>583.23</ele>
        <time>2020-07-12T15:20:07Z</time>
      </trkpt>
      <trkpt lat="46.0342" lon="3.56126">
        <ele>583.7</ele>
        <time>2020-07-12T15:20:12Z</time>
      </trkpt>
      <trkpt lat="46.03439" lon="3.56108">
        <ele>583.99</ele>
        <time>2020-07-12T15:20:17Z</time>
      </trkpt>
      <trkpt lat="46.0346" lon="3.56095">
        <ele>584.1</ele>
        <time>2020-07-12T15:20:21Z</time>
      </trkpt>
      <trkpt lat="46.03483" lon="3.56085">
        <ele>584.2</ele>
        <time>2020-07-12T15:20:25Z</time>
      </trkpt>
      <trkpt lat="46.03505" lon="3.56072">
        <ele>584.38</ele>
        <time>2020-07-12T15:20:29Z</time>
      </trkpt>
      <trkpt lat="46.03524" lon="3.56055">
        <ele>584.54</ele>
        <time>2020-07-12T15:20:33Z</time>
      </trkpt>
      <trkpt lat="46.03542" lon="3.56038">
        <ele>584.7</ele>
        <time>2020-07-12T15:20:37Z</time>
      </trkpt>
      <trkpt lat="46.03561" lon="3.56018">
        <ele>584.9</ele>
        <time>2020-07-12T15:20:41Z</time>
      </trkpt>
      <trkpt lat="46.03577" lon="3.55995">
        <ele>585.08</ele>
        <time>2020-07-12T15:20:45Z</time>
      </trkpt>
      <trkpt lat="46.03587" lon="3.55966">
        <ele>585.19</ele>
        <time>2020-07-12T15:20:49Z</time>
      </trkpt>
      <trkpt lat="46.03596" lon="3.55936">
        <ele>585.3</ele>
        <time>2020-07-12T15:20:53Z</time>
      </trkpt>
      <trkpt lat="46.03608" lon="3.5591">
        <ele>585.36</ele>
        <time>2020-07-12T15:20:57Z</time>
      </trkpt>
      <trkpt lat="46.03621" lon="3.55879">
        <ele>585.4</ele>
        <time>2020-07-12T15:21:01Z</time>
      </trkpt>
      <trkpt lat="46.03633" lon="3.55853">
        <ele>585.45</ele>
        <time>2020-07-12T15:21:04Z</time>
      </trkpt>
      <trkpt lat="46.03648" lon="3.5583">
        <ele>585.53</ele>
        <time>2020-07-12T15:21:07Z</time>
      </trkpt>
      <trkpt lat="46.03664" lon="3.55811">
        <ele>585.66</ele>
        <time>2020-07-12T15:21:10Z</time>
      </trkpt>
      <trkpt lat="46.0368" lon="3.55794">
        <ele>586.19</ele>
        <time>2020-07-12T15:21:13Z</time>
      </trkpt>
      <trkpt lat="46.03695" lon="3.55778">
        <ele>586.65</ele>
        <time>2020-07-12T15:21:16Z</time>
      </trkpt>
      <trkpt lat="46.03709" lon="3.55759">
        <ele>586.93</ele>
        <time>2020-07-12T15:21:19Z</time>
      </trkpt>
      <trkpt lat="46.03724" lon="3.55739">
        <ele>587.25</ele>
        <time>2020-07-12T15:21:22Z</time>
      </trkpt>
      <trkpt lat="46.03739" lon="3.5572">
        <ele>587.52</ele>
        <time>2020-07-12T15:21:25Z</time>
      </trkpt>
      <trkpt lat="46.03753" lon="3.55698">
        <ele>587.55</ele>
        <time>2020-07-12T15:21:28Z</time>
      </trkpt>
      <trkpt lat="46.03766" lon="3.55676">
        <ele>587.5</ele>
        <time>2020-07-12T15:21:31Z</time>
      </trkpt>
      <trkpt lat="46.03779" lon="3.55657">
        <ele>587.63</ele>
        <time>2020-07-12T15:21:34Z</time>
      </trkpt>
      <trkpt lat="46.03797" lon="3.55635">
        <ele>587.81</ele>
        <time>2020-07-12T15:21:38Z</time>
      </trkpt>
      <trkpt lat="46.03814" lon="3.55615">
        <ele>587.8</ele>
        <time>2020-07-12T15:21:42Z</time>
      </trkpt>
      <trkpt lat="46.03826" lon="3.55591">
        <ele>588.14</ele>
        <time>2020-07-12T15:21:46Z</time>
      </trkpt>
      <trkpt lat="46.03835" lon="3.55569">
        <ele>588.1</ele>
        <time>2020-07-12T15:21:50Z</time>
      </trkpt>
      <trkpt lat="46.03844" lon="3.55542">
        <ele>588.08</ele>
        <time>2020-07-12T15:21:56Z</time>
      </trkpt>
      <trkpt lat="46.03853" lon="3.55515">
        <ele>587.64</ele>
        <time>2020-07-12T15:22:01Z</time>
      </trkpt>
      <trkpt lat="46.0386" lon="3.55491">
        <ele>587.35</ele>
        <time>2020-07-12T15:22:06Z</time>
      </trkpt>
      <trkpt lat="46.03867" lon="3.55465">
        <ele>586.96</ele>
        <time>2020-07-12T15:22:14Z</time>
      </trkpt>
      <trkpt lat="46.03869" lon="3.55431">
        <ele>586.67</ele>
        <time>2020-07-12T15:22:21Z</time>
      </trkpt>
      <trkpt lat="46.03876" lon="3.55403">
        <ele>586.47</ele>
        <time>2020-07-12T15:22:25Z</time>
      </trkpt>
      <trkpt lat="46.03875" lon="3.55375">
        <ele>586.21</ele>
        <time>2020-07-12T15:22:33Z</time>
      </trkpt>
      <trkpt lat="46.03878" lon="3.55347">
        <ele>586.23</ele>
        <time>2020-07-12T15:22:38Z</time>
      </trkpt>
      <trkpt lat="46.03878" lon="3.55318">
        <ele>586.38</ele>
        <time>2020-07-12T15:22:44Z</time>
      </trkpt>
      <trkpt lat="46.0388" lon="3.55291">
        <ele>587.05</ele>
        <time>2020-07-12T15:22:49Z</time>
      </trkpt>
      <trkpt lat="46.03882" lon="3.5526">
        <ele>587.61</ele>
        <time>2020-07-12T15:22:56Z</time>
      </trkpt>
      <trkpt lat="46.03887" lon="3.55233">
        <ele>587.78</ele>
        <time>2020-07-12T15:23:02Z</time>
      </trkpt>
      <trkpt lat="46.03891" lon="3.55205">
        <ele>588.54</ele>
        <time>2020-07-12T15:23:07Z</time>
      </trkpt>
      <trkpt lat="46.03901" lon="3.5518">
        <ele>589.35</ele>
        <time>2020-07-12T15:23:13Z</time>
      </trkpt>
      <trkpt lat="46.03914" lon="3.55158">
        <ele>590.12</ele>
        <time>2020-07-12T15:23:18Z</time>
      </trkpt>
      <trkpt lat="46.03929" lon="3.55141">
        <ele>590.46</ele>
        <time>2020-07-12T15:23:23Z</time>
      </trkpt>
      <trkpt lat="46.03946" lon="3.55125">
        <ele>590.83</ele>
        <time>2020-07-12T15:23:29Z</time>
      </trkpt>
      <trkpt lat="46.03964" lon="3.5511">
        <ele>592.19</ele>
        <time>2020-07-12T15:23:34Z</time>
      </trkpt>
      <trkpt lat="46.03979" lon="3.55092">
        <ele>593.31</ele>
        <time>2020-07-12T15:23:38Z</time>
      </trkpt>
      <trkpt lat="46.03996" lon="3.55077">
        <ele>593.89</ele>
        <time>2020-07-12T15:23:42Z</time>
      </trkpt>
      <trkpt lat="46.04012" lon="3.55064">
        <ele>594.22</ele>
        <time>2020-07-12T15:23:45Z</time>
      </trkpt>
      <trkpt lat="46.04035" lon="3.55046">
        <ele>594.36</ele>
        <time>2020-07-12T15:23:49Z</time>
      </trkpt>
      <trkpt lat="46.04056" lon="3.55041">
        <ele>594.41</ele>
        <time>2020-07-12T15:23:53Z</time>
      </trkpt>
      <trkpt lat="46.04074" lon="3.55029">
        <ele>594.49</ele>
        <time>2020-07-12T15:23:56Z</time>
      </trkpt>
      <trkpt lat="46.0409" lon="3.55015">
        <ele>594.59</ele>
        <time>2020-07-12T15:23:59Z</time>
      </trkpt>
      <trkpt lat="46.04107" lon="3.54999">
        <ele>594.51</ele>
        <time>2020-07-12T15:24:01Z</time>
      </trkpt>
      <trkpt lat="46.04123" lon="3.54985">
        <ele>594.33</ele>
        <time>2020-07-12T15:24:03Z</time>
      </trkpt>
      <trkpt lat="46.04144" lon="3.5497">
        <ele>594.19</ele>
        <time>2020-07-12T15:24:06Z</time>
      </trkpt>
      <trkpt lat="46.04163" lon="3.54956">
        <ele>594.4</ele>
        <time>2020-07-12T15:24:09Z</time>
      </trkpt>
      <trkpt lat="46.0418" lon="3.54944">
        <ele>594.64</ele>
        <time>2020-07-12T15:24:12Z</time>
      </trkpt>
      <trkpt lat="46.04201" lon="3.54928">
        <ele>594.5</ele>
        <time>2020-07-12T15:24:16Z</time>
      </trkpt>
      <trkpt lat="46.04221" lon="3.54916">
        <ele>594.03</ele>
        <time>2020-07-12T15:24:19Z</time>
      </trkpt>
      <trkpt lat="46.04246" lon="3.54905">
        <ele>593.31</ele>
        <time>2020-07-12T15:24:22Z</time>
      </trkpt>
      <trkpt lat="46.04264" lon="3.54897">
        <ele>592.79</ele>
        <time>2020-07-12T15:24:24Z</time>
      </trkpt>
      <trkpt lat="46.0429" lon="3.54883">
        <ele>591.87</ele>
        <time>2020-07-12T15:24:27Z</time>
      </trkpt>
      <trkpt lat="46.04306" lon="3.54874">
        <ele>591.07</ele>
        <time>2020-07-12T15:24:29Z</time>
      </trkpt>
      <trkpt lat="46.04328" lon="3.54863">
        <ele>590.05</ele>
        <time>2020-07-12T15:24:32Z</time>
      </trkpt>
      <trkpt lat="46.04347" lon="3.54851">
        <ele>589.22</ele>
        <time>2020-07-12T15:24:35Z</time>
      </trkpt>
      <trkpt lat="46.04365" lon="3.54841">
        <ele>588.36</ele>
        <time>2020-07-12T15:24:38Z</time>
      </trkpt>
      <trkpt lat="46.04384" lon="3.54835">
        <ele>587.57</ele>
        <time>2020-07-12T15:24:41Z</time>
      </trkpt>
      <trkpt lat="46.04406" lon="3.5482">
        <ele>586.85</ele>
        <time>2020-07-12T15:24:44Z</time>
      </trkpt>
      <trkpt lat="46.04422" lon="3.54805">
        <ele>586.33</ele>
        <time>2020-07-12T15:24:47Z</time>
      </trkpt>
      <trkpt lat="46.0444" lon="3.54798">
        <ele>585.75</ele>
        <time>2020-07-12T15:24:53Z</time>
      </trkpt>
      <trkpt lat="46.0446" lon="3.54792">
        <ele>584.94</ele>
        <time>2020-07-12T15:24:58Z</time>
      </trkpt>
      <trkpt lat="46.0448" lon="3.54784">
        <ele>584.1</ele>
        <time>2020-07-12T15:25:02Z</time>
      </trkpt>
      <trkpt lat="46.04503" lon="3.54774">
        <ele>583.04</ele>
        <time>2020-07-12T15:25:06Z</time>
      </trkpt>
      <trkpt lat="46.04519" lon="3.54761">
        <ele>581.86</ele>
        <time>2020-07-12T15:25:09Z</time>
      </trkpt>
      <trkpt lat="46.04539" lon="3.5475">
        <ele>581.15</ele>
        <time>2020-07-12T15:25:14Z</time>
      </trkpt>
      <trkpt lat="46.04557" lon="3.54737">
        <ele>580.79</ele>
        <time>2020-07-12T15:25:20Z</time>
      </trkpt>
      <trkpt lat="46.04574" lon="3.54725">
        <ele>580.57</ele>
        <time>2020-07-12T15:25:27Z</time>
      </trkpt>
      <trkpt lat="46.04589" lon="3.54709">
        <ele>580.28</ele>
        <time>2020-07-12T15:25:36Z</time>
      </trkpt>
      <trkpt lat="46.04605" lon="3.54689">
        <ele>580.03</ele>
        <time>2020-07-12T15:25:45Z</time>
      </trkpt>
      <trkpt lat="46.04622" lon="3.54675">
        <ele>579.75</ele>
        <time>2020-07-12T15:25:56Z</time>
      </trkpt>
      <trkpt lat="46.04642" lon="3.54658">
        <ele>579.58</ele>
        <time>2020-07-12T15:26:02Z</time>
      </trkpt>
      <trkpt lat="46.04661" lon="3.54646">
        <ele>579.41</ele>
        <time>2020-07-12T15:26:07Z</time>
      </trkpt>
      <trkpt lat="46.04678" lon="3.54636">
        <ele>579.2</ele>
        <time>2020-07-12T15:26:13Z</time>
      </trkpt>
      <trkpt lat="46.04694" lon="3.54622">
        <ele>578.93</ele>
        <time>2020-07-12T15:26:21Z</time>
      </trkpt>
      <trkpt lat="46.04711" lon="3.54609">
        <ele>578.71</ele>
        <time>2020-07-12T15:26:27Z</time>
      </trkpt>
      <trkpt lat="46.04728" lon="3.54592">
        <ele>578.48</ele>
        <time>2020-07-12T15:26:33Z</time>
      </trkpt>
      <trkpt lat="46.04743" lon="3.54579">
        <ele>578.14</ele>
        <time>2020-07-12T15:26:41Z</time>
      </trkpt>
      <trkpt lat="46.04763" lon="3.54571">
        <ele>577.85</ele>
        <time>2020-07-12T15:26:49Z</time>
      </trkpt>
      <trkpt lat="46.04786" lon="3.5457">
        <ele>577.64</ele>
        <time>2020-07-12T15:26:55Z</time>
      </trkpt>
      <trkpt lat="46.04807" lon="3.5457">
        <ele>577.23</ele>
        <time>2020-07-12T15:27:01Z</time>
      </trkpt>
      <trkpt lat="46.04827" lon="3.54568">
        <ele>576.8</ele>
        <time>2020-07-12T15:27:06Z</time>
      </trkpt>
      <trkpt lat="46.04848" lon="3.54565">
        <ele>576.53</ele>
        <time>2020-07-12T15:27:12Z</time>
      </trkpt>
      <trkpt lat="46.04868" lon="3.54565">
        <ele>576.42</ele>
        <time>2020-07-12T15:27:18Z</time>
      </trkpt>
      <trkpt lat="46.04886" lon="3.54562">
        <ele>576.33</ele>
        <time>2020-07-12T15:27:24Z</time>
      </trkpt>
      <trkpt lat="46.04908" lon="3.54562">
        <ele>576</ele>
        <time>2020-07-12T15:27:29Z</time>
      </trkpt>
      <trkpt lat="46.04927" lon="3.54571">
        <ele>575.76</ele>
        <time>2020-07-12T15:27:34Z</time>
      </trkpt>
      <trkpt lat="46.04944" lon="3.54582">
        <ele>575.44</ele>
        <time>2020-07-12T15:27:38Z</time>
      </trkpt>
      <trkpt lat="46.04962" lon="3.54599">
        <ele>575.2</ele>
        <time>2020-07-12T15:27:43Z</time>
      </trkpt>
      <trkpt lat="46.0498" lon="3.54615">
        <ele>575.16</ele>
        <time>2020-07-12T15:27:50Z</time>
      </trkpt>
      <trkpt lat="46.05" lon="3.54622">
        <ele>575.04</ele>
        <time>2020-07-12T15:27:55Z</time>
      </trkpt>
      <trkpt lat="46.05021" lon="3.54624">
        <ele>574.94</ele>
        <time>2020-07-12T15:28:00Z</time>
      </trkpt>
      <trkpt lat="46.05041" lon="3.54627">
        <ele>574.92</ele>
        <time>2020-07-12T15:28:05Z</time>
      </trkpt>
      <trkpt lat="46.05063" lon="3.54632">
        <ele>574.94</ele>
        <time>2020-07-12T15:28:10Z</time>
      </trkpt>
      <trkpt lat="46.05086" lon="3.54639">
        <ele>574.99</ele>
        <time>2020-07-12T15:28:14Z</time>
      </trkpt>
      <trkpt lat="46.05105" lon="3.54647">
        <ele>574.95</ele>
        <time>2020-07-12T15:28:18Z</time>
      </trkpt>
      <trkpt lat="46.05125" lon="3.5466">
        <ele>574.9</ele>
        <time>2020-07-12T15:28:22Z</time>
      </trkpt>
      <trkpt lat="46.05147" lon="3.54673">
        <ele>574.78</ele>
        <time>2020-07-12T15:28:26Z</time>
      </trkpt>
      <trkpt lat="46.05165" lon="3.54688">
        <ele>574.68</ele>
        <time>2020-07-12T15:28:29Z</time>
      </trkpt>
      <trkpt lat="46.0518" lon="3.54704">
        <ele>574.61</ele>
        <time>2020-07-12T15:28:33Z</time>
      </trkpt>
      <trkpt lat="46.05199" lon="3.54713">
        <ele>574.58</ele>
        <time>2020-07-12T15:28:38Z</time>
      </trkpt>
      <trkpt lat="46.05221" lon="3.54725">
        <ele>574.36</ele>
        <time>2020-07-12T15:28:42Z</time>
      </trkpt>
      <trkpt lat="46.05243" lon="3.54729">
        <ele>574.14</ele>
        <time>2020-07-12T15:28:46Z</time>
      </trkpt>
      <trkpt lat="46.05264" lon="3.54732">
        <ele>573.96</ele>
        <time>2020-07-12T15:28:50Z</time>
      </trkpt>
      <trkpt lat="46.05286" lon="3.54739">
        <ele>573.74</ele>
        <time>2020-07-12T15:28:53Z</time>
      </trkpt>
      <trkpt lat="46.05306" lon="3.54742">
        <ele>573.46</ele>
        <time>2020-07-12T15:28:56Z</time>
      </trkpt>
      <trkpt lat="46.05329" lon="3.54748">
        <ele>572.96</ele>
        <time>2020-07-12T15:28:59Z</time>
      </trkpt>
      <trkpt lat="46.05351" lon="3.54757">
        <ele>572.06</ele>
        <time>2020-07-12T15:29:01Z</time>
      </trkpt>
      <trkpt lat="46.05372" lon="3.54762">
        <ele>570.83</ele>
        <time>2020-07-12T15:29:04Z</time>
      </trkpt>
      <trkpt lat="46.05392" lon="3.54768">
        <ele>569.02</ele>
        <time>2020-07-12T15:29:08Z</time>
      </trkpt>
      <trkpt lat="46.05411" lon="3.54774">
        <ele>567.17</ele>
        <time>2020-07-12T15:29:12Z</time>
      </trkpt>
      <trkpt lat="46.05431" lon="3.54781">
        <ele>565.93</ele>
        <time>2020-07-12T15:29:15Z</time>
      </trkpt>
      <trkpt lat="46.05453" lon="3.5478">
        <ele>564.54</ele>
        <time>2020-07-12T15:29:20Z</time>
      </trkpt>
      <trkpt lat="46.05477" lon="3.5478">
        <ele>563</ele>
        <time>2020-07-12T15:29:24Z</time>
      </trkpt>
      <trkpt lat="46.05501" lon="3.5478">
        <ele>561.25</ele>
        <time>2020-07-12T15:29:28Z</time>
      </trkpt>
      <trkpt lat="46.05523" lon="3.54783">
        <ele>560.09</ele>
        <time>2020-07-12T15:29:31Z</time>
      </trkpt>
      <trkpt lat="46.05542" lon="3.54786">
        <ele>559.02</ele>
        <time>2020-07-12T15:29:34Z</time>
      </trkpt>
      <trkpt lat="46.05565" lon="3.54791">
        <ele>557.56</ele>
        <time>2020-07-12T15:29:38Z</time>
      </trkpt>
      <trkpt lat="46.05589" lon="3.548">
        <ele>556.4</ele>
        <time>2020-07-12T15:29:41Z</time>
      </trkpt>
      <trkpt lat="46.05612" lon="3.54807">
        <ele>555.38</ele>
        <time>2020-07-12T15:29:43Z</time>
      </trkpt>
      <trkpt lat="46.05634" lon="3.5481">
        <ele>554.3</ele>
        <time>2020-07-12T15:29:45Z</time>
      </trkpt>
      <trkpt lat="46.05652" lon="3.5481">
        <ele>552.62</ele>
        <time>2020-07-12T15:29:47Z</time>
      </trkpt>
      <trkpt lat="46.05676" lon="3.54802">
        <ele>547.59</ele>
        <time>2020-07-12T15:29:50Z</time>
      </trkpt>
      <trkpt lat="46.05695" lon="3.54794">
        <ele>539.48</ele>
        <time>2020-07-12T15:29:53Z</time>
      </trkpt>
      <trkpt lat="46.05714" lon="3.5479">
        <ele>531.71</ele>
        <time>2020-07-12T15:29:56Z</time>
      </trkpt>
      <trkpt lat="46.05737" lon="3.54787">
        <ele>524.32</ele>
        <time>2020-07-12T15:30:00Z</time>
      </trkpt>
      <trkpt lat="46.05755" lon="3.54783">
        <ele>520.5</ele>
        <time>2020-07-12T15:30:03Z</time>
      </trkpt>
      <trkpt lat="46.05773" lon="3.54772">
        <ele>517.53</ele>
        <time>2020-07-12T15:30:06Z</time>
      </trkpt>
      <trkpt lat="46.0579" lon="3.54749">
        <ele>514.59</ele>
        <time>2020-07-12T15:30:10Z</time>
      </trkpt>
      <trkpt lat="46.05785" lon="3.5472">
        <ele>512.96</ele>
        <time>2020-07-12T15:30:13Z</time>
      </trkpt>
      <trkpt lat="46.05774" lon="3.54693">
        <ele>511.74</ele>
        <time>2020-07-12T15:30:16Z</time>
      </trkpt>
      <trkpt lat="46.05766" lon="3.54667">
        <ele>510.73</ele>
        <time>2020-07-12T15:30:19Z</time>
      </trkpt>
      <trkpt lat="46.05763" lon="3.54638">
        <ele>509.88</ele>
        <time>2020-07-12T15:30:23Z</time>
      </trkpt>
      <trkpt lat="46.0576" lon="3.54609">
        <ele>509.28</ele>
        <time>2020-07-12T15:30:27Z</time>
      </trkpt>
      <trkpt lat="46.05765" lon="3.54581">
        <ele>508.94</ele>
        <time>2020-07-12T15:30:31Z</time>
      </trkpt>
      <trkpt lat="46.05777" lon="3.54557">
        <ele>508.34</ele>
        <time>2020-07-12T15:30:36Z</time>
      </trkpt>
      <trkpt lat="46.05788" lon="3.54536">
        <ele>507.34</ele>
        <time>2020-07-12T15:30:40Z</time>
      </trkpt>
      <trkpt lat="46.05793" lon="3.54507">
        <ele>506.39</ele>
        <time>2020-07-12T15:30:43Z</time>
      </trkpt>
      <trkpt lat="46.05792" lon="3.5447">
        <ele>505.39</ele>
        <time>2020-07-12T15:30:46Z</time>
      </trkpt>
      <trkpt lat="46.05782" lon="3.54435">
        <ele>504.46</ele>
        <time>2020-07-12T15:30:49Z</time>
      </trkpt>
      <trkpt lat="46.05775" lon="3.54398">
        <ele>503.54</ele>
        <time>2020-07-12T15:30:52Z</time>
      </trkpt>
      <trkpt lat="46.05775" lon="3.5436">
        <ele>502.9</ele>
        <time>2020-07-12T15:30:55Z</time>
      </trkpt>
      <trkpt lat="46.05775" lon="3.54323">
        <ele>502.4</ele>
        <time>2020-07-12T15:30:58Z</time>
      </trkpt>
      <trkpt lat="46.05773" lon="3.54287">
        <ele>501.93</ele>
        <time>2020-07-12T15:31:01Z</time>
      </trkpt>
      <trkpt lat="46.05767" lon="3.54255">
        <ele>501.33</ele>
        <time>2020-07-12T15:31:04Z</time>
      </trkpt>
      <trkpt lat="46.05766" lon="3.54222">
        <ele>500.34</ele>
        <time>2020-07-12T15:31:07Z</time>
      </trkpt>
      <trkpt lat="46.0577" lon="3.54191">
        <ele>498.16</ele>
        <time>2020-07-12T15:31:11Z</time>
      </trkpt>
      <trkpt lat="46.05777" lon="3.54164">
        <ele>496.33</ele>
        <time>2020-07-12T15:31:14Z</time>
      </trkpt>
      <trkpt lat="46.05791" lon="3.54139">
        <ele>494.41</ele>
        <time>2020-07-12T15:31:17Z</time>
      </trkpt>
      <trkpt lat="46.05807" lon="3.54117">
        <ele>493.29</ele>
        <time>2020-07-12T15:31:20Z</time>
      </trkpt>
      <trkpt lat="46.05817" lon="3.5409">
        <ele>492.03</ele>
        <time>2020-07-12T15:31:23Z</time>
      </trkpt>
      <trkpt lat="46.05831" lon="3.54067">
        <ele>491.32</ele>
        <time>2020-07-12T15:31:27Z</time>
      </trkpt>
      <trkpt lat="46.05829" lon="3.54041">
        <ele>491.57</ele>
        <time>2020-07-12T15:31:37Z</time>
      </trkpt>
      <trkpt lat="46.05825" lon="3.54014">
        <ele>491.59</ele>
        <time>2020-07-12T15:31:48Z</time>
      </trkpt>
      <trkpt lat="46.05829" lon="3.53989">
        <ele>491.19</ele>
        <time>2020-07-12T15:31:58Z</time>
      </trkpt>
      <trkpt lat="46.05839" lon="3.53965">
        <ele>490.77</ele>
        <time>2020-07-12T15:32:09Z</time>
      </trkpt>
      <trkpt lat="46.05848" lon="3.53939">
        <ele>490.5</ele>
        <time>2020-07-12T15:32:18Z</time>
      </trkpt>
      <trkpt lat="46.05851" lon="3.53913">
        <ele>490.32</ele>
        <time>2020-07-12T15:32:27Z</time>
      </trkpt>
      <trkpt lat="46.05849" lon="3.53886">
        <ele>490.21</ele>
        <time>2020-07-12T15:32:34Z</time>
      </trkpt>
      <trkpt lat="46.05841" lon="3.5386">
        <ele>490.12</ele>
        <time>2020-07-12T15:32:43Z</time>
      </trkpt>
      <trkpt lat="46.05831" lon="3.53835">
        <ele>490.08</ele>
        <time>2020-07-12T15:32:53Z</time>
      </trkpt>
      <trkpt lat="46.05821" lon="3.53812">
        <ele>490.07</ele>
        <time>2020-07-12T15:33:03Z</time>
      </trkpt>
      <trkpt lat="46.05812" lon="3.53789">
        <ele>490.1</ele>
        <time>2020-07-12T15:33:15Z</time>
      </trkpt>
      <trkpt lat="46.05804" lon="3.53765">
        <ele>490.16</ele>
        <time>2020-07-12T15:33:27Z</time>
      </trkpt>
      <trkpt lat="46.05799" lon="3.53739">
        <ele>490.29</ele>
        <time>2020-07-12T15:33:39Z</time>
      </trkpt>
      <trkpt lat="46.05794" lon="3.53712">
        <ele>490.47</ele>
        <time>2020-07-12T15:33:54Z</time>
      </trkpt>
      <trkpt lat="46.05788" lon="3.53687">
        <ele>490.7</ele>
        <time>2020-07-12T15:34:08Z</time>
      </trkpt>
      <trkpt lat="46.05783" lon="3.5366">
        <ele>490.95</ele>
        <time>2020-07-12T15:34:20Z</time>
      </trkpt>
      <trkpt lat="46.05774" lon="3.53637">
        <ele>491.27</ele>
        <time>2020-07-12T15:34:34Z</time>
      </trkpt>
      <trkpt lat="46.05769" lon="3.5361">
        <ele>491.57</ele>
        <time>2020-07-12T15:34:46Z</time>
      </trkpt>
      <trkpt lat="46.05768" lon="3.53584">
        <ele>492.07</ele>
        <time>2020-07-12T15:35:02Z</time>
      </trkpt>
      <trkpt lat="46.05766" lon="3.53558">
        <ele>492.77</ele>
        <time>2020-07-12T15:35:19Z</time>
      </trkpt>
      <trkpt lat="46.05761" lon="3.53531">
        <ele>493.51</ele>
        <time>2020-07-12T15:35:34Z</time>
      </trkpt>
      <trkpt lat="46.0576" lon="3.53504">
        <ele>493.92</ele>
        <time>2020-07-12T15:35:42Z</time>
      </trkpt>
      <trkpt lat="46.05766" lon="3.53477">
        <ele>494.43</ele>
        <time>2020-07-12T15:35:52Z</time>
      </trkpt>
      <trkpt lat="46.05767" lon="3.53447">
        <ele>494.84</ele>
        <time>2020-07-12T15:36:00Z</time>
      </trkpt>
      <trkpt lat="46.05773" lon="3.5342">
        <ele>495.33</ele>
        <time>2020-07-12T15:36:09Z</time>
      </trkpt>
      <trkpt lat="46.05783" lon="3.53393">
        <ele>495.83</ele>
        <time>2020-07-12T15:36:15Z</time>
      </trkpt>
      <trkpt lat="46.05792" lon="3.53371">
        <ele>498.58</ele>
        <time>2020-07-12T15:36:20Z</time>
      </trkpt>
      <trkpt lat="46.058" lon="3.53342">
        <ele>501.11</ele>
        <time>2020-07-12T15:36:25Z</time>
      </trkpt>
      <trkpt lat="46.05807" lon="3.53314">
        <ele>502.76</ele>
        <time>2020-07-12T15:36:30Z</time>
      </trkpt>
      <trkpt lat="46.05818" lon="3.53293">
        <ele>504.01</ele>
        <time>2020-07-12T15:36:34Z</time>
      </trkpt>
      <trkpt lat="46.0583" lon="3.53273">
        <ele>505.04</ele>
        <time>2020-07-12T15:36:38Z</time>
      </trkpt>
      <trkpt lat="46.05847" lon="3.53251">
        <ele>506.02</ele>
        <time>2020-07-12T15:36:43Z</time>
      </trkpt>
      <trkpt lat="46.05861" lon="3.5323">
        <ele>507.36</ele>
        <time>2020-07-12T15:36:47Z</time>
      </trkpt>
      <trkpt lat="46.0587" lon="3.53206">
        <ele>508.73</ele>
        <time>2020-07-12T15:36:51Z</time>
      </trkpt>
      <trkpt lat="46.05876" lon="3.53178">
        <ele>509.94</ele>
        <time>2020-07-12T15:36:56Z</time>
      </trkpt>
      <trkpt lat="46.05886" lon="3.5315">
        <ele>510.99</ele>
        <time>2020-07-12T15:37:01Z</time>
      </trkpt>
      <trkpt lat="46.05899" lon="3.53126">
        <ele>511.61</ele>
        <time>2020-07-12T15:37:07Z</time>
      </trkpt>
      <trkpt lat="46.05915" lon="3.5311">
        <ele>513.58</ele>
        <time>2020-07-12T15:37:11Z</time>
      </trkpt>
      <trkpt lat="46.05931" lon="3.53095">
        <ele>515.06</ele>
        <time>2020-07-12T15:37:15Z</time>
      </trkpt>
      <trkpt lat="46.05951" lon="3.53088">
        <ele>516.14</ele>
        <time>2020-07-12T15:37:19Z</time>
      </trkpt>
      <trkpt lat="46.05973" lon="3.53085">
        <ele>516.94</ele>
        <time>2020-07-12T15:37:23Z</time>
      </trkpt>
      <trkpt lat="46.05993" lon="3.53081">
        <ele>517.63</ele>
        <time>2020-07-12T15:37:27Z</time>
      </trkpt>
      <trkpt lat="46.0601" lon="3.53071">
        <ele>518.22</ele>
        <time>2020-07-12T15:37:31Z</time>
      </trkpt>
      <trkpt lat="46.06025" lon="3.53048">
        <ele>519</ele>
        <time>2020-07-12T15:37:36Z</time>
      </trkpt>
      <trkpt lat="46.06039" lon="3.53028">
        <ele>519.65</ele>
        <time>2020-07-12T15:37:40Z</time>
      </trkpt>
      <trkpt lat="46.06054" lon="3.53013">
        <ele>520.31</ele>
        <time>2020-07-12T15:37:44Z</time>
      </trkpt>
      <trkpt lat="46.06073" lon="3.52999">
        <ele>520.88</ele>
        <time>2020-07-12T15:37:48Z</time>
      </trkpt>
      <trkpt lat="46.06091" lon="3.52988">
        <ele>521.23</ele>
        <time>2020-07-12T15:37:52Z</time>
      </trkpt>
      <trkpt lat="46.0611" lon="3.5298">
        <ele>521.43</ele>
        <time>2020-07-12T15:37:56Z</time>
      </trkpt>
      <trkpt lat="46.06128" lon="3.5297">
        <ele>521.75</ele>
        <time>2020-07-12T15:38:00Z</time>
      </trkpt>
      <trkpt lat="46.06147" lon="3.52958">
        <ele>522.11</ele>
        <time>2020-07-12T15:38:05Z</time>
      </trkpt>
      <trkpt lat="46.06166" lon="3.5296">
        <ele>522.34</ele>
        <time>2020-07-12T15:38:08Z</time>
      </trkpt>
      <trkpt lat="46.06186" lon="3.52964">
        <ele>522.7</ele>
        <time>2020-07-12T15:38:11Z</time>
      </trkpt>
      <trkpt lat="46.06206" lon="3.52968">
        <ele>523.28</ele>
        <time>2020-07-12T15:38:14Z</time>
      </trkpt>
      <trkpt lat="46.06224" lon="3.52975">
        <ele>524.04</ele>
        <time>2020-07-12T15:38:17Z</time>
      </trkpt>
      <trkpt lat="46.06246" lon="3.52986">
        <ele>525.06</ele>
        <time>2020-07-12T15:38:21Z</time>
      </trkpt>
      <trkpt lat="46.06266" lon="3.52995">
        <ele>525.8</ele>
        <time>2020-07-12T15:38:25Z</time>
      </trkpt>
      <trkpt lat="46.06288" lon="3.53004">
        <ele>526.23</ele>
        <time>2020-07-12T15:38:29Z</time>
      </trkpt>
      <trkpt lat="46.06305" lon="3.53012">
        <ele>526.43</ele>
        <time>2020-07-12T15:38:32Z</time>
      </trkpt>
      <trkpt lat="46.06326" lon="3.5302">
        <ele>526.66</ele>
        <time>2020-07-12T15:38:36Z</time>
      </trkpt>
      <trkpt lat="46.06348" lon="3.53022">
        <ele>527.05</ele>
        <time>2020-07-12T15:38:40Z</time>
      </trkpt>
      <trkpt lat="46.06368" lon="3.53022">
        <ele>527.51</ele>
        <time>2020-07-12T15:38:44Z</time>
      </trkpt>
      <trkpt lat="46.06389" lon="3.53024">
        <ele>527.99</ele>
        <time>2020-07-12T15:38:48Z</time>
      </trkpt>
      <trkpt lat="46.06412" lon="3.53023">
        <ele>528.39</ele>
        <time>2020-07-12T15:38:52Z</time>
      </trkpt>
      <trkpt lat="46.06433" lon="3.53015">
        <ele>528.67</ele>
        <time>2020-07-12T15:38:56Z</time>
      </trkpt>
      <trkpt lat="46.06445" lon="3.52989">
        <ele>528.74</ele>
        <time>2020-07-12T15:39:00Z</time>
      </trkpt>
      <trkpt lat="46.06459" lon="3.52966">
        <ele>528.79</ele>
        <time>2020-07-12T15:39:04Z</time>
      </trkpt>
      <trkpt lat="46.0647" lon="3.52945">
        <ele>528.83</ele>
        <time>2020-07-12T15:39:08Z</time>
      </trkpt>
      <trkpt lat="46.06488" lon="3.52932">
        <ele>528.89</ele>
        <time>2020-07-12T15:39:12Z</time>
      </trkpt>
      <trkpt lat="46.06504" lon="3.52919">
        <ele>528.87</ele>
        <time>2020-07-12T15:39:16Z</time>
      </trkpt>
      <trkpt lat="46.06506" lon="3.52886">
        <ele>528.87</ele>
        <time>2020-07-12T15:39:21Z</time>
      </trkpt>
      <trkpt lat="46.06503" lon="3.52858">
        <ele>528.92</ele>
        <time>2020-07-12T15:39:25Z</time>
      </trkpt>
      <trkpt lat="46.06498" lon="3.5283">
        <ele>528.97</ele>
        <time>2020-07-12T15:39:30Z</time>
      </trkpt>
      <trkpt lat="46.0649" lon="3.528">
        <ele>528.98</ele>
        <time>2020-07-12T15:39:36Z</time>
      </trkpt>
      <trkpt lat="46.0648" lon="3.52773">
        <ele>529.05</ele>
        <time>2020-07-12T15:39:41Z</time>
      </trkpt>
      <trkpt lat="46.06473" lon="3.52749">
        <ele>529.06</ele>
        <time>2020-07-12T15:39:46Z</time>
      </trkpt>
      <trkpt lat="46.06465" lon="3.52724">
        <ele>529.1</ele>
        <time>2020-07-12T15:39:52Z</time>
      </trkpt>
      <trkpt lat="46.06447" lon="3.52708">
        <ele>529.52</ele>
        <time>2020-07-12T15:39:57Z</time>
      </trkpt>
      <trkpt lat="46.06432" lon="3.5269">
        <ele>529.74</ele>
        <time>2020-07-12T15:40:02Z</time>
      </trkpt>
      <trkpt lat="46.0643" lon="3.52664">
        <ele>529.82</ele>
        <time>2020-07-12T15:40:07Z</time>
      </trkpt>
      <trkpt lat="46.06424" lon="3.52635">
        <ele>529.91</ele>
        <time>2020-07-12T15:40:12Z</time>
      </trkpt>
      <trkpt lat="46.0642" lon="3.52607">
        <ele>529.92</ele>
        <time>2020-07-12T15:40:15Z</time>
      </trkpt>
      <trkpt lat="46.06421" lon="3.52573">
        <ele>529.87</ele>
        <time>2020-07-12T15:40:18Z</time>
      </trkpt>
      <trkpt lat="46.06413" lon="3.52538">
        <ele>529.81</ele>
        <time>2020-07-12T15:40:21Z</time>
      </trkpt>
      <trkpt lat="46.06401" lon="3.52512">
        <ele>529.79</ele>
        <time>2020-07-12T15:40:23Z</time>
      </trkpt>
      <trkpt lat="46.0639" lon="3.52486">
        <ele>529.77</ele>
        <time>2020-07-12T15:40:25Z</time>
      </trkpt>
      <trkpt lat="46.06382" lon="3.5246">
        <ele>529.69</ele>
        <time>2020-07-12T15:40:27Z</time>
      </trkpt>
      <trkpt lat="46.06372" lon="3.52436">
        <ele>529.56</ele>
        <time>2020-07-12T15:40:29Z</time>
      </trkpt>
      <trkpt lat="46.06361" lon="3.52413">
        <ele>529.36</ele>
        <time>2020-07-12T15:40:31Z</time>
      </trkpt>
      <trkpt lat="46.06349" lon="3.52391">
        <ele>529.09</ele>
        <time>2020-07-12T15:40:33Z</time>
      </trkpt>
      <trkpt lat="46.06335" lon="3.52361">
        <ele>528.68</ele>
        <time>2020-07-12T15:40:36Z</time>
      </trkpt>
      <trkpt lat="46.06324" lon="3.52337">
        <ele>528.15</ele>
        <time>2020-07-12T15:40:40Z</time>
      </trkpt>
      <trkpt lat="46.06314" lon="3.52308">
        <ele>527.61</ele>
        <time>2020-07-12T15:40:44Z</time>
      </trkpt>
      <trkpt lat="46.06301" lon="3.52278">
        <ele>527.11</ele>
        <time>2020-07-12T15:40:47Z</time>
      </trkpt>
      <trkpt lat="46.06289" lon="3.52255">
        <ele>526.57</ele>
        <time>2020-07-12T15:40:49Z</time>
      </trkpt>
      <trkpt lat="46.06277" lon="3.52228">
        <ele>526.02</ele>
        <time>2020-07-12T15:40:51Z</time>
      </trkpt>
      <trkpt lat="46.06265" lon="3.52197">
        <ele>525.49</ele>
        <time>2020-07-12T15:40:53Z</time>
      </trkpt>
      <trkpt lat="46.06255" lon="3.52167">
        <ele>524.96</ele>
        <time>2020-07-12T15:40:55Z</time>
      </trkpt>
      <trkpt lat="46.06252" lon="3.52121">
        <ele>524.18</ele>
        <time>2020-07-12T15:40:57Z</time>
      </trkpt>
      <trkpt lat="46.06256" lon="3.52081">
        <ele>523.03</ele>
        <time>2020-07-12T15:40:59Z</time>
      </trkpt>
      <trkpt lat="46.0626" lon="3.52045">
        <ele>521.41</ele>
        <time>2020-07-12T15:41:01Z</time>
      </trkpt>
      <trkpt lat="46.06262" lon="3.52008">
        <ele>519.47</ele>
        <time>2020-07-12T15:41:03Z</time>
      </trkpt>
      <trkpt lat="46.06263" lon="3.51971">
        <ele>517.57</ele>
        <time>2020-07-12T15:41:05Z</time>
      </trkpt>
      <trkpt lat="46.06262" lon="3.5193">
        <ele>515.88</ele>
        <time>2020-07-12T15:41:07Z</time>
      </trkpt>
      <trkpt lat="46.06262" lon="3.51891">
        <ele>514.23</ele>
        <time>2020-07-12T15:41:09Z</time>
      </trkpt>
      <trkpt lat="46.0626" lon="3.51865">
        <ele>512.68</ele>
        <time>2020-07-12T15:41:11Z</time>
      </trkpt>
      <trkpt lat="46.06273" lon="3.51843">
        <ele>510.55</ele>
        <time>2020-07-12T15:41:17Z</time>
      </trkpt>
      <trkpt lat="46.06292" lon="3.51836">
        <ele>509.65</ele>
        <time>2020-07-12T15:41:28Z</time>
      </trkpt>
      <trkpt lat="46.06295" lon="3.5181">
        <ele>507.66</ele>
        <time>2020-07-12T15:41:39Z</time>
      </trkpt>
      <trkpt lat="46.06295" lon="3.51784">
        <ele>504.48</ele>
        <time>2020-07-12T15:41:55Z</time>
      </trkpt>
      <trkpt lat="46.06296" lon="3.51757">
        <ele>502.87</ele>
        <time>2020-07-12T15:42:06Z</time>
      </trkpt>
      <trkpt lat="46.06291" lon="3.51732">
        <ele>501.06</ele>
        <time>2020-07-12T15:42:21Z</time>
      </trkpt>
      <trkpt lat="46.0628" lon="3.51709">
        <ele>499.87</ele>
        <time>2020-07-12T15:42:33Z</time>
      </trkpt>
      <trkpt lat="46.06278" lon="3.51682">
        <ele>498.66</ele>
        <time>2020-07-12T15:42:49Z</time>
      </trkpt>
      <trkpt lat="46.0628" lon="3.51656">
        <ele>497.88</ele>
        <time>2020-07-12T15:43:02Z</time>
      </trkpt>
      <trkpt lat="46.06275" lon="3.51629">
        <ele>497.21</ele>
        <time>2020-07-12T15:43:17Z</time>
      </trkpt>
      <trkpt lat="46.06273" lon="3.51603">
        <ele>496.85</ele>
        <time>2020-07-12T15:43:30Z</time>
      </trkpt>
      <trkpt lat="46.06271" lon="3.51576">
        <ele>496.64</ele>
        <time>2020-07-12T15:43:43Z</time>
      </trkpt>
      <trkpt lat="46.0626" lon="3.51552">
        <ele>496.58</ele>
        <time>2020-07-12T15:43:53Z</time>
      </trkpt>
      <trkpt lat="46.06261" lon="3.51525">
        <ele>496.64</ele>
        <time>2020-07-12T15:44:04Z</time>
      </trkpt>
      <trkpt lat="46.06261" lon="3.51495">
        <ele>496.68</ele>
        <time>2020-07-12T15:44:13Z</time>
      </trkpt>
      <trkpt lat="46.06259" lon="3.51467">
        <ele>496.72</ele>
        <time>2020-07-12T15:44:19Z</time>
      </trkpt>
      <trkpt lat="46.0626" lon="3.51441">
        <ele>496.78</ele>
        <time>2020-07-12T15:44:27Z</time>
      </trkpt>
      <trkpt lat="46.06263" lon="3.51412">
        <ele>496.88</ele>
        <time>2020-07-12T15:44:43Z</time>
      </trkpt>
      <trkpt lat="46.06261" lon="3.51382">
        <ele>496.92</ele>
        <time>2020-07-12T15:44:49Z</time>
      </trkpt>
      <trkpt lat="46.06263" lon="3.51354">
        <ele>497.05</ele>
        <time>2020-07-12T15:44:54Z</time>
      </trkpt>
      <trkpt lat="46.06264" lon="3.51325">
        <ele>497.2</ele>
        <time>2020-07-12T15:44:59Z</time>
      </trkpt>
      <trkpt lat="46.06259" lon="3.513">
        <ele>497.25</ele>
        <time>2020-07-12T15:45:04Z</time>
      </trkpt>
      <trkpt lat="46.06259" lon="3.51269">
        <ele>497.38</ele>
        <time>2020-07-12T15:45:11Z</time>
      </trkpt>
      <trkpt lat="46.06265" lon="3.51233">
        <ele>497.72</ele>
        <time>2020-07-12T15:45:15Z</time>
      </trkpt>
      <trkpt lat="46.06266" lon="3.51204">
        <ele>498.07</ele>
        <time>2020-07-12T15:45:18Z</time>
      </trkpt>
      <trkpt lat="46.06261" lon="3.51177">
        <ele>498.94</ele>
        <time>2020-07-12T15:45:22Z</time>
      </trkpt>
      <trkpt lat="46.06259" lon="3.5115">
        <ele>499.22</ele>
        <time>2020-07-12T15:45:29Z</time>
      </trkpt>
      <trkpt lat="46.06267" lon="3.51122">
        <ele>499.62</ele>
        <time>2020-07-12T15:45:37Z</time>
      </trkpt>
      <trkpt lat="46.06281" lon="3.51104">
        <ele>500.01</ele>
        <time>2020-07-12T15:45:42Z</time>
      </trkpt>
      <trkpt lat="46.06293" lon="3.51085">
        <ele>500.66</ele>
        <time>2020-07-12T15:45:48Z</time>
      </trkpt>
      <trkpt lat="46.06309" lon="3.5107">
        <ele>501.38</ele>
        <time>2020-07-12T15:45:55Z</time>
      </trkpt>
      <trkpt lat="46.06327" lon="3.5106">
        <ele>501.96</ele>
        <time>2020-07-12T15:46:01Z</time>
      </trkpt>
      <trkpt lat="46.06347" lon="3.51047">
        <ele>502.53</ele>
        <time>2020-07-12T15:46:07Z</time>
      </trkpt>
      <trkpt lat="46.06362" lon="3.51029">
        <ele>503.1</ele>
        <time>2020-07-12T15:46:13Z</time>
      </trkpt>
      <trkpt lat="46.06369" lon="3.51003">
        <ele>503.65</ele>
        <time>2020-07-12T15:46:19Z</time>
      </trkpt>
      <trkpt lat="46.06363" lon="3.50977">
        <ele>504.38</ele>
        <time>2020-07-12T15:46:25Z</time>
      </trkpt>
      <trkpt lat="46.06358" lon="3.50947">
        <ele>505.58</ele>
        <time>2020-07-12T15:46:30Z</time>
      </trkpt>
      <trkpt lat="46.06358" lon="3.50919">
        <ele>508.8</ele>
        <time>2020-07-12T15:46:34Z</time>
      </trkpt>
      <trkpt lat="46.06358" lon="3.5089">
        <ele>510.43</ele>
        <time>2020-07-12T15:46:38Z</time>
      </trkpt>
      <trkpt lat="46.06362" lon="3.50857">
        <ele>511.41</ele>
        <time>2020-07-12T15:46:42Z</time>
      </trkpt>
      <trkpt lat="46.06365" lon="3.5082">
        <ele>511.8</ele>
        <time>2020-07-12T15:46:46Z</time>
      </trkpt>
      <trkpt lat="46.06373" lon="3.50784">
        <ele>512.13</ele>
        <time>2020-07-12T15:46:49Z</time>
      </trkpt>
      <trkpt lat="46.06376" lon="3.50758">
        <ele>512.47</ele>
        <time>2020-07-12T15:46:51Z</time>
      </trkpt>
      <trkpt lat="46.06381" lon="3.50722">
        <ele>512.57</ele>
        <time>2020-07-12T15:46:54Z</time>
      </trkpt>
      <trkpt lat="46.06385" lon="3.50693">
        <ele>512.42</ele>
        <time>2020-07-12T15:46:57Z</time>
      </trkpt>
      <trkpt lat="46.0639" lon="3.50661">
        <ele>512.53</ele>
        <time>2020-07-12T15:47:01Z</time>
      </trkpt>
      <trkpt lat="46.06396" lon="3.50635">
        <ele>512.89</ele>
        <time>2020-07-12T15:47:04Z</time>
      </trkpt>
      <trkpt lat="46.06402" lon="3.50606">
        <ele>513.16</ele>
        <time>2020-07-12T15:47:07Z</time>
      </trkpt>
      <trkpt lat="46.06408" lon="3.50579">
        <ele>513.11</ele>
        <time>2020-07-12T15:47:10Z</time>
      </trkpt>
      <trkpt lat="46.06411" lon="3.50552">
        <ele>512.85</ele>
        <time>2020-07-12T15:47:14Z</time>
      </trkpt>
      <trkpt lat="46.06401" lon="3.50577">
        <ele>513.47</ele>
        <time>2020-07-12T15:49:59Z</time>
      </trkpt>
      <trkpt lat="46.06396" lon="3.50602">
        <ele>513.55</ele>
        <time>2020-07-12T15:50:06Z</time>
      </trkpt>
      <trkpt lat="46.0639" lon="3.5063">
        <ele>513.64</ele>
        <time>2020-07-12T15:50:15Z</time>
      </trkpt>
      <trkpt lat="46.06384" lon="3.50656">
        <ele>513.7</ele>
        <time>2020-07-12T15:50:24Z</time>
      </trkpt>
      <trkpt lat="46.0638" lon="3.50684">
        <ele>513.76</ele>
        <time>2020-07-12T15:50:35Z</time>
      </trkpt>
      <trkpt lat="46.06375" lon="3.50711">
        <ele>513.8</ele>
        <time>2020-07-12T15:50:42Z</time>
      </trkpt>
      <trkpt lat="46.06372" lon="3.5074">
        <ele>513.82</ele>
        <time>2020-07-12T15:50:48Z</time>
      </trkpt>
      <trkpt lat="46.06369" lon="3.5077">
        <ele>513.85</ele>
        <time>2020-07-12T15:50:55Z</time>
      </trkpt>
      <trkpt lat="46.06364" lon="3.50799">
        <ele>513.86</ele>
        <time>2020-07-12T15:51:01Z</time>
      </trkpt>
      <trkpt lat="46.06363" lon="3.50829">
        <ele>513.87</ele>
        <time>2020-07-12T15:51:08Z</time>
      </trkpt>
      <trkpt lat="46.06361" lon="3.50858">
        <ele>513.89</ele>
        <time>2020-07-12T15:51:15Z</time>
      </trkpt>
      <trkpt lat="46.0636" lon="3.50888">
        <ele>513.9</ele>
        <time>2020-07-12T15:51:22Z</time>
      </trkpt>
      <trkpt lat="46.06356" lon="3.50915">
        <ele>513.9</ele>
        <time>2020-07-12T15:51:29Z</time>
      </trkpt>
      <trkpt lat="46.06357" lon="3.50945">
        <ele>513.9</ele>
        <time>2020-07-12T15:51:35Z</time>
      </trkpt>
      <trkpt lat="46.06366" lon="3.50974">
        <ele>513.92</ele>
        <time>2020-07-12T15:51:41Z</time>
      </trkpt>
      <trkpt lat="46.06375" lon="3.50998">
        <ele>513.96</ele>
        <time>2020-07-12T15:51:47Z</time>
      </trkpt>
      <trkpt lat="46.06391" lon="3.5098">
        <ele>514.03</ele>
        <time>2020-07-12T15:51:55Z</time>
      </trkpt>
      <trkpt lat="46.06409" lon="3.50969">
        <ele>514.17</ele>
        <time>2020-07-12T15:52:00Z</time>
      </trkpt>
      <trkpt lat="46.06431" lon="3.50964">
        <ele>514.31</ele>
        <time>2020-07-12T15:52:04Z</time>
      </trkpt>
      <trkpt lat="46.06449" lon="3.50962">
        <ele>514.34</ele>
        <time>2020-07-12T15:52:07Z</time>
      </trkpt>
      <trkpt lat="46.0647" lon="3.50965">
        <ele>514.38</ele>
        <time>2020-07-12T15:52:11Z</time>
      </trkpt>
      <trkpt lat="46.06481" lon="3.50988">
        <ele>514.39</ele>
        <time>2020-07-12T15:52:14Z</time>
      </trkpt>
      <trkpt lat="46.06495" lon="3.51014">
        <ele>514.42</ele>
        <time>2020-07-12T15:52:17Z</time>
      </trkpt>
      <trkpt lat="46.06507" lon="3.51038">
        <ele>514.47</ele>
        <time>2020-07-12T15:52:20Z</time>
      </trkpt>
      <trkpt lat="46.0652" lon="3.51067">
        <ele>514.47</ele>
        <time>2020-07-12T15:52:23Z</time>
      </trkpt>
      <trkpt lat="46.06535" lon="3.51094">
        <ele>514.38</ele>
        <time>2020-07-12T15:52:26Z</time>
      </trkpt>
      <trkpt lat="46.06548" lon="3.51121">
        <ele>514.22</ele>
        <time>2020-07-12T15:52:29Z</time>
      </trkpt>
      <trkpt lat="46.0656" lon="3.51149">
        <ele>514.05</ele>
        <time>2020-07-12T15:52:32Z</time>
      </trkpt>
      <trkpt lat="46.06572" lon="3.51173">
        <ele>513.82</ele>
        <time>2020-07-12T15:52:35Z</time>
      </trkpt>
      <trkpt lat="46.06586" lon="3.512">
        <ele>513.58</ele>
        <time>2020-07-12T15:52:38Z</time>
      </trkpt>
      <trkpt lat="46.06601" lon="3.51227">
        <ele>513.28</ele>
        <time>2020-07-12T15:52:41Z</time>
      </trkpt>
      <trkpt lat="46.06614" lon="3.51246">
        <ele>512.89</ele>
        <time>2020-07-12T15:52:43Z</time>
      </trkpt>
      <trkpt lat="46.0663" lon="3.51276">
        <ele>512.14</ele>
        <time>2020-07-12T15:52:46Z</time>
      </trkpt>
      <trkpt lat="46.06648" lon="3.51305">
        <ele>511.06</ele>
        <time>2020-07-12T15:52:49Z</time>
      </trkpt>
      <trkpt lat="46.06661" lon="3.51324">
        <ele>510.15</ele>
        <time>2020-07-12T15:52:51Z</time>
      </trkpt>
      <trkpt lat="46.06673" lon="3.51354">
        <ele>508.77</ele>
        <time>2020-07-12T15:52:54Z</time>
      </trkpt>
      <trkpt lat="46.06687" lon="3.51382">
        <ele>507.47</ele>
        <time>2020-07-12T15:52:57Z</time>
      </trkpt>
      <trkpt lat="46.067" lon="3.51409">
        <ele>505.43</ele>
        <time>2020-07-12T15:53:00Z</time>
      </trkpt>
      <trkpt lat="46.06715" lon="3.51441">
        <ele>503.61</ele>
        <time>2020-07-12T15:53:03Z</time>
      </trkpt>
      <trkpt lat="46.06728" lon="3.51463">
        <ele>502.41</ele>
        <time>2020-07-12T15:53:05Z</time>
      </trkpt>
      <trkpt lat="46.06743" lon="3.51491">
        <ele>500.46</ele>
        <time>2020-07-12T15:53:08Z</time>
      </trkpt>
      <trkpt lat="46.0676" lon="3.51515">
        <ele>498.51</ele>
        <time>2020-07-12T15:53:11Z</time>
      </trkpt>
      <trkpt lat="46.06772" lon="3.51535">
        <ele>497.35</ele>
        <time>2020-07-12T15:53:13Z</time>
      </trkpt>
      <trkpt lat="46.0679" lon="3.51544">
        <ele>496.15</ele>
        <time>2020-07-12T15:53:16Z</time>
      </trkpt>
      <trkpt lat="46.06813" lon="3.51546">
        <ele>494.84</ele>
        <time>2020-07-12T15:53:19Z</time>
      </trkpt>
      <trkpt lat="46.06836" lon="3.51549">
        <ele>493.34</ele>
        <time>2020-07-12T15:53:22Z</time>
      </trkpt>
      <trkpt lat="46.0686" lon="3.51552">
        <ele>491.43</ele>
        <time>2020-07-12T15:53:25Z</time>
      </trkpt>
      <trkpt lat="46.06882" lon="3.51556">
        <ele>489.44</ele>
        <time>2020-07-12T15:53:28Z</time>
      </trkpt>
      <trkpt lat="46.06903" lon="3.51558">
        <ele>487.87</ele>
        <time>2020-07-12T15:53:31Z</time>
      </trkpt>
      <trkpt lat="46.06925" lon="3.51559">
        <ele>485.86</ele>
        <time>2020-07-12T15:53:35Z</time>
      </trkpt>
      <trkpt lat="46.06944" lon="3.5156">
        <ele>484.15</ele>
        <time>2020-07-12T15:53:38Z</time>
      </trkpt>
      <trkpt lat="46.06966" lon="3.51569">
        <ele>481.9</ele>
        <time>2020-07-12T15:53:42Z</time>
      </trkpt>
      <trkpt lat="46.06988" lon="3.51576">
        <ele>479.8</ele>
        <time>2020-07-12T15:53:46Z</time>
      </trkpt>
      <trkpt lat="46.07008" lon="3.51583">
        <ele>477.82</ele>
        <time>2020-07-12T15:53:50Z</time>
      </trkpt>
      <trkpt lat="46.07027" lon="3.51594">
        <ele>476.63</ele>
        <time>2020-07-12T15:53:53Z</time>
      </trkpt>
      <trkpt lat="46.07051" lon="3.51604">
        <ele>475.88</ele>
        <time>2020-07-12T15:53:56Z</time>
      </trkpt>
      <trkpt lat="46.07074" lon="3.51614">
        <ele>475.16</ele>
        <time>2020-07-12T15:53:59Z</time>
      </trkpt>
      <trkpt lat="46.07093" lon="3.51628">
        <ele>474.16</ele>
        <time>2020-07-12T15:54:02Z</time>
      </trkpt>
      <trkpt lat="46.07107" lon="3.51654">
        <ele>472.82</ele>
        <time>2020-07-12T15:54:06Z</time>
      </trkpt>
      <trkpt lat="46.07123" lon="3.5168">
        <ele>471.52</ele>
        <time>2020-07-12T15:54:09Z</time>
      </trkpt>
      <trkpt lat="46.07132" lon="3.51704">
        <ele>470.07</ele>
        <time>2020-07-12T15:54:12Z</time>
      </trkpt>
      <trkpt lat="46.07131" lon="3.5173">
        <ele>469.27</ele>
        <time>2020-07-12T15:54:17Z</time>
      </trkpt>
      <trkpt lat="46.07123" lon="3.51759">
        <ele>467.92</ele>
        <time>2020-07-12T15:54:21Z</time>
      </trkpt>
      <trkpt lat="46.07117" lon="3.51785">
        <ele>466.47</ele>
        <time>2020-07-12T15:54:24Z</time>
      </trkpt>
      <trkpt lat="46.07114" lon="3.51814">
        <ele>464.22</ele>
        <time>2020-07-12T15:54:28Z</time>
      </trkpt>
      <trkpt lat="46.07132" lon="3.51818">
        <ele>462.25</ele>
        <time>2020-07-12T15:54:36Z</time>
      </trkpt>
      <trkpt lat="46.07149" lon="3.51807">
        <ele>461.13</ele>
        <time>2020-07-12T15:54:46Z</time>
      </trkpt>
      <trkpt lat="46.07163" lon="3.5179">
        <ele>459.76</ele>
        <time>2020-07-12T15:54:58Z</time>
      </trkpt>
      <trkpt lat="46.0718" lon="3.51781">
        <ele>458.73</ele>
        <time>2020-07-12T15:55:09Z</time>
      </trkpt>
      <trkpt lat="46.07194" lon="3.51761">
        <ele>457.6</ele>
        <time>2020-07-12T15:55:22Z</time>
      </trkpt>
      <trkpt lat="46.07212" lon="3.51753">
        <ele>456.79</ele>
        <time>2020-07-12T15:55:32Z</time>
      </trkpt>
      <trkpt lat="46.0723" lon="3.51749">
        <ele>456.17</ele>
        <time>2020-07-12T15:55:40Z</time>
      </trkpt>
      <trkpt lat="46.07248" lon="3.51737">
        <ele>452.52</ele>
        <time>2020-07-12T15:57:57Z</time>
      </trkpt>
      <trkpt lat="46.07267" lon="3.51729">
        <ele>452.28</ele>
        <time>2020-07-12T15:58:09Z</time>
      </trkpt>
      <trkpt lat="46.07283" lon="3.51716">
        <ele>451.94</ele>
        <time>2020-07-12T15:58:25Z</time>
      </trkpt>
      <trkpt lat="46.07301" lon="3.5172">
        <ele>451.7</ele>
        <time>2020-07-12T15:58:40Z</time>
      </trkpt>
      <trkpt lat="46.07318" lon="3.51727">
        <ele>451.56</ele>
        <time>2020-07-12T15:58:53Z</time>
      </trkpt>
      <trkpt lat="46.07337" lon="3.51734">
        <ele>451.5</ele>
        <time>2020-07-12T15:59:03Z</time>
      </trkpt>
      <trkpt lat="46.07355" lon="3.51741">
        <ele>451.47</ele>
        <time>2020-07-12T15:59:18Z</time>
      </trkpt>
      <trkpt lat="46.07371" lon="3.51759">
        <ele>451.48</ele>
        <time>2020-07-12T15:59:36Z</time>
      </trkpt>
      <trkpt lat="46.07388" lon="3.51768">
        <ele>451.58</ele>
        <time>2020-07-12T15:59:52Z</time>
      </trkpt>
      <trkpt lat="46.07404" lon="3.51784">
        <ele>451.76</ele>
        <time>2020-07-12T16:00:09Z</time>
      </trkpt>
      <trkpt lat="46.07417" lon="3.51802">
        <ele>451.88</ele>
        <time>2020-07-12T16:00:19Z</time>
      </trkpt>
      <trkpt lat="46.07427" lon="3.51825">
        <ele>452.15</ele>
        <time>2020-07-12T16:00:38Z</time>
      </trkpt>
      <trkpt lat="46.07438" lon="3.51848">
        <ele>452.52</ele>
        <time>2020-07-12T16:00:55Z</time>
      </trkpt>
      <trkpt lat="46.07444" lon="3.51876">
        <ele>452.92</ele>
        <time>2020-07-12T16:01:10Z</time>
      </trkpt>
      <trkpt lat="46.07452" lon="3.519">
        <ele>453.42</ele>
        <time>2020-07-12T16:01:27Z</time>
      </trkpt>
      <trkpt lat="46.07462" lon="3.51924">
        <ele>454</ele>
        <time>2020-07-12T16:01:46Z</time>
      </trkpt>
      <trkpt lat="46.07472" lon="3.51949">
        <ele>454.82</ele>
        <time>2020-07-12T16:02:03Z</time>
      </trkpt>
      <trkpt lat="46.07481" lon="3.51972">
        <ele>455.53</ele>
        <time>2020-07-12T16:02:15Z</time>
      </trkpt>
      <trkpt lat="46.07494" lon="3.51991">
        <ele>456.16</ele>
        <time>2020-07-12T16:02:25Z</time>
      </trkpt>
      <trkpt lat="46.07513" lon="3.51995">
        <ele>457.01</ele>
        <time>2020-07-12T16:02:36Z</time>
      </trkpt>
      <trkpt lat="46.07531" lon="3.51999">
        <ele>458.53</ele>
        <time>2020-07-12T16:02:51Z</time>
      </trkpt>
      <trkpt lat="46.07549" lon="3.52002">
        <ele>460.2</ele>
        <time>2020-07-12T16:03:03Z</time>
      </trkpt>
      <trkpt lat="46.07569" lon="3.52002">
        <ele>461.99</ele>
        <time>2020-07-12T16:03:15Z</time>
      </trkpt>
      <trkpt lat="46.07587" lon="3.52004">
        <ele>463.89</ele>
        <time>2020-07-12T16:03:28Z</time>
      </trkpt>
      <trkpt lat="46.07605" lon="3.52007">
        <ele>465.64</ele>
        <time>2020-07-12T16:03:40Z</time>
      </trkpt>
      <trkpt lat="46.07624" lon="3.52006">
        <ele>467.14</ele>
        <time>2020-07-12T16:03:51Z</time>
      </trkpt>
      <trkpt lat="46.07642" lon="3.52006">
        <ele>468.4</ele>
        <time>2020-07-12T16:04:01Z</time>
      </trkpt>
      <trkpt lat="46.07661" lon="3.52004">
        <ele>470.17</ele>
        <time>2020-07-12T16:04:14Z</time>
      </trkpt>
      <trkpt lat="46.07681" lon="3.52002">
        <ele>472.31</ele>
        <time>2020-07-12T16:04:26Z</time>
      </trkpt>
      <trkpt lat="46.07699" lon="3.51998">
        <ele>474.29</ele>
        <time>2020-07-12T16:04:36Z</time>
      </trkpt>
      <trkpt lat="46.07718" lon="3.51999">
        <ele>476.59</ele>
        <time>2020-07-12T16:04:47Z</time>
      </trkpt>
      <trkpt lat="46.07737" lon="3.52">
        <ele>478.6</ele>
        <time>2020-07-12T16:04:57Z</time>
      </trkpt>
      <trkpt lat="46.07755" lon="3.51995">
        <ele>480.63</ele>
        <time>2020-07-12T16:05:08Z</time>
      </trkpt>
      <trkpt lat="46.07773" lon="3.51991">
        <ele>482.37</ele>
        <time>2020-07-12T16:05:18Z</time>
      </trkpt>
      <trkpt lat="46.07792" lon="3.51988">
        <ele>483.9</ele>
        <time>2020-07-12T16:05:26Z</time>
      </trkpt>
      <trkpt lat="46.07811" lon="3.51987">
        <ele>485.3</ele>
        <time>2020-07-12T16:05:33Z</time>
      </trkpt>
      <trkpt lat="46.0783" lon="3.5199">
        <ele>486.49</ele>
        <time>2020-07-12T16:05:39Z</time>
      </trkpt>
      <trkpt lat="46.07849" lon="3.51991">
        <ele>487.9</ele>
        <time>2020-07-12T16:05:46Z</time>
      </trkpt>
      <trkpt lat="46.07867" lon="3.51992">
        <ele>489.19</ele>
        <time>2020-07-12T16:05:53Z</time>
      </trkpt>
      <trkpt lat="46.07885" lon="3.51994">
        <ele>490.2</ele>
        <time>2020-07-12T16:05:59Z</time>
      </trkpt>
      <trkpt lat="46.07905" lon="3.51999">
        <ele>491.2</ele>
        <time>2020-07-12T16:06:05Z</time>
      </trkpt>
      <trkpt lat="46.07924" lon="3.52004">
        <ele>492.24</ele>
        <time>2020-07-12T16:06:11Z</time>
      </trkpt>
      <trkpt lat="46.07943" lon="3.52005">
        <ele>493.25</ele>
        <time>2020-07-12T16:06:17Z</time>
      </trkpt>
      <trkpt lat="46.07963" lon="3.52004">
        <ele>494.4</ele>
        <time>2020-07-12T16:06:24Z</time>
      </trkpt>
      <trkpt lat="46.07983" lon="3.52008">
        <ele>495.58</ele>
        <time>2020-07-12T16:06:31Z</time>
      </trkpt>
      <trkpt lat="46.07998" lon="3.52023">
        <ele>496.86</ele>
        <time>2020-07-12T16:06:39Z</time>
      </trkpt>
      <trkpt lat="46.08016" lon="3.52015">
        <ele>497.74</ele>
        <time>2020-07-12T16:06:45Z</time>
      </trkpt>
      <trkpt lat="46.08036" lon="3.52015">
        <ele>498.67</ele>
        <time>2020-07-12T16:06:52Z</time>
      </trkpt>
      <trkpt lat="46.08056" lon="3.52019">
        <ele>499.44</ele>
        <time>2020-07-12T16:06:58Z</time>
      </trkpt>
      <trkpt lat="46.08077" lon="3.52021">
        <ele>500.18</ele>
        <time>2020-07-12T16:07:04Z</time>
      </trkpt>
      <trkpt lat="46.08096" lon="3.52025">
        <ele>500.92</ele>
        <time>2020-07-12T16:07:10Z</time>
      </trkpt>
      <trkpt lat="46.08116" lon="3.52029">
        <ele>502.46</ele>
        <time>2020-07-12T16:07:15Z</time>
      </trkpt>
      <trkpt lat="46.08135" lon="3.52021">
        <ele>503.65</ele>
        <time>2020-07-12T16:07:20Z</time>
      </trkpt>
      <trkpt lat="46.08153" lon="3.52013">
        <ele>506.22</ele>
        <time>2020-07-12T16:07:24Z</time>
      </trkpt>
      <trkpt lat="46.08174" lon="3.52">
        <ele>507.68</ele>
        <time>2020-07-12T16:07:28Z</time>
      </trkpt>
      <trkpt lat="46.08192" lon="3.51988">
        <ele>508.36</ele>
        <time>2020-07-12T16:07:32Z</time>
      </trkpt>
      <trkpt lat="46.0821" lon="3.51979">
        <ele>508.74</ele>
        <time>2020-07-12T16:07:36Z</time>
      </trkpt>
      <trkpt lat="46.08229" lon="3.51968">
        <ele>509.05</ele>
        <time>2020-07-12T16:07:40Z</time>
      </trkpt>
      <trkpt lat="46.08247" lon="3.51956">
        <ele>509.36</ele>
        <time>2020-07-12T16:07:44Z</time>
      </trkpt>
      <trkpt lat="46.08264" lon="3.51937">
        <ele>511.02</ele>
        <time>2020-07-12T16:07:49Z</time>
      </trkpt>
      <trkpt lat="46.08282" lon="3.51915">
        <ele>513.18</ele>
        <time>2020-07-12T16:07:53Z</time>
      </trkpt>
      <trkpt lat="46.08296" lon="3.51898">
        <ele>514.61</ele>
        <time>2020-07-12T16:07:56Z</time>
      </trkpt>
      <trkpt lat="46.08311" lon="3.5188">
        <ele>515.87</ele>
        <time>2020-07-12T16:07:59Z</time>
      </trkpt>
      <trkpt lat="46.08325" lon="3.5186">
        <ele>516.97</ele>
        <time>2020-07-12T16:08:02Z</time>
      </trkpt>
      <trkpt lat="46.0834" lon="3.5184">
        <ele>517.89</ele>
        <time>2020-07-12T16:08:05Z</time>
      </trkpt>
      <trkpt lat="46.08355" lon="3.51819">
        <ele>518.55</ele>
        <time>2020-07-12T16:08:08Z</time>
      </trkpt>
      <trkpt lat="46.08372" lon="3.51798">
        <ele>519.01</ele>
        <time>2020-07-12T16:08:11Z</time>
      </trkpt>
      <trkpt lat="46.08387" lon="3.51777">
        <ele>519.33</ele>
        <time>2020-07-12T16:08:14Z</time>
      </trkpt>
      <trkpt lat="46.08402" lon="3.51756">
        <ele>519.45</ele>
        <time>2020-07-12T16:08:17Z</time>
      </trkpt>
      <trkpt lat="46.08417" lon="3.51733">
        <ele>519.41</ele>
        <time>2020-07-12T16:08:20Z</time>
      </trkpt>
      <trkpt lat="46.08433" lon="3.51713">
        <ele>519.27</ele>
        <time>2020-07-12T16:08:23Z</time>
      </trkpt>
      <trkpt lat="46.08449" lon="3.51693">
        <ele>519.1</ele>
        <time>2020-07-12T16:08:26Z</time>
      </trkpt>
      <trkpt lat="46.08463" lon="3.51671">
        <ele>518.92</ele>
        <time>2020-07-12T16:08:29Z</time>
      </trkpt>
      <trkpt lat="46.08478" lon="3.51653">
        <ele>518.77</ele>
        <time>2020-07-12T16:08:32Z</time>
      </trkpt>
      <trkpt lat="46.08492" lon="3.51637">
        <ele>518.44</ele>
        <time>2020-07-12T16:08:35Z</time>
      </trkpt>
      <trkpt lat="46.08507" lon="3.51618">
        <ele>517.93</ele>
        <time>2020-07-12T16:08:39Z</time>
      </trkpt>
      <trkpt lat="46.08521" lon="3.51599">
        <ele>517.12</ele>
        <time>2020-07-12T16:08:42Z</time>
      </trkpt>
      <trkpt lat="46.08539" lon="3.51576">
        <ele>516.45</ele>
        <time>2020-07-12T16:08:46Z</time>
      </trkpt>
      <trkpt lat="46.08557" lon="3.51554">
        <ele>514.98</ele>
        <time>2020-07-12T16:08:50Z</time>
      </trkpt>
      <trkpt lat="46.0857" lon="3.51534">
        <ele>513.73</ele>
        <time>2020-07-12T16:08:53Z</time>
      </trkpt>
      <trkpt lat="46.08584" lon="3.51513">
        <ele>512.49</ele>
        <time>2020-07-12T16:08:56Z</time>
      </trkpt>
      <trkpt lat="46.08595" lon="3.51486">
        <ele>511.37</ele>
        <time>2020-07-12T16:08:59Z</time>
      </trkpt>
      <trkpt lat="46.08604" lon="3.51461">
        <ele>510.7</ele>
        <time>2020-07-12T16:09:02Z</time>
      </trkpt>
      <trkpt lat="46.08612" lon="3.51438">
        <ele>510.35</ele>
        <time>2020-07-12T16:09:05Z</time>
      </trkpt>
      <trkpt lat="46.08623" lon="3.51417">
        <ele>509.69</ele>
        <time>2020-07-12T16:09:08Z</time>
      </trkpt>
      <trkpt lat="46.08633" lon="3.51393">
        <ele>508.81</ele>
        <time>2020-07-12T16:09:11Z</time>
      </trkpt>
      <trkpt lat="46.08645" lon="3.51366">
        <ele>507.59</ele>
        <time>2020-07-12T16:09:14Z</time>
      </trkpt>
      <trkpt lat="46.08654" lon="3.51339">
        <ele>506.61</ele>
        <time>2020-07-12T16:09:17Z</time>
      </trkpt>
      <trkpt lat="46.08661" lon="3.51308">
        <ele>505.75</ele>
        <time>2020-07-12T16:09:21Z</time>
      </trkpt>
      <trkpt lat="46.08668" lon="3.51281">
        <ele>505.77</ele>
        <time>2020-07-12T16:09:25Z</time>
      </trkpt>
      <trkpt lat="46.08675" lon="3.51253">
        <ele>505.98</ele>
        <time>2020-07-12T16:09:29Z</time>
      </trkpt>
      <trkpt lat="46.08681" lon="3.51228">
        <ele>506.36</ele>
        <time>2020-07-12T16:09:32Z</time>
      </trkpt>
      <trkpt lat="46.08687" lon="3.51203">
        <ele>506.72</ele>
        <time>2020-07-12T16:09:35Z</time>
      </trkpt>
      <trkpt lat="46.08693" lon="3.51177">
        <ele>506.92</ele>
        <time>2020-07-12T16:09:38Z</time>
      </trkpt>
      <trkpt lat="46.08696" lon="3.51147">
        <ele>507.23</ele>
        <time>2020-07-12T16:09:42Z</time>
      </trkpt>
      <trkpt lat="46.08712" lon="3.51132">
        <ele>507.64</ele>
        <time>2020-07-12T16:09:48Z</time>
      </trkpt>
      <trkpt lat="46.0873" lon="3.51136">
        <ele>507.69</ele>
        <time>2020-07-12T16:09:53Z</time>
      </trkpt>
      <trkpt lat="46.08748" lon="3.51147">
        <ele>508.07</ele>
        <time>2020-07-12T16:09:58Z</time>
      </trkpt>
      <trkpt lat="46.08769" lon="3.51154">
        <ele>508.24</ele>
        <time>2020-07-12T16:10:03Z</time>
      </trkpt>
      <trkpt lat="46.08791" lon="3.51161">
        <ele>508.44</ele>
        <time>2020-07-12T16:10:07Z</time>
      </trkpt>
      <trkpt lat="46.08813" lon="3.51168">
        <ele>508.53</ele>
        <time>2020-07-12T16:10:11Z</time>
      </trkpt>
      <trkpt lat="46.08832" lon="3.51174">
        <ele>508.55</ele>
        <time>2020-07-12T16:10:14Z</time>
      </trkpt>
      <trkpt lat="46.08851" lon="3.51183">
        <ele>508.57</ele>
        <time>2020-07-12T16:10:19Z</time>
      </trkpt>
      <trkpt lat="46.08869" lon="3.51188">
        <ele>508.6</ele>
        <time>2020-07-12T16:10:24Z</time>
      </trkpt>
      <trkpt lat="46.0889" lon="3.51191">
        <ele>508.64</ele>
        <time>2020-07-12T16:10:30Z</time>
      </trkpt>
      <trkpt lat="46.08908" lon="3.51204">
        <ele>508.65</ele>
        <time>2020-07-12T16:10:35Z</time>
      </trkpt>
      <trkpt lat="46.08929" lon="3.51213">
        <ele>508.67</ele>
        <time>2020-07-12T16:10:39Z</time>
      </trkpt>
      <trkpt lat="46.08955" lon="3.51221">
        <ele>508.64</ele>
        <time>2020-07-12T16:10:42Z</time>
      </trkpt>
      <trkpt lat="46.08978" lon="3.51232">
        <ele>508.54</ele>
        <time>2020-07-12T16:10:44Z</time>
      </trkpt>
      <trkpt lat="46.08997" lon="3.51235">
        <ele>508.4</ele>
        <time>2020-07-12T16:10:46Z</time>
      </trkpt>
      <trkpt lat="46.09019" lon="3.5124">
        <ele>508.06</ele>
        <time>2020-07-12T16:10:49Z</time>
      </trkpt>
      <trkpt lat="46.09038" lon="3.51247">
        <ele>507.21</ele>
        <time>2020-07-12T16:10:52Z</time>
      </trkpt>
      <trkpt lat="46.09054" lon="3.51236">
        <ele>506.53</ele>
        <time>2020-07-12T16:10:56Z</time>
      </trkpt>
      <trkpt lat="46.09069" lon="3.51217">
        <ele>505.83</ele>
        <time>2020-07-12T16:11:05Z</time>
      </trkpt>
      <trkpt lat="46.09064" lon="3.51192">
        <ele>505.3</ele>
        <time>2020-07-12T16:11:09Z</time>
      </trkpt>
      <trkpt lat="46.09059" lon="3.51166">
        <ele>503.51</ele>
        <time>2020-07-12T16:11:14Z</time>
      </trkpt>
      <trkpt lat="46.0905" lon="3.51141">
        <ele>501.19</ele>
        <time>2020-07-12T16:11:19Z</time>
      </trkpt>
      <trkpt lat="46.09042" lon="3.51114">
        <ele>500.53</ele>
        <time>2020-07-12T16:11:25Z</time>
      </trkpt>
      <trkpt lat="46.09031" lon="3.51088">
        <ele>499.96</ele>
        <time>2020-07-12T16:11:31Z</time>
      </trkpt>
      <trkpt lat="46.0902" lon="3.5106">
        <ele>499.36</ele>
        <time>2020-07-12T16:11:38Z</time>
      </trkpt>
      <trkpt lat="46.09011" lon="3.51033">
        <ele>498.97</ele>
        <time>2020-07-12T16:11:43Z</time>
      </trkpt>
      <trkpt lat="46.09004" lon="3.51006">
        <ele>497.6</ele>
        <time>2020-07-12T16:11:47Z</time>
      </trkpt>
      <trkpt lat="46.09006" lon="3.50978">
        <ele>496.48</ele>
        <time>2020-07-12T16:11:52Z</time>
      </trkpt>
      <trkpt lat="46.0902" lon="3.50957">
        <ele>496.06</ele>
        <time>2020-07-12T16:11:57Z</time>
      </trkpt>
      <trkpt lat="46.09033" lon="3.50933">
        <ele>495.66</ele>
        <time>2020-07-12T16:12:00Z</time>
      </trkpt>
      <trkpt lat="46.09047" lon="3.50909">
        <ele>495.39</ele>
        <time>2020-07-12T16:12:03Z</time>
      </trkpt>
      <trkpt lat="46.09061" lon="3.50885">
        <ele>495.14</ele>
        <time>2020-07-12T16:12:06Z</time>
      </trkpt>
      <trkpt lat="46.09076" lon="3.50864">
        <ele>494.88</ele>
        <time>2020-07-12T16:12:09Z</time>
      </trkpt>
      <trkpt lat="46.0909" lon="3.50837">
        <ele>494.39</ele>
        <time>2020-07-12T16:12:12Z</time>
      </trkpt>
      <trkpt lat="46.09104" lon="3.50814">
        <ele>493.73</ele>
        <time>2020-07-12T16:12:15Z</time>
      </trkpt>
      <trkpt lat="46.09115" lon="3.50792">
        <ele>493.14</ele>
        <time>2020-07-12T16:12:18Z</time>
      </trkpt>
      <trkpt lat="46.0913" lon="3.50766">
        <ele>492.5</ele>
        <time>2020-07-12T16:12:21Z</time>
      </trkpt>
      <trkpt lat="46.09144" lon="3.50739">
        <ele>491.81</ele>
        <time>2020-07-12T16:12:24Z</time>
      </trkpt>
      <trkpt lat="46.09161" lon="3.50708">
        <ele>491.01</ele>
        <time>2020-07-12T16:12:27Z</time>
      </trkpt>
      <trkpt lat="46.09178" lon="3.50685">
        <ele>490.14</ele>
        <time>2020-07-12T16:12:30Z</time>
      </trkpt>
      <trkpt lat="46.09193" lon="3.50657">
        <ele>489.28</ele>
        <time>2020-07-12T16:12:33Z</time>
      </trkpt>
      <trkpt lat="46.09213" lon="3.50637">
        <ele>487.94</ele>
        <time>2020-07-12T16:12:36Z</time>
      </trkpt>
      <trkpt lat="46.09227" lon="3.50615">
        <ele>486.35</ele>
        <time>2020-07-12T16:12:40Z</time>
      </trkpt>
      <trkpt lat="46.09245" lon="3.50626">
        <ele>485.3</ele>
        <time>2020-07-12T16:12:49Z</time>
      </trkpt>
      <trkpt lat="46.09265" lon="3.50624">
        <ele>484.3</ele>
        <time>2020-07-12T16:12:56Z</time>
      </trkpt>
      <trkpt lat="46.09283" lon="3.5063">
        <ele>483.08</ele>
        <time>2020-07-12T16:13:03Z</time>
      </trkpt>
      <trkpt lat="46.09302" lon="3.50626">
        <ele>481.72</ele>
        <time>2020-07-12T16:13:10Z</time>
      </trkpt>
      <trkpt lat="46.09315" lon="3.50648">
        <ele>478.61</ele>
        <time>2020-07-12T16:13:14Z</time>
      </trkpt>
      <trkpt lat="46.09331" lon="3.50661">
        <ele>475.79</ele>
        <time>2020-07-12T16:13:17Z</time>
      </trkpt>
      <trkpt lat="46.09353" lon="3.50673">
        <ele>473.82</ele>
        <time>2020-07-12T16:13:21Z</time>
      </trkpt>
      <trkpt lat="46.09372" lon="3.5068">
        <ele>473.04</ele>
        <time>2020-07-12T16:13:24Z</time>
      </trkpt>
      <trkpt lat="46.0939" lon="3.50684">
        <ele>472.53</ele>
        <time>2020-07-12T16:13:27Z</time>
      </trkpt>
      <trkpt lat="46.09411" lon="3.50689">
        <ele>472.14</ele>
        <time>2020-07-12T16:13:31Z</time>
      </trkpt>
      <trkpt lat="46.09429" lon="3.50693">
        <ele>472.02</ele>
        <time>2020-07-12T16:13:35Z</time>
      </trkpt>
      <trkpt lat="46.09448" lon="3.5067">
        <ele>471.94</ele>
        <time>2020-07-12T16:13:40Z</time>
      </trkpt>
      <trkpt lat="46.09468" lon="3.5068">
        <ele>471.71</ele>
        <time>2020-07-12T16:13:49Z</time>
      </trkpt>
      <trkpt lat="46.09488" lon="3.50687">
        <ele>471.26</ele>
        <time>2020-07-12T16:13:55Z</time>
      </trkpt>
      <trkpt lat="46.09502" lon="3.50705">
        <ele>470.91</ele>
        <time>2020-07-12T16:14:01Z</time>
      </trkpt>
      <trkpt lat="46.09506" lon="3.50737">
        <ele>470.35</ele>
        <time>2020-07-12T16:14:06Z</time>
      </trkpt>
      <trkpt lat="46.09515" lon="3.50765">
        <ele>469.94</ele>
        <time>2020-07-12T16:14:10Z</time>
      </trkpt>
      <trkpt lat="46.09522" lon="3.50795">
        <ele>469.57</ele>
        <time>2020-07-12T16:14:15Z</time>
      </trkpt>
      <trkpt lat="46.09534" lon="3.50815">
        <ele>469.24</ele>
        <time>2020-07-12T16:14:18Z</time>
      </trkpt>
      <trkpt lat="46.09551" lon="3.50829">
        <ele>469.94</ele>
        <time>2020-07-12T16:14:22Z</time>
      </trkpt>
      <trkpt lat="46.09567" lon="3.50848">
        <ele>470.28</ele>
        <time>2020-07-12T16:14:29Z</time>
      </trkpt>
      <trkpt lat="46.09585" lon="3.50863">
        <ele>470.36</ele>
        <time>2020-07-12T16:14:39Z</time>
      </trkpt>
      <trkpt lat="46.09601" lon="3.50877">
        <ele>469.87</ele>
        <time>2020-07-12T16:14:49Z</time>
      </trkpt>
      <trkpt lat="46.09617" lon="3.5089">
        <ele>469.12</ele>
        <time>2020-07-12T16:14:57Z</time>
      </trkpt>
      <trkpt lat="46.09637" lon="3.50892">
        <ele>468.17</ele>
        <time>2020-07-12T16:15:06Z</time>
      </trkpt>
      <trkpt lat="46.09653" lon="3.50905">
        <ele>467.31</ele>
        <time>2020-07-12T16:15:13Z</time>
      </trkpt>
      <trkpt lat="46.09672" lon="3.50911">
        <ele>466.06</ele>
        <time>2020-07-12T16:15:20Z</time>
      </trkpt>
      <trkpt lat="46.09691" lon="3.50897">
        <ele>464.24</ele>
        <time>2020-07-12T16:15:27Z</time>
      </trkpt>
      <trkpt lat="46.09707" lon="3.50885">
        <ele>462.34</ele>
        <time>2020-07-12T16:15:33Z</time>
      </trkpt>
      <trkpt lat="46.09723" lon="3.50862">
        <ele>459.85</ele>
        <time>2020-07-12T16:15:40Z</time>
      </trkpt>
      <trkpt lat="46.09731" lon="3.50837">
        <ele>457.98</ele>
        <time>2020-07-12T16:15:45Z</time>
      </trkpt>
      <trkpt lat="46.09734" lon="3.50809">
        <ele>455.44</ele>
        <time>2020-07-12T16:15:52Z</time>
      </trkpt>
      <trkpt lat="46.09737" lon="3.50781">
        <ele>453.4</ele>
        <time>2020-07-12T16:15:58Z</time>
      </trkpt>
      <trkpt lat="46.09741" lon="3.50753">
        <ele>450.92</ele>
        <time>2020-07-12T16:16:06Z</time>
      </trkpt>
      <trkpt lat="46.09746" lon="3.50724">
        <ele>448.97</ele>
        <time>2020-07-12T16:16:13Z</time>
      </trkpt>
      <trkpt lat="46.09756" lon="3.50699">
        <ele>446.07</ele>
        <time>2020-07-12T16:16:25Z</time>
      </trkpt>
      <trkpt lat="46.09773" lon="3.50691">
        <ele>444.92</ele>
        <time>2020-07-12T16:16:31Z</time>
      </trkpt>
      <trkpt lat="46.09791" lon="3.5071">
        <ele>442.43</ele>
        <time>2020-07-12T16:16:41Z</time>
      </trkpt>
      <trkpt lat="46.09807" lon="3.50726">
        <ele>440.4</ele>
        <time>2020-07-12T16:16:48Z</time>
      </trkpt>
      <trkpt lat="46.09826" lon="3.50738">
        <ele>439.99</ele>
        <time>2020-07-12T16:16:53Z</time>
      </trkpt>
      <trkpt lat="46.09844" lon="3.50746">
        <ele>439.08</ele>
        <time>2020-07-12T16:16:58Z</time>
      </trkpt>
      <trkpt lat="46.09863" lon="3.50751">
        <ele>438.56</ele>
        <time>2020-07-12T16:17:03Z</time>
      </trkpt>
      <trkpt lat="46.09882" lon="3.50753">
        <ele>437.81</ele>
        <time>2020-07-12T16:17:07Z</time>
      </trkpt>
      <trkpt lat="46.09901" lon="3.50743">
        <ele>437.33</ele>
        <time>2020-07-12T16:17:11Z</time>
      </trkpt>
      <trkpt lat="46.09919" lon="3.50728">
        <ele>437.13</ele>
        <time>2020-07-12T16:17:16Z</time>
      </trkpt>
      <trkpt lat="46.09937" lon="3.50708">
        <ele>436.8</ele>
        <time>2020-07-12T16:17:22Z</time>
      </trkpt>
      <trkpt lat="46.09951" lon="3.50685">
        <ele>436.45</ele>
        <time>2020-07-12T16:17:27Z</time>
      </trkpt>
      <trkpt lat="46.09961" lon="3.50661">
        <ele>436.02</ele>
        <time>2020-07-12T16:17:33Z</time>
      </trkpt>
      <trkpt lat="46.09968" lon="3.50635">
        <ele>434.87</ele>
        <time>2020-07-12T16:17:37Z</time>
      </trkpt>
      <trkpt lat="46.09975" lon="3.50609">
        <ele>433.74</ele>
        <time>2020-07-12T16:17:41Z</time>
      </trkpt>
      <trkpt lat="46.09982" lon="3.50581">
        <ele>433.52</ele>
        <time>2020-07-12T16:17:46Z</time>
      </trkpt>
      <trkpt lat="46.0999" lon="3.50551">
        <ele>433.3</ele>
        <time>2020-07-12T16:17:52Z</time>
      </trkpt>
      <trkpt lat="46.09997" lon="3.50522">
        <ele>433.07</ele>
        <time>2020-07-12T16:17:58Z</time>
      </trkpt>
      <trkpt lat="46.10008" lon="3.50498">
        <ele>432.63</ele>
        <time>2020-07-12T16:18:04Z</time>
      </trkpt>
      <trkpt lat="46.10013" lon="3.5047">
        <ele>431.78</ele>
        <time>2020-07-12T16:18:09Z</time>
      </trkpt>
      <trkpt lat="46.10018" lon="3.50442">
        <ele>431.18</ele>
        <time>2020-07-12T16:18:12Z</time>
      </trkpt>
      <trkpt lat="46.10022" lon="3.50412">
        <ele>430.69</ele>
        <time>2020-07-12T16:18:15Z</time>
      </trkpt>
      <trkpt lat="46.10016" lon="3.50381">
        <ele>430.3</ele>
        <time>2020-07-12T16:18:18Z</time>
      </trkpt>
      <trkpt lat="46.10008" lon="3.50351">
        <ele>429.87</ele>
        <time>2020-07-12T16:18:22Z</time>
      </trkpt>
      <trkpt lat="46.10001" lon="3.50324">
        <ele>429.76</ele>
        <time>2020-07-12T16:18:25Z</time>
      </trkpt>
      <trkpt lat="46.09998" lon="3.50296">
        <ele>429.9</ele>
        <time>2020-07-12T16:18:29Z</time>
      </trkpt>
      <trkpt lat="46.09999" lon="3.50266">
        <ele>429.95</ele>
        <time>2020-07-12T16:18:34Z</time>
      </trkpt>
      <trkpt lat="46.09997" lon="3.50238">
        <ele>429.91</ele>
        <time>2020-07-12T16:18:40Z</time>
      </trkpt>
      <trkpt lat="46.09993" lon="3.50211">
        <ele>429.85</ele>
        <time>2020-07-12T16:18:46Z</time>
      </trkpt>
      <trkpt lat="46.09984" lon="3.50188">
        <ele>429.91</ele>
        <time>2020-07-12T16:18:56Z</time>
      </trkpt>
      <trkpt lat="46.09975" lon="3.50162">
        <ele>430</ele>
        <time>2020-07-12T16:19:11Z</time>
      </trkpt>
      <trkpt lat="46.09956" lon="3.50145">
        <ele>430.06</ele>
        <time>2020-07-12T16:19:17Z</time>
      </trkpt>
      <trkpt lat="46.0994" lon="3.5013">
        <ele>430.14</ele>
        <time>2020-07-12T16:19:23Z</time>
      </trkpt>
      <trkpt lat="46.09923" lon="3.50112">
        <ele>430.22</ele>
        <time>2020-07-12T16:19:31Z</time>
      </trkpt>
      <trkpt lat="46.09906" lon="3.50101">
        <ele>430.26</ele>
        <time>2020-07-12T16:19:40Z</time>
      </trkpt>
      <trkpt lat="46.09894" lon="3.5008">
        <ele>430.25</ele>
        <time>2020-07-12T16:19:49Z</time>
      </trkpt>
      <trkpt lat="46.09911" lon="3.50064">
        <ele>429.32</ele>
        <time>2020-07-12T16:20:05Z</time>
      </trkpt>
      <trkpt lat="46.09934" lon="3.50059">
        <ele>428.94</ele>
        <time>2020-07-12T16:20:09Z</time>
      </trkpt>
      <trkpt lat="46.09953" lon="3.50052">
        <ele>428.79</ele>
        <time>2020-07-12T16:20:12Z</time>
      </trkpt>
      <trkpt lat="46.09974" lon="3.50039">
        <ele>428.61</ele>
        <time>2020-07-12T16:20:15Z</time>
      </trkpt>
      <trkpt lat="46.0999" lon="3.50018">
        <ele>428.23</ele>
        <time>2020-07-12T16:20:18Z</time>
      </trkpt>
      <trkpt lat="46.10004" lon="3.49999">
        <ele>427.7</ele>
        <time>2020-07-12T16:20:20Z</time>
      </trkpt>
      <trkpt lat="46.10016" lon="3.49979">
        <ele>426.82</ele>
        <time>2020-07-12T16:20:22Z</time>
      </trkpt>
      <trkpt lat="46.10032" lon="3.49952">
        <ele>425.5</ele>
        <time>2020-07-12T16:20:25Z</time>
      </trkpt>
      <trkpt lat="46.10041" lon="3.49924">
        <ele>424.44</ele>
        <time>2020-07-12T16:20:28Z</time>
      </trkpt>
      <trkpt lat="46.10051" lon="3.49893">
        <ele>423.43</ele>
        <time>2020-07-12T16:20:31Z</time>
      </trkpt>
      <trkpt lat="46.10053" lon="3.49861">
        <ele>422.58</ele>
        <time>2020-07-12T16:20:34Z</time>
      </trkpt>
      <trkpt lat="46.10057" lon="3.49829">
        <ele>421.92</ele>
        <time>2020-07-12T16:20:37Z</time>
      </trkpt>
      <trkpt lat="46.10057" lon="3.49797">
        <ele>421.42</ele>
        <time>2020-07-12T16:20:40Z</time>
      </trkpt>
      <trkpt lat="46.10053" lon="3.49769">
        <ele>421.01</ele>
        <time>2020-07-12T16:20:43Z</time>
      </trkpt>
      <trkpt lat="46.10035" lon="3.49745">
        <ele>420.47</ele>
        <time>2020-07-12T16:20:47Z</time>
      </trkpt>
      <trkpt lat="46.1004" lon="3.49716">
        <ele>420.12</ele>
        <time>2020-07-12T16:20:51Z</time>
      </trkpt>
      <trkpt lat="46.10058" lon="3.49703">
        <ele>419.58</ele>
        <time>2020-07-12T16:20:55Z</time>
      </trkpt>
      <trkpt lat="46.10077" lon="3.49695">
        <ele>418.67</ele>
        <time>2020-07-12T16:20:59Z</time>
      </trkpt>
      <trkpt lat="46.10096" lon="3.49679">
        <ele>418.14</ele>
        <time>2020-07-12T16:21:03Z</time>
      </trkpt>
      <trkpt lat="46.10118" lon="3.49681">
        <ele>418.09</ele>
        <time>2020-07-12T16:21:07Z</time>
      </trkpt>
      <trkpt lat="46.10136" lon="3.49689">
        <ele>418.19</ele>
        <time>2020-07-12T16:21:10Z</time>
      </trkpt>
      <trkpt lat="46.10154" lon="3.49696">
        <ele>418.37</ele>
        <time>2020-07-12T16:21:13Z</time>
      </trkpt>
      <trkpt lat="46.10173" lon="3.49695">
        <ele>418.43</ele>
        <time>2020-07-12T16:21:16Z</time>
      </trkpt>
      <trkpt lat="46.10187" lon="3.49679">
        <ele>418.01</ele>
        <time>2020-07-12T16:21:19Z</time>
      </trkpt>
      <trkpt lat="46.10196" lon="3.49653">
        <ele>417.44</ele>
        <time>2020-07-12T16:21:24Z</time>
      </trkpt>
      <trkpt lat="46.10208" lon="3.49631">
        <ele>416.54</ele>
        <time>2020-07-12T16:21:28Z</time>
      </trkpt>
      <trkpt lat="46.10219" lon="3.49602">
        <ele>415.05</ele>
        <time>2020-07-12T16:21:32Z</time>
      </trkpt>
      <trkpt lat="46.10221" lon="3.49575">
        <ele>414.3</ele>
        <time>2020-07-12T16:21:35Z</time>
      </trkpt>
      <trkpt lat="46.10217" lon="3.49548">
        <ele>413.69</ele>
        <time>2020-07-12T16:21:38Z</time>
      </trkpt>
      <trkpt lat="46.10206" lon="3.49528">
        <ele>413.24</ele>
        <time>2020-07-12T16:21:41Z</time>
      </trkpt>
      <trkpt lat="46.1019" lon="3.49501">
        <ele>412.48</ele>
        <time>2020-07-12T16:21:45Z</time>
      </trkpt>
      <trkpt lat="46.10174" lon="3.4948">
        <ele>412.37</ele>
        <time>2020-07-12T16:21:48Z</time>
      </trkpt>
      <trkpt lat="46.10196" lon="3.49463">
        <ele>412.9</ele>
        <time>2020-07-12T16:21:54Z</time>
      </trkpt>
      <trkpt lat="46.10217" lon="3.49457">
        <ele>413.91</ele>
        <time>2020-07-12T16:21:58Z</time>
      </trkpt>
      <trkpt lat="46.1024" lon="3.49454">
        <ele>415.86</ele>
        <time>2020-07-12T16:22:02Z</time>
      </trkpt>
      <trkpt lat="46.1026" lon="3.49452">
        <ele>417.29</ele>
        <time>2020-07-12T16:22:06Z</time>
      </trkpt>
      <trkpt lat="46.10278" lon="3.49437">
        <ele>418.2</ele>
        <time>2020-07-12T16:22:10Z</time>
      </trkpt>
      <trkpt lat="46.10284" lon="3.4941">
        <ele>417.42</ele>
        <time>2020-07-12T16:22:13Z</time>
      </trkpt>
      <trkpt lat="46.10286" lon="3.49376">
        <ele>416.12</ele>
        <time>2020-07-12T16:22:17Z</time>
      </trkpt>
      <trkpt lat="46.10288" lon="3.49342">
        <ele>415.38</ele>
        <time>2020-07-12T16:22:20Z</time>
      </trkpt>
      <trkpt lat="46.1029" lon="3.49316">
        <ele>414.84</ele>
        <time>2020-07-12T16:22:22Z</time>
      </trkpt>
      <trkpt lat="46.10294" lon="3.49289">
        <ele>414.3</ele>
        <time>2020-07-12T16:22:24Z</time>
      </trkpt>
      <trkpt lat="46.10294" lon="3.49262">
        <ele>413.66</ele>
        <time>2020-07-12T16:22:26Z</time>
      </trkpt>
      <trkpt lat="46.10285" lon="3.49231">
        <ele>412.74</ele>
        <time>2020-07-12T16:22:29Z</time>
      </trkpt>
      <trkpt lat="46.10273" lon="3.49204">
        <ele>412.13</ele>
        <time>2020-07-12T16:22:32Z</time>
      </trkpt>
      <trkpt lat="46.10256" lon="3.49178">
        <ele>411.75</ele>
        <time>2020-07-12T16:22:35Z</time>
      </trkpt>
      <trkpt lat="46.10242" lon="3.49157">
        <ele>411.29</ele>
        <time>2020-07-12T16:22:38Z</time>
      </trkpt>
      <trkpt lat="46.10228" lon="3.49134">
        <ele>410.95</ele>
        <time>2020-07-12T16:22:42Z</time>
      </trkpt>
      <trkpt lat="46.10218" lon="3.49111">
        <ele>411.12</ele>
        <time>2020-07-12T16:22:46Z</time>
      </trkpt>
      <trkpt lat="46.10228" lon="3.49083">
        <ele>410.57</ele>
        <time>2020-07-12T16:22:50Z</time>
      </trkpt>
      <trkpt lat="46.10249" lon="3.49078">
        <ele>409.02</ele>
        <time>2020-07-12T16:22:54Z</time>
      </trkpt>
      <trkpt lat="46.10267" lon="3.49068">
        <ele>408.18</ele>
        <time>2020-07-12T16:22:57Z</time>
      </trkpt>
      <trkpt lat="46.10286" lon="3.49067">
        <ele>407.67</ele>
        <time>2020-07-12T16:23:00Z</time>
      </trkpt>
      <trkpt lat="46.10308" lon="3.4907">
        <ele>407.38</ele>
        <time>2020-07-12T16:23:03Z</time>
      </trkpt>
      <trkpt lat="46.10327" lon="3.4907">
        <ele>407.19</ele>
        <time>2020-07-12T16:23:06Z</time>
      </trkpt>
      <trkpt lat="46.10346" lon="3.49061">
        <ele>406.95</ele>
        <time>2020-07-12T16:23:09Z</time>
      </trkpt>
      <trkpt lat="46.10367" lon="3.49039">
        <ele>405.95</ele>
        <time>2020-07-12T16:23:12Z</time>
      </trkpt>
      <trkpt lat="46.1038" lon="3.49012">
        <ele>404.06</ele>
        <time>2020-07-12T16:23:15Z</time>
      </trkpt>
      <trkpt lat="46.10388" lon="3.48983">
        <ele>402.29</ele>
        <time>2020-07-12T16:23:18Z</time>
      </trkpt>
      <trkpt lat="46.10397" lon="3.48958">
        <ele>401.27</ele>
        <time>2020-07-12T16:23:20Z</time>
      </trkpt>
      <trkpt lat="46.10406" lon="3.48934">
        <ele>400.34</ele>
        <time>2020-07-12T16:23:22Z</time>
      </trkpt>
      <trkpt lat="46.10419" lon="3.48902">
        <ele>399.38</ele>
        <time>2020-07-12T16:23:25Z</time>
      </trkpt>
      <trkpt lat="46.10429" lon="3.48878">
        <ele>398.71</ele>
        <time>2020-07-12T16:23:27Z</time>
      </trkpt>
      <trkpt lat="46.10438" lon="3.48854">
        <ele>397.96</ele>
        <time>2020-07-12T16:23:29Z</time>
      </trkpt>
      <trkpt lat="46.10449" lon="3.4882">
        <ele>396.9</ele>
        <time>2020-07-12T16:23:32Z</time>
      </trkpt>
      <trkpt lat="46.10459" lon="3.48787">
        <ele>396.05</ele>
        <time>2020-07-12T16:23:35Z</time>
      </trkpt>
      <trkpt lat="46.10472" lon="3.48756">
        <ele>395.34</ele>
        <time>2020-07-12T16:23:38Z</time>
      </trkpt>
      <trkpt lat="46.10485" lon="3.4872">
        <ele>394.69</ele>
        <time>2020-07-12T16:23:41Z</time>
      </trkpt>
      <trkpt lat="46.10488" lon="3.48693">
        <ele>393.85</ele>
        <time>2020-07-12T16:23:43Z</time>
      </trkpt>
      <trkpt lat="46.10477" lon="3.48659">
        <ele>392.42</ele>
        <time>2020-07-12T16:23:46Z</time>
      </trkpt>
      <trkpt lat="46.1046" lon="3.48646">
        <ele>391.41</ele>
        <time>2020-07-12T16:23:48Z</time>
      </trkpt>
      <trkpt lat="46.10436" lon="3.4864">
        <ele>390.08</ele>
        <time>2020-07-12T16:23:51Z</time>
      </trkpt>
      <trkpt lat="46.1041" lon="3.48652">
        <ele>389.15</ele>
        <time>2020-07-12T16:23:54Z</time>
      </trkpt>
      <trkpt lat="46.10393" lon="3.48663">
        <ele>388.46</ele>
        <time>2020-07-12T16:23:56Z</time>
      </trkpt>
      <trkpt lat="46.10377" lon="3.48644">
        <ele>386.53</ele>
        <time>2020-07-12T16:24:00Z</time>
      </trkpt>
      <trkpt lat="46.10379" lon="3.48616">
        <ele>384.95</ele>
        <time>2020-07-12T16:24:03Z</time>
      </trkpt>
      <trkpt lat="46.10375" lon="3.48579">
        <ele>383.47</ele>
        <time>2020-07-12T16:24:06Z</time>
      </trkpt>
      <trkpt lat="46.10356" lon="3.48555">
        <ele>382.12</ele>
        <time>2020-07-12T16:24:09Z</time>
      </trkpt>
      <trkpt lat="46.10337" lon="3.48532">
        <ele>381.1</ele>
        <time>2020-07-12T16:24:12Z</time>
      </trkpt>
      <trkpt lat="46.10325" lon="3.48508">
        <ele>380.51</ele>
        <time>2020-07-12T16:24:14Z</time>
      </trkpt>
      <trkpt lat="46.10307" lon="3.4848">
        <ele>379.54</ele>
        <time>2020-07-12T16:24:17Z</time>
      </trkpt>
      <trkpt lat="46.10294" lon="3.48459">
        <ele>378.83</ele>
        <time>2020-07-12T16:24:19Z</time>
      </trkpt>
      <trkpt lat="46.10281" lon="3.4844">
        <ele>378.28</ele>
        <time>2020-07-12T16:24:21Z</time>
      </trkpt>
      <trkpt lat="46.10266" lon="3.48422">
        <ele>377.79</ele>
        <time>2020-07-12T16:24:23Z</time>
      </trkpt>
      <trkpt lat="46.10251" lon="3.48399">
        <ele>377.28</ele>
        <time>2020-07-12T16:24:25Z</time>
      </trkpt>
      <trkpt lat="46.10238" lon="3.48374">
        <ele>376.65</ele>
        <time>2020-07-12T16:24:27Z</time>
      </trkpt>
      <trkpt lat="46.10225" lon="3.48355">
        <ele>375.95</ele>
        <time>2020-07-12T16:24:29Z</time>
      </trkpt>
      <trkpt lat="46.1021" lon="3.48333">
        <ele>375.07</ele>
        <time>2020-07-12T16:24:32Z</time>
      </trkpt>
      <trkpt lat="46.10193" lon="3.48315">
        <ele>374.5</ele>
        <time>2020-07-12T16:24:36Z</time>
      </trkpt>
      <trkpt lat="46.10174" lon="3.48303">
        <ele>374.06</ele>
        <time>2020-07-12T16:24:40Z</time>
      </trkpt>
      <trkpt lat="46.10155" lon="3.48296">
        <ele>373.96</ele>
        <time>2020-07-12T16:24:44Z</time>
      </trkpt>
      <trkpt lat="46.10137" lon="3.48284">
        <ele>373.9</ele>
        <time>2020-07-12T16:24:49Z</time>
      </trkpt>
      <trkpt lat="46.10122" lon="3.48267">
        <ele>373.97</ele>
        <time>2020-07-12T16:24:56Z</time>
      </trkpt>
      <trkpt lat="46.10106" lon="3.4825">
        <ele>374.23</ele>
        <time>2020-07-12T16:25:05Z</time>
      </trkpt>
      <trkpt lat="46.10095" lon="3.48226">
        <ele>374.58</ele>
        <time>2020-07-12T16:25:17Z</time>
      </trkpt>
      <trkpt lat="46.10091" lon="3.48199">
        <ele>374.73</ele>
        <time>2020-07-12T16:25:26Z</time>
      </trkpt>
      <trkpt lat="46.10089" lon="3.48173">
        <ele>374.78</ele>
        <time>2020-07-12T16:25:39Z</time>
      </trkpt>
      <trkpt lat="46.10082" lon="3.48149">
        <ele>374.86</ele>
        <time>2020-07-12T16:25:52Z</time>
      </trkpt>
      <trkpt lat="46.10077" lon="3.48124">
        <ele>374.91</ele>
        <time>2020-07-12T16:26:03Z</time>
      </trkpt>
      <trkpt lat="46.1007" lon="3.481">
        <ele>374.81</ele>
        <time>2020-07-12T16:26:18Z</time>
      </trkpt>
      <trkpt lat="46.10057" lon="3.48079">
        <ele>374.76</ele>
        <time>2020-07-12T16:26:30Z</time>
      </trkpt>
      <trkpt lat="46.10047" lon="3.48056">
        <ele>374.83</ele>
        <time>2020-07-12T16:26:43Z</time>
      </trkpt>
      <trkpt lat="46.10037" lon="3.48033">
        <ele>374.89</ele>
        <time>2020-07-12T16:26:56Z</time>
      </trkpt>
      <trkpt lat="46.1003" lon="3.48008">
        <ele>375.02</ele>
        <time>2020-07-12T16:27:07Z</time>
      </trkpt>
      <trkpt lat="46.10025" lon="3.47982">
        <ele>375.23</ele>
        <time>2020-07-12T16:27:18Z</time>
      </trkpt>
      <trkpt lat="46.10022" lon="3.47955">
        <ele>375.5</ele>
        <time>2020-07-12T16:27:32Z</time>
      </trkpt>
      <trkpt lat="46.1002" lon="3.47927">
        <ele>375.79</ele>
        <time>2020-07-12T16:27:47Z</time>
      </trkpt>
      <trkpt lat="46.10018" lon="3.479">
        <ele>375.93</ele>
        <time>2020-07-12T16:27:54Z</time>
      </trkpt>
      <trkpt lat="46.10011" lon="3.47872">
        <ele>376.13</ele>
        <time>2020-07-12T16:28:04Z</time>
      </trkpt>
      <trkpt lat="46.10003" lon="3.47847">
        <ele>376.28</ele>
        <time>2020-07-12T16:28:13Z</time>
      </trkpt>
      <trkpt lat="46.09994" lon="3.47823">
        <ele>376.47</ele>
        <time>2020-07-12T16:28:25Z</time>
      </trkpt>
      <trkpt lat="46.09988" lon="3.47796">
        <ele>376.75</ele>
        <time>2020-07-12T16:28:37Z</time>
      </trkpt>
      <trkpt lat="46.09981" lon="3.47769">
        <ele>377.03</ele>
        <time>2020-07-12T16:28:46Z</time>
      </trkpt>
      <trkpt lat="46.09976" lon="3.47743">
        <ele>377.39</ele>
        <time>2020-07-12T16:28:56Z</time>
      </trkpt>
      <trkpt lat="46.09973" lon="3.47716">
        <ele>377.65</ele>
        <time>2020-07-12T16:29:03Z</time>
      </trkpt>
      <trkpt lat="46.09964" lon="3.47694">
        <ele>377.96</ele>
        <time>2020-07-12T16:29:11Z</time>
      </trkpt>
      <trkpt lat="46.09956" lon="3.47668">
        <ele>378.31</ele>
        <time>2020-07-12T16:29:20Z</time>
      </trkpt>
      <trkpt lat="46.09948" lon="3.47643">
        <ele>378.65</ele>
        <time>2020-07-12T16:29:28Z</time>
      </trkpt>
      <trkpt lat="46.0994" lon="3.47616">
        <ele>379.08</ele>
        <time>2020-07-12T16:29:37Z</time>
      </trkpt>
      <trkpt lat="46.09949" lon="3.47593">
        <ele>379.69</ele>
        <time>2020-07-12T16:29:49Z</time>
      </trkpt>
      <trkpt lat="46.09967" lon="3.47592">
        <ele>380.18</ele>
        <time>2020-07-12T16:29:58Z</time>
      </trkpt>
      <trkpt lat="46.09988" lon="3.47592">
        <ele>380.8</ele>
        <time>2020-07-12T16:30:07Z</time>
      </trkpt>
      <trkpt lat="46.10007" lon="3.47593">
        <ele>381.31</ele>
        <time>2020-07-12T16:30:13Z</time>
      </trkpt>
      <trkpt lat="46.10026" lon="3.47592">
        <ele>381.89</ele>
        <time>2020-07-12T16:30:19Z</time>
      </trkpt>
      <trkpt lat="46.10043" lon="3.47584">
        <ele>382.39</ele>
        <time>2020-07-12T16:30:24Z</time>
      </trkpt>
      <trkpt lat="46.1006" lon="3.47572">
        <ele>382.88</ele>
        <time>2020-07-12T16:30:29Z</time>
      </trkpt>
      <trkpt lat="46.10077" lon="3.47559">
        <ele>383.44</ele>
        <time>2020-07-12T16:30:35Z</time>
      </trkpt>
      <trkpt lat="46.10095" lon="3.47547">
        <ele>383.99</ele>
        <time>2020-07-12T16:30:41Z</time>
      </trkpt>
      <trkpt lat="46.10114" lon="3.47532">
        <ele>385.61</ele>
        <time>2020-07-12T16:30:47Z</time>
      </trkpt>
      <trkpt lat="46.1012" lon="3.47506">
        <ele>386.62</ele>
        <time>2020-07-12T16:30:52Z</time>
      </trkpt>
      <trkpt lat="46.10121" lon="3.47476">
        <ele>387</ele>
        <time>2020-07-12T16:30:59Z</time>
      </trkpt>
      <trkpt lat="46.10122" lon="3.4745">
        <ele>387.38</ele>
        <time>2020-07-12T16:31:05Z</time>
      </trkpt>
      <trkpt lat="46.10124" lon="3.4742">
        <ele>387.92</ele>
        <time>2020-07-12T16:31:12Z</time>
      </trkpt>
      <trkpt lat="46.10134" lon="3.47398">
        <ele>389.07</ele>
        <time>2020-07-12T16:31:17Z</time>
      </trkpt>
      <trkpt lat="46.10144" lon="3.47372">
        <ele>391.47</ele>
        <time>2020-07-12T16:31:22Z</time>
      </trkpt>
      <trkpt lat="46.10156" lon="3.47345">
        <ele>393.19</ele>
        <time>2020-07-12T16:31:27Z</time>
      </trkpt>
      <trkpt lat="46.10166" lon="3.4732">
        <ele>393.82</ele>
        <time>2020-07-12T16:31:32Z</time>
      </trkpt>
      <trkpt lat="46.10175" lon="3.47298">
        <ele>394.7</ele>
        <time>2020-07-12T16:31:36Z</time>
      </trkpt>
      <trkpt lat="46.10184" lon="3.47275">
        <ele>395.24</ele>
        <time>2020-07-12T16:31:40Z</time>
      </trkpt>
      <trkpt lat="46.10197" lon="3.47249">
        <ele>395.56</ele>
        <time>2020-07-12T16:31:45Z</time>
      </trkpt>
      <trkpt lat="46.10208" lon="3.47226">
        <ele>395.78</ele>
        <time>2020-07-12T16:31:50Z</time>
      </trkpt>
      <trkpt lat="46.1022" lon="3.47207">
        <ele>395.96</ele>
        <time>2020-07-12T16:31:55Z</time>
      </trkpt>
      <trkpt lat="46.10232" lon="3.47185">
        <ele>396.4</ele>
        <time>2020-07-12T16:31:59Z</time>
      </trkpt>
      <trkpt lat="46.10244" lon="3.4716">
        <ele>396.63</ele>
        <time>2020-07-12T16:32:03Z</time>
      </trkpt>
      <trkpt lat="46.10258" lon="3.47137">
        <ele>396.77</ele>
        <time>2020-07-12T16:32:07Z</time>
      </trkpt>
      <trkpt lat="46.10273" lon="3.47115">
        <ele>396.95</ele>
        <time>2020-07-12T16:32:11Z</time>
      </trkpt>
      <trkpt lat="46.1029" lon="3.47103">
        <ele>397.12</ele>
        <time>2020-07-12T16:32:15Z</time>
      </trkpt>
      <trkpt lat="46.10309" lon="3.47094">
        <ele>397.27</ele>
        <time>2020-07-12T16:32:19Z</time>
      </trkpt>
      <trkpt lat="46.10326" lon="3.47087">
        <ele>397.39</ele>
        <time>2020-07-12T16:32:23Z</time>
      </trkpt>
      <trkpt lat="46.10333" lon="3.47062">
        <ele>397.63</ele>
        <time>2020-07-12T16:33:05Z</time>
      </trkpt>
      <trkpt lat="46.10323" lon="3.47039">
        <ele>397.66</ele>
        <time>2020-07-12T16:33:16Z</time>
      </trkpt>
      <trkpt lat="46.10315" lon="3.47015">
        <ele>397.66</ele>
        <time>2020-07-12T16:33:29Z</time>
      </trkpt>
      <trkpt lat="46.10308" lon="3.4699">
        <ele>397.66</ele>
        <time>2020-07-12T16:33:41Z</time>
      </trkpt>
      <trkpt lat="46.103" lon="3.46966">
        <ele>397.67</ele>
        <time>2020-07-12T16:33:53Z</time>
      </trkpt>
      <trkpt lat="46.10307" lon="3.46942">
        <ele>397.72</ele>
        <time>2020-07-12T16:34:07Z</time>
      </trkpt>
      <trkpt lat="46.10325" lon="3.46936">
        <ele>397.83</ele>
        <time>2020-07-12T16:34:16Z</time>
      </trkpt>
      <trkpt lat="46.10344" lon="3.4693">
        <ele>397.92</ele>
        <time>2020-07-12T16:34:23Z</time>
      </trkpt>
      <trkpt lat="46.10362" lon="3.46926">
        <ele>398</ele>
        <time>2020-07-12T16:34:28Z</time>
      </trkpt>
      <trkpt lat="46.10381" lon="3.46917">
        <ele>398.09</ele>
        <time>2020-07-12T16:34:34Z</time>
      </trkpt>
      <trkpt lat="46.10401" lon="3.4691">
        <ele>398.22</ele>
        <time>2020-07-12T16:34:41Z</time>
      </trkpt>
      <trkpt lat="46.1042" lon="3.46899">
        <ele>398.35</ele>
        <time>2020-07-12T16:34:48Z</time>
      </trkpt>
      <trkpt lat="46.10437" lon="3.4689">
        <ele>398.48</ele>
        <time>2020-07-12T16:34:54Z</time>
      </trkpt>
      <trkpt lat="46.10455" lon="3.46878">
        <ele>398.61</ele>
        <time>2020-07-12T16:35:01Z</time>
      </trkpt>
      <trkpt lat="46.10475" lon="3.46874">
        <ele>398.78</ele>
        <time>2020-07-12T16:35:08Z</time>
      </trkpt>
      <trkpt lat="46.10494" lon="3.46869">
        <ele>399.24</ele>
        <time>2020-07-12T16:35:13Z</time>
      </trkpt>
      <trkpt lat="46.10515" lon="3.46864">
        <ele>399.82</ele>
        <time>2020-07-12T16:35:18Z</time>
      </trkpt>
      <trkpt lat="46.10534" lon="3.46856">
        <ele>400.1</ele>
        <time>2020-07-12T16:35:22Z</time>
      </trkpt>
      <trkpt lat="46.10553" lon="3.46847">
        <ele>400.22</ele>
        <time>2020-07-12T16:35:25Z</time>
      </trkpt>
      <trkpt lat="46.1057" lon="3.46839">
        <ele>400.28</ele>
        <time>2020-07-12T16:35:30Z</time>
      </trkpt>
      <trkpt lat="46.10586" lon="3.46825">
        <ele>400.37</ele>
        <time>2020-07-12T16:35:35Z</time>
      </trkpt>
      <trkpt lat="46.10603" lon="3.46811">
        <ele>400.46</ele>
        <time>2020-07-12T16:35:40Z</time>
      </trkpt>
      <trkpt lat="46.10624" lon="3.46805">
        <ele>400.51</ele>
        <time>2020-07-12T16:35:46Z</time>
      </trkpt>
      <trkpt lat="46.10645" lon="3.46799">
        <ele>400.6</ele>
        <time>2020-07-12T16:35:51Z</time>
      </trkpt>
      <trkpt lat="46.10665" lon="3.46794">
        <ele>400.72</ele>
        <time>2020-07-12T16:35:55Z</time>
      </trkpt>
      <trkpt lat="46.10683" lon="3.46787">
        <ele>400.8</ele>
        <time>2020-07-12T16:35:59Z</time>
      </trkpt>
      <trkpt lat="46.107" lon="3.46767">
        <ele>400.86</ele>
        <time>2020-07-12T16:36:04Z</time>
      </trkpt>
      <trkpt lat="46.10713" lon="3.46745">
        <ele>400.91</ele>
        <time>2020-07-12T16:36:09Z</time>
      </trkpt>
      <trkpt lat="46.10724" lon="3.46723">
        <ele>400.96</ele>
        <time>2020-07-12T16:36:14Z</time>
      </trkpt>
      <trkpt lat="46.10734" lon="3.46701">
        <ele>400.98</ele>
        <time>2020-07-12T16:36:19Z</time>
      </trkpt>
      <trkpt lat="46.10746" lon="3.46676">
        <ele>401.02</ele>
        <time>2020-07-12T16:36:25Z</time>
      </trkpt>
      <trkpt lat="46.10758" lon="3.46653">
        <ele>401.09</ele>
        <time>2020-07-12T16:36:31Z</time>
      </trkpt>
      <trkpt lat="46.10769" lon="3.46632">
        <ele>401.17</ele>
        <time>2020-07-12T16:36:36Z</time>
      </trkpt>
      <trkpt lat="46.1078" lon="3.46606">
        <ele>401.3</ele>
        <time>2020-07-12T16:36:42Z</time>
      </trkpt>
      <trkpt lat="46.1078" lon="3.4658">
        <ele>401.42</ele>
        <time>2020-07-12T16:36:47Z</time>
      </trkpt>
      <trkpt lat="46.10775" lon="3.46554">
        <ele>401.55</ele>
        <time>2020-07-12T16:36:52Z</time>
      </trkpt>
      <trkpt lat="46.10771" lon="3.46529">
        <ele>401.67</ele>
        <time>2020-07-12T16:36:57Z</time>
      </trkpt>
      <trkpt lat="46.10782" lon="3.46507">
        <ele>402.14</ele>
        <time>2020-07-12T16:37:05Z</time>
      </trkpt>
      <trkpt lat="46.10801" lon="3.465">
        <ele>403.12</ele>
        <time>2020-07-12T16:37:09Z</time>
      </trkpt>
      <trkpt lat="46.10824" lon="3.46496">
        <ele>403.68</ele>
        <time>2020-07-12T16:37:13Z</time>
      </trkpt>
      <trkpt lat="46.10845" lon="3.46492">
        <ele>404.08</ele>
        <time>2020-07-12T16:37:18Z</time>
      </trkpt>
      <trkpt lat="46.10865" lon="3.46491">
        <ele>404.36</ele>
        <time>2020-07-12T16:37:23Z</time>
      </trkpt>
      <trkpt lat="46.10886" lon="3.46485">
        <ele>404.61</ele>
        <time>2020-07-12T16:37:28Z</time>
      </trkpt>
      <trkpt lat="46.10908" lon="3.46478">
        <ele>404.79</ele>
        <time>2020-07-12T16:37:32Z</time>
      </trkpt>
      <trkpt lat="46.10931" lon="3.4647">
        <ele>404.98</ele>
        <time>2020-07-12T16:37:35Z</time>
      </trkpt>
      <trkpt lat="46.10955" lon="3.46465">
        <ele>405.13</ele>
        <time>2020-07-12T16:37:38Z</time>
      </trkpt>
      <trkpt lat="46.10977" lon="3.46464">
        <ele>405.22</ele>
        <time>2020-07-12T16:37:41Z</time>
      </trkpt>
      <trkpt lat="46.10999" lon="3.4646">
        <ele>405.18</ele>
        <time>2020-07-12T16:37:44Z</time>
      </trkpt>
      <trkpt lat="46.11019" lon="3.46458">
        <ele>405.54</ele>
        <time>2020-07-12T16:37:47Z</time>
      </trkpt>
      <trkpt lat="46.1104" lon="3.46456">
        <ele>406.01</ele>
        <time>2020-07-12T16:37:51Z</time>
      </trkpt>
      <trkpt lat="46.11058" lon="3.46457">
        <ele>406.72</ele>
        <time>2020-07-12T16:37:55Z</time>
      </trkpt>
      <trkpt lat="46.11076" lon="3.4646">
        <ele>407.06</ele>
        <time>2020-07-12T16:37:59Z</time>
      </trkpt>
      <trkpt lat="46.11096" lon="3.46466">
        <ele>407.48</ele>
        <time>2020-07-12T16:38:04Z</time>
      </trkpt>
      <trkpt lat="46.11119" lon="3.4647">
        <ele>408.06</ele>
        <time>2020-07-12T16:38:09Z</time>
      </trkpt>
      <trkpt lat="46.11137" lon="3.46474">
        <ele>408.55</ele>
        <time>2020-07-12T16:38:13Z</time>
      </trkpt>
      <trkpt lat="46.11159" lon="3.46477">
        <ele>408.46</ele>
        <time>2020-07-12T16:38:17Z</time>
      </trkpt>
      <trkpt lat="46.1118" lon="3.46478">
        <ele>408.18</ele>
        <time>2020-07-12T16:38:21Z</time>
      </trkpt>
      <trkpt lat="46.11203" lon="3.46478">
        <ele>407.91</ele>
        <time>2020-07-12T16:38:26Z</time>
      </trkpt>
      <trkpt lat="46.11223" lon="3.46475">
        <ele>407.93</ele>
        <time>2020-07-12T16:38:30Z</time>
      </trkpt>
      <trkpt lat="46.11243" lon="3.46472">
        <ele>407.96</ele>
        <time>2020-07-12T16:38:35Z</time>
      </trkpt>
      <trkpt lat="46.11262" lon="3.46473">
        <ele>408.34</ele>
        <time>2020-07-12T16:38:40Z</time>
      </trkpt>
      <trkpt lat="46.1128" lon="3.46474">
        <ele>408.85</ele>
        <time>2020-07-12T16:38:44Z</time>
      </trkpt>
      <trkpt lat="46.11298" lon="3.46472">
        <ele>409.3</ele>
        <time>2020-07-12T16:38:48Z</time>
      </trkpt>
      <trkpt lat="46.1132" lon="3.46472">
        <ele>409.77</ele>
        <time>2020-07-12T16:38:53Z</time>
      </trkpt>
      <trkpt lat="46.11338" lon="3.46475">
        <ele>409.94</ele>
        <time>2020-07-12T16:38:58Z</time>
      </trkpt>
      <trkpt lat="46.11356" lon="3.46475">
        <ele>410</ele>
        <time>2020-07-12T16:39:03Z</time>
      </trkpt>
      <trkpt lat="46.11375" lon="3.4648">
        <ele>410.09</ele>
        <time>2020-07-12T16:39:09Z</time>
      </trkpt>
      <trkpt lat="46.11393" lon="3.46494">
        <ele>410.24</ele>
        <time>2020-07-12T16:39:15Z</time>
      </trkpt>
      <trkpt lat="46.11412" lon="3.46515">
        <ele>410.22</ele>
        <time>2020-07-12T16:39:18Z</time>
      </trkpt>
      <trkpt lat="46.11437" lon="3.46521">
        <ele>409.8</ele>
        <time>2020-07-12T16:39:21Z</time>
      </trkpt>
      <trkpt lat="46.11457" lon="3.46514">
        <ele>409.15</ele>
        <time>2020-07-12T16:39:24Z</time>
      </trkpt>
      <trkpt lat="46.11475" lon="3.46507">
        <ele>408.52</ele>
        <time>2020-07-12T16:39:27Z</time>
      </trkpt>
      <trkpt lat="46.11497" lon="3.46493">
        <ele>407.79</ele>
        <time>2020-07-12T16:39:31Z</time>
      </trkpt>
      <trkpt lat="46.1151" lon="3.46472">
        <ele>406.85</ele>
        <time>2020-07-12T16:39:34Z</time>
      </trkpt>
      <trkpt lat="46.11524" lon="3.46455">
        <ele>405.79</ele>
        <time>2020-07-12T16:39:37Z</time>
      </trkpt>
      <trkpt lat="46.11537" lon="3.46437">
        <ele>404.49</ele>
        <time>2020-07-12T16:39:40Z</time>
      </trkpt>
      <trkpt lat="46.11552" lon="3.46418">
        <ele>403.09</ele>
        <time>2020-07-12T16:39:43Z</time>
      </trkpt>
      <trkpt lat="46.11569" lon="3.46401">
        <ele>401.81</ele>
        <time>2020-07-12T16:39:46Z</time>
      </trkpt>
      <trkpt lat="46.11585" lon="3.46385">
        <ele>400.78</ele>
        <time>2020-07-12T16:39:49Z</time>
      </trkpt>
      <trkpt lat="46.11601" lon="3.46372">
        <ele>399.94</ele>
        <time>2020-07-12T16:39:52Z</time>
      </trkpt>
      <trkpt lat="46.11621" lon="3.46356">
        <ele>399.09</ele>
        <time>2020-07-12T16:39:56Z</time>
      </trkpt>
      <trkpt lat="46.11644" lon="3.46349">
        <ele>398.07</ele>
        <time>2020-07-12T16:40:00Z</time>
      </trkpt>
      <trkpt lat="46.11665" lon="3.4635">
        <ele>397.35</ele>
        <time>2020-07-12T16:40:03Z</time>
      </trkpt>
      <trkpt lat="46.11688" lon="3.46348">
        <ele>396.3</ele>
        <time>2020-07-12T16:40:06Z</time>
      </trkpt>
      <trkpt lat="46.11712" lon="3.46343">
        <ele>395.17</ele>
        <time>2020-07-12T16:40:09Z</time>
      </trkpt>
      <trkpt lat="46.11733" lon="3.46344">
        <ele>394</ele>
        <time>2020-07-12T16:40:12Z</time>
      </trkpt>
      <trkpt lat="46.11752" lon="3.46343">
        <ele>392.8</ele>
        <time>2020-07-12T16:40:20Z</time>
      </trkpt>
      <trkpt lat="46.11773" lon="3.46331">
        <ele>390.72</ele>
        <time>2020-07-12T16:40:24Z</time>
      </trkpt>
      <trkpt lat="46.11795" lon="3.46321">
        <ele>389.27</ele>
        <time>2020-07-12T16:40:28Z</time>
      </trkpt>
      <trkpt lat="46.11817" lon="3.4631">
        <ele>388.49</ele>
        <time>2020-07-12T16:40:32Z</time>
      </trkpt>
      <trkpt lat="46.1184" lon="3.46299">
        <ele>387.52</ele>
        <time>2020-07-12T16:40:36Z</time>
      </trkpt>
      <trkpt lat="46.11858" lon="3.46291">
        <ele>386.56</ele>
        <time>2020-07-12T16:40:39Z</time>
      </trkpt>
      <trkpt lat="46.11876" lon="3.46281">
        <ele>385.22</ele>
        <time>2020-07-12T16:40:42Z</time>
      </trkpt>
      <trkpt lat="46.11897" lon="3.46271">
        <ele>383.69</ele>
        <time>2020-07-12T16:40:45Z</time>
      </trkpt>
      <trkpt lat="46.11917" lon="3.4626">
        <ele>382.44</ele>
        <time>2020-07-12T16:40:48Z</time>
      </trkpt>
      <trkpt lat="46.11937" lon="3.46249">
        <ele>381.2</ele>
        <time>2020-07-12T16:40:51Z</time>
      </trkpt>
      <trkpt lat="46.11954" lon="3.46239">
        <ele>379.87</ele>
        <time>2020-07-12T16:40:54Z</time>
      </trkpt>
      <trkpt lat="46.11974" lon="3.46227">
        <ele>377.61</ele>
        <time>2020-07-12T16:40:58Z</time>
      </trkpt>
      <trkpt lat="46.11993" lon="3.46223">
        <ele>376.47</ele>
        <time>2020-07-12T16:41:02Z</time>
      </trkpt>
      <trkpt lat="46.12016" lon="3.4622">
        <ele>375.45</ele>
        <time>2020-07-12T16:41:06Z</time>
      </trkpt>
      <trkpt lat="46.12035" lon="3.46217">
        <ele>374.65</ele>
        <time>2020-07-12T16:41:09Z</time>
      </trkpt>
      <trkpt lat="46.12056" lon="3.46214">
        <ele>373.85</ele>
        <time>2020-07-12T16:41:13Z</time>
      </trkpt>
      <trkpt lat="46.12079" lon="3.46214">
        <ele>373.21</ele>
        <time>2020-07-12T16:41:17Z</time>
      </trkpt>
      <trkpt lat="46.12102" lon="3.46213">
        <ele>372.63</ele>
        <time>2020-07-12T16:41:21Z</time>
      </trkpt>
      <trkpt lat="46.12124" lon="3.46212">
        <ele>372.04</ele>
        <time>2020-07-12T16:41:25Z</time>
      </trkpt>
      <trkpt lat="46.12144" lon="3.46214">
        <ele>371.66</ele>
        <time>2020-07-12T16:41:29Z</time>
      </trkpt>
      <trkpt lat="46.12159" lon="3.4623">
        <ele>371.1</ele>
        <time>2020-07-12T16:41:34Z</time>
      </trkpt>
      <trkpt lat="46.12158" lon="3.46259">
        <ele>370.37</ele>
        <time>2020-07-12T16:41:38Z</time>
      </trkpt>
      <trkpt lat="46.12176" lon="3.46266">
        <ele>369.53</ele>
        <time>2020-07-12T16:41:43Z</time>
      </trkpt>
      <trkpt lat="46.12194" lon="3.46266">
        <ele>369.16</ele>
        <time>2020-07-12T16:41:47Z</time>
      </trkpt>
      <trkpt lat="46.12213" lon="3.46265">
        <ele>368.84</ele>
        <time>2020-07-12T16:41:51Z</time>
      </trkpt>
      <trkpt lat="46.12234" lon="3.46265">
        <ele>368.68</ele>
        <time>2020-07-12T16:41:56Z</time>
      </trkpt>
      <trkpt lat="46.12256" lon="3.46265">
        <ele>368.59</ele>
        <time>2020-07-12T16:42:01Z</time>
      </trkpt>
      <trkpt lat="46.12273" lon="3.46276">
        <ele>368.44</ele>
        <time>2020-07-12T16:42:05Z</time>
      </trkpt>
      <trkpt lat="46.12291" lon="3.46291">
        <ele>368.21</ele>
        <time>2020-07-12T16:42:10Z</time>
      </trkpt>
      <trkpt lat="46.12306" lon="3.46305">
        <ele>367.91</ele>
        <time>2020-07-12T16:42:14Z</time>
      </trkpt>
      <trkpt lat="46.12324" lon="3.46319">
        <ele>367.19</ele>
        <time>2020-07-12T16:42:19Z</time>
      </trkpt>
      <trkpt lat="46.12344" lon="3.46328">
        <ele>366.66</ele>
        <time>2020-07-12T16:42:24Z</time>
      </trkpt>
      <trkpt lat="46.12363" lon="3.4633">
        <ele>366.25</ele>
        <time>2020-07-12T16:42:28Z</time>
      </trkpt>
      <trkpt lat="46.12381" lon="3.46331">
        <ele>366.02</ele>
        <time>2020-07-12T16:42:32Z</time>
      </trkpt>
      <trkpt lat="46.12404" lon="3.4633">
        <ele>365.68</ele>
        <time>2020-07-12T16:42:37Z</time>
      </trkpt>
      <trkpt lat="46.12425" lon="3.46326">
        <ele>365.45</ele>
        <time>2020-07-12T16:42:42Z</time>
      </trkpt>
      <trkpt lat="46.12444" lon="3.46325">
        <ele>365.24</ele>
        <time>2020-07-12T16:42:47Z</time>
      </trkpt>
      <trkpt lat="46.12463" lon="3.46311">
        <ele>364.86</ele>
        <time>2020-07-12T16:42:51Z</time>
      </trkpt>
      <trkpt lat="46.12481" lon="3.46301">
        <ele>364.69</ele>
        <time>2020-07-12T16:42:55Z</time>
      </trkpt>
      <trkpt lat="46.125" lon="3.46291">
        <ele>364.5</ele>
        <time>2020-07-12T16:42:59Z</time>
      </trkpt>
      <trkpt lat="46.12521" lon="3.46274">
        <ele>364.39</ele>
        <time>2020-07-12T16:43:03Z</time>
      </trkpt>
      <trkpt lat="46.12541" lon="3.46272">
        <ele>364.21</ele>
        <time>2020-07-12T16:43:06Z</time>
      </trkpt>
      <trkpt lat="46.12556" lon="3.46287">
        <ele>364.18</ele>
        <time>2020-07-12T16:43:09Z</time>
      </trkpt>
      <trkpt lat="46.12577" lon="3.46282">
        <ele>363.96</ele>
        <time>2020-07-12T16:43:14Z</time>
      </trkpt>
      <trkpt lat="46.12596" lon="3.46285">
        <ele>363.71</ele>
        <time>2020-07-12T16:43:20Z</time>
      </trkpt>
      <trkpt lat="46.12614" lon="3.46294">
        <ele>363.02</ele>
        <time>2020-07-12T16:43:27Z</time>
      </trkpt>
      <trkpt lat="46.12623" lon="3.46319">
        <ele>362.23</ele>
        <time>2020-07-12T16:43:33Z</time>
      </trkpt>
      <trkpt lat="46.12638" lon="3.46336">
        <ele>360</ele>
        <time>2020-07-12T16:43:39Z</time>
      </trkpt>
      <trkpt lat="46.12655" lon="3.46351">
        <ele>357.99</ele>
        <time>2020-07-12T16:43:44Z</time>
      </trkpt>
      <trkpt lat="46.12679" lon="3.46358">
        <ele>352.74</ele>
        <time>2020-07-12T16:43:47Z</time>
      </trkpt>
      <trkpt lat="46.12697" lon="3.46367">
        <ele>348.18</ele>
        <time>2020-07-12T16:43:49Z</time>
      </trkpt>
      <trkpt lat="46.12719" lon="3.46369">
        <ele>338.73</ele>
        <time>2020-07-12T16:43:52Z</time>
      </trkpt>
      <trkpt lat="46.12742" lon="3.46365">
        <ele>330.53</ele>
        <time>2020-07-12T16:43:55Z</time>
      </trkpt>
      <trkpt lat="46.1276" lon="3.46365">
        <ele>323.76</ele>
        <time>2020-07-12T16:43:58Z</time>
      </trkpt>
      <trkpt lat="46.12778" lon="3.46371">
        <ele>318.77</ele>
        <time>2020-07-12T16:44:04Z</time>
      </trkpt>
      <trkpt lat="46.12801" lon="3.46359">
        <ele>312.63</ele>
        <time>2020-07-12T16:44:08Z</time>
      </trkpt>
      <trkpt lat="46.1282" lon="3.46351">
        <ele>309.1</ele>
        <time>2020-07-12T16:44:11Z</time>
      </trkpt>
      <trkpt lat="46.12842" lon="3.46343">
        <ele>306.06</ele>
        <time>2020-07-12T16:44:14Z</time>
      </trkpt>
      <trkpt lat="46.12865" lon="3.46327">
        <ele>303.29</ele>
        <time>2020-07-12T16:44:17Z</time>
      </trkpt>
      <trkpt lat="46.12885" lon="3.46305">
        <ele>300.86</ele>
        <time>2020-07-12T16:44:20Z</time>
      </trkpt>
      <trkpt lat="46.12902" lon="3.46278">
        <ele>298.57</ele>
        <time>2020-07-12T16:44:23Z</time>
      </trkpt>
      <trkpt lat="46.12918" lon="3.4625">
        <ele>296.39</ele>
        <time>2020-07-12T16:44:26Z</time>
      </trkpt>
      <trkpt lat="46.12925" lon="3.46218">
        <ele>294.47</ele>
        <time>2020-07-12T16:44:29Z</time>
      </trkpt>
      <trkpt lat="46.12929" lon="3.46181">
        <ele>292.99</ele>
        <time>2020-07-12T16:44:32Z</time>
      </trkpt>
      <trkpt lat="46.12933" lon="3.46146">
        <ele>291.98</ele>
        <time>2020-07-12T16:44:35Z</time>
      </trkpt>
      <trkpt lat="46.12936" lon="3.46113">
        <ele>291.15</ele>
        <time>2020-07-12T16:44:38Z</time>
      </trkpt>
      <trkpt lat="46.1294" lon="3.46081">
        <ele>290.27</ele>
        <time>2020-07-12T16:44:41Z</time>
      </trkpt>
      <trkpt lat="46.12947" lon="3.46053">
        <ele>289.33</ele>
        <time>2020-07-12T16:44:44Z</time>
      </trkpt>
      <trkpt lat="46.12953" lon="3.46026">
        <ele>288.65</ele>
        <time>2020-07-12T16:44:47Z</time>
      </trkpt>
      <trkpt lat="46.12957" lon="3.46">
        <ele>288.08</ele>
        <time>2020-07-12T16:44:50Z</time>
      </trkpt>
      <trkpt lat="46.12977" lon="3.45992">
        <ele>287.78</ele>
        <time>2020-07-12T16:44:54Z</time>
      </trkpt>
      <trkpt lat="46.12994" lon="3.46001">
        <ele>287.67</ele>
        <time>2020-07-12T16:44:57Z</time>
      </trkpt>
      <trkpt lat="46.13017" lon="3.46013">
        <ele>287.21</ele>
        <time>2020-07-12T16:45:01Z</time>
      </trkpt>
      <trkpt lat="46.1304" lon="3.46019">
        <ele>287.01</ele>
        <time>2020-07-12T16:45:05Z</time>
      </trkpt>
      <trkpt lat="46.13062" lon="3.46031">
        <ele>286.32</ele>
        <time>2020-07-12T16:45:09Z</time>
      </trkpt>
      <trkpt lat="46.13081" lon="3.46042">
        <ele>286.86</ele>
        <time>2020-07-12T16:45:16Z</time>
      </trkpt>
      <trkpt lat="46.13087" lon="3.46017">
        <ele>287.56</ele>
        <time>2020-07-12T16:45:21Z</time>
      </trkpt>
      <trkpt lat="46.13095" lon="3.45991">
        <ele>287.95</ele>
        <time>2020-07-12T16:45:26Z</time>
      </trkpt>
      <trkpt lat="46.131" lon="3.45964">
        <ele>287.61</ele>
        <time>2020-07-12T16:45:31Z</time>
      </trkpt>
      <trkpt lat="46.13098" lon="3.45934">
        <ele>287.54</ele>
        <time>2020-07-12T16:45:36Z</time>
      </trkpt>
      <trkpt lat="46.13102" lon="3.45908">
        <ele>287.73</ele>
        <time>2020-07-12T16:45:40Z</time>
      </trkpt>
      <trkpt lat="46.13116" lon="3.45891">
        <ele>287.84</ele>
        <time>2020-07-12T16:45:48Z</time>
      </trkpt>
      <trkpt lat="46.13132" lon="3.45879">
        <ele>287.7</ele>
        <time>2020-07-12T16:45:55Z</time>
      </trkpt>
      <trkpt lat="46.13151" lon="3.45887">
        <ele>287.44</ele>
        <time>2020-07-12T16:46:00Z</time>
      </trkpt>
      <trkpt lat="46.13172" lon="3.45896">
        <ele>287.12</ele>
        <time>2020-07-12T16:46:06Z</time>
      </trkpt>
      <trkpt lat="46.13191" lon="3.45902">
        <ele>286.89</ele>
        <time>2020-07-12T16:46:11Z</time>
      </trkpt>
      <trkpt lat="46.13209" lon="3.45907">
        <ele>286.79</ele>
        <time>2020-07-12T16:46:15Z</time>
      </trkpt>
      <trkpt lat="46.13226" lon="3.45916">
        <ele>286.76</ele>
        <time>2020-07-12T16:46:21Z</time>
      </trkpt>
      <trkpt lat="46.13246" lon="3.45923">
        <ele>286.71</ele>
        <time>2020-07-12T16:46:26Z</time>
      </trkpt>
      <trkpt lat="46.13264" lon="3.45929">
        <ele>286.54</ele>
        <time>2020-07-12T16:46:31Z</time>
      </trkpt>
      <trkpt lat="46.13285" lon="3.45931">
        <ele>286.32</ele>
        <time>2020-07-12T16:46:36Z</time>
      </trkpt>
      <trkpt lat="46.13304" lon="3.45931">
        <ele>286.23</ele>
        <time>2020-07-12T16:46:42Z</time>
      </trkpt>
      <trkpt lat="46.13322" lon="3.45922">
        <ele>285.92</ele>
        <time>2020-07-12T16:46:48Z</time>
      </trkpt>
      <trkpt lat="46.13336" lon="3.459">
        <ele>285.26</ele>
        <time>2020-07-12T16:46:52Z</time>
      </trkpt>
      <trkpt lat="46.13349" lon="3.45883">
        <ele>284.66</ele>
        <time>2020-07-12T16:46:56Z</time>
      </trkpt>
      <trkpt lat="46.1336" lon="3.45861">
        <ele>284.19</ele>
        <time>2020-07-12T16:47:00Z</time>
      </trkpt>
      <trkpt lat="46.13373" lon="3.45835">
        <ele>283.8</ele>
        <time>2020-07-12T16:47:05Z</time>
      </trkpt>
      <trkpt lat="46.13384" lon="3.45814">
        <ele>283.59</ele>
        <time>2020-07-12T16:47:09Z</time>
      </trkpt>
      <trkpt lat="46.13397" lon="3.45789">
        <ele>283.31</ele>
        <time>2020-07-12T16:47:14Z</time>
      </trkpt>
      <trkpt lat="46.13408" lon="3.45765">
        <ele>282.98</ele>
        <time>2020-07-12T16:47:19Z</time>
      </trkpt>
      <trkpt lat="46.13424" lon="3.45745">
        <ele>282.74</ele>
        <time>2020-07-12T16:47:24Z</time>
      </trkpt>
      <trkpt lat="46.13442" lon="3.4574">
        <ele>282.65</ele>
        <time>2020-07-12T16:47:29Z</time>
      </trkpt>
      <trkpt lat="46.13456" lon="3.45719">
        <ele>282.6</ele>
        <time>2020-07-12T16:47:35Z</time>
      </trkpt>
      <trkpt lat="46.13458" lon="3.4569">
        <ele>282.39</ele>
        <time>2020-07-12T16:47:40Z</time>
      </trkpt>
      <trkpt lat="46.13467" lon="3.45666">
        <ele>282.27</ele>
        <time>2020-07-12T16:47:45Z</time>
      </trkpt>
      <trkpt lat="46.13478" lon="3.45638">
        <ele>281.96</ele>
        <time>2020-07-12T16:47:50Z</time>
      </trkpt>
      <trkpt lat="46.13489" lon="3.45614">
        <ele>281.74</ele>
        <time>2020-07-12T16:47:55Z</time>
      </trkpt>
      <trkpt lat="46.13505" lon="3.45598">
        <ele>281.7</ele>
        <time>2020-07-12T16:48:00Z</time>
      </trkpt>
      <trkpt lat="46.13523" lon="3.45588">
        <ele>281.71</ele>
        <time>2020-07-12T16:48:04Z</time>
      </trkpt>
      <trkpt lat="46.13541" lon="3.45577">
        <ele>281.68</ele>
        <time>2020-07-12T16:48:08Z</time>
      </trkpt>
      <trkpt lat="46.13562" lon="3.45578">
        <ele>281.61</ele>
        <time>2020-07-12T16:48:14Z</time>
      </trkpt>
      <trkpt lat="46.13582" lon="3.45579">
        <ele>281.56</ele>
        <time>2020-07-12T16:48:18Z</time>
      </trkpt>
      <trkpt lat="46.13602" lon="3.45578">
        <ele>281.47</ele>
        <time>2020-07-12T16:48:22Z</time>
      </trkpt>
      <trkpt lat="46.13623" lon="3.4558">
        <ele>281.43</ele>
        <time>2020-07-12T16:48:27Z</time>
      </trkpt>
      <trkpt lat="46.1364" lon="3.45565">
        <ele>281.36</ele>
        <time>2020-07-12T16:48:36Z</time>
      </trkpt>
      <trkpt lat="46.13644" lon="3.45538">
        <ele>281.24</ele>
        <time>2020-07-12T16:48:40Z</time>
      </trkpt>
      <trkpt lat="46.13649" lon="3.4551">
        <ele>281.14</ele>
        <time>2020-07-12T16:48:44Z</time>
      </trkpt>
      <trkpt lat="46.13656" lon="3.45485">
        <ele>281.06</ele>
        <time>2020-07-12T16:48:49Z</time>
      </trkpt>
      <trkpt lat="46.13663" lon="3.45455">
        <ele>281.06</ele>
        <time>2020-07-12T16:48:54Z</time>
      </trkpt>
      <trkpt lat="46.13667" lon="3.45428">
        <ele>281.07</ele>
        <time>2020-07-12T16:48:58Z</time>
      </trkpt>
      <trkpt lat="46.13673" lon="3.45402">
        <ele>281.04</ele>
        <time>2020-07-12T16:49:02Z</time>
      </trkpt>
      <trkpt lat="46.13685" lon="3.45379">
        <ele>280.94</ele>
        <time>2020-07-12T16:49:06Z</time>
      </trkpt>
      <trkpt lat="46.13697" lon="3.45354">
        <ele>280.86</ele>
        <time>2020-07-12T16:49:10Z</time>
      </trkpt>
      <trkpt lat="46.1371" lon="3.45337">
        <ele>280.81</ele>
        <time>2020-07-12T16:49:20Z</time>
      </trkpt>
      <trkpt lat="46.13726" lon="3.45352">
        <ele>280.77</ele>
        <time>2020-07-12T16:49:27Z</time>
      </trkpt>
      <trkpt lat="46.13744" lon="3.45368">
        <ele>280.74</ele>
        <time>2020-07-12T16:49:32Z</time>
      </trkpt>
      <trkpt lat="46.13761" lon="3.45384">
        <ele>280.67</ele>
        <time>2020-07-12T16:49:36Z</time>
      </trkpt>
      <trkpt lat="46.13776" lon="3.45403">
        <ele>280.66</ele>
        <time>2020-07-12T16:49:41Z</time>
      </trkpt>
      <trkpt lat="46.13792" lon="3.45417">
        <ele>280.66</ele>
        <time>2020-07-12T16:49:46Z</time>
      </trkpt>
      <trkpt lat="46.13808" lon="3.45432">
        <ele>280.65</ele>
        <time>2020-07-12T16:49:53Z</time>
      </trkpt>
      <trkpt lat="46.13824" lon="3.45417">
        <ele>280.65</ele>
        <time>2020-07-12T16:50:00Z</time>
      </trkpt>
      <trkpt lat="46.13829" lon="3.4539">
        <ele>280.62</ele>
        <time>2020-07-12T16:50:05Z</time>
      </trkpt>
      <trkpt lat="46.13838" lon="3.45368">
        <ele>280.58</ele>
        <time>2020-07-12T16:50:11Z</time>
      </trkpt>
      <trkpt lat="46.13844" lon="3.45341">
        <ele>280.5</ele>
        <time>2020-07-12T16:50:17Z</time>
      </trkpt>
      <trkpt lat="46.13848" lon="3.45309">
        <ele>280.4</ele>
        <time>2020-07-12T16:50:22Z</time>
      </trkpt>
      <trkpt lat="46.1385" lon="3.45278">
        <ele>280.37</ele>
        <time>2020-07-12T16:50:27Z</time>
      </trkpt>
      <trkpt lat="46.13854" lon="3.45246">
        <ele>280.44</ele>
        <time>2020-07-12T16:50:32Z</time>
      </trkpt>
      <trkpt lat="46.13857" lon="3.45219">
        <ele>280.5</ele>
        <time>2020-07-12T16:50:37Z</time>
      </trkpt>
      <trkpt lat="46.13861" lon="3.45193">
        <ele>280.61</ele>
        <time>2020-07-12T16:50:41Z</time>
      </trkpt>
      <trkpt lat="46.13865" lon="3.45167">
        <ele>280.69</ele>
        <time>2020-07-12T16:50:45Z</time>
      </trkpt>
      <trkpt lat="46.13867" lon="3.45139">
        <ele>280.74</ele>
        <time>2020-07-12T16:50:49Z</time>
      </trkpt>
      <trkpt lat="46.13871" lon="3.45113">
        <ele>280.75</ele>
        <time>2020-07-12T16:50:53Z</time>
      </trkpt>
      <trkpt lat="46.13874" lon="3.45086">
        <ele>280.74</ele>
        <time>2020-07-12T16:50:57Z</time>
      </trkpt>
      <trkpt lat="46.13877" lon="3.45059">
        <ele>280.73</ele>
        <time>2020-07-12T16:51:01Z</time>
      </trkpt>
      <trkpt lat="46.13878" lon="3.4503">
        <ele>280.75</ele>
        <time>2020-07-12T16:51:05Z</time>
      </trkpt>
      <trkpt lat="46.13876" lon="3.45004">
        <ele>280.75</ele>
        <time>2020-07-12T16:51:09Z</time>
      </trkpt>
      <trkpt lat="46.13884" lon="3.44975">
        <ele>280.74</ele>
        <time>2020-07-12T16:51:15Z</time>
      </trkpt>
      <trkpt lat="46.139" lon="3.44965">
        <ele>280.75</ele>
        <time>2020-07-12T16:51:19Z</time>
      </trkpt>
      <trkpt lat="46.13922" lon="3.44964">
        <ele>280.75</ele>
        <time>2020-07-12T16:51:24Z</time>
      </trkpt>
      <trkpt lat="46.13941" lon="3.44965">
        <ele>280.75</ele>
        <time>2020-07-12T16:51:28Z</time>
      </trkpt>
      <trkpt lat="46.13959" lon="3.44968">
        <ele>280.71</ele>
        <time>2020-07-12T16:51:32Z</time>
      </trkpt>
      <trkpt lat="46.13981" lon="3.4497">
        <ele>280.64</ele>
        <time>2020-07-12T16:51:37Z</time>
      </trkpt>
      <trkpt lat="46.13999" lon="3.44971">
        <ele>280.61</ele>
        <time>2020-07-12T16:51:41Z</time>
      </trkpt>
      <trkpt lat="46.14019" lon="3.44965">
        <ele>280.59</ele>
        <time>2020-07-12T16:51:45Z</time>
      </trkpt>
      <trkpt lat="46.14017" lon="3.44992">
        <ele>280.58</ele>
        <time>2020-07-12T16:51:51Z</time>
      </trkpt>
      <trkpt lat="46.14012" lon="3.45019">
        <ele>280.57</ele>
        <time>2020-07-12T16:51:57Z</time>
      </trkpt>
      <trkpt lat="46.14008" lon="3.45047">
        <ele>280.57</ele>
        <time>2020-07-12T16:52:03Z</time>
      </trkpt>
      <trkpt lat="46.14003" lon="3.45076">
        <ele>280.57</ele>
        <time>2020-07-12T16:52:09Z</time>
      </trkpt>
      <trkpt lat="46.14015" lon="3.45096">
        <ele>280.57</ele>
        <time>2020-07-12T16:52:14Z</time>
      </trkpt>
      <trkpt lat="46.14036" lon="3.45104">
        <ele>280.57</ele>
        <time>2020-07-12T16:52:19Z</time>
      </trkpt>
      <trkpt lat="46.14054" lon="3.45108">
        <ele>280.59</ele>
        <time>2020-07-12T16:52:24Z</time>
      </trkpt>
      <trkpt lat="46.14073" lon="3.45111">
        <ele>280.6</ele>
        <time>2020-07-12T16:52:30Z</time>
      </trkpt>
      <trkpt lat="46.14091" lon="3.45116">
        <ele>280.62</ele>
        <time>2020-07-12T16:52:35Z</time>
      </trkpt>
      <trkpt lat="46.14103" lon="3.4514">
        <ele>280.62</ele>
        <time>2020-07-12T16:52:42Z</time>
      </trkpt>
      <trkpt lat="46.14108" lon="3.45165">
        <ele>280.66</ele>
        <time>2020-07-12T16:52:48Z</time>
      </trkpt>
      <trkpt lat="46.14117" lon="3.45192">
        <ele>280.7</ele>
        <time>2020-07-12T16:52:54Z</time>
      </trkpt>
      <trkpt lat="46.14131" lon="3.4521">
        <ele>280.75</ele>
        <time>2020-07-12T16:52:59Z</time>
      </trkpt>
      <trkpt lat="46.14148" lon="3.45226">
        <ele>280.82</ele>
        <time>2020-07-12T16:53:06Z</time>
      </trkpt>
      <trkpt lat="46.14163" lon="3.45245">
        <ele>280.9</ele>
        <time>2020-07-12T16:53:12Z</time>
      </trkpt>
      <trkpt lat="46.14174" lon="3.45266">
        <ele>281.07</ele>
        <time>2020-07-12T16:53:18Z</time>
      </trkpt>
      <trkpt lat="46.14171" lon="3.45294">
        <ele>281.16</ele>
        <time>2020-07-12T16:53:23Z</time>
      </trkpt>
      <trkpt lat="46.1416" lon="3.45318">
        <ele>281.34</ele>
        <time>2020-07-12T16:53:28Z</time>
      </trkpt>
      <trkpt lat="46.14149" lon="3.45343">
        <ele>281.56</ele>
        <time>2020-07-12T16:53:33Z</time>
      </trkpt>
      <trkpt lat="46.14143" lon="3.45372">
        <ele>281.63</ele>
        <time>2020-07-12T16:53:38Z</time>
      </trkpt>
      <trkpt lat="46.14136" lon="3.45398">
        <ele>281.68</ele>
        <time>2020-07-12T16:53:43Z</time>
      </trkpt>
      <trkpt lat="46.14131" lon="3.45427">
        <ele>281.69</ele>
        <time>2020-07-12T16:53:49Z</time>
      </trkpt>
      <trkpt lat="46.14129" lon="3.45453">
        <ele>281.7</ele>
        <time>2020-07-12T16:53:54Z</time>
      </trkpt>
      <trkpt lat="46.14127" lon="3.45481">
        <ele>281.71</ele>
        <time>2020-07-12T16:53:59Z</time>
      </trkpt>
      <trkpt lat="46.14129" lon="3.45509">
        <ele>281.72</ele>
        <time>2020-07-12T16:54:04Z</time>
      </trkpt>
      <trkpt lat="46.14131" lon="3.45538">
        <ele>281.73</ele>
        <time>2020-07-12T16:54:10Z</time>
      </trkpt>
      <trkpt lat="46.14131" lon="3.45564">
        <ele>281.74</ele>
        <time>2020-07-12T16:54:17Z</time>
      </trkpt>
      <trkpt lat="46.14113" lon="3.45575">
        <ele>281.78</ele>
        <time>2020-07-12T16:54:27Z</time>
      </trkpt>
      <trkpt lat="46.14094" lon="3.45575">
        <ele>281.82</ele>
        <time>2020-07-12T16:54:35Z</time>
      </trkpt>
    </trkseg>
  </trk>
</gpx>